<?xml version="1.0" encoding="UTF-8" standalone="no" ?>
<gpx xmlns="http://www.topografix.com/GPX/1/1" xmlns:xsi="http://www.w3.org/2001/XMLSchema-instance" xsi:schemaLocation="http://www.topografix.com/GPX/1/1 http://www.topografix.com/GPX/1/1/gpx.xsd" version="1.1" creator="VisuGPX - https://www.visugpx.com">
  <metadata>
    <name>2017-07-19 Bike ride VTT-Amberieux Les Cheres O</name>
    <desc><![CDATA[2017-07-19 Bike ride VTT-Amberieux Les Cheres O]]></desc>
  </metadata>
  <wpt lat="45.92459" lon="4.73693">
    <ele>174</ele>
    <name><![CDATA[2017-07-19 11:12 (Start)]]></name>
  </wpt>
  <wpt lat="45.92457" lon="4.73708">
    <ele>174</ele>
    <name><![CDATA[2017-07-19 11:12 (End)]]></name>
    <desc><![CDATA[Created by Google My Tracks on Android  Name: 2017-07-19 11:12 Activity type: biking Description: - Total distance: 21.98 km (13.7 mi) Total time: 1:27:31 Moving time: 1:19:24 Average speed: 15.07 km/h (9.4 mi/h) Average moving speed: 16.61 km/h (10.3 mi/h) Max speed: 33.17 km/h (20.6 mi/h) Average pace: 3:59 min/km (6:25 min/mi) Average moving pace: 3:37 min/km (5:49 min/mi) Fastest pace: 1:49 min/km (2:55 min/mi) Max elevation: 219 m (718 ft) Min elevation: 150 m (492 ft) Elevation gain: 492 m (1614 ft) Max grade: 12 % Min grade: -29 % Recorded: 19/07/2017 11:12]]></desc>
  </wpt>
  <trk>
    <name><![CDATA[2017-07-19 11:12]]></name>
    <trkseg>
      <trkpt lat="45.92459" lon="4.73693">
        <ele>174</ele>
        <time>2017-07-19T09:12:17.005Z</time>
      </trkpt>
      <trkpt lat="45.92462" lon="4.73686">
        <ele>174</ele>
        <time>2017-07-19T09:12:51Z</time>
      </trkpt>
      <trkpt lat="45.92446" lon="4.73706">
        <ele>174</ele>
        <time>2017-07-19T09:12:52Z</time>
      </trkpt>
      <trkpt lat="45.9245" lon="4.73716">
        <ele>174</ele>
        <time>2017-07-19T09:13:37Z</time>
      </trkpt>
      <trkpt lat="45.92455" lon="4.73726">
        <ele>174</ele>
        <time>2017-07-19T09:13:38Z</time>
      </trkpt>
      <trkpt lat="45.92459" lon="4.73718">
        <ele>174</ele>
        <time>2017-07-19T09:13:58Z</time>
      </trkpt>
      <trkpt lat="45.92461" lon="4.73716">
        <ele>174</ele>
        <time>2017-07-19T09:13:59Z</time>
      </trkpt>
      <trkpt lat="45.92466" lon="4.73725">
        <ele>174</ele>
        <time>2017-07-19T09:14:07Z</time>
      </trkpt>
      <trkpt lat="45.92466" lon="4.73726">
        <ele>174</ele>
        <time>2017-07-19T09:14:08Z</time>
      </trkpt>
      <trkpt lat="45.92464" lon="4.73738">
        <ele>174</ele>
        <time>2017-07-19T09:14:11Z</time>
      </trkpt>
      <trkpt lat="45.92464" lon="4.73743">
        <ele>174</ele>
        <time>2017-07-19T09:14:12Z</time>
      </trkpt>
      <trkpt lat="45.92464" lon="4.73754">
        <ele>173</ele>
        <time>2017-07-19T09:14:14Z</time>
      </trkpt>
      <trkpt lat="45.92463" lon="4.7376">
        <ele>173</ele>
        <time>2017-07-19T09:14:15Z</time>
      </trkpt>
      <trkpt lat="45.92462" lon="4.73768">
        <ele>173</ele>
        <time>2017-07-19T09:14:16Z</time>
      </trkpt>
      <trkpt lat="45.92462" lon="4.73775">
        <ele>173</ele>
        <time>2017-07-19T09:14:17Z</time>
      </trkpt>
      <trkpt lat="45.92463" lon="4.73782">
        <ele>172</ele>
        <time>2017-07-19T09:14:18Z</time>
      </trkpt>
      <trkpt lat="45.92463" lon="4.73789">
        <ele>172</ele>
        <time>2017-07-19T09:14:19Z</time>
      </trkpt>
      <trkpt lat="45.92464" lon="4.73802">
        <ele>172</ele>
        <time>2017-07-19T09:14:21Z</time>
      </trkpt>
      <trkpt lat="45.92464" lon="4.73807">
        <ele>172</ele>
        <time>2017-07-19T09:14:22Z</time>
      </trkpt>
      <trkpt lat="45.92464" lon="4.73818">
        <ele>172</ele>
        <time>2017-07-19T09:14:24Z</time>
      </trkpt>
      <trkpt lat="45.92463" lon="4.73825">
        <ele>172</ele>
        <time>2017-07-19T09:14:25Z</time>
      </trkpt>
      <trkpt lat="45.92465" lon="4.73836">
        <ele>171</ele>
        <time>2017-07-19T09:14:27Z</time>
      </trkpt>
      <trkpt lat="45.92466" lon="4.73842">
        <ele>171</ele>
        <time>2017-07-19T09:14:28Z</time>
      </trkpt>
      <trkpt lat="45.92466" lon="4.73849">
        <ele>171</ele>
        <time>2017-07-19T09:14:29Z</time>
      </trkpt>
      <trkpt lat="45.92465" lon="4.73857">
        <ele>171</ele>
        <time>2017-07-19T09:14:30Z</time>
      </trkpt>
      <trkpt lat="45.92465" lon="4.73864">
        <ele>171</ele>
        <time>2017-07-19T09:14:31Z</time>
      </trkpt>
      <trkpt lat="45.92465" lon="4.73871">
        <ele>171</ele>
        <time>2017-07-19T09:14:32Z</time>
      </trkpt>
      <trkpt lat="45.92464" lon="4.73879">
        <ele>171</ele>
        <time>2017-07-19T09:14:33Z</time>
      </trkpt>
      <trkpt lat="45.92463" lon="4.73888">
        <ele>171</ele>
        <time>2017-07-19T09:14:34Z</time>
      </trkpt>
      <trkpt lat="45.92462" lon="4.73896">
        <ele>171</ele>
        <time>2017-07-19T09:14:35Z</time>
      </trkpt>
      <trkpt lat="45.92462" lon="4.73905">
        <ele>171</ele>
        <time>2017-07-19T09:14:36Z</time>
      </trkpt>
      <trkpt lat="45.92462" lon="4.73912">
        <ele>171</ele>
        <time>2017-07-19T09:14:37Z</time>
      </trkpt>
      <trkpt lat="45.92462" lon="4.7392">
        <ele>172</ele>
        <time>2017-07-19T09:14:38Z</time>
      </trkpt>
      <trkpt lat="45.92462" lon="4.73927">
        <ele>172</ele>
        <time>2017-07-19T09:14:39Z</time>
      </trkpt>
      <trkpt lat="45.92463" lon="4.73933">
        <ele>172</ele>
        <time>2017-07-19T09:14:40Z</time>
      </trkpt>
      <trkpt lat="45.92464" lon="4.7394">
        <ele>172</ele>
        <time>2017-07-19T09:14:41Z</time>
      </trkpt>
      <trkpt lat="45.92466" lon="4.73946">
        <ele>172</ele>
        <time>2017-07-19T09:14:42Z</time>
      </trkpt>
      <trkpt lat="45.92469" lon="4.73955">
        <ele>172</ele>
        <time>2017-07-19T09:14:44Z</time>
      </trkpt>
      <trkpt lat="45.92472" lon="4.73959">
        <ele>172</ele>
        <time>2017-07-19T09:14:45Z</time>
      </trkpt>
      <trkpt lat="45.9248" lon="4.73958">
        <ele>172</ele>
        <time>2017-07-19T09:14:46Z</time>
      </trkpt>
      <trkpt lat="45.92485" lon="4.7396">
        <ele>172</ele>
        <time>2017-07-19T09:14:47Z</time>
      </trkpt>
      <trkpt lat="45.9249" lon="4.73962">
        <ele>172</ele>
        <time>2017-07-19T09:14:48Z</time>
      </trkpt>
      <trkpt lat="45.92494" lon="4.73965">
        <ele>172</ele>
        <time>2017-07-19T09:14:49Z</time>
      </trkpt>
      <trkpt lat="45.92499" lon="4.73967">
        <ele>172</ele>
        <time>2017-07-19T09:14:50Z</time>
      </trkpt>
      <trkpt lat="45.92504" lon="4.73971">
        <ele>172</ele>
        <time>2017-07-19T09:14:51Z</time>
      </trkpt>
      <trkpt lat="45.92507" lon="4.73975">
        <ele>172</ele>
        <time>2017-07-19T09:14:52Z</time>
      </trkpt>
      <trkpt lat="45.92512" lon="4.73979">
        <ele>172</ele>
        <time>2017-07-19T09:14:53Z</time>
      </trkpt>
      <trkpt lat="45.92517" lon="4.73982">
        <ele>172</ele>
        <time>2017-07-19T09:14:54Z</time>
      </trkpt>
      <trkpt lat="45.92521" lon="4.73986">
        <ele>172</ele>
        <time>2017-07-19T09:14:55Z</time>
      </trkpt>
      <trkpt lat="45.92529" lon="4.73992">
        <ele>172</ele>
        <time>2017-07-19T09:14:57Z</time>
      </trkpt>
      <trkpt lat="45.92533" lon="4.73994">
        <ele>172</ele>
        <time>2017-07-19T09:14:58Z</time>
      </trkpt>
      <trkpt lat="45.92539" lon="4.73996">
        <ele>172</ele>
        <time>2017-07-19T09:14:59Z</time>
      </trkpt>
      <trkpt lat="45.92544" lon="4.74">
        <ele>172</ele>
        <time>2017-07-19T09:15:00Z</time>
      </trkpt>
      <trkpt lat="45.9255" lon="4.74009">
        <ele>172</ele>
        <time>2017-07-19T09:15:02Z</time>
      </trkpt>
      <trkpt lat="45.92553" lon="4.74014">
        <ele>172</ele>
        <time>2017-07-19T09:15:03Z</time>
      </trkpt>
      <trkpt lat="45.92552" lon="4.74027">
        <ele>172</ele>
        <time>2017-07-19T09:15:06Z</time>
      </trkpt>
      <trkpt lat="45.9255" lon="4.74031">
        <ele>172</ele>
        <time>2017-07-19T09:15:07Z</time>
      </trkpt>
      <trkpt lat="45.92546" lon="4.74036">
        <ele>172</ele>
        <time>2017-07-19T09:15:08Z</time>
      </trkpt>
      <trkpt lat="45.92543" lon="4.74041">
        <ele>172</ele>
        <time>2017-07-19T09:15:09Z</time>
      </trkpt>
      <trkpt lat="45.92537" lon="4.7405">
        <ele>172</ele>
        <time>2017-07-19T09:15:11Z</time>
      </trkpt>
      <trkpt lat="45.92534" lon="4.74058">
        <ele>172</ele>
        <time>2017-07-19T09:15:12Z</time>
      </trkpt>
      <trkpt lat="45.92531" lon="4.74063">
        <ele>172</ele>
        <time>2017-07-19T09:15:13Z</time>
      </trkpt>
      <trkpt lat="45.92528" lon="4.74071">
        <ele>172</ele>
        <time>2017-07-19T09:15:14Z</time>
      </trkpt>
      <trkpt lat="45.92526" lon="4.74076">
        <ele>172</ele>
        <time>2017-07-19T09:15:15Z</time>
      </trkpt>
      <trkpt lat="45.92522" lon="4.7408">
        <ele>172</ele>
        <time>2017-07-19T09:15:16Z</time>
      </trkpt>
      <trkpt lat="45.92519" lon="4.74085">
        <ele>172</ele>
        <time>2017-07-19T09:15:17Z</time>
      </trkpt>
      <trkpt lat="45.92516" lon="4.7409">
        <ele>172</ele>
        <time>2017-07-19T09:15:18Z</time>
      </trkpt>
      <trkpt lat="45.92512" lon="4.74101">
        <ele>172</ele>
        <time>2017-07-19T09:15:20Z</time>
      </trkpt>
      <trkpt lat="45.9251" lon="4.74106">
        <ele>172</ele>
        <time>2017-07-19T09:15:21Z</time>
      </trkpt>
      <trkpt lat="45.92504" lon="4.74116">
        <ele>171</ele>
        <time>2017-07-19T09:15:23Z</time>
      </trkpt>
      <trkpt lat="45.92502" lon="4.74121">
        <ele>171</ele>
        <time>2017-07-19T09:15:24Z</time>
      </trkpt>
      <trkpt lat="45.92498" lon="4.74132">
        <ele>171</ele>
        <time>2017-07-19T09:15:26Z</time>
      </trkpt>
      <trkpt lat="45.92496" lon="4.74139">
        <ele>171</ele>
        <time>2017-07-19T09:15:27Z</time>
      </trkpt>
      <trkpt lat="45.92495" lon="4.74147">
        <ele>171</ele>
        <time>2017-07-19T09:15:28Z</time>
      </trkpt>
      <trkpt lat="45.92492" lon="4.74154">
        <ele>171</ele>
        <time>2017-07-19T09:15:29Z</time>
      </trkpt>
      <trkpt lat="45.9249" lon="4.74162">
        <ele>171</ele>
        <time>2017-07-19T09:15:30Z</time>
      </trkpt>
      <trkpt lat="45.92488" lon="4.74169">
        <ele>171</ele>
        <time>2017-07-19T09:15:31Z</time>
      </trkpt>
      <trkpt lat="45.92485" lon="4.74177">
        <ele>171</ele>
        <time>2017-07-19T09:15:32Z</time>
      </trkpt>
      <trkpt lat="45.92482" lon="4.74184">
        <ele>171</ele>
        <time>2017-07-19T09:15:33Z</time>
      </trkpt>
      <trkpt lat="45.9248" lon="4.74192">
        <ele>171</ele>
        <time>2017-07-19T09:15:34Z</time>
      </trkpt>
      <trkpt lat="45.92479" lon="4.74199">
        <ele>171</ele>
        <time>2017-07-19T09:15:35Z</time>
      </trkpt>
      <trkpt lat="45.92477" lon="4.74205">
        <ele>171</ele>
        <time>2017-07-19T09:15:36Z</time>
      </trkpt>
      <trkpt lat="45.92473" lon="4.74211">
        <ele>171</ele>
        <time>2017-07-19T09:15:37Z</time>
      </trkpt>
      <trkpt lat="45.92459" lon="4.74223">
        <ele>171</ele>
        <time>2017-07-19T09:15:38Z</time>
      </trkpt>
      <trkpt lat="45.92455" lon="4.74229">
        <ele>171</ele>
        <time>2017-07-19T09:15:39Z</time>
      </trkpt>
      <trkpt lat="45.92452" lon="4.74235">
        <ele>171</ele>
        <time>2017-07-19T09:15:40Z</time>
      </trkpt>
      <trkpt lat="45.92449" lon="4.74244">
        <ele>171</ele>
        <time>2017-07-19T09:15:41Z</time>
      </trkpt>
      <trkpt lat="45.92447" lon="4.74252">
        <ele>170</ele>
        <time>2017-07-19T09:15:42Z</time>
      </trkpt>
      <trkpt lat="45.92444" lon="4.74258">
        <ele>170</ele>
        <time>2017-07-19T09:15:43Z</time>
      </trkpt>
      <trkpt lat="45.92441" lon="4.74264">
        <ele>170</ele>
        <time>2017-07-19T09:15:44Z</time>
      </trkpt>
      <trkpt lat="45.92438" lon="4.7427">
        <ele>170</ele>
        <time>2017-07-19T09:15:45Z</time>
      </trkpt>
      <trkpt lat="45.92434" lon="4.74277">
        <ele>170</ele>
        <time>2017-07-19T09:15:46Z</time>
      </trkpt>
      <trkpt lat="45.92431" lon="4.74284">
        <ele>170</ele>
        <time>2017-07-19T09:15:47Z</time>
      </trkpt>
      <trkpt lat="45.92428" lon="4.74289">
        <ele>170</ele>
        <time>2017-07-19T09:15:48Z</time>
      </trkpt>
      <trkpt lat="45.92424" lon="4.74295">
        <ele>170</ele>
        <time>2017-07-19T09:15:49Z</time>
      </trkpt>
      <trkpt lat="45.92421" lon="4.743">
        <ele>170</ele>
        <time>2017-07-19T09:15:50Z</time>
      </trkpt>
      <trkpt lat="45.92417" lon="4.74305">
        <ele>170</ele>
        <time>2017-07-19T09:15:51Z</time>
      </trkpt>
      <trkpt lat="45.92414" lon="4.7431">
        <ele>170</ele>
        <time>2017-07-19T09:15:52Z</time>
      </trkpt>
      <trkpt lat="45.92407" lon="4.74316">
        <ele>170</ele>
        <time>2017-07-19T09:15:54Z</time>
      </trkpt>
      <trkpt lat="45.92402" lon="4.74317">
        <ele>170</ele>
        <time>2017-07-19T09:15:55Z</time>
      </trkpt>
      <trkpt lat="45.92398" lon="4.74317">
        <ele>170</ele>
        <time>2017-07-19T09:15:56Z</time>
      </trkpt>
      <trkpt lat="45.92393" lon="4.74316">
        <ele>170</ele>
        <time>2017-07-19T09:15:57Z</time>
      </trkpt>
      <trkpt lat="45.92389" lon="4.74315">
        <ele>170</ele>
        <time>2017-07-19T09:15:58Z</time>
      </trkpt>
      <trkpt lat="45.92384" lon="4.74313">
        <ele>170</ele>
        <time>2017-07-19T09:15:59Z</time>
      </trkpt>
      <trkpt lat="45.9238" lon="4.7431">
        <ele>170</ele>
        <time>2017-07-19T09:16:00Z</time>
      </trkpt>
      <trkpt lat="45.92375" lon="4.74309">
        <ele>170</ele>
        <time>2017-07-19T09:16:01Z</time>
      </trkpt>
      <trkpt lat="45.9237" lon="4.74307">
        <ele>170</ele>
        <time>2017-07-19T09:16:02Z</time>
      </trkpt>
      <trkpt lat="45.92365" lon="4.74305">
        <ele>170</ele>
        <time>2017-07-19T09:16:03Z</time>
      </trkpt>
      <trkpt lat="45.9236" lon="4.74303">
        <ele>170</ele>
        <time>2017-07-19T09:16:04Z</time>
      </trkpt>
      <trkpt lat="45.92355" lon="4.74301">
        <ele>170</ele>
        <time>2017-07-19T09:16:05Z</time>
      </trkpt>
      <trkpt lat="45.9235" lon="4.74301">
        <ele>170</ele>
        <time>2017-07-19T09:16:06Z</time>
      </trkpt>
      <trkpt lat="45.92345" lon="4.74301">
        <ele>170</ele>
        <time>2017-07-19T09:16:07Z</time>
      </trkpt>
      <trkpt lat="45.92339" lon="4.74303">
        <ele>170</ele>
        <time>2017-07-19T09:16:08Z</time>
      </trkpt>
      <trkpt lat="45.92335" lon="4.74305">
        <ele>170</ele>
        <time>2017-07-19T09:16:09Z</time>
      </trkpt>
      <trkpt lat="45.9233" lon="4.74307">
        <ele>170</ele>
        <time>2017-07-19T09:16:10Z</time>
      </trkpt>
      <trkpt lat="45.92326" lon="4.7431">
        <ele>170</ele>
        <time>2017-07-19T09:16:11Z</time>
      </trkpt>
      <trkpt lat="45.92321" lon="4.74313">
        <ele>170</ele>
        <time>2017-07-19T09:16:12Z</time>
      </trkpt>
      <trkpt lat="45.92317" lon="4.74317">
        <ele>170</ele>
        <time>2017-07-19T09:16:13Z</time>
      </trkpt>
      <trkpt lat="45.92313" lon="4.7432">
        <ele>170</ele>
        <time>2017-07-19T09:16:14Z</time>
      </trkpt>
      <trkpt lat="45.92308" lon="4.74324">
        <ele>170</ele>
        <time>2017-07-19T09:16:15Z</time>
      </trkpt>
      <trkpt lat="45.92304" lon="4.74328">
        <ele>170</ele>
        <time>2017-07-19T09:16:16Z</time>
      </trkpt>
      <trkpt lat="45.923" lon="4.74332">
        <ele>170</ele>
        <time>2017-07-19T09:16:17Z</time>
      </trkpt>
      <trkpt lat="45.92295" lon="4.7434">
        <ele>171</ele>
        <time>2017-07-19T09:16:19Z</time>
      </trkpt>
      <trkpt lat="45.92292" lon="4.74345">
        <ele>171</ele>
        <time>2017-07-19T09:16:20Z</time>
      </trkpt>
      <trkpt lat="45.92286" lon="4.74354">
        <ele>171</ele>
        <time>2017-07-19T09:16:22Z</time>
      </trkpt>
      <trkpt lat="45.92283" lon="4.74358">
        <ele>171</ele>
        <time>2017-07-19T09:16:23Z</time>
      </trkpt>
      <trkpt lat="45.9228" lon="4.74363">
        <ele>171</ele>
        <time>2017-07-19T09:16:24Z</time>
      </trkpt>
      <trkpt lat="45.92277" lon="4.74368">
        <ele>171</ele>
        <time>2017-07-19T09:16:25Z</time>
      </trkpt>
      <trkpt lat="45.92274" lon="4.74373">
        <ele>171</ele>
        <time>2017-07-19T09:16:26Z</time>
      </trkpt>
      <trkpt lat="45.92271" lon="4.74379">
        <ele>171</ele>
        <time>2017-07-19T09:16:27Z</time>
      </trkpt>
      <trkpt lat="45.92268" lon="4.74385">
        <ele>171</ele>
        <time>2017-07-19T09:16:28Z</time>
      </trkpt>
      <trkpt lat="45.92266" lon="4.74392">
        <ele>171</ele>
        <time>2017-07-19T09:16:29Z</time>
      </trkpt>
      <trkpt lat="45.92264" lon="4.74398">
        <ele>171</ele>
        <time>2017-07-19T09:16:30Z</time>
      </trkpt>
      <trkpt lat="45.92262" lon="4.74404">
        <ele>171</ele>
        <time>2017-07-19T09:16:31Z</time>
      </trkpt>
      <trkpt lat="45.92257" lon="4.74415">
        <ele>171</ele>
        <time>2017-07-19T09:16:33Z</time>
      </trkpt>
      <trkpt lat="45.92255" lon="4.7442">
        <ele>171</ele>
        <time>2017-07-19T09:16:34Z</time>
      </trkpt>
      <trkpt lat="45.92252" lon="4.7443">
        <ele>171</ele>
        <time>2017-07-19T09:16:36Z</time>
      </trkpt>
      <trkpt lat="45.92251" lon="4.74436">
        <ele>171</ele>
        <time>2017-07-19T09:16:37Z</time>
      </trkpt>
      <trkpt lat="45.92249" lon="4.74447">
        <ele>171</ele>
        <time>2017-07-19T09:16:39Z</time>
      </trkpt>
      <trkpt lat="45.92249" lon="4.74453">
        <ele>171</ele>
        <time>2017-07-19T09:16:40Z</time>
      </trkpt>
      <trkpt lat="45.92253" lon="4.74463">
        <ele>171</ele>
        <time>2017-07-19T09:16:42Z</time>
      </trkpt>
      <trkpt lat="45.92256" lon="4.74466">
        <ele>171</ele>
        <time>2017-07-19T09:16:43Z</time>
      </trkpt>
      <trkpt lat="45.92262" lon="4.74469">
        <ele>171</ele>
        <time>2017-07-19T09:16:45Z</time>
      </trkpt>
      <trkpt lat="45.92266" lon="4.74471">
        <ele>171</ele>
        <time>2017-07-19T09:16:46Z</time>
      </trkpt>
      <trkpt lat="45.92273" lon="4.74477">
        <ele>171</ele>
        <time>2017-07-19T09:16:48Z</time>
      </trkpt>
      <trkpt lat="45.92275" lon="4.74478">
        <ele>171</ele>
        <time>2017-07-19T09:16:49Z</time>
      </trkpt>
      <trkpt lat="45.92279" lon="4.7448">
        <ele>171</ele>
        <time>2017-07-19T09:16:50Z</time>
      </trkpt>
      <trkpt lat="45.92284" lon="4.74483">
        <ele>171</ele>
        <time>2017-07-19T09:16:51Z</time>
      </trkpt>
      <trkpt lat="45.92291" lon="4.74487">
        <ele>171</ele>
        <time>2017-07-19T09:16:53Z</time>
      </trkpt>
      <trkpt lat="45.92295" lon="4.7449">
        <ele>171</ele>
        <time>2017-07-19T09:16:54Z</time>
      </trkpt>
      <trkpt lat="45.923" lon="4.74493">
        <ele>171</ele>
        <time>2017-07-19T09:16:55Z</time>
      </trkpt>
      <trkpt lat="45.92305" lon="4.74497">
        <ele>171</ele>
        <time>2017-07-19T09:16:56Z</time>
      </trkpt>
      <trkpt lat="45.92309" lon="4.745">
        <ele>171</ele>
        <time>2017-07-19T09:16:57Z</time>
      </trkpt>
      <trkpt lat="45.92314" lon="4.74503">
        <ele>171</ele>
        <time>2017-07-19T09:16:58Z</time>
      </trkpt>
      <trkpt lat="45.92319" lon="4.74505">
        <ele>171</ele>
        <time>2017-07-19T09:16:59Z</time>
      </trkpt>
      <trkpt lat="45.92324" lon="4.74507">
        <ele>171</ele>
        <time>2017-07-19T09:17:00Z</time>
      </trkpt>
      <trkpt lat="45.92328" lon="4.74509">
        <ele>171</ele>
        <time>2017-07-19T09:17:01Z</time>
      </trkpt>
      <trkpt lat="45.92332" lon="4.74511">
        <ele>171</ele>
        <time>2017-07-19T09:17:02Z</time>
      </trkpt>
      <trkpt lat="45.92341" lon="4.74515">
        <ele>171</ele>
        <time>2017-07-19T09:17:04Z</time>
      </trkpt>
      <trkpt lat="45.92346" lon="4.74518">
        <ele>171</ele>
        <time>2017-07-19T09:17:05Z</time>
      </trkpt>
      <trkpt lat="45.9235" lon="4.74521">
        <ele>171</ele>
        <time>2017-07-19T09:17:06Z</time>
      </trkpt>
      <trkpt lat="45.92356" lon="4.74524">
        <ele>171</ele>
        <time>2017-07-19T09:17:07Z</time>
      </trkpt>
      <trkpt lat="45.92361" lon="4.74527">
        <ele>171</ele>
        <time>2017-07-19T09:17:08Z</time>
      </trkpt>
      <trkpt lat="45.92366" lon="4.74529">
        <ele>171</ele>
        <time>2017-07-19T09:17:09Z</time>
      </trkpt>
      <trkpt lat="45.92371" lon="4.74532">
        <ele>171</ele>
        <time>2017-07-19T09:17:10Z</time>
      </trkpt>
      <trkpt lat="45.92376" lon="4.74535">
        <ele>170</ele>
        <time>2017-07-19T09:17:11Z</time>
      </trkpt>
      <trkpt lat="45.92381" lon="4.74538">
        <ele>170</ele>
        <time>2017-07-19T09:17:12Z</time>
      </trkpt>
      <trkpt lat="45.92386" lon="4.74541">
        <ele>170</ele>
        <time>2017-07-19T09:17:13Z</time>
      </trkpt>
      <trkpt lat="45.92391" lon="4.74544">
        <ele>171</ele>
        <time>2017-07-19T09:17:14Z</time>
      </trkpt>
      <trkpt lat="45.92394" lon="4.74547">
        <ele>171</ele>
        <time>2017-07-19T09:17:15Z</time>
      </trkpt>
      <trkpt lat="45.92401" lon="4.74554">
        <ele>171</ele>
        <time>2017-07-19T09:17:17Z</time>
      </trkpt>
      <trkpt lat="45.92406" lon="4.74556">
        <ele>171</ele>
        <time>2017-07-19T09:17:18Z</time>
      </trkpt>
      <trkpt lat="45.92413" lon="4.74562">
        <ele>171</ele>
        <time>2017-07-19T09:17:20Z</time>
      </trkpt>
      <trkpt lat="45.92417" lon="4.74565">
        <ele>171</ele>
        <time>2017-07-19T09:17:21Z</time>
      </trkpt>
      <trkpt lat="45.92421" lon="4.74569">
        <ele>171</ele>
        <time>2017-07-19T09:17:22Z</time>
      </trkpt>
      <trkpt lat="45.92425" lon="4.74573">
        <ele>171</ele>
        <time>2017-07-19T09:17:23Z</time>
      </trkpt>
      <trkpt lat="45.92429" lon="4.74578">
        <ele>171</ele>
        <time>2017-07-19T09:17:24Z</time>
      </trkpt>
      <trkpt lat="45.92431" lon="4.74584">
        <ele>171</ele>
        <time>2017-07-19T09:17:25Z</time>
      </trkpt>
      <trkpt lat="45.92434" lon="4.74596">
        <ele>171</ele>
        <time>2017-07-19T09:17:27Z</time>
      </trkpt>
      <trkpt lat="45.92436" lon="4.74601">
        <ele>171</ele>
        <time>2017-07-19T09:17:28Z</time>
      </trkpt>
      <trkpt lat="45.92437" lon="4.74608">
        <ele>171</ele>
        <time>2017-07-19T09:17:29Z</time>
      </trkpt>
      <trkpt lat="45.92438" lon="4.74616">
        <ele>171</ele>
        <time>2017-07-19T09:17:30Z</time>
      </trkpt>
      <trkpt lat="45.92435" lon="4.74623">
        <ele>171</ele>
        <time>2017-07-19T09:17:31Z</time>
      </trkpt>
      <trkpt lat="45.92433" lon="4.74629">
        <ele>171</ele>
        <time>2017-07-19T09:17:32Z</time>
      </trkpt>
      <trkpt lat="45.92429" lon="4.74636">
        <ele>171</ele>
        <time>2017-07-19T09:17:34Z</time>
      </trkpt>
      <trkpt lat="45.92427" lon="4.7464">
        <ele>171</ele>
        <time>2017-07-19T09:17:35Z</time>
      </trkpt>
      <trkpt lat="45.92422" lon="4.74649">
        <ele>171</ele>
        <time>2017-07-19T09:17:37Z</time>
      </trkpt>
      <trkpt lat="45.92419" lon="4.74654">
        <ele>172</ele>
        <time>2017-07-19T09:17:38Z</time>
      </trkpt>
      <trkpt lat="45.92414" lon="4.74663">
        <ele>172</ele>
        <time>2017-07-19T09:17:39Z</time>
      </trkpt>
      <trkpt lat="45.92411" lon="4.74671">
        <ele>172</ele>
        <time>2017-07-19T09:17:40Z</time>
      </trkpt>
      <trkpt lat="45.92408" lon="4.74677">
        <ele>171</ele>
        <time>2017-07-19T09:17:41Z</time>
      </trkpt>
      <trkpt lat="45.92404" lon="4.74683">
        <ele>171</ele>
        <time>2017-07-19T09:17:42Z</time>
      </trkpt>
      <trkpt lat="45.92401" lon="4.7469">
        <ele>171</ele>
        <time>2017-07-19T09:17:43Z</time>
      </trkpt>
      <trkpt lat="45.92398" lon="4.74695">
        <ele>171</ele>
        <time>2017-07-19T09:17:44Z</time>
      </trkpt>
      <trkpt lat="45.92392" lon="4.74705">
        <ele>171</ele>
        <time>2017-07-19T09:17:46Z</time>
      </trkpt>
      <trkpt lat="45.92389" lon="4.7471">
        <ele>171</ele>
        <time>2017-07-19T09:17:47Z</time>
      </trkpt>
      <trkpt lat="45.92386" lon="4.74715">
        <ele>171</ele>
        <time>2017-07-19T09:17:48Z</time>
      </trkpt>
      <trkpt lat="45.92384" lon="4.74721">
        <ele>171</ele>
        <time>2017-07-19T09:17:49Z</time>
      </trkpt>
      <trkpt lat="45.92381" lon="4.74726">
        <ele>171</ele>
        <time>2017-07-19T09:17:50Z</time>
      </trkpt>
      <trkpt lat="45.92378" lon="4.74732">
        <ele>171</ele>
        <time>2017-07-19T09:17:51Z</time>
      </trkpt>
      <trkpt lat="45.92374" lon="4.74742">
        <ele>171</ele>
        <time>2017-07-19T09:17:53Z</time>
      </trkpt>
      <trkpt lat="45.92371" lon="4.74748">
        <ele>171</ele>
        <time>2017-07-19T09:17:54Z</time>
      </trkpt>
      <trkpt lat="45.92368" lon="4.74754">
        <ele>171</ele>
        <time>2017-07-19T09:17:55Z</time>
      </trkpt>
      <trkpt lat="45.92366" lon="4.74759">
        <ele>171</ele>
        <time>2017-07-19T09:17:56Z</time>
      </trkpt>
      <trkpt lat="45.92362" lon="4.74769">
        <ele>171</ele>
        <time>2017-07-19T09:17:58Z</time>
      </trkpt>
      <trkpt lat="45.92359" lon="4.74773">
        <ele>171</ele>
        <time>2017-07-19T09:17:59Z</time>
      </trkpt>
      <trkpt lat="45.92356" lon="4.74783">
        <ele>171</ele>
        <time>2017-07-19T09:18:01Z</time>
      </trkpt>
      <trkpt lat="45.92353" lon="4.74788">
        <ele>171</ele>
        <time>2017-07-19T09:18:02Z</time>
      </trkpt>
      <trkpt lat="45.92348" lon="4.74798">
        <ele>171</ele>
        <time>2017-07-19T09:18:04Z</time>
      </trkpt>
      <trkpt lat="45.92347" lon="4.74803">
        <ele>171</ele>
        <time>2017-07-19T09:18:05Z</time>
      </trkpt>
      <trkpt lat="45.92341" lon="4.74813">
        <ele>171</ele>
        <time>2017-07-19T09:18:07Z</time>
      </trkpt>
      <trkpt lat="45.92338" lon="4.74818">
        <ele>172</ele>
        <time>2017-07-19T09:18:08Z</time>
      </trkpt>
      <trkpt lat="45.92335" lon="4.74823">
        <ele>172</ele>
        <time>2017-07-19T09:18:09Z</time>
      </trkpt>
      <trkpt lat="45.92332" lon="4.74829">
        <ele>172</ele>
        <time>2017-07-19T09:18:10Z</time>
      </trkpt>
      <trkpt lat="45.92327" lon="4.74838">
        <ele>172</ele>
        <time>2017-07-19T09:18:12Z</time>
      </trkpt>
      <trkpt lat="45.92324" lon="4.74843">
        <ele>172</ele>
        <time>2017-07-19T09:18:13Z</time>
      </trkpt>
      <trkpt lat="45.9232" lon="4.74852">
        <ele>172</ele>
        <time>2017-07-19T09:18:15Z</time>
      </trkpt>
      <trkpt lat="45.92318" lon="4.74856">
        <ele>172</ele>
        <time>2017-07-19T09:18:16Z</time>
      </trkpt>
      <trkpt lat="45.92315" lon="4.74865">
        <ele>172</ele>
        <time>2017-07-19T09:18:18Z</time>
      </trkpt>
      <trkpt lat="45.92312" lon="4.74869">
        <ele>172</ele>
        <time>2017-07-19T09:18:19Z</time>
      </trkpt>
      <trkpt lat="45.92306" lon="4.74878">
        <ele>171</ele>
        <time>2017-07-19T09:18:21Z</time>
      </trkpt>
      <trkpt lat="45.92302" lon="4.74884">
        <ele>171</ele>
        <time>2017-07-19T09:18:22Z</time>
      </trkpt>
      <trkpt lat="45.92296" lon="4.74893">
        <ele>171</ele>
        <time>2017-07-19T09:18:24Z</time>
      </trkpt>
      <trkpt lat="45.92293" lon="4.74897">
        <ele>171</ele>
        <time>2017-07-19T09:18:25Z</time>
      </trkpt>
      <trkpt lat="45.92288" lon="4.74902">
        <ele>172</ele>
        <time>2017-07-19T09:18:27Z</time>
      </trkpt>
      <trkpt lat="45.92285" lon="4.74905">
        <ele>172</ele>
        <time>2017-07-19T09:18:28Z</time>
      </trkpt>
      <trkpt lat="45.9228" lon="4.74913">
        <ele>172</ele>
        <time>2017-07-19T09:18:30Z</time>
      </trkpt>
      <trkpt lat="45.92277" lon="4.74918">
        <ele>172</ele>
        <time>2017-07-19T09:18:31Z</time>
      </trkpt>
      <trkpt lat="45.92273" lon="4.7493">
        <ele>172</ele>
        <time>2017-07-19T09:18:33Z</time>
      </trkpt>
      <trkpt lat="45.92271" lon="4.74936">
        <ele>172</ele>
        <time>2017-07-19T09:18:34Z</time>
      </trkpt>
      <trkpt lat="45.92266" lon="4.74947">
        <ele>171</ele>
        <time>2017-07-19T09:18:36Z</time>
      </trkpt>
      <trkpt lat="45.92264" lon="4.74951">
        <ele>171</ele>
        <time>2017-07-19T09:18:37Z</time>
      </trkpt>
      <trkpt lat="45.92258" lon="4.74954">
        <ele>172</ele>
        <time>2017-07-19T09:18:39Z</time>
      </trkpt>
      <trkpt lat="45.92248" lon="4.74957">
        <ele>172</ele>
        <time>2017-07-19T09:18:40Z</time>
      </trkpt>
      <trkpt lat="45.92243" lon="4.74957">
        <ele>172</ele>
        <time>2017-07-19T09:18:41Z</time>
      </trkpt>
      <trkpt lat="45.92238" lon="4.74956">
        <ele>171</ele>
        <time>2017-07-19T09:18:42Z</time>
      </trkpt>
      <trkpt lat="45.92233" lon="4.74955">
        <ele>171</ele>
        <time>2017-07-19T09:18:43Z</time>
      </trkpt>
      <trkpt lat="45.92228" lon="4.74953">
        <ele>171</ele>
        <time>2017-07-19T09:18:44Z</time>
      </trkpt>
      <trkpt lat="45.92224" lon="4.74952">
        <ele>171</ele>
        <time>2017-07-19T09:18:45Z</time>
      </trkpt>
      <trkpt lat="45.92219" lon="4.7495">
        <ele>171</ele>
        <time>2017-07-19T09:18:46Z</time>
      </trkpt>
      <trkpt lat="45.92214" lon="4.74948">
        <ele>171</ele>
        <time>2017-07-19T09:18:47Z</time>
      </trkpt>
      <trkpt lat="45.92209" lon="4.74946">
        <ele>171</ele>
        <time>2017-07-19T09:18:48Z</time>
      </trkpt>
      <trkpt lat="45.92205" lon="4.74946">
        <ele>171</ele>
        <time>2017-07-19T09:18:49Z</time>
      </trkpt>
      <trkpt lat="45.922" lon="4.74943">
        <ele>171</ele>
        <time>2017-07-19T09:18:50Z</time>
      </trkpt>
      <trkpt lat="45.92195" lon="4.74941">
        <ele>171</ele>
        <time>2017-07-19T09:18:51Z</time>
      </trkpt>
      <trkpt lat="45.9219" lon="4.74939">
        <ele>171</ele>
        <time>2017-07-19T09:18:52Z</time>
      </trkpt>
      <trkpt lat="45.92185" lon="4.74936">
        <ele>171</ele>
        <time>2017-07-19T09:18:53Z</time>
      </trkpt>
      <trkpt lat="45.9218" lon="4.74933">
        <ele>171</ele>
        <time>2017-07-19T09:18:54Z</time>
      </trkpt>
      <trkpt lat="45.92176" lon="4.7493">
        <ele>171</ele>
        <time>2017-07-19T09:18:55Z</time>
      </trkpt>
      <trkpt lat="45.92171" lon="4.74928">
        <ele>170</ele>
        <time>2017-07-19T09:18:56Z</time>
      </trkpt>
      <trkpt lat="45.92166" lon="4.74925">
        <ele>170</ele>
        <time>2017-07-19T09:18:57Z</time>
      </trkpt>
      <trkpt lat="45.92162" lon="4.74922">
        <ele>170</ele>
        <time>2017-07-19T09:18:58Z</time>
      </trkpt>
      <trkpt lat="45.92157" lon="4.74919">
        <ele>170</ele>
        <time>2017-07-19T09:18:59Z</time>
      </trkpt>
      <trkpt lat="45.92152" lon="4.74916">
        <ele>170</ele>
        <time>2017-07-19T09:19:00Z</time>
      </trkpt>
      <trkpt lat="45.92147" lon="4.74914">
        <ele>170</ele>
        <time>2017-07-19T09:19:01Z</time>
      </trkpt>
      <trkpt lat="45.92142" lon="4.74911">
        <ele>170</ele>
        <time>2017-07-19T09:19:02Z</time>
      </trkpt>
      <trkpt lat="45.92138" lon="4.74909">
        <ele>170</ele>
        <time>2017-07-19T09:19:03Z</time>
      </trkpt>
      <trkpt lat="45.92133" lon="4.74906">
        <ele>170</ele>
        <time>2017-07-19T09:19:04Z</time>
      </trkpt>
      <trkpt lat="45.92128" lon="4.74904">
        <ele>170</ele>
        <time>2017-07-19T09:19:05Z</time>
      </trkpt>
      <trkpt lat="45.92124" lon="4.74903">
        <ele>170</ele>
        <time>2017-07-19T09:19:06Z</time>
      </trkpt>
      <trkpt lat="45.9212" lon="4.74901">
        <ele>170</ele>
        <time>2017-07-19T09:19:07Z</time>
      </trkpt>
      <trkpt lat="45.92115" lon="4.74899">
        <ele>170</ele>
        <time>2017-07-19T09:19:08Z</time>
      </trkpt>
      <trkpt lat="45.9211" lon="4.74897">
        <ele>170</ele>
        <time>2017-07-19T09:19:09Z</time>
      </trkpt>
      <trkpt lat="45.92105" lon="4.74894">
        <ele>170</ele>
        <time>2017-07-19T09:19:10Z</time>
      </trkpt>
      <trkpt lat="45.921" lon="4.74892">
        <ele>170</ele>
        <time>2017-07-19T09:19:11Z</time>
      </trkpt>
      <trkpt lat="45.92096" lon="4.74889">
        <ele>170</ele>
        <time>2017-07-19T09:19:12Z</time>
      </trkpt>
      <trkpt lat="45.92088" lon="4.74885">
        <ele>170</ele>
        <time>2017-07-19T09:19:14Z</time>
      </trkpt>
      <trkpt lat="45.92085" lon="4.74883">
        <ele>170</ele>
        <time>2017-07-19T09:19:15Z</time>
      </trkpt>
      <trkpt lat="45.92077" lon="4.74879">
        <ele>169</ele>
        <time>2017-07-19T09:19:17Z</time>
      </trkpt>
      <trkpt lat="45.92073" lon="4.74877">
        <ele>169</ele>
        <time>2017-07-19T09:19:18Z</time>
      </trkpt>
      <trkpt lat="45.92069" lon="4.74874">
        <ele>169</ele>
        <time>2017-07-19T09:19:19Z</time>
      </trkpt>
      <trkpt lat="45.92064" lon="4.74871">
        <ele>169</ele>
        <time>2017-07-19T09:19:20Z</time>
      </trkpt>
      <trkpt lat="45.9206" lon="4.74868">
        <ele>169</ele>
        <time>2017-07-19T09:19:21Z</time>
      </trkpt>
      <trkpt lat="45.92055" lon="4.74866">
        <ele>169</ele>
        <time>2017-07-19T09:19:22Z</time>
      </trkpt>
      <trkpt lat="45.92051" lon="4.74863">
        <ele>169</ele>
        <time>2017-07-19T09:19:23Z</time>
      </trkpt>
      <trkpt lat="45.92047" lon="4.7486">
        <ele>169</ele>
        <time>2017-07-19T09:19:24Z</time>
      </trkpt>
      <trkpt lat="45.92042" lon="4.74858">
        <ele>169</ele>
        <time>2017-07-19T09:19:25Z</time>
      </trkpt>
      <trkpt lat="45.92038" lon="4.74855">
        <ele>169</ele>
        <time>2017-07-19T09:19:26Z</time>
      </trkpt>
      <trkpt lat="45.92033" lon="4.74852">
        <ele>169</ele>
        <time>2017-07-19T09:19:27Z</time>
      </trkpt>
      <trkpt lat="45.92028" lon="4.7485">
        <ele>169</ele>
        <time>2017-07-19T09:19:28Z</time>
      </trkpt>
      <trkpt lat="45.92023" lon="4.74848">
        <ele>169</ele>
        <time>2017-07-19T09:19:29Z</time>
      </trkpt>
      <trkpt lat="45.92018" lon="4.74845">
        <ele>169</ele>
        <time>2017-07-19T09:19:30Z</time>
      </trkpt>
      <trkpt lat="45.92014" lon="4.74843">
        <ele>168</ele>
        <time>2017-07-19T09:19:31Z</time>
      </trkpt>
      <trkpt lat="45.9201" lon="4.74841">
        <ele>168</ele>
        <time>2017-07-19T09:19:32Z</time>
      </trkpt>
      <trkpt lat="45.92002" lon="4.74837">
        <ele>168</ele>
        <time>2017-07-19T09:19:34Z</time>
      </trkpt>
      <trkpt lat="45.91999" lon="4.74835">
        <ele>168</ele>
        <time>2017-07-19T09:19:35Z</time>
      </trkpt>
      <trkpt lat="45.91991" lon="4.74831">
        <ele>169</ele>
        <time>2017-07-19T09:19:37Z</time>
      </trkpt>
      <trkpt lat="45.91986" lon="4.74829">
        <ele>169</ele>
        <time>2017-07-19T09:19:38Z</time>
      </trkpt>
      <trkpt lat="45.91982" lon="4.74826">
        <ele>169</ele>
        <time>2017-07-19T09:19:39Z</time>
      </trkpt>
      <trkpt lat="45.91977" lon="4.74823">
        <ele>169</ele>
        <time>2017-07-19T09:19:40Z</time>
      </trkpt>
      <trkpt lat="45.91973" lon="4.74821">
        <ele>169</ele>
        <time>2017-07-19T09:19:41Z</time>
      </trkpt>
      <trkpt lat="45.91969" lon="4.74818">
        <ele>170</ele>
        <time>2017-07-19T09:19:42Z</time>
      </trkpt>
      <trkpt lat="45.91965" lon="4.74816">
        <ele>170</ele>
        <time>2017-07-19T09:19:43Z</time>
      </trkpt>
      <trkpt lat="45.9196" lon="4.74813">
        <ele>170</ele>
        <time>2017-07-19T09:19:44Z</time>
      </trkpt>
      <trkpt lat="45.91956" lon="4.74811">
        <ele>170</ele>
        <time>2017-07-19T09:19:45Z</time>
      </trkpt>
      <trkpt lat="45.91951" lon="4.74809">
        <ele>170</ele>
        <time>2017-07-19T09:19:46Z</time>
      </trkpt>
      <trkpt lat="45.91946" lon="4.74806">
        <ele>170</ele>
        <time>2017-07-19T09:19:47Z</time>
      </trkpt>
      <trkpt lat="45.91942" lon="4.74803">
        <ele>170</ele>
        <time>2017-07-19T09:19:48Z</time>
      </trkpt>
      <trkpt lat="45.91937" lon="4.74801">
        <ele>170</ele>
        <time>2017-07-19T09:19:49Z</time>
      </trkpt>
      <trkpt lat="45.91933" lon="4.74798">
        <ele>170</ele>
        <time>2017-07-19T09:19:50Z</time>
      </trkpt>
      <trkpt lat="45.91925" lon="4.74792">
        <ele>171</ele>
        <time>2017-07-19T09:19:52Z</time>
      </trkpt>
      <trkpt lat="45.9192" lon="4.7479">
        <ele>171</ele>
        <time>2017-07-19T09:19:53Z</time>
      </trkpt>
      <trkpt lat="45.91915" lon="4.74786">
        <ele>172</ele>
        <time>2017-07-19T09:19:54Z</time>
      </trkpt>
      <trkpt lat="45.9191" lon="4.74783">
        <ele>172</ele>
        <time>2017-07-19T09:19:55Z</time>
      </trkpt>
      <trkpt lat="45.91905" lon="4.7478">
        <ele>172</ele>
        <time>2017-07-19T09:19:56Z</time>
      </trkpt>
      <trkpt lat="45.91901" lon="4.74778">
        <ele>172</ele>
        <time>2017-07-19T09:19:57Z</time>
      </trkpt>
      <trkpt lat="45.91896" lon="4.74776">
        <ele>172</ele>
        <time>2017-07-19T09:19:58Z</time>
      </trkpt>
      <trkpt lat="45.91891" lon="4.74773">
        <ele>172</ele>
        <time>2017-07-19T09:19:59Z</time>
      </trkpt>
      <trkpt lat="45.91887" lon="4.74771">
        <ele>172</ele>
        <time>2017-07-19T09:20:00Z</time>
      </trkpt>
      <trkpt lat="45.91883" lon="4.74768">
        <ele>172</ele>
        <time>2017-07-19T09:20:01Z</time>
      </trkpt>
      <trkpt lat="45.91878" lon="4.74765">
        <ele>172</ele>
        <time>2017-07-19T09:20:02Z</time>
      </trkpt>
      <trkpt lat="45.91874" lon="4.74763">
        <ele>171</ele>
        <time>2017-07-19T09:20:03Z</time>
      </trkpt>
      <trkpt lat="45.91865" lon="4.74763">
        <ele>171</ele>
        <time>2017-07-19T09:20:05Z</time>
      </trkpt>
      <trkpt lat="45.91861" lon="4.74765">
        <ele>171</ele>
        <time>2017-07-19T09:20:06Z</time>
      </trkpt>
      <trkpt lat="45.91854" lon="4.74772">
        <ele>171</ele>
        <time>2017-07-19T09:20:08Z</time>
      </trkpt>
      <trkpt lat="45.9185" lon="4.74776">
        <ele>171</ele>
        <time>2017-07-19T09:20:09Z</time>
      </trkpt>
      <trkpt lat="45.91843" lon="4.74784">
        <ele>171</ele>
        <time>2017-07-19T09:20:11Z</time>
      </trkpt>
      <trkpt lat="45.91839" lon="4.74789">
        <ele>171</ele>
        <time>2017-07-19T09:20:12Z</time>
      </trkpt>
      <trkpt lat="45.91836" lon="4.74795">
        <ele>172</ele>
        <time>2017-07-19T09:20:13Z</time>
      </trkpt>
      <trkpt lat="45.91834" lon="4.74799">
        <ele>172</ele>
        <time>2017-07-19T09:20:14Z</time>
      </trkpt>
      <trkpt lat="45.91828" lon="4.74808">
        <ele>172</ele>
        <time>2017-07-19T09:20:16Z</time>
      </trkpt>
      <trkpt lat="45.91826" lon="4.74812">
        <ele>172</ele>
        <time>2017-07-19T09:20:17Z</time>
      </trkpt>
      <trkpt lat="45.91822" lon="4.74819">
        <ele>172</ele>
        <time>2017-07-19T09:20:19Z</time>
      </trkpt>
      <trkpt lat="45.9182" lon="4.74823">
        <ele>172</ele>
        <time>2017-07-19T09:20:20Z</time>
      </trkpt>
      <trkpt lat="45.91814" lon="4.74832">
        <ele>172</ele>
        <time>2017-07-19T09:20:22Z</time>
      </trkpt>
      <trkpt lat="45.91809" lon="4.74837">
        <ele>172</ele>
        <time>2017-07-19T09:20:23Z</time>
      </trkpt>
      <trkpt lat="45.91804" lon="4.74848">
        <ele>173</ele>
        <time>2017-07-19T09:20:25Z</time>
      </trkpt>
      <trkpt lat="45.91802" lon="4.74853">
        <ele>173</ele>
        <time>2017-07-19T09:20:26Z</time>
      </trkpt>
      <trkpt lat="45.91799" lon="4.74859">
        <ele>173</ele>
        <time>2017-07-19T09:20:27Z</time>
      </trkpt>
      <trkpt lat="45.91796" lon="4.74865">
        <ele>173</ele>
        <time>2017-07-19T09:20:28Z</time>
      </trkpt>
      <trkpt lat="45.91794" lon="4.74871">
        <ele>173</ele>
        <time>2017-07-19T09:20:29Z</time>
      </trkpt>
      <trkpt lat="45.91791" lon="4.74878">
        <ele>173</ele>
        <time>2017-07-19T09:20:30Z</time>
      </trkpt>
      <trkpt lat="45.91788" lon="4.74884">
        <ele>173</ele>
        <time>2017-07-19T09:20:31Z</time>
      </trkpt>
      <trkpt lat="45.91785" lon="4.7489">
        <ele>173</ele>
        <time>2017-07-19T09:20:32Z</time>
      </trkpt>
      <trkpt lat="45.9178" lon="4.749">
        <ele>173</ele>
        <time>2017-07-19T09:20:34Z</time>
      </trkpt>
      <trkpt lat="45.91778" lon="4.74905">
        <ele>173</ele>
        <time>2017-07-19T09:20:35Z</time>
      </trkpt>
      <trkpt lat="45.91774" lon="4.74913">
        <ele>173</ele>
        <time>2017-07-19T09:20:37Z</time>
      </trkpt>
      <trkpt lat="45.91771" lon="4.74917">
        <ele>173</ele>
        <time>2017-07-19T09:20:38Z</time>
      </trkpt>
      <trkpt lat="45.91767" lon="4.74925">
        <ele>174</ele>
        <time>2017-07-19T09:20:40Z</time>
      </trkpt>
      <trkpt lat="45.91764" lon="4.74929">
        <ele>174</ele>
        <time>2017-07-19T09:20:41Z</time>
      </trkpt>
      <trkpt lat="45.91758" lon="4.74936">
        <ele>174</ele>
        <time>2017-07-19T09:20:43Z</time>
      </trkpt>
      <trkpt lat="45.91756" lon="4.7494">
        <ele>174</ele>
        <time>2017-07-19T09:20:44Z</time>
      </trkpt>
      <trkpt lat="45.9175" lon="4.74947">
        <ele>174</ele>
        <time>2017-07-19T09:20:46Z</time>
      </trkpt>
      <trkpt lat="45.91747" lon="4.7495">
        <ele>174</ele>
        <time>2017-07-19T09:20:47Z</time>
      </trkpt>
      <trkpt lat="45.91741" lon="4.74956">
        <ele>175</ele>
        <time>2017-07-19T09:20:49Z</time>
      </trkpt>
      <trkpt lat="45.91739" lon="4.7496">
        <ele>175</ele>
        <time>2017-07-19T09:20:50Z</time>
      </trkpt>
      <trkpt lat="45.91733" lon="4.74966">
        <ele>175</ele>
        <time>2017-07-19T09:20:52Z</time>
      </trkpt>
      <trkpt lat="45.9173" lon="4.74969">
        <ele>175</ele>
        <time>2017-07-19T09:20:53Z</time>
      </trkpt>
      <trkpt lat="45.91725" lon="4.74974">
        <ele>175</ele>
        <time>2017-07-19T09:20:55Z</time>
      </trkpt>
      <trkpt lat="45.91722" lon="4.74976">
        <ele>175</ele>
        <time>2017-07-19T09:20:56Z</time>
      </trkpt>
      <trkpt lat="45.91715" lon="4.74983">
        <ele>175</ele>
        <time>2017-07-19T09:20:59Z</time>
      </trkpt>
      <trkpt lat="45.91712" lon="4.74985">
        <ele>175</ele>
        <time>2017-07-19T09:21:00Z</time>
      </trkpt>
      <trkpt lat="45.91706" lon="4.74988">
        <ele>175</ele>
        <time>2017-07-19T09:21:02Z</time>
      </trkpt>
      <trkpt lat="45.91702" lon="4.74989">
        <ele>175</ele>
        <time>2017-07-19T09:21:03Z</time>
      </trkpt>
      <trkpt lat="45.91695" lon="4.7499">
        <ele>175</ele>
        <time>2017-07-19T09:21:05Z</time>
      </trkpt>
      <trkpt lat="45.91691" lon="4.74989">
        <ele>175</ele>
        <time>2017-07-19T09:21:06Z</time>
      </trkpt>
      <trkpt lat="45.91684" lon="4.74986">
        <ele>175</ele>
        <time>2017-07-19T09:21:08Z</time>
      </trkpt>
      <trkpt lat="45.91681" lon="4.74984">
        <ele>175</ele>
        <time>2017-07-19T09:21:09Z</time>
      </trkpt>
      <trkpt lat="45.91675" lon="4.74981">
        <ele>175</ele>
        <time>2017-07-19T09:21:11Z</time>
      </trkpt>
      <trkpt lat="45.91672" lon="4.74979">
        <ele>175</ele>
        <time>2017-07-19T09:21:12Z</time>
      </trkpt>
      <trkpt lat="45.91664" lon="4.74975">
        <ele>176</ele>
        <time>2017-07-19T09:21:14Z</time>
      </trkpt>
      <trkpt lat="45.9166" lon="4.74974">
        <ele>176</ele>
        <time>2017-07-19T09:21:15Z</time>
      </trkpt>
      <trkpt lat="45.91656" lon="4.74972">
        <ele>176</ele>
        <time>2017-07-19T09:21:16Z</time>
      </trkpt>
      <trkpt lat="45.91651" lon="4.7497">
        <ele>176</ele>
        <time>2017-07-19T09:21:17Z</time>
      </trkpt>
      <trkpt lat="45.91643" lon="4.74965">
        <ele>176</ele>
        <time>2017-07-19T09:21:19Z</time>
      </trkpt>
      <trkpt lat="45.91639" lon="4.74962">
        <ele>176</ele>
        <time>2017-07-19T09:21:20Z</time>
      </trkpt>
      <trkpt lat="45.91634" lon="4.7496">
        <ele>176</ele>
        <time>2017-07-19T09:21:21Z</time>
      </trkpt>
      <trkpt lat="45.9163" lon="4.74958">
        <ele>176</ele>
        <time>2017-07-19T09:21:22Z</time>
      </trkpt>
      <trkpt lat="45.91626" lon="4.74956">
        <ele>176</ele>
        <time>2017-07-19T09:21:23Z</time>
      </trkpt>
      <trkpt lat="45.91621" lon="4.74954">
        <ele>177</ele>
        <time>2017-07-19T09:21:24Z</time>
      </trkpt>
      <trkpt lat="45.91612" lon="4.74952">
        <ele>177</ele>
        <time>2017-07-19T09:21:26Z</time>
      </trkpt>
      <trkpt lat="45.91609" lon="4.74952">
        <ele>177</ele>
        <time>2017-07-19T09:21:27Z</time>
      </trkpt>
      <trkpt lat="45.91602" lon="4.74949">
        <ele>177</ele>
        <time>2017-07-19T09:21:29Z</time>
      </trkpt>
      <trkpt lat="45.91598" lon="4.74948">
        <ele>177</ele>
        <time>2017-07-19T09:21:30Z</time>
      </trkpt>
      <trkpt lat="45.91591" lon="4.74946">
        <ele>177</ele>
        <time>2017-07-19T09:21:32Z</time>
      </trkpt>
      <trkpt lat="45.91587" lon="4.74945">
        <ele>177</ele>
        <time>2017-07-19T09:21:33Z</time>
      </trkpt>
      <trkpt lat="45.91579" lon="4.74943">
        <ele>178</ele>
        <time>2017-07-19T09:21:35Z</time>
      </trkpt>
      <trkpt lat="45.91575" lon="4.74942">
        <ele>178</ele>
        <time>2017-07-19T09:21:36Z</time>
      </trkpt>
      <trkpt lat="45.91567" lon="4.74942">
        <ele>178</ele>
        <time>2017-07-19T09:21:38Z</time>
      </trkpt>
      <trkpt lat="45.91561" lon="4.74942">
        <ele>178</ele>
        <time>2017-07-19T09:21:39Z</time>
      </trkpt>
      <trkpt lat="45.91557" lon="4.74942">
        <ele>178</ele>
        <time>2017-07-19T09:21:40Z</time>
      </trkpt>
      <trkpt lat="45.91552" lon="4.74941">
        <ele>178</ele>
        <time>2017-07-19T09:21:41Z</time>
      </trkpt>
      <trkpt lat="45.91547" lon="4.7494">
        <ele>178</ele>
        <time>2017-07-19T09:21:42Z</time>
      </trkpt>
      <trkpt lat="45.91543" lon="4.7494">
        <ele>178</ele>
        <time>2017-07-19T09:21:43Z</time>
      </trkpt>
      <trkpt lat="45.91535" lon="4.74939">
        <ele>178</ele>
        <time>2017-07-19T09:21:45Z</time>
      </trkpt>
      <trkpt lat="45.9153" lon="4.74939">
        <ele>178</ele>
        <time>2017-07-19T09:21:46Z</time>
      </trkpt>
      <trkpt lat="45.91521" lon="4.74938">
        <ele>178</ele>
        <time>2017-07-19T09:21:48Z</time>
      </trkpt>
      <trkpt lat="45.91517" lon="4.74939">
        <ele>177</ele>
        <time>2017-07-19T09:21:49Z</time>
      </trkpt>
      <trkpt lat="45.91508" lon="4.74937">
        <ele>177</ele>
        <time>2017-07-19T09:21:51Z</time>
      </trkpt>
      <trkpt lat="45.91503" lon="4.74934">
        <ele>177</ele>
        <time>2017-07-19T09:21:52Z</time>
      </trkpt>
      <trkpt lat="45.91498" lon="4.74928">
        <ele>177</ele>
        <time>2017-07-19T09:21:53Z</time>
      </trkpt>
      <trkpt lat="45.91494" lon="4.74926">
        <ele>177</ele>
        <time>2017-07-19T09:21:54Z</time>
      </trkpt>
      <trkpt lat="45.91486" lon="4.74924">
        <ele>178</ele>
        <time>2017-07-19T09:21:56Z</time>
      </trkpt>
      <trkpt lat="45.91482" lon="4.74927">
        <ele>178</ele>
        <time>2017-07-19T09:21:57Z</time>
      </trkpt>
      <trkpt lat="45.91476" lon="4.74929">
        <ele>178</ele>
        <time>2017-07-19T09:21:58Z</time>
      </trkpt>
      <trkpt lat="45.91471" lon="4.74928">
        <ele>178</ele>
        <time>2017-07-19T09:21:59Z</time>
      </trkpt>
      <trkpt lat="45.91466" lon="4.74928">
        <ele>178</ele>
        <time>2017-07-19T09:22:00Z</time>
      </trkpt>
      <trkpt lat="45.91461" lon="4.74927">
        <ele>178</ele>
        <time>2017-07-19T09:22:01Z</time>
      </trkpt>
      <trkpt lat="45.91457" lon="4.74928">
        <ele>178</ele>
        <time>2017-07-19T09:22:02Z</time>
      </trkpt>
      <trkpt lat="45.91452" lon="4.74927">
        <ele>178</ele>
        <time>2017-07-19T09:22:03Z</time>
      </trkpt>
      <trkpt lat="45.91447" lon="4.74925">
        <ele>178</ele>
        <time>2017-07-19T09:22:04Z</time>
      </trkpt>
      <trkpt lat="45.91442" lon="4.74924">
        <ele>178</ele>
        <time>2017-07-19T09:22:05Z</time>
      </trkpt>
      <trkpt lat="45.91437" lon="4.74922">
        <ele>178</ele>
        <time>2017-07-19T09:22:06Z</time>
      </trkpt>
      <trkpt lat="45.91433" lon="4.7492">
        <ele>178</ele>
        <time>2017-07-19T09:22:07Z</time>
      </trkpt>
      <trkpt lat="45.91424" lon="4.74915">
        <ele>178</ele>
        <time>2017-07-19T09:22:09Z</time>
      </trkpt>
      <trkpt lat="45.91421" lon="4.74914">
        <ele>178</ele>
        <time>2017-07-19T09:22:10Z</time>
      </trkpt>
      <trkpt lat="45.91416" lon="4.74913">
        <ele>178</ele>
        <time>2017-07-19T09:22:11Z</time>
      </trkpt>
      <trkpt lat="45.91411" lon="4.74913">
        <ele>178</ele>
        <time>2017-07-19T09:22:12Z</time>
      </trkpt>
      <trkpt lat="45.91407" lon="4.74911">
        <ele>177</ele>
        <time>2017-07-19T09:22:13Z</time>
      </trkpt>
      <trkpt lat="45.91401" lon="4.74908">
        <ele>177</ele>
        <time>2017-07-19T09:22:14Z</time>
      </trkpt>
      <trkpt lat="45.91396" lon="4.74905">
        <ele>177</ele>
        <time>2017-07-19T09:22:15Z</time>
      </trkpt>
      <trkpt lat="45.91391" lon="4.74902">
        <ele>177</ele>
        <time>2017-07-19T09:22:16Z</time>
      </trkpt>
      <trkpt lat="45.91383" lon="4.74898">
        <ele>177</ele>
        <time>2017-07-19T09:22:18Z</time>
      </trkpt>
      <trkpt lat="45.91379" lon="4.74897">
        <ele>177</ele>
        <time>2017-07-19T09:22:19Z</time>
      </trkpt>
      <trkpt lat="45.91375" lon="4.74896">
        <ele>177</ele>
        <time>2017-07-19T09:22:20Z</time>
      </trkpt>
      <trkpt lat="45.9137" lon="4.74897">
        <ele>177</ele>
        <time>2017-07-19T09:22:21Z</time>
      </trkpt>
      <trkpt lat="45.91366" lon="4.74895">
        <ele>176</ele>
        <time>2017-07-19T09:22:22Z</time>
      </trkpt>
      <trkpt lat="45.91361" lon="4.74893">
        <ele>176</ele>
        <time>2017-07-19T09:22:23Z</time>
      </trkpt>
      <trkpt lat="45.91357" lon="4.74892">
        <ele>176</ele>
        <time>2017-07-19T09:22:24Z</time>
      </trkpt>
      <trkpt lat="45.91352" lon="4.7489">
        <ele>176</ele>
        <time>2017-07-19T09:22:25Z</time>
      </trkpt>
      <trkpt lat="45.91344" lon="4.74887">
        <ele>176</ele>
        <time>2017-07-19T09:22:27Z</time>
      </trkpt>
      <trkpt lat="45.91341" lon="4.74885">
        <ele>176</ele>
        <time>2017-07-19T09:22:28Z</time>
      </trkpt>
      <trkpt lat="45.91334" lon="4.74882">
        <ele>176</ele>
        <time>2017-07-19T09:22:30Z</time>
      </trkpt>
      <trkpt lat="45.91331" lon="4.74881">
        <ele>176</ele>
        <time>2017-07-19T09:22:31Z</time>
      </trkpt>
      <trkpt lat="45.91324" lon="4.7488">
        <ele>176</ele>
        <time>2017-07-19T09:22:34Z</time>
      </trkpt>
      <trkpt lat="45.91321" lon="4.74881">
        <ele>176</ele>
        <time>2017-07-19T09:22:35Z</time>
      </trkpt>
      <trkpt lat="45.91315" lon="4.7489">
        <ele>176</ele>
        <time>2017-07-19T09:22:38Z</time>
      </trkpt>
      <trkpt lat="45.91315" lon="4.74894">
        <ele>176</ele>
        <time>2017-07-19T09:22:39Z</time>
      </trkpt>
      <trkpt lat="45.91314" lon="4.74904">
        <ele>176</ele>
        <time>2017-07-19T09:22:41Z</time>
      </trkpt>
      <trkpt lat="45.91313" lon="4.7491">
        <ele>176</ele>
        <time>2017-07-19T09:22:42Z</time>
      </trkpt>
      <trkpt lat="45.91312" lon="4.7492">
        <ele>177</ele>
        <time>2017-07-19T09:22:44Z</time>
      </trkpt>
      <trkpt lat="45.91311" lon="4.74926">
        <ele>177</ele>
        <time>2017-07-19T09:22:45Z</time>
      </trkpt>
      <trkpt lat="45.91311" lon="4.74933">
        <ele>177</ele>
        <time>2017-07-19T09:22:46Z</time>
      </trkpt>
      <trkpt lat="45.91309" lon="4.7494">
        <ele>177</ele>
        <time>2017-07-19T09:22:47Z</time>
      </trkpt>
      <trkpt lat="45.91308" lon="4.74946">
        <ele>177</ele>
        <time>2017-07-19T09:22:48Z</time>
      </trkpt>
      <trkpt lat="45.91309" lon="4.74953">
        <ele>177</ele>
        <time>2017-07-19T09:22:49Z</time>
      </trkpt>
      <trkpt lat="45.91308" lon="4.74959">
        <ele>177</ele>
        <time>2017-07-19T09:22:50Z</time>
      </trkpt>
      <trkpt lat="45.91308" lon="4.74966">
        <ele>177</ele>
        <time>2017-07-19T09:22:51Z</time>
      </trkpt>
      <trkpt lat="45.91307" lon="4.74977">
        <ele>177</ele>
        <time>2017-07-19T09:22:53Z</time>
      </trkpt>
      <trkpt lat="45.91306" lon="4.74982">
        <ele>177</ele>
        <time>2017-07-19T09:22:54Z</time>
      </trkpt>
      <trkpt lat="45.91305" lon="4.74988">
        <ele>177</ele>
        <time>2017-07-19T09:22:55Z</time>
      </trkpt>
      <trkpt lat="45.91305" lon="4.74995">
        <ele>177</ele>
        <time>2017-07-19T09:22:56Z</time>
      </trkpt>
      <trkpt lat="45.91304" lon="4.75002">
        <ele>177</ele>
        <time>2017-07-19T09:22:57Z</time>
      </trkpt>
      <trkpt lat="45.91303" lon="4.75009">
        <ele>177</ele>
        <time>2017-07-19T09:22:58Z</time>
      </trkpt>
      <trkpt lat="45.91302" lon="4.75015">
        <ele>177</ele>
        <time>2017-07-19T09:22:59Z</time>
      </trkpt>
      <trkpt lat="45.91301" lon="4.75022">
        <ele>177</ele>
        <time>2017-07-19T09:23:00Z</time>
      </trkpt>
      <trkpt lat="45.91301" lon="4.75034">
        <ele>177</ele>
        <time>2017-07-19T09:23:02Z</time>
      </trkpt>
      <trkpt lat="45.913" lon="4.75041">
        <ele>177</ele>
        <time>2017-07-19T09:23:03Z</time>
      </trkpt>
      <trkpt lat="45.91301" lon="4.75049">
        <ele>177</ele>
        <time>2017-07-19T09:23:04Z</time>
      </trkpt>
      <trkpt lat="45.91302" lon="4.75056">
        <ele>177</ele>
        <time>2017-07-19T09:23:05Z</time>
      </trkpt>
      <trkpt lat="45.91302" lon="4.75063">
        <ele>177</ele>
        <time>2017-07-19T09:23:06Z</time>
      </trkpt>
      <trkpt lat="45.91303" lon="4.7507">
        <ele>177</ele>
        <time>2017-07-19T09:23:07Z</time>
      </trkpt>
      <trkpt lat="45.91304" lon="4.75077">
        <ele>177</ele>
        <time>2017-07-19T09:23:08Z</time>
      </trkpt>
      <trkpt lat="45.91305" lon="4.75084">
        <ele>177</ele>
        <time>2017-07-19T09:23:09Z</time>
      </trkpt>
      <trkpt lat="45.91305" lon="4.75097">
        <ele>177</ele>
        <time>2017-07-19T09:23:11Z</time>
      </trkpt>
      <trkpt lat="45.91304" lon="4.75102">
        <ele>177</ele>
        <time>2017-07-19T09:23:12Z</time>
      </trkpt>
      <trkpt lat="45.91304" lon="4.75114">
        <ele>177</ele>
        <time>2017-07-19T09:23:14Z</time>
      </trkpt>
      <trkpt lat="45.91305" lon="4.7512">
        <ele>177</ele>
        <time>2017-07-19T09:23:15Z</time>
      </trkpt>
      <trkpt lat="45.91307" lon="4.7513">
        <ele>177</ele>
        <time>2017-07-19T09:23:17Z</time>
      </trkpt>
      <trkpt lat="45.91308" lon="4.75135">
        <ele>177</ele>
        <time>2017-07-19T09:23:18Z</time>
      </trkpt>
      <trkpt lat="45.91309" lon="4.75145">
        <ele>177</ele>
        <time>2017-07-19T09:23:20Z</time>
      </trkpt>
      <trkpt lat="45.91306" lon="4.75148">
        <ele>177</ele>
        <time>2017-07-19T09:23:21Z</time>
      </trkpt>
      <trkpt lat="45.91298" lon="4.75146">
        <ele>177</ele>
        <time>2017-07-19T09:23:24Z</time>
      </trkpt>
      <trkpt lat="45.91294" lon="4.75146">
        <ele>177</ele>
        <time>2017-07-19T09:23:25Z</time>
      </trkpt>
      <trkpt lat="45.91286" lon="4.75143">
        <ele>177</ele>
        <time>2017-07-19T09:23:27Z</time>
      </trkpt>
      <trkpt lat="45.91283" lon="4.75143">
        <ele>177</ele>
        <time>2017-07-19T09:23:28Z</time>
      </trkpt>
      <trkpt lat="45.91279" lon="4.75141">
        <ele>177</ele>
        <time>2017-07-19T09:23:29Z</time>
      </trkpt>
      <trkpt lat="45.91274" lon="4.7514">
        <ele>177</ele>
        <time>2017-07-19T09:23:30Z</time>
      </trkpt>
      <trkpt lat="45.9127" lon="4.75139">
        <ele>177</ele>
        <time>2017-07-19T09:23:31Z</time>
      </trkpt>
      <trkpt lat="45.91265" lon="4.75138">
        <ele>177</ele>
        <time>2017-07-19T09:23:32Z</time>
      </trkpt>
      <trkpt lat="45.9126" lon="4.75137">
        <ele>177</ele>
        <time>2017-07-19T09:23:33Z</time>
      </trkpt>
      <trkpt lat="45.91255" lon="4.75135">
        <ele>177</ele>
        <time>2017-07-19T09:23:34Z</time>
      </trkpt>
      <trkpt lat="45.91251" lon="4.75133">
        <ele>177</ele>
        <time>2017-07-19T09:23:35Z</time>
      </trkpt>
      <trkpt lat="45.91246" lon="4.75131">
        <ele>177</ele>
        <time>2017-07-19T09:23:36Z</time>
      </trkpt>
      <trkpt lat="45.91237" lon="4.75127">
        <ele>177</ele>
        <time>2017-07-19T09:23:38Z</time>
      </trkpt>
      <trkpt lat="45.91234" lon="4.75127">
        <ele>177</ele>
        <time>2017-07-19T09:23:39Z</time>
      </trkpt>
      <trkpt lat="45.91226" lon="4.75125">
        <ele>177</ele>
        <time>2017-07-19T09:23:41Z</time>
      </trkpt>
      <trkpt lat="45.91222" lon="4.75123">
        <ele>177</ele>
        <time>2017-07-19T09:23:42Z</time>
      </trkpt>
      <trkpt lat="45.91214" lon="4.75122">
        <ele>177</ele>
        <time>2017-07-19T09:23:44Z</time>
      </trkpt>
      <trkpt lat="45.91209" lon="4.75121">
        <ele>177</ele>
        <time>2017-07-19T09:23:45Z</time>
      </trkpt>
      <trkpt lat="45.91201" lon="4.75119">
        <ele>178</ele>
        <time>2017-07-19T09:23:47Z</time>
      </trkpt>
      <trkpt lat="45.91197" lon="4.75118">
        <ele>178</ele>
        <time>2017-07-19T09:23:48Z</time>
      </trkpt>
      <trkpt lat="45.91189" lon="4.75117">
        <ele>178</ele>
        <time>2017-07-19T09:23:50Z</time>
      </trkpt>
      <trkpt lat="45.91184" lon="4.75116">
        <ele>178</ele>
        <time>2017-07-19T09:23:51Z</time>
      </trkpt>
      <trkpt lat="45.91179" lon="4.75114">
        <ele>178</ele>
        <time>2017-07-19T09:23:52Z</time>
      </trkpt>
      <trkpt lat="45.91175" lon="4.75112">
        <ele>178</ele>
        <time>2017-07-19T09:23:53Z</time>
      </trkpt>
      <trkpt lat="45.91167" lon="4.7511">
        <ele>178</ele>
        <time>2017-07-19T09:23:55Z</time>
      </trkpt>
      <trkpt lat="45.91163" lon="4.75109">
        <ele>179</ele>
        <time>2017-07-19T09:23:56Z</time>
      </trkpt>
      <trkpt lat="45.91158" lon="4.75108">
        <ele>179</ele>
        <time>2017-07-19T09:23:57Z</time>
      </trkpt>
      <trkpt lat="45.91154" lon="4.75107">
        <ele>179</ele>
        <time>2017-07-19T09:23:58Z</time>
      </trkpt>
      <trkpt lat="45.91149" lon="4.75106">
        <ele>179</ele>
        <time>2017-07-19T09:23:59Z</time>
      </trkpt>
      <trkpt lat="45.91145" lon="4.75104">
        <ele>179</ele>
        <time>2017-07-19T09:24:00Z</time>
      </trkpt>
      <trkpt lat="45.91136" lon="4.75102">
        <ele>179</ele>
        <time>2017-07-19T09:24:02Z</time>
      </trkpt>
      <trkpt lat="45.91132" lon="4.75101">
        <ele>179</ele>
        <time>2017-07-19T09:24:03Z</time>
      </trkpt>
      <trkpt lat="45.91124" lon="4.75098">
        <ele>179</ele>
        <time>2017-07-19T09:24:05Z</time>
      </trkpt>
      <trkpt lat="45.9112" lon="4.75096">
        <ele>179</ele>
        <time>2017-07-19T09:24:06Z</time>
      </trkpt>
      <trkpt lat="45.91116" lon="4.75094">
        <ele>179</ele>
        <time>2017-07-19T09:24:07Z</time>
      </trkpt>
      <trkpt lat="45.91111" lon="4.75093">
        <ele>179</ele>
        <time>2017-07-19T09:24:08Z</time>
      </trkpt>
      <trkpt lat="45.91107" lon="4.75091">
        <ele>180</ele>
        <time>2017-07-19T09:24:09Z</time>
      </trkpt>
      <trkpt lat="45.91102" lon="4.75088">
        <ele>180</ele>
        <time>2017-07-19T09:24:10Z</time>
      </trkpt>
      <trkpt lat="45.91098" lon="4.75086">
        <ele>180</ele>
        <time>2017-07-19T09:24:11Z</time>
      </trkpt>
      <trkpt lat="45.91093" lon="4.75084">
        <ele>180</ele>
        <time>2017-07-19T09:24:12Z</time>
      </trkpt>
      <trkpt lat="45.91085" lon="4.7508">
        <ele>180</ele>
        <time>2017-07-19T09:24:14Z</time>
      </trkpt>
      <trkpt lat="45.91081" lon="4.75078">
        <ele>180</ele>
        <time>2017-07-19T09:24:15Z</time>
      </trkpt>
      <trkpt lat="45.91073" lon="4.75074">
        <ele>179</ele>
        <time>2017-07-19T09:24:17Z</time>
      </trkpt>
      <trkpt lat="45.91069" lon="4.75073">
        <ele>179</ele>
        <time>2017-07-19T09:24:18Z</time>
      </trkpt>
      <trkpt lat="45.91061" lon="4.7507">
        <ele>179</ele>
        <time>2017-07-19T09:24:20Z</time>
      </trkpt>
      <trkpt lat="45.91057" lon="4.75069">
        <ele>179</ele>
        <time>2017-07-19T09:24:21Z</time>
      </trkpt>
      <trkpt lat="45.9105" lon="4.75066">
        <ele>179</ele>
        <time>2017-07-19T09:24:23Z</time>
      </trkpt>
      <trkpt lat="45.91046" lon="4.75065">
        <ele>179</ele>
        <time>2017-07-19T09:24:24Z</time>
      </trkpt>
      <trkpt lat="45.91039" lon="4.75062">
        <ele>179</ele>
        <time>2017-07-19T09:24:26Z</time>
      </trkpt>
      <trkpt lat="45.91035" lon="4.75061">
        <ele>179</ele>
        <time>2017-07-19T09:24:27Z</time>
      </trkpt>
      <trkpt lat="45.91027" lon="4.75058">
        <ele>179</ele>
        <time>2017-07-19T09:24:29Z</time>
      </trkpt>
      <trkpt lat="45.91023" lon="4.75056">
        <ele>179</ele>
        <time>2017-07-19T09:24:30Z</time>
      </trkpt>
      <trkpt lat="45.91016" lon="4.75054">
        <ele>179</ele>
        <time>2017-07-19T09:24:32Z</time>
      </trkpt>
      <trkpt lat="45.91012" lon="4.75052">
        <ele>179</ele>
        <time>2017-07-19T09:24:33Z</time>
      </trkpt>
      <trkpt lat="45.91004" lon="4.75049">
        <ele>178</ele>
        <time>2017-07-19T09:24:35Z</time>
      </trkpt>
      <trkpt lat="45.91" lon="4.75047">
        <ele>179</ele>
        <time>2017-07-19T09:24:36Z</time>
      </trkpt>
      <trkpt lat="45.90992" lon="4.75045">
        <ele>179</ele>
        <time>2017-07-19T09:24:38Z</time>
      </trkpt>
      <trkpt lat="45.90988" lon="4.75043">
        <ele>179</ele>
        <time>2017-07-19T09:24:39Z</time>
      </trkpt>
      <trkpt lat="45.90981" lon="4.75041">
        <ele>179</ele>
        <time>2017-07-19T09:24:41Z</time>
      </trkpt>
      <trkpt lat="45.90978" lon="4.75039">
        <ele>179</ele>
        <time>2017-07-19T09:24:42Z</time>
      </trkpt>
      <trkpt lat="45.90972" lon="4.75038">
        <ele>179</ele>
        <time>2017-07-19T09:24:44Z</time>
      </trkpt>
      <trkpt lat="45.90969" lon="4.75038">
        <ele>179</ele>
        <time>2017-07-19T09:24:45Z</time>
      </trkpt>
      <trkpt lat="45.90961" lon="4.75044">
        <ele>179</ele>
        <time>2017-07-19T09:24:48Z</time>
      </trkpt>
      <trkpt lat="45.9096" lon="4.75047">
        <ele>179</ele>
        <time>2017-07-19T09:24:49Z</time>
      </trkpt>
      <trkpt lat="45.90957" lon="4.75059">
        <ele>179</ele>
        <time>2017-07-19T09:24:52Z</time>
      </trkpt>
      <trkpt lat="45.90957" lon="4.75062">
        <ele>179</ele>
        <time>2017-07-19T09:24:53Z</time>
      </trkpt>
      <trkpt lat="45.90955" lon="4.75073">
        <ele>179</ele>
        <time>2017-07-19T09:24:56Z</time>
      </trkpt>
      <trkpt lat="45.90954" lon="4.75077">
        <ele>179</ele>
        <time>2017-07-19T09:24:57Z</time>
      </trkpt>
      <trkpt lat="45.90953" lon="4.75089">
        <ele>181</ele>
        <time>2017-07-19T09:25:00Z</time>
      </trkpt>
      <trkpt lat="45.90952" lon="4.75093">
        <ele>181</ele>
        <time>2017-07-19T09:25:01Z</time>
      </trkpt>
      <trkpt lat="45.90952" lon="4.75102">
        <ele>181</ele>
        <time>2017-07-19T09:25:03Z</time>
      </trkpt>
      <trkpt lat="45.90952" lon="4.75106">
        <ele>181</ele>
        <time>2017-07-19T09:25:04Z</time>
      </trkpt>
      <trkpt lat="45.90951" lon="4.75118">
        <ele>181</ele>
        <time>2017-07-19T09:25:07Z</time>
      </trkpt>
      <trkpt lat="45.9095" lon="4.75122">
        <ele>181</ele>
        <time>2017-07-19T09:25:08Z</time>
      </trkpt>
      <trkpt lat="45.9095" lon="4.75134">
        <ele>181</ele>
        <time>2017-07-19T09:25:11Z</time>
      </trkpt>
      <trkpt lat="45.9095" lon="4.75138">
        <ele>182</ele>
        <time>2017-07-19T09:25:12Z</time>
      </trkpt>
      <trkpt lat="45.90949" lon="4.75151">
        <ele>182</ele>
        <time>2017-07-19T09:25:15Z</time>
      </trkpt>
      <trkpt lat="45.90948" lon="4.75155">
        <ele>182</ele>
        <time>2017-07-19T09:25:16Z</time>
      </trkpt>
      <trkpt lat="45.90947" lon="4.75167">
        <ele>183</ele>
        <time>2017-07-19T09:25:19Z</time>
      </trkpt>
      <trkpt lat="45.90947" lon="4.75172">
        <ele>183</ele>
        <time>2017-07-19T09:25:20Z</time>
      </trkpt>
      <trkpt lat="45.90946" lon="4.75181">
        <ele>183</ele>
        <time>2017-07-19T09:25:22Z</time>
      </trkpt>
      <trkpt lat="45.90945" lon="4.75185">
        <ele>183</ele>
        <time>2017-07-19T09:25:23Z</time>
      </trkpt>
      <trkpt lat="45.90944" lon="4.75197">
        <ele>183</ele>
        <time>2017-07-19T09:25:26Z</time>
      </trkpt>
      <trkpt lat="45.90944" lon="4.75201">
        <ele>183</ele>
        <time>2017-07-19T09:25:27Z</time>
      </trkpt>
      <trkpt lat="45.90943" lon="4.75213">
        <ele>184</ele>
        <time>2017-07-19T09:25:30Z</time>
      </trkpt>
      <trkpt lat="45.90942" lon="4.75217">
        <ele>184</ele>
        <time>2017-07-19T09:25:31Z</time>
      </trkpt>
      <trkpt lat="45.90941" lon="4.75226">
        <ele>184</ele>
        <time>2017-07-19T09:25:33Z</time>
      </trkpt>
      <trkpt lat="45.90941" lon="4.75231">
        <ele>184</ele>
        <time>2017-07-19T09:25:34Z</time>
      </trkpt>
      <trkpt lat="45.9094" lon="4.75243">
        <ele>184</ele>
        <time>2017-07-19T09:25:37Z</time>
      </trkpt>
      <trkpt lat="45.90939" lon="4.75247">
        <ele>184</ele>
        <time>2017-07-19T09:25:38Z</time>
      </trkpt>
      <trkpt lat="45.90938" lon="4.75256">
        <ele>185</ele>
        <time>2017-07-19T09:25:40Z</time>
      </trkpt>
      <trkpt lat="45.90938" lon="4.7526">
        <ele>185</ele>
        <time>2017-07-19T09:25:41Z</time>
      </trkpt>
      <trkpt lat="45.90938" lon="4.75273">
        <ele>185</ele>
        <time>2017-07-19T09:25:44Z</time>
      </trkpt>
      <trkpt lat="45.90937" lon="4.75278">
        <ele>185</ele>
        <time>2017-07-19T09:25:45Z</time>
      </trkpt>
      <trkpt lat="45.90935" lon="4.75286">
        <ele>185</ele>
        <time>2017-07-19T09:25:47Z</time>
      </trkpt>
      <trkpt lat="45.90934" lon="4.7529">
        <ele>185</ele>
        <time>2017-07-19T09:25:48Z</time>
      </trkpt>
      <trkpt lat="45.90933" lon="4.75299">
        <ele>185</ele>
        <time>2017-07-19T09:25:50Z</time>
      </trkpt>
      <trkpt lat="45.90933" lon="4.75304">
        <ele>185</ele>
        <time>2017-07-19T09:25:51Z</time>
      </trkpt>
      <trkpt lat="45.90932" lon="4.75315">
        <ele>185</ele>
        <time>2017-07-19T09:25:54Z</time>
      </trkpt>
      <trkpt lat="45.90931" lon="4.75319">
        <ele>185</ele>
        <time>2017-07-19T09:25:55Z</time>
      </trkpt>
      <trkpt lat="45.90931" lon="4.7533">
        <ele>185</ele>
        <time>2017-07-19T09:25:58Z</time>
      </trkpt>
      <trkpt lat="45.90931" lon="4.75334">
        <ele>186</ele>
        <time>2017-07-19T09:25:59Z</time>
      </trkpt>
      <trkpt lat="45.9093" lon="4.75345">
        <ele>185</ele>
        <time>2017-07-19T09:26:01Z</time>
      </trkpt>
      <trkpt lat="45.90929" lon="4.7535">
        <ele>185</ele>
        <time>2017-07-19T09:26:02Z</time>
      </trkpt>
      <trkpt lat="45.90929" lon="4.75359">
        <ele>185</ele>
        <time>2017-07-19T09:26:04Z</time>
      </trkpt>
      <trkpt lat="45.90929" lon="4.75363">
        <ele>185</ele>
        <time>2017-07-19T09:26:05Z</time>
      </trkpt>
      <trkpt lat="45.90928" lon="4.75372">
        <ele>185</ele>
        <time>2017-07-19T09:26:07Z</time>
      </trkpt>
      <trkpt lat="45.90928" lon="4.75377">
        <ele>185</ele>
        <time>2017-07-19T09:26:08Z</time>
      </trkpt>
      <trkpt lat="45.90926" lon="4.75388">
        <ele>185</ele>
        <time>2017-07-19T09:26:10Z</time>
      </trkpt>
      <trkpt lat="45.90926" lon="4.75393">
        <ele>185</ele>
        <time>2017-07-19T09:26:11Z</time>
      </trkpt>
      <trkpt lat="45.90925" lon="4.75403">
        <ele>185</ele>
        <time>2017-07-19T09:26:13Z</time>
      </trkpt>
      <trkpt lat="45.90923" lon="4.75406">
        <ele>185</ele>
        <time>2017-07-19T09:26:14Z</time>
      </trkpt>
      <trkpt lat="45.90923" lon="4.75414">
        <ele>185</ele>
        <time>2017-07-19T09:26:16Z</time>
      </trkpt>
      <trkpt lat="45.90923" lon="4.75419">
        <ele>185</ele>
        <time>2017-07-19T09:26:17Z</time>
      </trkpt>
      <trkpt lat="45.90921" lon="4.75431">
        <ele>185</ele>
        <time>2017-07-19T09:26:19Z</time>
      </trkpt>
      <trkpt lat="45.90921" lon="4.75436">
        <ele>185</ele>
        <time>2017-07-19T09:26:20Z</time>
      </trkpt>
      <trkpt lat="45.9092" lon="4.75446">
        <ele>185</ele>
        <time>2017-07-19T09:26:22Z</time>
      </trkpt>
      <trkpt lat="45.9092" lon="4.75451">
        <ele>185</ele>
        <time>2017-07-19T09:26:23Z</time>
      </trkpt>
      <trkpt lat="45.90918" lon="4.75461">
        <ele>185</ele>
        <time>2017-07-19T09:26:26Z</time>
      </trkpt>
      <trkpt lat="45.90918" lon="4.75465">
        <ele>185</ele>
        <time>2017-07-19T09:26:27Z</time>
      </trkpt>
      <trkpt lat="45.90916" lon="4.75476">
        <ele>186</ele>
        <time>2017-07-19T09:26:29Z</time>
      </trkpt>
      <trkpt lat="45.90915" lon="4.75481">
        <ele>186</ele>
        <time>2017-07-19T09:26:30Z</time>
      </trkpt>
      <trkpt lat="45.90914" lon="4.75492">
        <ele>186</ele>
        <time>2017-07-19T09:26:32Z</time>
      </trkpt>
      <trkpt lat="45.90914" lon="4.75497">
        <ele>186</ele>
        <time>2017-07-19T09:26:33Z</time>
      </trkpt>
      <trkpt lat="45.90912" lon="4.75506">
        <ele>186</ele>
        <time>2017-07-19T09:26:35Z</time>
      </trkpt>
      <trkpt lat="45.90911" lon="4.7551">
        <ele>186</ele>
        <time>2017-07-19T09:26:36Z</time>
      </trkpt>
      <trkpt lat="45.90911" lon="4.75519">
        <ele>186</ele>
        <time>2017-07-19T09:26:38Z</time>
      </trkpt>
      <trkpt lat="45.9091" lon="4.75525">
        <ele>186</ele>
        <time>2017-07-19T09:26:39Z</time>
      </trkpt>
      <trkpt lat="45.90908" lon="4.75536">
        <ele>186</ele>
        <time>2017-07-19T09:26:41Z</time>
      </trkpt>
      <trkpt lat="45.90907" lon="4.75541">
        <ele>186</ele>
        <time>2017-07-19T09:26:42Z</time>
      </trkpt>
      <trkpt lat="45.90906" lon="4.75551">
        <ele>186</ele>
        <time>2017-07-19T09:26:44Z</time>
      </trkpt>
      <trkpt lat="45.90904" lon="4.75556">
        <ele>186</ele>
        <time>2017-07-19T09:26:45Z</time>
      </trkpt>
      <trkpt lat="45.90904" lon="4.75567">
        <ele>186</ele>
        <time>2017-07-19T09:26:47Z</time>
      </trkpt>
      <trkpt lat="45.90904" lon="4.75572">
        <ele>186</ele>
        <time>2017-07-19T09:26:48Z</time>
      </trkpt>
      <trkpt lat="45.90903" lon="4.75581">
        <ele>185</ele>
        <time>2017-07-19T09:26:50Z</time>
      </trkpt>
      <trkpt lat="45.90902" lon="4.75587">
        <ele>185</ele>
        <time>2017-07-19T09:26:51Z</time>
      </trkpt>
      <trkpt lat="45.90902" lon="4.75598">
        <ele>185</ele>
        <time>2017-07-19T09:26:53Z</time>
      </trkpt>
      <trkpt lat="45.90901" lon="4.75603">
        <ele>185</ele>
        <time>2017-07-19T09:26:54Z</time>
      </trkpt>
      <trkpt lat="45.90901" lon="4.75614">
        <ele>185</ele>
        <time>2017-07-19T09:26:56Z</time>
      </trkpt>
      <trkpt lat="45.90901" lon="4.75619">
        <ele>185</ele>
        <time>2017-07-19T09:26:57Z</time>
      </trkpt>
      <trkpt lat="45.90898" lon="4.75629">
        <ele>185</ele>
        <time>2017-07-19T09:26:59Z</time>
      </trkpt>
      <trkpt lat="45.90897" lon="4.75635">
        <ele>185</ele>
        <time>2017-07-19T09:27:00Z</time>
      </trkpt>
      <trkpt lat="45.90899" lon="4.75645">
        <ele>185</ele>
        <time>2017-07-19T09:27:02Z</time>
      </trkpt>
      <trkpt lat="45.909" lon="4.7565">
        <ele>184</ele>
        <time>2017-07-19T09:27:03Z</time>
      </trkpt>
      <trkpt lat="45.90901" lon="4.75661">
        <ele>184</ele>
        <time>2017-07-19T09:27:05Z</time>
      </trkpt>
      <trkpt lat="45.90901" lon="4.75666">
        <ele>184</ele>
        <time>2017-07-19T09:27:06Z</time>
      </trkpt>
      <trkpt lat="45.90901" lon="4.75677">
        <ele>184</ele>
        <time>2017-07-19T09:27:08Z</time>
      </trkpt>
      <trkpt lat="45.909" lon="4.75682">
        <ele>184</ele>
        <time>2017-07-19T09:27:09Z</time>
      </trkpt>
      <trkpt lat="45.90899" lon="4.75692">
        <ele>184</ele>
        <time>2017-07-19T09:27:11Z</time>
      </trkpt>
      <trkpt lat="45.90898" lon="4.75697">
        <ele>184</ele>
        <time>2017-07-19T09:27:12Z</time>
      </trkpt>
      <trkpt lat="45.90894" lon="4.75708">
        <ele>184</ele>
        <time>2017-07-19T09:27:15Z</time>
      </trkpt>
      <trkpt lat="45.90893" lon="4.75711">
        <ele>185</ele>
        <time>2017-07-19T09:27:16Z</time>
      </trkpt>
      <trkpt lat="45.9089" lon="4.75721">
        <ele>185</ele>
        <time>2017-07-19T09:27:18Z</time>
      </trkpt>
      <trkpt lat="45.9089" lon="4.75726">
        <ele>185</ele>
        <time>2017-07-19T09:27:19Z</time>
      </trkpt>
      <trkpt lat="45.90888" lon="4.75736">
        <ele>185</ele>
        <time>2017-07-19T09:27:21Z</time>
      </trkpt>
      <trkpt lat="45.90888" lon="4.7574">
        <ele>185</ele>
        <time>2017-07-19T09:27:22Z</time>
      </trkpt>
      <trkpt lat="45.90887" lon="4.75753">
        <ele>185</ele>
        <time>2017-07-19T09:27:25Z</time>
      </trkpt>
      <trkpt lat="45.90887" lon="4.75757">
        <ele>185</ele>
        <time>2017-07-19T09:27:26Z</time>
      </trkpt>
      <trkpt lat="45.90887" lon="4.75766">
        <ele>185</ele>
        <time>2017-07-19T09:27:28Z</time>
      </trkpt>
      <trkpt lat="45.90886" lon="4.7577">
        <ele>185</ele>
        <time>2017-07-19T09:27:29Z</time>
      </trkpt>
      <trkpt lat="45.90888" lon="4.7578">
        <ele>185</ele>
        <time>2017-07-19T09:27:31Z</time>
      </trkpt>
      <trkpt lat="45.90887" lon="4.75785">
        <ele>185</ele>
        <time>2017-07-19T09:27:32Z</time>
      </trkpt>
      <trkpt lat="45.90885" lon="4.75795">
        <ele>185</ele>
        <time>2017-07-19T09:27:34Z</time>
      </trkpt>
      <trkpt lat="45.90885" lon="4.758">
        <ele>185</ele>
        <time>2017-07-19T09:27:35Z</time>
      </trkpt>
      <trkpt lat="45.90885" lon="4.75811">
        <ele>184</ele>
        <time>2017-07-19T09:27:37Z</time>
      </trkpt>
      <trkpt lat="45.90884" lon="4.75817">
        <ele>184</ele>
        <time>2017-07-19T09:27:38Z</time>
      </trkpt>
      <trkpt lat="45.90883" lon="4.75829">
        <ele>184</ele>
        <time>2017-07-19T09:27:40Z</time>
      </trkpt>
      <trkpt lat="45.90882" lon="4.75835">
        <ele>184</ele>
        <time>2017-07-19T09:27:41Z</time>
      </trkpt>
      <trkpt lat="45.90886" lon="4.75846">
        <ele>184</ele>
        <time>2017-07-19T09:27:44Z</time>
      </trkpt>
      <trkpt lat="45.90888" lon="4.75851">
        <ele>184</ele>
        <time>2017-07-19T09:27:45Z</time>
      </trkpt>
      <trkpt lat="45.90888" lon="4.75858">
        <ele>184</ele>
        <time>2017-07-19T09:27:47Z</time>
      </trkpt>
      <trkpt lat="45.90884" lon="4.75863">
        <ele>184</ele>
        <time>2017-07-19T09:27:48Z</time>
      </trkpt>
      <trkpt lat="45.90879" lon="4.75865">
        <ele>184</ele>
        <time>2017-07-19T09:27:49Z</time>
      </trkpt>
      <trkpt lat="45.90874" lon="4.75866">
        <ele>184</ele>
        <time>2017-07-19T09:27:50Z</time>
      </trkpt>
      <trkpt lat="45.90866" lon="4.75865">
        <ele>184</ele>
        <time>2017-07-19T09:27:52Z</time>
      </trkpt>
      <trkpt lat="45.90861" lon="4.75864">
        <ele>184</ele>
        <time>2017-07-19T09:27:53Z</time>
      </trkpt>
      <trkpt lat="45.90856" lon="4.75865">
        <ele>184</ele>
        <time>2017-07-19T09:27:54Z</time>
      </trkpt>
      <trkpt lat="45.90851" lon="4.75865">
        <ele>184</ele>
        <time>2017-07-19T09:27:55Z</time>
      </trkpt>
      <trkpt lat="45.90843" lon="4.75865">
        <ele>184</ele>
        <time>2017-07-19T09:27:57Z</time>
      </trkpt>
      <trkpt lat="45.9084" lon="4.75864">
        <ele>184</ele>
        <time>2017-07-19T09:27:58Z</time>
      </trkpt>
      <trkpt lat="45.90834" lon="4.75864">
        <ele>184</ele>
        <time>2017-07-19T09:28:00Z</time>
      </trkpt>
      <trkpt lat="45.9083" lon="4.75863">
        <ele>185</ele>
        <time>2017-07-19T09:28:01Z</time>
      </trkpt>
      <trkpt lat="45.90823" lon="4.75861">
        <ele>185</ele>
        <time>2017-07-19T09:28:03Z</time>
      </trkpt>
      <trkpt lat="45.90819" lon="4.7586">
        <ele>185</ele>
        <time>2017-07-19T09:28:04Z</time>
      </trkpt>
      <trkpt lat="45.90812" lon="4.7586">
        <ele>185</ele>
        <time>2017-07-19T09:28:06Z</time>
      </trkpt>
      <trkpt lat="45.90808" lon="4.75859">
        <ele>185</ele>
        <time>2017-07-19T09:28:07Z</time>
      </trkpt>
      <trkpt lat="45.90804" lon="4.75857">
        <ele>185</ele>
        <time>2017-07-19T09:28:08Z</time>
      </trkpt>
      <trkpt lat="45.90799" lon="4.75856">
        <ele>185</ele>
        <time>2017-07-19T09:28:09Z</time>
      </trkpt>
      <trkpt lat="45.90791" lon="4.75854">
        <ele>185</ele>
        <time>2017-07-19T09:28:11Z</time>
      </trkpt>
      <trkpt lat="45.90787" lon="4.75855">
        <ele>185</ele>
        <time>2017-07-19T09:28:12Z</time>
      </trkpt>
      <trkpt lat="45.90779" lon="4.75859">
        <ele>185</ele>
        <time>2017-07-19T09:28:14Z</time>
      </trkpt>
      <trkpt lat="45.90775" lon="4.75859">
        <ele>185</ele>
        <time>2017-07-19T09:28:15Z</time>
      </trkpt>
      <trkpt lat="45.90766" lon="4.75859">
        <ele>185</ele>
        <time>2017-07-19T09:28:17Z</time>
      </trkpt>
      <trkpt lat="45.90762" lon="4.75858">
        <ele>186</ele>
        <time>2017-07-19T09:28:18Z</time>
      </trkpt>
      <trkpt lat="45.90753" lon="4.75857">
        <ele>186</ele>
        <time>2017-07-19T09:28:20Z</time>
      </trkpt>
      <trkpt lat="45.90748" lon="4.75857">
        <ele>186</ele>
        <time>2017-07-19T09:28:21Z</time>
      </trkpt>
      <trkpt lat="45.9074" lon="4.75857">
        <ele>186</ele>
        <time>2017-07-19T09:28:23Z</time>
      </trkpt>
      <trkpt lat="45.90736" lon="4.75858">
        <ele>186</ele>
        <time>2017-07-19T09:28:24Z</time>
      </trkpt>
      <trkpt lat="45.90728" lon="4.75861">
        <ele>186</ele>
        <time>2017-07-19T09:28:26Z</time>
      </trkpt>
      <trkpt lat="45.90724" lon="4.75863">
        <ele>186</ele>
        <time>2017-07-19T09:28:27Z</time>
      </trkpt>
      <trkpt lat="45.90717" lon="4.75863">
        <ele>186</ele>
        <time>2017-07-19T09:28:29Z</time>
      </trkpt>
      <trkpt lat="45.90714" lon="4.75864">
        <ele>186</ele>
        <time>2017-07-19T09:28:30Z</time>
      </trkpt>
      <trkpt lat="45.90705" lon="4.75868">
        <ele>187</ele>
        <time>2017-07-19T09:28:32Z</time>
      </trkpt>
      <trkpt lat="45.90701" lon="4.75868">
        <ele>187</ele>
        <time>2017-07-19T09:28:33Z</time>
      </trkpt>
      <trkpt lat="45.90694" lon="4.75873">
        <ele>187</ele>
        <time>2017-07-19T09:28:35Z</time>
      </trkpt>
      <trkpt lat="45.9069" lon="4.75875">
        <ele>187</ele>
        <time>2017-07-19T09:28:36Z</time>
      </trkpt>
      <trkpt lat="45.90683" lon="4.7588">
        <ele>187</ele>
        <time>2017-07-19T09:28:38Z</time>
      </trkpt>
      <trkpt lat="45.9068" lon="4.75882">
        <ele>187</ele>
        <time>2017-07-19T09:28:39Z</time>
      </trkpt>
      <trkpt lat="45.90675" lon="4.75886">
        <ele>187</ele>
        <time>2017-07-19T09:28:41Z</time>
      </trkpt>
      <trkpt lat="45.90671" lon="4.75888">
        <ele>187</ele>
        <time>2017-07-19T09:28:42Z</time>
      </trkpt>
      <trkpt lat="45.90665" lon="4.75895">
        <ele>187</ele>
        <time>2017-07-19T09:28:44Z</time>
      </trkpt>
      <trkpt lat="45.90662" lon="4.75898">
        <ele>187</ele>
        <time>2017-07-19T09:28:45Z</time>
      </trkpt>
      <trkpt lat="45.90656" lon="4.75904">
        <ele>187</ele>
        <time>2017-07-19T09:28:47Z</time>
      </trkpt>
      <trkpt lat="45.90653" lon="4.75907">
        <ele>187</ele>
        <time>2017-07-19T09:28:48Z</time>
      </trkpt>
      <trkpt lat="45.90647" lon="4.75911">
        <ele>187</ele>
        <time>2017-07-19T09:28:50Z</time>
      </trkpt>
      <trkpt lat="45.90643" lon="4.75915">
        <ele>187</ele>
        <time>2017-07-19T09:28:51Z</time>
      </trkpt>
      <trkpt lat="45.90636" lon="4.75921">
        <ele>186</ele>
        <time>2017-07-19T09:28:53Z</time>
      </trkpt>
      <trkpt lat="45.90633" lon="4.75926">
        <ele>186</ele>
        <time>2017-07-19T09:28:54Z</time>
      </trkpt>
      <trkpt lat="45.90627" lon="4.75934">
        <ele>186</ele>
        <time>2017-07-19T09:28:56Z</time>
      </trkpt>
      <trkpt lat="45.90625" lon="4.75939">
        <ele>186</ele>
        <time>2017-07-19T09:28:57Z</time>
      </trkpt>
      <trkpt lat="45.90622" lon="4.75943">
        <ele>186</ele>
        <time>2017-07-19T09:28:58Z</time>
      </trkpt>
      <trkpt lat="45.90618" lon="4.75949">
        <ele>186</ele>
        <time>2017-07-19T09:28:59Z</time>
      </trkpt>
      <trkpt lat="45.90615" lon="4.7596">
        <ele>186</ele>
        <time>2017-07-19T09:29:01Z</time>
      </trkpt>
      <trkpt lat="45.90612" lon="4.75965">
        <ele>186</ele>
        <time>2017-07-19T09:29:02Z</time>
      </trkpt>
      <trkpt lat="45.90607" lon="4.75969">
        <ele>186</ele>
        <time>2017-07-19T09:29:04Z</time>
      </trkpt>
      <trkpt lat="45.90604" lon="4.75971">
        <ele>186</ele>
        <time>2017-07-19T09:29:05Z</time>
      </trkpt>
      <trkpt lat="45.90598" lon="4.75971">
        <ele>186</ele>
        <time>2017-07-19T09:29:07Z</time>
      </trkpt>
      <trkpt lat="45.90593" lon="4.7597">
        <ele>186</ele>
        <time>2017-07-19T09:29:08Z</time>
      </trkpt>
      <trkpt lat="45.90587" lon="4.75967">
        <ele>186</ele>
        <time>2017-07-19T09:29:10Z</time>
      </trkpt>
      <trkpt lat="45.90583" lon="4.75964">
        <ele>186</ele>
        <time>2017-07-19T09:29:11Z</time>
      </trkpt>
      <trkpt lat="45.90575" lon="4.7596">
        <ele>186</ele>
        <time>2017-07-19T09:29:13Z</time>
      </trkpt>
      <trkpt lat="45.90571" lon="4.75958">
        <ele>186</ele>
        <time>2017-07-19T09:29:14Z</time>
      </trkpt>
      <trkpt lat="45.90565" lon="4.75954">
        <ele>186</ele>
        <time>2017-07-19T09:29:16Z</time>
      </trkpt>
      <trkpt lat="45.90562" lon="4.75953">
        <ele>186</ele>
        <time>2017-07-19T09:29:17Z</time>
      </trkpt>
      <trkpt lat="45.90557" lon="4.7595">
        <ele>186</ele>
        <time>2017-07-19T09:29:19Z</time>
      </trkpt>
      <trkpt lat="45.90554" lon="4.75947">
        <ele>186</ele>
        <time>2017-07-19T09:29:20Z</time>
      </trkpt>
      <trkpt lat="45.90549" lon="4.75941">
        <ele>186</ele>
        <time>2017-07-19T09:29:22Z</time>
      </trkpt>
      <trkpt lat="45.90546" lon="4.75939">
        <ele>186</ele>
        <time>2017-07-19T09:29:23Z</time>
      </trkpt>
      <trkpt lat="45.90539" lon="4.75935">
        <ele>186</ele>
        <time>2017-07-19T09:29:25Z</time>
      </trkpt>
      <trkpt lat="45.90536" lon="4.75935">
        <ele>186</ele>
        <time>2017-07-19T09:29:26Z</time>
      </trkpt>
      <trkpt lat="45.90528" lon="4.75934">
        <ele>186</ele>
        <time>2017-07-19T09:29:28Z</time>
      </trkpt>
      <trkpt lat="45.90523" lon="4.75934">
        <ele>186</ele>
        <time>2017-07-19T09:29:29Z</time>
      </trkpt>
      <trkpt lat="45.90518" lon="4.75933">
        <ele>187</ele>
        <time>2017-07-19T09:29:30Z</time>
      </trkpt>
      <trkpt lat="45.90514" lon="4.75933">
        <ele>187</ele>
        <time>2017-07-19T09:29:31Z</time>
      </trkpt>
      <trkpt lat="45.90506" lon="4.75934">
        <ele>187</ele>
        <time>2017-07-19T09:29:33Z</time>
      </trkpt>
      <trkpt lat="45.90503" lon="4.75934">
        <ele>187</ele>
        <time>2017-07-19T09:29:34Z</time>
      </trkpt>
      <trkpt lat="45.90497" lon="4.75933">
        <ele>187</ele>
        <time>2017-07-19T09:29:36Z</time>
      </trkpt>
      <trkpt lat="45.90493" lon="4.75933">
        <ele>187</ele>
        <time>2017-07-19T09:29:37Z</time>
      </trkpt>
      <trkpt lat="45.90486" lon="4.75931">
        <ele>187</ele>
        <time>2017-07-19T09:29:39Z</time>
      </trkpt>
      <trkpt lat="45.90483" lon="4.7593">
        <ele>187</ele>
        <time>2017-07-19T09:29:40Z</time>
      </trkpt>
      <trkpt lat="45.90477" lon="4.75929">
        <ele>187</ele>
        <time>2017-07-19T09:29:42Z</time>
      </trkpt>
      <trkpt lat="45.90473" lon="4.75931">
        <ele>187</ele>
        <time>2017-07-19T09:29:43Z</time>
      </trkpt>
      <trkpt lat="45.90465" lon="4.75934">
        <ele>187</ele>
        <time>2017-07-19T09:29:45Z</time>
      </trkpt>
      <trkpt lat="45.9046" lon="4.75935">
        <ele>187</ele>
        <time>2017-07-19T09:29:46Z</time>
      </trkpt>
      <trkpt lat="45.90454" lon="4.75936">
        <ele>187</ele>
        <time>2017-07-19T09:29:47Z</time>
      </trkpt>
      <trkpt lat="45.90446" lon="4.75939">
        <ele>187</ele>
        <time>2017-07-19T09:29:48Z</time>
      </trkpt>
      <trkpt lat="45.90441" lon="4.75939">
        <ele>187</ele>
        <time>2017-07-19T09:29:49Z</time>
      </trkpt>
      <trkpt lat="45.90436" lon="4.75941">
        <ele>187</ele>
        <time>2017-07-19T09:29:50Z</time>
      </trkpt>
      <trkpt lat="45.90431" lon="4.75942">
        <ele>187</ele>
        <time>2017-07-19T09:29:51Z</time>
      </trkpt>
      <trkpt lat="45.90427" lon="4.75944">
        <ele>187</ele>
        <time>2017-07-19T09:29:52Z</time>
      </trkpt>
      <trkpt lat="45.9042" lon="4.75945">
        <ele>187</ele>
        <time>2017-07-19T09:29:54Z</time>
      </trkpt>
      <trkpt lat="45.90416" lon="4.75946">
        <ele>187</ele>
        <time>2017-07-19T09:29:55Z</time>
      </trkpt>
      <trkpt lat="45.90407" lon="4.75948">
        <ele>187</ele>
        <time>2017-07-19T09:29:57Z</time>
      </trkpt>
      <trkpt lat="45.90403" lon="4.75948">
        <ele>187</ele>
        <time>2017-07-19T09:29:58Z</time>
      </trkpt>
      <trkpt lat="45.90395" lon="4.75949">
        <ele>187</ele>
        <time>2017-07-19T09:30:00Z</time>
      </trkpt>
      <trkpt lat="45.90392" lon="4.75949">
        <ele>187</ele>
        <time>2017-07-19T09:30:01Z</time>
      </trkpt>
      <trkpt lat="45.90386" lon="4.7595">
        <ele>187</ele>
        <time>2017-07-19T09:30:03Z</time>
      </trkpt>
      <trkpt lat="45.90382" lon="4.7595">
        <ele>187</ele>
        <time>2017-07-19T09:30:04Z</time>
      </trkpt>
      <trkpt lat="45.90375" lon="4.75947">
        <ele>187</ele>
        <time>2017-07-19T09:30:06Z</time>
      </trkpt>
      <trkpt lat="45.90371" lon="4.75944">
        <ele>187</ele>
        <time>2017-07-19T09:30:07Z</time>
      </trkpt>
      <trkpt lat="45.90366" lon="4.75937">
        <ele>187</ele>
        <time>2017-07-19T09:30:09Z</time>
      </trkpt>
      <trkpt lat="45.90363" lon="4.75932">
        <ele>187</ele>
        <time>2017-07-19T09:30:10Z</time>
      </trkpt>
      <trkpt lat="45.90359" lon="4.75923">
        <ele>187</ele>
        <time>2017-07-19T09:30:12Z</time>
      </trkpt>
      <trkpt lat="45.90356" lon="4.75918">
        <ele>187</ele>
        <time>2017-07-19T09:30:13Z</time>
      </trkpt>
      <trkpt lat="45.90353" lon="4.75912">
        <ele>188</ele>
        <time>2017-07-19T09:30:14Z</time>
      </trkpt>
      <trkpt lat="45.90351" lon="4.75907">
        <ele>188</ele>
        <time>2017-07-19T09:30:15Z</time>
      </trkpt>
      <trkpt lat="45.90346" lon="4.75896">
        <ele>188</ele>
        <time>2017-07-19T09:30:17Z</time>
      </trkpt>
      <trkpt lat="45.90344" lon="4.75892">
        <ele>188</ele>
        <time>2017-07-19T09:30:18Z</time>
      </trkpt>
      <trkpt lat="45.90339" lon="4.75885">
        <ele>188</ele>
        <time>2017-07-19T09:30:20Z</time>
      </trkpt>
      <trkpt lat="45.90336" lon="4.75881">
        <ele>188</ele>
        <time>2017-07-19T09:30:21Z</time>
      </trkpt>
      <trkpt lat="45.90331" lon="4.75874">
        <ele>189</ele>
        <time>2017-07-19T09:30:23Z</time>
      </trkpt>
      <trkpt lat="45.90329" lon="4.7587">
        <ele>189</ele>
        <time>2017-07-19T09:30:24Z</time>
      </trkpt>
      <trkpt lat="45.90324" lon="4.75861">
        <ele>189</ele>
        <time>2017-07-19T09:30:26Z</time>
      </trkpt>
      <trkpt lat="45.9032" lon="4.75857">
        <ele>189</ele>
        <time>2017-07-19T09:30:27Z</time>
      </trkpt>
      <trkpt lat="45.90315" lon="4.75849">
        <ele>189</ele>
        <time>2017-07-19T09:30:29Z</time>
      </trkpt>
      <trkpt lat="45.90311" lon="4.75845">
        <ele>189</ele>
        <time>2017-07-19T09:30:30Z</time>
      </trkpt>
      <trkpt lat="45.90303" lon="4.75841">
        <ele>189</ele>
        <time>2017-07-19T09:30:32Z</time>
      </trkpt>
      <trkpt lat="45.90299" lon="4.75839">
        <ele>189</ele>
        <time>2017-07-19T09:30:33Z</time>
      </trkpt>
      <trkpt lat="45.90295" lon="4.75837">
        <ele>189</ele>
        <time>2017-07-19T09:30:34Z</time>
      </trkpt>
      <trkpt lat="45.9029" lon="4.75836">
        <ele>189</ele>
        <time>2017-07-19T09:30:35Z</time>
      </trkpt>
      <trkpt lat="45.90282" lon="4.75834">
        <ele>189</ele>
        <time>2017-07-19T09:30:37Z</time>
      </trkpt>
      <trkpt lat="45.90278" lon="4.75834">
        <ele>189</ele>
        <time>2017-07-19T09:30:38Z</time>
      </trkpt>
      <trkpt lat="45.9027" lon="4.75832">
        <ele>190</ele>
        <time>2017-07-19T09:30:40Z</time>
      </trkpt>
      <trkpt lat="45.90267" lon="4.75831">
        <ele>190</ele>
        <time>2017-07-19T09:30:41Z</time>
      </trkpt>
      <trkpt lat="45.90259" lon="4.75828">
        <ele>190</ele>
        <time>2017-07-19T09:30:43Z</time>
      </trkpt>
      <trkpt lat="45.90254" lon="4.75827">
        <ele>190</ele>
        <time>2017-07-19T09:30:44Z</time>
      </trkpt>
      <trkpt lat="45.90246" lon="4.75824">
        <ele>190</ele>
        <time>2017-07-19T09:30:46Z</time>
      </trkpt>
      <trkpt lat="45.90243" lon="4.75822">
        <ele>190</ele>
        <time>2017-07-19T09:30:47Z</time>
      </trkpt>
      <trkpt lat="45.90236" lon="4.75819">
        <ele>190</ele>
        <time>2017-07-19T09:30:49Z</time>
      </trkpt>
      <trkpt lat="45.90232" lon="4.75817">
        <ele>190</ele>
        <time>2017-07-19T09:30:50Z</time>
      </trkpt>
      <trkpt lat="45.90224" lon="4.75814">
        <ele>190</ele>
        <time>2017-07-19T09:30:52Z</time>
      </trkpt>
      <trkpt lat="45.9022" lon="4.75813">
        <ele>190</ele>
        <time>2017-07-19T09:30:53Z</time>
      </trkpt>
      <trkpt lat="45.90212" lon="4.7581">
        <ele>190</ele>
        <time>2017-07-19T09:30:55Z</time>
      </trkpt>
      <trkpt lat="45.90208" lon="4.75809">
        <ele>190</ele>
        <time>2017-07-19T09:30:56Z</time>
      </trkpt>
      <trkpt lat="45.90199" lon="4.75807">
        <ele>190</ele>
        <time>2017-07-19T09:30:58Z</time>
      </trkpt>
      <trkpt lat="45.90196" lon="4.75806">
        <ele>190</ele>
        <time>2017-07-19T09:30:59Z</time>
      </trkpt>
      <trkpt lat="45.90188" lon="4.75805">
        <ele>190</ele>
        <time>2017-07-19T09:31:01Z</time>
      </trkpt>
      <trkpt lat="45.90184" lon="4.75804">
        <ele>190</ele>
        <time>2017-07-19T09:31:02Z</time>
      </trkpt>
      <trkpt lat="45.90177" lon="4.75804">
        <ele>190</ele>
        <time>2017-07-19T09:31:04Z</time>
      </trkpt>
      <trkpt lat="45.90174" lon="4.75804">
        <ele>190</ele>
        <time>2017-07-19T09:31:05Z</time>
      </trkpt>
      <trkpt lat="45.90167" lon="4.75804">
        <ele>191</ele>
        <time>2017-07-19T09:31:07Z</time>
      </trkpt>
      <trkpt lat="45.90163" lon="4.75804">
        <ele>191</ele>
        <time>2017-07-19T09:31:08Z</time>
      </trkpt>
      <trkpt lat="45.90155" lon="4.75803">
        <ele>191</ele>
        <time>2017-07-19T09:31:10Z</time>
      </trkpt>
      <trkpt lat="45.90152" lon="4.75802">
        <ele>191</ele>
        <time>2017-07-19T09:31:11Z</time>
      </trkpt>
      <trkpt lat="45.90144" lon="4.75801">
        <ele>191</ele>
        <time>2017-07-19T09:31:14Z</time>
      </trkpt>
      <trkpt lat="45.90141" lon="4.758">
        <ele>191</ele>
        <time>2017-07-19T09:31:15Z</time>
      </trkpt>
      <trkpt lat="45.90134" lon="4.75796">
        <ele>191</ele>
        <time>2017-07-19T09:31:17Z</time>
      </trkpt>
      <trkpt lat="45.9013" lon="4.75794">
        <ele>191</ele>
        <time>2017-07-19T09:31:18Z</time>
      </trkpt>
      <trkpt lat="45.90122" lon="4.7579">
        <ele>191</ele>
        <time>2017-07-19T09:31:20Z</time>
      </trkpt>
      <trkpt lat="45.90118" lon="4.75788">
        <ele>191</ele>
        <time>2017-07-19T09:31:21Z</time>
      </trkpt>
      <trkpt lat="45.90111" lon="4.75784">
        <ele>191</ele>
        <time>2017-07-19T09:31:23Z</time>
      </trkpt>
      <trkpt lat="45.90108" lon="4.75782">
        <ele>191</ele>
        <time>2017-07-19T09:31:24Z</time>
      </trkpt>
      <trkpt lat="45.90102" lon="4.75778">
        <ele>191</ele>
        <time>2017-07-19T09:31:26Z</time>
      </trkpt>
      <trkpt lat="45.90099" lon="4.75776">
        <ele>191</ele>
        <time>2017-07-19T09:31:27Z</time>
      </trkpt>
      <trkpt lat="45.90092" lon="4.75773">
        <ele>191</ele>
        <time>2017-07-19T09:31:29Z</time>
      </trkpt>
      <trkpt lat="45.90089" lon="4.75771">
        <ele>191</ele>
        <time>2017-07-19T09:31:30Z</time>
      </trkpt>
      <trkpt lat="45.90082" lon="4.75768">
        <ele>192</ele>
        <time>2017-07-19T09:31:32Z</time>
      </trkpt>
      <trkpt lat="45.90078" lon="4.75766">
        <ele>192</ele>
        <time>2017-07-19T09:31:33Z</time>
      </trkpt>
      <trkpt lat="45.90071" lon="4.75762">
        <ele>192</ele>
        <time>2017-07-19T09:31:35Z</time>
      </trkpt>
      <trkpt lat="45.90067" lon="4.75761">
        <ele>192</ele>
        <time>2017-07-19T09:31:36Z</time>
      </trkpt>
      <trkpt lat="45.9006" lon="4.75757">
        <ele>192</ele>
        <time>2017-07-19T09:31:38Z</time>
      </trkpt>
      <trkpt lat="45.90056" lon="4.75755">
        <ele>192</ele>
        <time>2017-07-19T09:31:39Z</time>
      </trkpt>
      <trkpt lat="45.90048" lon="4.75751">
        <ele>192</ele>
        <time>2017-07-19T09:31:41Z</time>
      </trkpt>
      <trkpt lat="45.90045" lon="4.75749">
        <ele>192</ele>
        <time>2017-07-19T09:31:42Z</time>
      </trkpt>
      <trkpt lat="45.90038" lon="4.75746">
        <ele>193</ele>
        <time>2017-07-19T09:31:44Z</time>
      </trkpt>
      <trkpt lat="45.90034" lon="4.75744">
        <ele>193</ele>
        <time>2017-07-19T09:31:45Z</time>
      </trkpt>
      <trkpt lat="45.90027" lon="4.7574">
        <ele>193</ele>
        <time>2017-07-19T09:31:47Z</time>
      </trkpt>
      <trkpt lat="45.90024" lon="4.7574">
        <ele>193</ele>
        <time>2017-07-19T09:31:48Z</time>
      </trkpt>
      <trkpt lat="45.90016" lon="4.75739">
        <ele>193</ele>
        <time>2017-07-19T09:31:50Z</time>
      </trkpt>
      <trkpt lat="45.90012" lon="4.75739">
        <ele>193</ele>
        <time>2017-07-19T09:31:51Z</time>
      </trkpt>
      <trkpt lat="45.90003" lon="4.7574">
        <ele>193</ele>
        <time>2017-07-19T09:31:53Z</time>
      </trkpt>
      <trkpt lat="45.89998" lon="4.75741">
        <ele>193</ele>
        <time>2017-07-19T09:31:54Z</time>
      </trkpt>
      <trkpt lat="45.8999" lon="4.75743">
        <ele>193</ele>
        <time>2017-07-19T09:31:56Z</time>
      </trkpt>
      <trkpt lat="45.89987" lon="4.75744">
        <ele>193</ele>
        <time>2017-07-19T09:31:57Z</time>
      </trkpt>
      <trkpt lat="45.8998" lon="4.75747">
        <ele>192</ele>
        <time>2017-07-19T09:31:59Z</time>
      </trkpt>
      <trkpt lat="45.89976" lon="4.75748">
        <ele>192</ele>
        <time>2017-07-19T09:32:00Z</time>
      </trkpt>
      <trkpt lat="45.89968" lon="4.75752">
        <ele>192</ele>
        <time>2017-07-19T09:32:02Z</time>
      </trkpt>
      <trkpt lat="45.89964" lon="4.75753">
        <ele>192</ele>
        <time>2017-07-19T09:32:03Z</time>
      </trkpt>
      <trkpt lat="45.89956" lon="4.75756">
        <ele>192</ele>
        <time>2017-07-19T09:32:05Z</time>
      </trkpt>
      <trkpt lat="45.89953" lon="4.75757">
        <ele>192</ele>
        <time>2017-07-19T09:32:06Z</time>
      </trkpt>
      <trkpt lat="45.89947" lon="4.7576">
        <ele>192</ele>
        <time>2017-07-19T09:32:08Z</time>
      </trkpt>
      <trkpt lat="45.89943" lon="4.75762">
        <ele>192</ele>
        <time>2017-07-19T09:32:09Z</time>
      </trkpt>
      <trkpt lat="45.89937" lon="4.75766">
        <ele>192</ele>
        <time>2017-07-19T09:32:11Z</time>
      </trkpt>
      <trkpt lat="45.89934" lon="4.75768">
        <ele>192</ele>
        <time>2017-07-19T09:32:12Z</time>
      </trkpt>
      <trkpt lat="45.89926" lon="4.75773">
        <ele>192</ele>
        <time>2017-07-19T09:32:14Z</time>
      </trkpt>
      <trkpt lat="45.89921" lon="4.75775">
        <ele>192</ele>
        <time>2017-07-19T09:32:15Z</time>
      </trkpt>
      <trkpt lat="45.89913" lon="4.7578">
        <ele>192</ele>
        <time>2017-07-19T09:32:17Z</time>
      </trkpt>
      <trkpt lat="45.89909" lon="4.75782">
        <ele>192</ele>
        <time>2017-07-19T09:32:18Z</time>
      </trkpt>
      <trkpt lat="45.89902" lon="4.75786">
        <ele>192</ele>
        <time>2017-07-19T09:32:21Z</time>
      </trkpt>
      <trkpt lat="45.899" lon="4.75787">
        <ele>192</ele>
        <time>2017-07-19T09:32:22Z</time>
      </trkpt>
      <trkpt lat="45.89893" lon="4.75791">
        <ele>192</ele>
        <time>2017-07-19T09:32:25Z</time>
      </trkpt>
      <trkpt lat="45.89889" lon="4.75792">
        <ele>192</ele>
        <time>2017-07-19T09:32:26Z</time>
      </trkpt>
      <trkpt lat="45.89882" lon="4.75797">
        <ele>192</ele>
        <time>2017-07-19T09:32:28Z</time>
      </trkpt>
      <trkpt lat="45.89879" lon="4.758">
        <ele>192</ele>
        <time>2017-07-19T09:32:29Z</time>
      </trkpt>
      <trkpt lat="45.89872" lon="4.75805">
        <ele>192</ele>
        <time>2017-07-19T09:32:31Z</time>
      </trkpt>
      <trkpt lat="45.8987" lon="4.75808">
        <ele>192</ele>
        <time>2017-07-19T09:32:32Z</time>
      </trkpt>
      <trkpt lat="45.89864" lon="4.75814">
        <ele>192</ele>
        <time>2017-07-19T09:32:34Z</time>
      </trkpt>
      <trkpt lat="45.89859" lon="4.75818">
        <ele>192</ele>
        <time>2017-07-19T09:32:35Z</time>
      </trkpt>
      <trkpt lat="45.89855" lon="4.75822">
        <ele>192</ele>
        <time>2017-07-19T09:32:36Z</time>
      </trkpt>
      <trkpt lat="45.89852" lon="4.75826">
        <ele>192</ele>
        <time>2017-07-19T09:32:37Z</time>
      </trkpt>
      <trkpt lat="45.89847" lon="4.75834">
        <ele>192</ele>
        <time>2017-07-19T09:32:39Z</time>
      </trkpt>
      <trkpt lat="45.89845" lon="4.75837">
        <ele>192</ele>
        <time>2017-07-19T09:32:40Z</time>
      </trkpt>
      <trkpt lat="45.8984" lon="4.75844">
        <ele>192</ele>
        <time>2017-07-19T09:32:42Z</time>
      </trkpt>
      <trkpt lat="45.89837" lon="4.75847">
        <ele>192</ele>
        <time>2017-07-19T09:32:43Z</time>
      </trkpt>
      <trkpt lat="45.89831" lon="4.75856">
        <ele>193</ele>
        <time>2017-07-19T09:32:45Z</time>
      </trkpt>
      <trkpt lat="45.89828" lon="4.7586">
        <ele>193</ele>
        <time>2017-07-19T09:32:46Z</time>
      </trkpt>
      <trkpt lat="45.89823" lon="4.75869">
        <ele>194</ele>
        <time>2017-07-19T09:32:48Z</time>
      </trkpt>
      <trkpt lat="45.8982" lon="4.75874">
        <ele>194</ele>
        <time>2017-07-19T09:32:49Z</time>
      </trkpt>
      <trkpt lat="45.89815" lon="4.75884">
        <ele>194</ele>
        <time>2017-07-19T09:32:51Z</time>
      </trkpt>
      <trkpt lat="45.89812" lon="4.75889">
        <ele>194</ele>
        <time>2017-07-19T09:32:52Z</time>
      </trkpt>
      <trkpt lat="45.8981" lon="4.75901">
        <ele>194</ele>
        <time>2017-07-19T09:32:54Z</time>
      </trkpt>
      <trkpt lat="45.89808" lon="4.75906">
        <ele>194</ele>
        <time>2017-07-19T09:32:55Z</time>
      </trkpt>
      <trkpt lat="45.89806" lon="4.75916">
        <ele>194</ele>
        <time>2017-07-19T09:32:57Z</time>
      </trkpt>
      <trkpt lat="45.89805" lon="4.7592">
        <ele>195</ele>
        <time>2017-07-19T09:32:58Z</time>
      </trkpt>
      <trkpt lat="45.89802" lon="4.75929">
        <ele>195</ele>
        <time>2017-07-19T09:33:00Z</time>
      </trkpt>
      <trkpt lat="45.89801" lon="4.75933">
        <ele>195</ele>
        <time>2017-07-19T09:33:01Z</time>
      </trkpt>
      <trkpt lat="45.89798" lon="4.75943">
        <ele>195</ele>
        <time>2017-07-19T09:33:03Z</time>
      </trkpt>
      <trkpt lat="45.89797" lon="4.75948">
        <ele>195</ele>
        <time>2017-07-19T09:33:04Z</time>
      </trkpt>
      <trkpt lat="45.89794" lon="4.75956">
        <ele>195</ele>
        <time>2017-07-19T09:33:06Z</time>
      </trkpt>
      <trkpt lat="45.89791" lon="4.75961">
        <ele>195</ele>
        <time>2017-07-19T09:33:07Z</time>
      </trkpt>
      <trkpt lat="45.89786" lon="4.7597">
        <ele>195</ele>
        <time>2017-07-19T09:33:09Z</time>
      </trkpt>
      <trkpt lat="45.89784" lon="4.75974">
        <ele>195</ele>
        <time>2017-07-19T09:33:10Z</time>
      </trkpt>
      <trkpt lat="45.89783" lon="4.75986">
        <ele>195</ele>
        <time>2017-07-19T09:33:13Z</time>
      </trkpt>
      <trkpt lat="45.89782" lon="4.75991">
        <ele>195</ele>
        <time>2017-07-19T09:33:14Z</time>
      </trkpt>
      <trkpt lat="45.89779" lon="4.76001">
        <ele>195</ele>
        <time>2017-07-19T09:33:16Z</time>
      </trkpt>
      <trkpt lat="45.89778" lon="4.76006">
        <ele>195</ele>
        <time>2017-07-19T09:33:17Z</time>
      </trkpt>
      <trkpt lat="45.89775" lon="4.76016">
        <ele>195</ele>
        <time>2017-07-19T09:33:19Z</time>
      </trkpt>
      <trkpt lat="45.89773" lon="4.76022">
        <ele>195</ele>
        <time>2017-07-19T09:33:20Z</time>
      </trkpt>
      <trkpt lat="45.89769" lon="4.76033">
        <ele>195</ele>
        <time>2017-07-19T09:33:22Z</time>
      </trkpt>
      <trkpt lat="45.89768" lon="4.76038">
        <ele>195</ele>
        <time>2017-07-19T09:33:23Z</time>
      </trkpt>
      <trkpt lat="45.89763" lon="4.76047">
        <ele>195</ele>
        <time>2017-07-19T09:33:25Z</time>
      </trkpt>
      <trkpt lat="45.89761" lon="4.76052">
        <ele>195</ele>
        <time>2017-07-19T09:33:26Z</time>
      </trkpt>
      <trkpt lat="45.89757" lon="4.76061">
        <ele>195</ele>
        <time>2017-07-19T09:33:28Z</time>
      </trkpt>
      <trkpt lat="45.89756" lon="4.76066">
        <ele>195</ele>
        <time>2017-07-19T09:33:29Z</time>
      </trkpt>
      <trkpt lat="45.89752" lon="4.76075">
        <ele>195</ele>
        <time>2017-07-19T09:33:31Z</time>
      </trkpt>
      <trkpt lat="45.89751" lon="4.7608">
        <ele>195</ele>
        <time>2017-07-19T09:33:32Z</time>
      </trkpt>
      <trkpt lat="45.89748" lon="4.76087">
        <ele>195</ele>
        <time>2017-07-19T09:33:34Z</time>
      </trkpt>
      <trkpt lat="45.89746" lon="4.76092">
        <ele>195</ele>
        <time>2017-07-19T09:33:35Z</time>
      </trkpt>
      <trkpt lat="45.89743" lon="4.761">
        <ele>195</ele>
        <time>2017-07-19T09:33:37Z</time>
      </trkpt>
      <trkpt lat="45.89742" lon="4.76105">
        <ele>195</ele>
        <time>2017-07-19T09:33:38Z</time>
      </trkpt>
      <trkpt lat="45.89737" lon="4.76116">
        <ele>195</ele>
        <time>2017-07-19T09:33:40Z</time>
      </trkpt>
      <trkpt lat="45.89735" lon="4.7612">
        <ele>195</ele>
        <time>2017-07-19T09:33:41Z</time>
      </trkpt>
      <trkpt lat="45.89732" lon="4.7613">
        <ele>195</ele>
        <time>2017-07-19T09:33:43Z</time>
      </trkpt>
      <trkpt lat="45.8973" lon="4.76135">
        <ele>195</ele>
        <time>2017-07-19T09:33:44Z</time>
      </trkpt>
      <trkpt lat="45.89728" lon="4.76144">
        <ele>195</ele>
        <time>2017-07-19T09:33:46Z</time>
      </trkpt>
      <trkpt lat="45.89727" lon="4.76149">
        <ele>195</ele>
        <time>2017-07-19T09:33:47Z</time>
      </trkpt>
      <trkpt lat="45.89722" lon="4.76159">
        <ele>195</ele>
        <time>2017-07-19T09:33:50Z</time>
      </trkpt>
      <trkpt lat="45.89721" lon="4.76163">
        <ele>195</ele>
        <time>2017-07-19T09:33:51Z</time>
      </trkpt>
      <trkpt lat="45.89718" lon="4.76171">
        <ele>195</ele>
        <time>2017-07-19T09:33:53Z</time>
      </trkpt>
      <trkpt lat="45.89716" lon="4.76175">
        <ele>195</ele>
        <time>2017-07-19T09:33:54Z</time>
      </trkpt>
      <trkpt lat="45.89714" lon="4.76184">
        <ele>195</ele>
        <time>2017-07-19T09:33:56Z</time>
      </trkpt>
      <trkpt lat="45.89712" lon="4.76188">
        <ele>195</ele>
        <time>2017-07-19T09:33:57Z</time>
      </trkpt>
      <trkpt lat="45.89709" lon="4.76199">
        <ele>195</ele>
        <time>2017-07-19T09:34:00Z</time>
      </trkpt>
      <trkpt lat="45.89708" lon="4.76204">
        <ele>195</ele>
        <time>2017-07-19T09:34:01Z</time>
      </trkpt>
      <trkpt lat="45.89704" lon="4.76212">
        <ele>195</ele>
        <time>2017-07-19T09:34:03Z</time>
      </trkpt>
      <trkpt lat="45.89703" lon="4.76217">
        <ele>195</ele>
        <time>2017-07-19T09:34:04Z</time>
      </trkpt>
      <trkpt lat="45.89701" lon="4.76225">
        <ele>195</ele>
        <time>2017-07-19T09:34:06Z</time>
      </trkpt>
      <trkpt lat="45.89699" lon="4.7623">
        <ele>195</ele>
        <time>2017-07-19T09:34:07Z</time>
      </trkpt>
      <trkpt lat="45.89695" lon="4.76239">
        <ele>195</ele>
        <time>2017-07-19T09:34:09Z</time>
      </trkpt>
      <trkpt lat="45.89693" lon="4.76244">
        <ele>195</ele>
        <time>2017-07-19T09:34:10Z</time>
      </trkpt>
      <trkpt lat="45.8969" lon="4.76254">
        <ele>195</ele>
        <time>2017-07-19T09:34:12Z</time>
      </trkpt>
      <trkpt lat="45.89688" lon="4.76258">
        <ele>195</ele>
        <time>2017-07-19T09:34:13Z</time>
      </trkpt>
      <trkpt lat="45.89686" lon="4.76268">
        <ele>195</ele>
        <time>2017-07-19T09:34:15Z</time>
      </trkpt>
      <trkpt lat="45.89684" lon="4.76272">
        <ele>195</ele>
        <time>2017-07-19T09:34:16Z</time>
      </trkpt>
      <trkpt lat="45.89681" lon="4.76282">
        <ele>195</ele>
        <time>2017-07-19T09:34:18Z</time>
      </trkpt>
      <trkpt lat="45.8968" lon="4.76287">
        <ele>195</ele>
        <time>2017-07-19T09:34:19Z</time>
      </trkpt>
      <trkpt lat="45.89678" lon="4.76293">
        <ele>195</ele>
        <time>2017-07-19T09:34:20Z</time>
      </trkpt>
      <trkpt lat="45.89675" lon="4.76299">
        <ele>195</ele>
        <time>2017-07-19T09:34:21Z</time>
      </trkpt>
      <trkpt lat="45.89672" lon="4.76311">
        <ele>195</ele>
        <time>2017-07-19T09:34:23Z</time>
      </trkpt>
      <trkpt lat="45.89671" lon="4.76316">
        <ele>195</ele>
        <time>2017-07-19T09:34:24Z</time>
      </trkpt>
      <trkpt lat="45.89668" lon="4.76327">
        <ele>195</ele>
        <time>2017-07-19T09:34:26Z</time>
      </trkpt>
      <trkpt lat="45.89666" lon="4.76332">
        <ele>195</ele>
        <time>2017-07-19T09:34:27Z</time>
      </trkpt>
      <trkpt lat="45.89663" lon="4.76341">
        <ele>195</ele>
        <time>2017-07-19T09:34:29Z</time>
      </trkpt>
      <trkpt lat="45.89662" lon="4.76346">
        <ele>195</ele>
        <time>2017-07-19T09:34:30Z</time>
      </trkpt>
      <trkpt lat="45.89658" lon="4.76357">
        <ele>195</ele>
        <time>2017-07-19T09:34:32Z</time>
      </trkpt>
      <trkpt lat="45.89656" lon="4.76363">
        <ele>195</ele>
        <time>2017-07-19T09:34:33Z</time>
      </trkpt>
      <trkpt lat="45.89653" lon="4.76372">
        <ele>195</ele>
        <time>2017-07-19T09:34:35Z</time>
      </trkpt>
      <trkpt lat="45.89651" lon="4.76377">
        <ele>195</ele>
        <time>2017-07-19T09:34:36Z</time>
      </trkpt>
      <trkpt lat="45.89647" lon="4.76384">
        <ele>195</ele>
        <time>2017-07-19T09:34:38Z</time>
      </trkpt>
      <trkpt lat="45.89646" lon="4.76387">
        <ele>195</ele>
        <time>2017-07-19T09:34:39Z</time>
      </trkpt>
      <trkpt lat="45.89642" lon="4.76395">
        <ele>195</ele>
        <time>2017-07-19T09:34:41Z</time>
      </trkpt>
      <trkpt lat="45.89639" lon="4.764">
        <ele>195</ele>
        <time>2017-07-19T09:34:42Z</time>
      </trkpt>
      <trkpt lat="45.89635" lon="4.76411">
        <ele>195</ele>
        <time>2017-07-19T09:34:44Z</time>
      </trkpt>
      <trkpt lat="45.89633" lon="4.76416">
        <ele>195</ele>
        <time>2017-07-19T09:34:45Z</time>
      </trkpt>
      <trkpt lat="45.8963" lon="4.76424">
        <ele>195</ele>
        <time>2017-07-19T09:34:47Z</time>
      </trkpt>
      <trkpt lat="45.89628" lon="4.76428">
        <ele>195</ele>
        <time>2017-07-19T09:34:48Z</time>
      </trkpt>
      <trkpt lat="45.89625" lon="4.76435">
        <ele>195</ele>
        <time>2017-07-19T09:34:50Z</time>
      </trkpt>
      <trkpt lat="45.89623" lon="4.7644">
        <ele>195</ele>
        <time>2017-07-19T09:34:51Z</time>
      </trkpt>
      <trkpt lat="45.89621" lon="4.76448">
        <ele>195</ele>
        <time>2017-07-19T09:34:53Z</time>
      </trkpt>
      <trkpt lat="45.89619" lon="4.76452">
        <ele>195</ele>
        <time>2017-07-19T09:34:54Z</time>
      </trkpt>
      <trkpt lat="45.89616" lon="4.76461">
        <ele>194</ele>
        <time>2017-07-19T09:34:56Z</time>
      </trkpt>
      <trkpt lat="45.89615" lon="4.76467">
        <ele>194</ele>
        <time>2017-07-19T09:34:57Z</time>
      </trkpt>
      <trkpt lat="45.89611" lon="4.76478">
        <ele>194</ele>
        <time>2017-07-19T09:34:59Z</time>
      </trkpt>
      <trkpt lat="45.89608" lon="4.76484">
        <ele>194</ele>
        <time>2017-07-19T09:35:00Z</time>
      </trkpt>
      <trkpt lat="45.89605" lon="4.76494">
        <ele>194</ele>
        <time>2017-07-19T09:35:02Z</time>
      </trkpt>
      <trkpt lat="45.89604" lon="4.76499">
        <ele>194</ele>
        <time>2017-07-19T09:35:03Z</time>
      </trkpt>
      <trkpt lat="45.89601" lon="4.76508">
        <ele>194</ele>
        <time>2017-07-19T09:35:05Z</time>
      </trkpt>
      <trkpt lat="45.89599" lon="4.76513">
        <ele>194</ele>
        <time>2017-07-19T09:35:06Z</time>
      </trkpt>
      <trkpt lat="45.89597" lon="4.76523">
        <ele>194</ele>
        <time>2017-07-19T09:35:09Z</time>
      </trkpt>
      <trkpt lat="45.89597" lon="4.76527">
        <ele>194</ele>
        <time>2017-07-19T09:35:10Z</time>
      </trkpt>
      <trkpt lat="45.89592" lon="4.76535">
        <ele>194</ele>
        <time>2017-07-19T09:35:14Z</time>
      </trkpt>
      <trkpt lat="45.89588" lon="4.76536">
        <ele>194</ele>
        <time>2017-07-19T09:35:15Z</time>
      </trkpt>
      <trkpt lat="45.8958" lon="4.76537">
        <ele>194</ele>
        <time>2017-07-19T09:35:17Z</time>
      </trkpt>
      <trkpt lat="45.89577" lon="4.76538">
        <ele>194</ele>
        <time>2017-07-19T09:35:18Z</time>
      </trkpt>
      <trkpt lat="45.8957" lon="4.76537">
        <ele>194</ele>
        <time>2017-07-19T09:35:21Z</time>
      </trkpt>
      <trkpt lat="45.89567" lon="4.76536">
        <ele>194</ele>
        <time>2017-07-19T09:35:22Z</time>
      </trkpt>
      <trkpt lat="45.89559" lon="4.76538">
        <ele>194</ele>
        <time>2017-07-19T09:35:25Z</time>
      </trkpt>
      <trkpt lat="45.89556" lon="4.76538">
        <ele>194</ele>
        <time>2017-07-19T09:35:26Z</time>
      </trkpt>
      <trkpt lat="45.89549" lon="4.76539">
        <ele>194</ele>
        <time>2017-07-19T09:35:29Z</time>
      </trkpt>
      <trkpt lat="45.89547" lon="4.76539">
        <ele>194</ele>
        <time>2017-07-19T09:35:30Z</time>
      </trkpt>
      <trkpt lat="45.89539" lon="4.76541">
        <ele>194</ele>
        <time>2017-07-19T09:35:33Z</time>
      </trkpt>
      <trkpt lat="45.89537" lon="4.76542">
        <ele>194</ele>
        <time>2017-07-19T09:35:34Z</time>
      </trkpt>
      <trkpt lat="45.89528" lon="4.76544">
        <ele>194</ele>
        <time>2017-07-19T09:35:38Z</time>
      </trkpt>
      <trkpt lat="45.89526" lon="4.76544">
        <ele>194</ele>
        <time>2017-07-19T09:35:39Z</time>
      </trkpt>
      <trkpt lat="45.89519" lon="4.76546">
        <ele>194</ele>
        <time>2017-07-19T09:35:42Z</time>
      </trkpt>
      <trkpt lat="45.89516" lon="4.76546">
        <ele>194</ele>
        <time>2017-07-19T09:35:43Z</time>
      </trkpt>
      <trkpt lat="45.89508" lon="4.76548">
        <ele>194</ele>
        <time>2017-07-19T09:35:46Z</time>
      </trkpt>
      <trkpt lat="45.89506" lon="4.76549">
        <ele>194</ele>
        <time>2017-07-19T09:35:47Z</time>
      </trkpt>
      <trkpt lat="45.89498" lon="4.76551">
        <ele>194</ele>
        <time>2017-07-19T09:35:50Z</time>
      </trkpt>
      <trkpt lat="45.89496" lon="4.76552">
        <ele>194</ele>
        <time>2017-07-19T09:35:51Z</time>
      </trkpt>
      <trkpt lat="45.89488" lon="4.76554">
        <ele>194</ele>
        <time>2017-07-19T09:35:54Z</time>
      </trkpt>
      <trkpt lat="45.89486" lon="4.76555">
        <ele>194</ele>
        <time>2017-07-19T09:35:55Z</time>
      </trkpt>
      <trkpt lat="45.89478" lon="4.76557">
        <ele>194</ele>
        <time>2017-07-19T09:35:58Z</time>
      </trkpt>
      <trkpt lat="45.89476" lon="4.76558">
        <ele>194</ele>
        <time>2017-07-19T09:35:59Z</time>
      </trkpt>
      <trkpt lat="45.89467" lon="4.76561">
        <ele>194</ele>
        <time>2017-07-19T09:36:02Z</time>
      </trkpt>
      <trkpt lat="45.89464" lon="4.76563">
        <ele>194</ele>
        <time>2017-07-19T09:36:03Z</time>
      </trkpt>
      <trkpt lat="45.89456" lon="4.76566">
        <ele>194</ele>
        <time>2017-07-19T09:36:05Z</time>
      </trkpt>
      <trkpt lat="45.89453" lon="4.76566">
        <ele>194</ele>
        <time>2017-07-19T09:36:06Z</time>
      </trkpt>
      <trkpt lat="45.89446" lon="4.76567">
        <ele>194</ele>
        <time>2017-07-19T09:36:08Z</time>
      </trkpt>
      <trkpt lat="45.89443" lon="4.76567">
        <ele>194</ele>
        <time>2017-07-19T09:36:09Z</time>
      </trkpt>
      <trkpt lat="45.89435" lon="4.76564">
        <ele>194</ele>
        <time>2017-07-19T09:36:12Z</time>
      </trkpt>
      <trkpt lat="45.89431" lon="4.76562">
        <ele>194</ele>
        <time>2017-07-19T09:36:13Z</time>
      </trkpt>
      <trkpt lat="45.89425" lon="4.76558">
        <ele>194</ele>
        <time>2017-07-19T09:36:15Z</time>
      </trkpt>
      <trkpt lat="45.89422" lon="4.76556">
        <ele>194</ele>
        <time>2017-07-19T09:36:16Z</time>
      </trkpt>
      <trkpt lat="45.89415" lon="4.76551">
        <ele>194</ele>
        <time>2017-07-19T09:36:19Z</time>
      </trkpt>
      <trkpt lat="45.89412" lon="4.7655">
        <ele>194</ele>
        <time>2017-07-19T09:36:20Z</time>
      </trkpt>
      <trkpt lat="45.89404" lon="4.76548">
        <ele>194</ele>
        <time>2017-07-19T09:36:23Z</time>
      </trkpt>
      <trkpt lat="45.89401" lon="4.76547">
        <ele>194</ele>
        <time>2017-07-19T09:36:24Z</time>
      </trkpt>
      <trkpt lat="45.89393" lon="4.76544">
        <ele>194</ele>
        <time>2017-07-19T09:36:27Z</time>
      </trkpt>
      <trkpt lat="45.8939" lon="4.76542">
        <ele>194</ele>
        <time>2017-07-19T09:36:28Z</time>
      </trkpt>
      <trkpt lat="45.89383" lon="4.76539">
        <ele>194</ele>
        <time>2017-07-19T09:36:30Z</time>
      </trkpt>
      <trkpt lat="45.8938" lon="4.76538">
        <ele>194</ele>
        <time>2017-07-19T09:36:31Z</time>
      </trkpt>
      <trkpt lat="45.89373" lon="4.76533">
        <ele>194</ele>
        <time>2017-07-19T09:36:34Z</time>
      </trkpt>
      <trkpt lat="45.8937" lon="4.76532">
        <ele>194</ele>
        <time>2017-07-19T09:36:35Z</time>
      </trkpt>
      <trkpt lat="45.89363" lon="4.76531">
        <ele>194</ele>
        <time>2017-07-19T09:36:38Z</time>
      </trkpt>
      <trkpt lat="45.89361" lon="4.7653">
        <ele>194</ele>
        <time>2017-07-19T09:36:39Z</time>
      </trkpt>
      <trkpt lat="45.89356" lon="4.76526">
        <ele>194</ele>
        <time>2017-07-19T09:36:41Z</time>
      </trkpt>
      <trkpt lat="45.89353" lon="4.76523">
        <ele>194</ele>
        <time>2017-07-19T09:36:42Z</time>
      </trkpt>
      <trkpt lat="45.89347" lon="4.76517">
        <ele>194</ele>
        <time>2017-07-19T09:36:44Z</time>
      </trkpt>
      <trkpt lat="45.89344" lon="4.76516">
        <ele>194</ele>
        <time>2017-07-19T09:36:45Z</time>
      </trkpt>
      <trkpt lat="45.89336" lon="4.76514">
        <ele>194</ele>
        <time>2017-07-19T09:36:48Z</time>
      </trkpt>
      <trkpt lat="45.89334" lon="4.76512">
        <ele>194</ele>
        <time>2017-07-19T09:36:49Z</time>
      </trkpt>
      <trkpt lat="45.89326" lon="4.76509">
        <ele>194</ele>
        <time>2017-07-19T09:36:52Z</time>
      </trkpt>
      <trkpt lat="45.89323" lon="4.76508">
        <ele>194</ele>
        <time>2017-07-19T09:36:53Z</time>
      </trkpt>
      <trkpt lat="45.89315" lon="4.76505">
        <ele>194</ele>
        <time>2017-07-19T09:36:55Z</time>
      </trkpt>
      <trkpt lat="45.89312" lon="4.76504">
        <ele>194</ele>
        <time>2017-07-19T09:36:56Z</time>
      </trkpt>
      <trkpt lat="45.89305" lon="4.76503">
        <ele>194</ele>
        <time>2017-07-19T09:36:58Z</time>
      </trkpt>
      <trkpt lat="45.89303" lon="4.76502">
        <ele>194</ele>
        <time>2017-07-19T09:36:59Z</time>
      </trkpt>
      <trkpt lat="45.89295" lon="4.76498">
        <ele>194</ele>
        <time>2017-07-19T09:37:02Z</time>
      </trkpt>
      <trkpt lat="45.89292" lon="4.76498">
        <ele>194</ele>
        <time>2017-07-19T09:37:03Z</time>
      </trkpt>
      <trkpt lat="45.89287" lon="4.76496">
        <ele>193</ele>
        <time>2017-07-19T09:37:05Z</time>
      </trkpt>
      <trkpt lat="45.89283" lon="4.76495">
        <ele>193</ele>
        <time>2017-07-19T09:37:06Z</time>
      </trkpt>
      <trkpt lat="45.89275" lon="4.76493">
        <ele>193</ele>
        <time>2017-07-19T09:37:09Z</time>
      </trkpt>
      <trkpt lat="45.89273" lon="4.76492">
        <ele>193</ele>
        <time>2017-07-19T09:37:10Z</time>
      </trkpt>
      <trkpt lat="45.89264" lon="4.76489">
        <ele>193</ele>
        <time>2017-07-19T09:37:13Z</time>
      </trkpt>
      <trkpt lat="45.89261" lon="4.76488">
        <ele>193</ele>
        <time>2017-07-19T09:37:14Z</time>
      </trkpt>
      <trkpt lat="45.89252" lon="4.76485">
        <ele>193</ele>
        <time>2017-07-19T09:37:17Z</time>
      </trkpt>
      <trkpt lat="45.8925" lon="4.76485">
        <ele>193</ele>
        <time>2017-07-19T09:37:18Z</time>
      </trkpt>
      <trkpt lat="45.89242" lon="4.76479">
        <ele>193</ele>
        <time>2017-07-19T09:37:21Z</time>
      </trkpt>
      <trkpt lat="45.8924" lon="4.76478">
        <ele>193</ele>
        <time>2017-07-19T09:37:22Z</time>
      </trkpt>
      <trkpt lat="45.89234" lon="4.76473">
        <ele>193</ele>
        <time>2017-07-19T09:37:25Z</time>
      </trkpt>
      <trkpt lat="45.89232" lon="4.7647">
        <ele>193</ele>
        <time>2017-07-19T09:37:26Z</time>
      </trkpt>
      <trkpt lat="45.89226" lon="4.76463">
        <ele>193</ele>
        <time>2017-07-19T09:37:29Z</time>
      </trkpt>
      <trkpt lat="45.89223" lon="4.7646">
        <ele>193</ele>
        <time>2017-07-19T09:37:30Z</time>
      </trkpt>
      <trkpt lat="45.89218" lon="4.76451">
        <ele>194</ele>
        <time>2017-07-19T09:37:32Z</time>
      </trkpt>
      <trkpt lat="45.89216" lon="4.76447">
        <ele>194</ele>
        <time>2017-07-19T09:37:33Z</time>
      </trkpt>
      <trkpt lat="45.8921" lon="4.76438">
        <ele>194</ele>
        <time>2017-07-19T09:37:36Z</time>
      </trkpt>
      <trkpt lat="45.89209" lon="4.76436">
        <ele>194</ele>
        <time>2017-07-19T09:37:37Z</time>
      </trkpt>
      <trkpt lat="45.89205" lon="4.76425">
        <ele>193</ele>
        <time>2017-07-19T09:37:40Z</time>
      </trkpt>
      <trkpt lat="45.89203" lon="4.76422">
        <ele>193</ele>
        <time>2017-07-19T09:37:41Z</time>
      </trkpt>
      <trkpt lat="45.89199" lon="4.76413">
        <ele>194</ele>
        <time>2017-07-19T09:37:44Z</time>
      </trkpt>
      <trkpt lat="45.89197" lon="4.7641">
        <ele>194</ele>
        <time>2017-07-19T09:37:45Z</time>
      </trkpt>
      <trkpt lat="45.89194" lon="4.76401">
        <ele>194</ele>
        <time>2017-07-19T09:37:48Z</time>
      </trkpt>
      <trkpt lat="45.89192" lon="4.76397">
        <ele>194</ele>
        <time>2017-07-19T09:37:49Z</time>
      </trkpt>
      <trkpt lat="45.89188" lon="4.76389">
        <ele>194</ele>
        <time>2017-07-19T09:37:51Z</time>
      </trkpt>
      <trkpt lat="45.89186" lon="4.76385">
        <ele>194</ele>
        <time>2017-07-19T09:37:52Z</time>
      </trkpt>
      <trkpt lat="45.89181" lon="4.76375">
        <ele>194</ele>
        <time>2017-07-19T09:37:54Z</time>
      </trkpt>
      <trkpt lat="45.89179" lon="4.76371">
        <ele>194</ele>
        <time>2017-07-19T09:37:55Z</time>
      </trkpt>
      <trkpt lat="45.89175" lon="4.7636">
        <ele>194</ele>
        <time>2017-07-19T09:37:58Z</time>
      </trkpt>
      <trkpt lat="45.89173" lon="4.76357">
        <ele>194</ele>
        <time>2017-07-19T09:37:59Z</time>
      </trkpt>
      <trkpt lat="45.89169" lon="4.76348">
        <ele>195</ele>
        <time>2017-07-19T09:38:01Z</time>
      </trkpt>
      <trkpt lat="45.89167" lon="4.76343">
        <ele>195</ele>
        <time>2017-07-19T09:38:02Z</time>
      </trkpt>
      <trkpt lat="45.89162" lon="4.76334">
        <ele>195</ele>
        <time>2017-07-19T09:38:04Z</time>
      </trkpt>
      <trkpt lat="45.8916" lon="4.76329">
        <ele>195</ele>
        <time>2017-07-19T09:38:05Z</time>
      </trkpt>
      <trkpt lat="45.89156" lon="4.7632">
        <ele>196</ele>
        <time>2017-07-19T09:38:07Z</time>
      </trkpt>
      <trkpt lat="45.89154" lon="4.76317">
        <ele>196</ele>
        <time>2017-07-19T09:38:08Z</time>
      </trkpt>
      <trkpt lat="45.89149" lon="4.76308">
        <ele>196</ele>
        <time>2017-07-19T09:38:10Z</time>
      </trkpt>
      <trkpt lat="45.89147" lon="4.76302">
        <ele>196</ele>
        <time>2017-07-19T09:38:11Z</time>
      </trkpt>
      <trkpt lat="45.89143" lon="4.76292">
        <ele>196</ele>
        <time>2017-07-19T09:38:13Z</time>
      </trkpt>
      <trkpt lat="45.89141" lon="4.76287">
        <ele>196</ele>
        <time>2017-07-19T09:38:14Z</time>
      </trkpt>
      <trkpt lat="45.89138" lon="4.76276">
        <ele>196</ele>
        <time>2017-07-19T09:38:16Z</time>
      </trkpt>
      <trkpt lat="45.89136" lon="4.76271">
        <ele>196</ele>
        <time>2017-07-19T09:38:17Z</time>
      </trkpt>
      <trkpt lat="45.89132" lon="4.76259">
        <ele>197</ele>
        <time>2017-07-19T09:38:20Z</time>
      </trkpt>
      <trkpt lat="45.8913" lon="4.76255">
        <ele>197</ele>
        <time>2017-07-19T09:38:21Z</time>
      </trkpt>
      <trkpt lat="45.89126" lon="4.76247">
        <ele>196</ele>
        <time>2017-07-19T09:38:23Z</time>
      </trkpt>
      <trkpt lat="45.89124" lon="4.76243">
        <ele>196</ele>
        <time>2017-07-19T09:38:24Z</time>
      </trkpt>
      <trkpt lat="45.89119" lon="4.76233">
        <ele>196</ele>
        <time>2017-07-19T09:38:26Z</time>
      </trkpt>
      <trkpt lat="45.89116" lon="4.76229">
        <ele>196</ele>
        <time>2017-07-19T09:38:27Z</time>
      </trkpt>
      <trkpt lat="45.89112" lon="4.76222">
        <ele>196</ele>
        <time>2017-07-19T09:38:29Z</time>
      </trkpt>
      <trkpt lat="45.8911" lon="4.76218">
        <ele>196</ele>
        <time>2017-07-19T09:38:30Z</time>
      </trkpt>
      <trkpt lat="45.89105" lon="4.7621">
        <ele>196</ele>
        <time>2017-07-19T09:38:32Z</time>
      </trkpt>
      <trkpt lat="45.89103" lon="4.76207">
        <ele>196</ele>
        <time>2017-07-19T09:38:33Z</time>
      </trkpt>
      <trkpt lat="45.89098" lon="4.76198">
        <ele>196</ele>
        <time>2017-07-19T09:38:35Z</time>
      </trkpt>
      <trkpt lat="45.89095" lon="4.76193">
        <ele>196</ele>
        <time>2017-07-19T09:38:36Z</time>
      </trkpt>
      <trkpt lat="45.89089" lon="4.76185">
        <ele>196</ele>
        <time>2017-07-19T09:38:38Z</time>
      </trkpt>
      <trkpt lat="45.89088" lon="4.7618">
        <ele>195</ele>
        <time>2017-07-19T09:38:39Z</time>
      </trkpt>
      <trkpt lat="45.89085" lon="4.76171">
        <ele>195</ele>
        <time>2017-07-19T09:38:41Z</time>
      </trkpt>
      <trkpt lat="45.89083" lon="4.76168">
        <ele>195</ele>
        <time>2017-07-19T09:38:42Z</time>
      </trkpt>
      <trkpt lat="45.8908" lon="4.76159">
        <ele>196</ele>
        <time>2017-07-19T09:38:44Z</time>
      </trkpt>
      <trkpt lat="45.89077" lon="4.76154">
        <ele>196</ele>
        <time>2017-07-19T09:38:45Z</time>
      </trkpt>
      <trkpt lat="45.89072" lon="4.76145">
        <ele>197</ele>
        <time>2017-07-19T09:38:47Z</time>
      </trkpt>
      <trkpt lat="45.89069" lon="4.7614">
        <ele>197</ele>
        <time>2017-07-19T09:38:48Z</time>
      </trkpt>
      <trkpt lat="45.89066" lon="4.76133">
        <ele>197</ele>
        <time>2017-07-19T09:38:50Z</time>
      </trkpt>
      <trkpt lat="45.89064" lon="4.76129">
        <ele>197</ele>
        <time>2017-07-19T09:38:51Z</time>
      </trkpt>
      <trkpt lat="45.89059" lon="4.76122">
        <ele>197</ele>
        <time>2017-07-19T09:38:53Z</time>
      </trkpt>
      <trkpt lat="45.89057" lon="4.76119">
        <ele>197</ele>
        <time>2017-07-19T09:38:54Z</time>
      </trkpt>
      <trkpt lat="45.89053" lon="4.76111">
        <ele>197</ele>
        <time>2017-07-19T09:38:56Z</time>
      </trkpt>
      <trkpt lat="45.89051" lon="4.76106">
        <ele>197</ele>
        <time>2017-07-19T09:38:57Z</time>
      </trkpt>
      <trkpt lat="45.89045" lon="4.76097">
        <ele>198</ele>
        <time>2017-07-19T09:38:59Z</time>
      </trkpt>
      <trkpt lat="45.89043" lon="4.76092">
        <ele>198</ele>
        <time>2017-07-19T09:39:00Z</time>
      </trkpt>
      <trkpt lat="45.89038" lon="4.76083">
        <ele>199</ele>
        <time>2017-07-19T09:39:02Z</time>
      </trkpt>
      <trkpt lat="45.89035" lon="4.76077">
        <ele>199</ele>
        <time>2017-07-19T09:39:03Z</time>
      </trkpt>
      <trkpt lat="45.89029" lon="4.76068">
        <ele>199</ele>
        <time>2017-07-19T09:39:05Z</time>
      </trkpt>
      <trkpt lat="45.89027" lon="4.76062">
        <ele>199</ele>
        <time>2017-07-19T09:39:06Z</time>
      </trkpt>
      <trkpt lat="45.89024" lon="4.76056">
        <ele>199</ele>
        <time>2017-07-19T09:39:07Z</time>
      </trkpt>
      <trkpt lat="45.89022" lon="4.7605">
        <ele>199</ele>
        <time>2017-07-19T09:39:08Z</time>
      </trkpt>
      <trkpt lat="45.89017" lon="4.7604">
        <ele>199</ele>
        <time>2017-07-19T09:39:10Z</time>
      </trkpt>
      <trkpt lat="45.89016" lon="4.76036">
        <ele>199</ele>
        <time>2017-07-19T09:39:11Z</time>
      </trkpt>
      <trkpt lat="45.89012" lon="4.76026">
        <ele>199</ele>
        <time>2017-07-19T09:39:13Z</time>
      </trkpt>
      <trkpt lat="45.89009" lon="4.76022">
        <ele>199</ele>
        <time>2017-07-19T09:39:14Z</time>
      </trkpt>
      <trkpt lat="45.89004" lon="4.76013">
        <ele>200</ele>
        <time>2017-07-19T09:39:16Z</time>
      </trkpt>
      <trkpt lat="45.89002" lon="4.76008">
        <ele>200</ele>
        <time>2017-07-19T09:39:17Z</time>
      </trkpt>
      <trkpt lat="45.89" lon="4.76001">
        <ele>200</ele>
        <time>2017-07-19T09:39:18Z</time>
      </trkpt>
      <trkpt lat="45.88999" lon="4.75995">
        <ele>200</ele>
        <time>2017-07-19T09:39:19Z</time>
      </trkpt>
      <trkpt lat="45.88996" lon="4.75987">
        <ele>200</ele>
        <time>2017-07-19T09:39:21Z</time>
      </trkpt>
      <trkpt lat="45.88994" lon="4.75984">
        <ele>200</ele>
        <time>2017-07-19T09:39:22Z</time>
      </trkpt>
      <trkpt lat="45.88989" lon="4.75975">
        <ele>199</ele>
        <time>2017-07-19T09:39:24Z</time>
      </trkpt>
      <trkpt lat="45.88988" lon="4.75972">
        <ele>199</ele>
        <time>2017-07-19T09:39:25Z</time>
      </trkpt>
      <trkpt lat="45.88987" lon="4.75962">
        <ele>199</ele>
        <time>2017-07-19T09:39:28Z</time>
      </trkpt>
      <trkpt lat="45.88985" lon="4.75958">
        <ele>199</ele>
        <time>2017-07-19T09:39:29Z</time>
      </trkpt>
      <trkpt lat="45.88984" lon="4.75948">
        <ele>199</ele>
        <time>2017-07-19T09:39:31Z</time>
      </trkpt>
      <trkpt lat="45.88985" lon="4.75944">
        <ele>199</ele>
        <time>2017-07-19T09:39:32Z</time>
      </trkpt>
      <trkpt lat="45.88989" lon="4.75933">
        <ele>199</ele>
        <time>2017-07-19T09:39:35Z</time>
      </trkpt>
      <trkpt lat="45.8899" lon="4.75929">
        <ele>200</ele>
        <time>2017-07-19T09:39:36Z</time>
      </trkpt>
      <trkpt lat="45.88993" lon="4.75917">
        <ele>200</ele>
        <time>2017-07-19T09:39:38Z</time>
      </trkpt>
      <trkpt lat="45.88995" lon="4.75912">
        <ele>200</ele>
        <time>2017-07-19T09:39:39Z</time>
      </trkpt>
      <trkpt lat="45.88999" lon="4.75902">
        <ele>199</ele>
        <time>2017-07-19T09:39:41Z</time>
      </trkpt>
      <trkpt lat="45.89001" lon="4.75898">
        <ele>200</ele>
        <time>2017-07-19T09:39:42Z</time>
      </trkpt>
      <trkpt lat="45.89005" lon="4.75891">
        <ele>200</ele>
        <time>2017-07-19T09:39:44Z</time>
      </trkpt>
      <trkpt lat="45.89007" lon="4.75887">
        <ele>200</ele>
        <time>2017-07-19T09:39:45Z</time>
      </trkpt>
      <trkpt lat="45.8901" lon="4.75879">
        <ele>200</ele>
        <time>2017-07-19T09:39:47Z</time>
      </trkpt>
      <trkpt lat="45.89011" lon="4.75874">
        <ele>200</ele>
        <time>2017-07-19T09:39:48Z</time>
      </trkpt>
      <trkpt lat="45.89012" lon="4.75861">
        <ele>200</ele>
        <time>2017-07-19T09:39:50Z</time>
      </trkpt>
      <trkpt lat="45.89013" lon="4.75855">
        <ele>200</ele>
        <time>2017-07-19T09:39:51Z</time>
      </trkpt>
      <trkpt lat="45.89014" lon="4.75844">
        <ele>200</ele>
        <time>2017-07-19T09:39:53Z</time>
      </trkpt>
      <trkpt lat="45.89013" lon="4.75838">
        <ele>200</ele>
        <time>2017-07-19T09:39:54Z</time>
      </trkpt>
      <trkpt lat="45.89012" lon="4.75829">
        <ele>200</ele>
        <time>2017-07-19T09:39:56Z</time>
      </trkpt>
      <trkpt lat="45.89011" lon="4.75824">
        <ele>199</ele>
        <time>2017-07-19T09:39:57Z</time>
      </trkpt>
      <trkpt lat="45.89008" lon="4.75813">
        <ele>199</ele>
        <time>2017-07-19T09:39:59Z</time>
      </trkpt>
      <trkpt lat="45.89007" lon="4.75806">
        <ele>199</ele>
        <time>2017-07-19T09:40:00Z</time>
      </trkpt>
      <trkpt lat="45.89005" lon="4.758">
        <ele>199</ele>
        <time>2017-07-19T09:40:01Z</time>
      </trkpt>
      <trkpt lat="45.89003" lon="4.75794">
        <ele>199</ele>
        <time>2017-07-19T09:40:02Z</time>
      </trkpt>
      <trkpt lat="45.89001" lon="4.75786">
        <ele>199</ele>
        <time>2017-07-19T09:40:03Z</time>
      </trkpt>
      <trkpt lat="45.89" lon="4.7578">
        <ele>199</ele>
        <time>2017-07-19T09:40:04Z</time>
      </trkpt>
      <trkpt lat="45.88997" lon="4.7577">
        <ele>198</ele>
        <time>2017-07-19T09:40:06Z</time>
      </trkpt>
      <trkpt lat="45.88996" lon="4.75765">
        <ele>198</ele>
        <time>2017-07-19T09:40:07Z</time>
      </trkpt>
      <trkpt lat="45.88994" lon="4.75756">
        <ele>198</ele>
        <time>2017-07-19T09:40:09Z</time>
      </trkpt>
      <trkpt lat="45.88992" lon="4.7575">
        <ele>198</ele>
        <time>2017-07-19T09:40:10Z</time>
      </trkpt>
      <trkpt lat="45.8899" lon="4.75738">
        <ele>198</ele>
        <time>2017-07-19T09:40:12Z</time>
      </trkpt>
      <trkpt lat="45.88989" lon="4.75732">
        <ele>198</ele>
        <time>2017-07-19T09:40:13Z</time>
      </trkpt>
      <trkpt lat="45.88987" lon="4.75722">
        <ele>198</ele>
        <time>2017-07-19T09:40:15Z</time>
      </trkpt>
      <trkpt lat="45.88986" lon="4.75716">
        <ele>199</ele>
        <time>2017-07-19T09:40:16Z</time>
      </trkpt>
      <trkpt lat="45.88985" lon="4.75705">
        <ele>199</ele>
        <time>2017-07-19T09:40:18Z</time>
      </trkpt>
      <trkpt lat="45.88984" lon="4.757">
        <ele>199</ele>
        <time>2017-07-19T09:40:19Z</time>
      </trkpt>
      <trkpt lat="45.88981" lon="4.75687">
        <ele>199</ele>
        <time>2017-07-19T09:40:21Z</time>
      </trkpt>
      <trkpt lat="45.8898" lon="4.7568">
        <ele>199</ele>
        <time>2017-07-19T09:40:22Z</time>
      </trkpt>
      <trkpt lat="45.88978" lon="4.75673">
        <ele>199</ele>
        <time>2017-07-19T09:40:23Z</time>
      </trkpt>
      <trkpt lat="45.88977" lon="4.75666">
        <ele>198</ele>
        <time>2017-07-19T09:40:24Z</time>
      </trkpt>
      <trkpt lat="45.88973" lon="4.75656">
        <ele>198</ele>
        <time>2017-07-19T09:40:26Z</time>
      </trkpt>
      <trkpt lat="45.88972" lon="4.75651">
        <ele>198</ele>
        <time>2017-07-19T09:40:27Z</time>
      </trkpt>
      <trkpt lat="45.88969" lon="4.75641">
        <ele>198</ele>
        <time>2017-07-19T09:40:29Z</time>
      </trkpt>
      <trkpt lat="45.88968" lon="4.75635">
        <ele>198</ele>
        <time>2017-07-19T09:40:30Z</time>
      </trkpt>
      <trkpt lat="45.88966" lon="4.75629">
        <ele>198</ele>
        <time>2017-07-19T09:40:31Z</time>
      </trkpt>
      <trkpt lat="45.88965" lon="4.75623">
        <ele>198</ele>
        <time>2017-07-19T09:40:32Z</time>
      </trkpt>
      <trkpt lat="45.88964" lon="4.75615">
        <ele>198</ele>
        <time>2017-07-19T09:40:33Z</time>
      </trkpt>
      <trkpt lat="45.88963" lon="4.75607">
        <ele>198</ele>
        <time>2017-07-19T09:40:34Z</time>
      </trkpt>
      <trkpt lat="45.88962" lon="4.756">
        <ele>198</ele>
        <time>2017-07-19T09:40:35Z</time>
      </trkpt>
      <trkpt lat="45.88961" lon="4.75594">
        <ele>198</ele>
        <time>2017-07-19T09:40:36Z</time>
      </trkpt>
      <trkpt lat="45.88961" lon="4.75587">
        <ele>198</ele>
        <time>2017-07-19T09:40:37Z</time>
      </trkpt>
      <trkpt lat="45.8896" lon="4.75581">
        <ele>198</ele>
        <time>2017-07-19T09:40:38Z</time>
      </trkpt>
      <trkpt lat="45.88959" lon="4.7557">
        <ele>198</ele>
        <time>2017-07-19T09:40:40Z</time>
      </trkpt>
      <trkpt lat="45.88959" lon="4.75564">
        <ele>198</ele>
        <time>2017-07-19T09:40:41Z</time>
      </trkpt>
      <trkpt lat="45.88959" lon="4.75557">
        <ele>198</ele>
        <time>2017-07-19T09:40:42Z</time>
      </trkpt>
      <trkpt lat="45.88958" lon="4.75551">
        <ele>198</ele>
        <time>2017-07-19T09:40:43Z</time>
      </trkpt>
      <trkpt lat="45.88957" lon="4.75544">
        <ele>198</ele>
        <time>2017-07-19T09:40:44Z</time>
      </trkpt>
      <trkpt lat="45.88957" lon="4.75537">
        <ele>198</ele>
        <time>2017-07-19T09:40:45Z</time>
      </trkpt>
      <trkpt lat="45.88956" lon="4.75531">
        <ele>198</ele>
        <time>2017-07-19T09:40:46Z</time>
      </trkpt>
      <trkpt lat="45.88956" lon="4.75524">
        <ele>198</ele>
        <time>2017-07-19T09:40:47Z</time>
      </trkpt>
      <trkpt lat="45.88955" lon="4.75512">
        <ele>198</ele>
        <time>2017-07-19T09:40:49Z</time>
      </trkpt>
      <trkpt lat="45.88955" lon="4.75505">
        <ele>198</ele>
        <time>2017-07-19T09:40:50Z</time>
      </trkpt>
      <trkpt lat="45.88955" lon="4.75499">
        <ele>198</ele>
        <time>2017-07-19T09:40:51Z</time>
      </trkpt>
      <trkpt lat="45.88954" lon="4.75491">
        <ele>199</ele>
        <time>2017-07-19T09:40:52Z</time>
      </trkpt>
      <trkpt lat="45.88954" lon="4.75484">
        <ele>199</ele>
        <time>2017-07-19T09:40:53Z</time>
      </trkpt>
      <trkpt lat="45.88955" lon="4.75477">
        <ele>199</ele>
        <time>2017-07-19T09:40:54Z</time>
      </trkpt>
      <trkpt lat="45.88956" lon="4.75464">
        <ele>199</ele>
        <time>2017-07-19T09:40:56Z</time>
      </trkpt>
      <trkpt lat="45.88955" lon="4.75458">
        <ele>199</ele>
        <time>2017-07-19T09:40:57Z</time>
      </trkpt>
      <trkpt lat="45.88954" lon="4.75448">
        <ele>199</ele>
        <time>2017-07-19T09:40:59Z</time>
      </trkpt>
      <trkpt lat="45.88954" lon="4.75442">
        <ele>199</ele>
        <time>2017-07-19T09:41:00Z</time>
      </trkpt>
      <trkpt lat="45.88955" lon="4.75433">
        <ele>199</ele>
        <time>2017-07-19T09:41:02Z</time>
      </trkpt>
      <trkpt lat="45.88957" lon="4.75429">
        <ele>199</ele>
        <time>2017-07-19T09:41:03Z</time>
      </trkpt>
      <trkpt lat="45.88964" lon="4.75425">
        <ele>199</ele>
        <time>2017-07-19T09:41:05Z</time>
      </trkpt>
      <trkpt lat="45.88968" lon="4.75424">
        <ele>199</ele>
        <time>2017-07-19T09:41:06Z</time>
      </trkpt>
      <trkpt lat="45.88973" lon="4.75422">
        <ele>199</ele>
        <time>2017-07-19T09:41:07Z</time>
      </trkpt>
      <trkpt lat="45.88979" lon="4.75421">
        <ele>199</ele>
        <time>2017-07-19T09:41:08Z</time>
      </trkpt>
      <trkpt lat="45.88984" lon="4.7542">
        <ele>199</ele>
        <time>2017-07-19T09:41:09Z</time>
      </trkpt>
      <trkpt lat="45.88989" lon="4.75419">
        <ele>199</ele>
        <time>2017-07-19T09:41:10Z</time>
      </trkpt>
      <trkpt lat="45.88994" lon="4.75418">
        <ele>199</ele>
        <time>2017-07-19T09:41:11Z</time>
      </trkpt>
      <trkpt lat="45.88999" lon="4.75416">
        <ele>199</ele>
        <time>2017-07-19T09:41:12Z</time>
      </trkpt>
      <trkpt lat="45.89005" lon="4.75416">
        <ele>199</ele>
        <time>2017-07-19T09:41:13Z</time>
      </trkpt>
      <trkpt lat="45.8901" lon="4.75414">
        <ele>199</ele>
        <time>2017-07-19T09:41:14Z</time>
      </trkpt>
      <trkpt lat="45.89015" lon="4.75412">
        <ele>199</ele>
        <time>2017-07-19T09:41:15Z</time>
      </trkpt>
      <trkpt lat="45.8902" lon="4.75409">
        <ele>199</ele>
        <time>2017-07-19T09:41:16Z</time>
      </trkpt>
      <trkpt lat="45.89024" lon="4.75406">
        <ele>199</ele>
        <time>2017-07-19T09:41:17Z</time>
      </trkpt>
      <trkpt lat="45.89029" lon="4.75405">
        <ele>199</ele>
        <time>2017-07-19T09:41:18Z</time>
      </trkpt>
      <trkpt lat="45.89034" lon="4.75403">
        <ele>199</ele>
        <time>2017-07-19T09:41:19Z</time>
      </trkpt>
      <trkpt lat="45.89038" lon="4.75399">
        <ele>199</ele>
        <time>2017-07-19T09:41:20Z</time>
      </trkpt>
      <trkpt lat="45.89041" lon="4.75395">
        <ele>199</ele>
        <time>2017-07-19T09:41:21Z</time>
      </trkpt>
      <trkpt lat="45.89044" lon="4.75389">
        <ele>199</ele>
        <time>2017-07-19T09:41:22Z</time>
      </trkpt>
      <trkpt lat="45.89045" lon="4.75377">
        <ele>199</ele>
        <time>2017-07-19T09:41:24Z</time>
      </trkpt>
      <trkpt lat="45.89046" lon="4.75372">
        <ele>199</ele>
        <time>2017-07-19T09:41:25Z</time>
      </trkpt>
      <trkpt lat="45.89045" lon="4.75362">
        <ele>199</ele>
        <time>2017-07-19T09:41:27Z</time>
      </trkpt>
      <trkpt lat="45.89045" lon="4.75358">
        <ele>199</ele>
        <time>2017-07-19T09:41:28Z</time>
      </trkpt>
      <trkpt lat="45.89045" lon="4.75348">
        <ele>199</ele>
        <time>2017-07-19T09:41:30Z</time>
      </trkpt>
      <trkpt lat="45.89045" lon="4.75341">
        <ele>199</ele>
        <time>2017-07-19T09:41:31Z</time>
      </trkpt>
      <trkpt lat="45.89045" lon="4.75335">
        <ele>199</ele>
        <time>2017-07-19T09:41:32Z</time>
      </trkpt>
      <trkpt lat="45.89046" lon="4.75328">
        <ele>199</ele>
        <time>2017-07-19T09:41:33Z</time>
      </trkpt>
      <trkpt lat="45.89047" lon="4.75321">
        <ele>199</ele>
        <time>2017-07-19T09:41:34Z</time>
      </trkpt>
      <trkpt lat="45.89047" lon="4.75314">
        <ele>199</ele>
        <time>2017-07-19T09:41:35Z</time>
      </trkpt>
      <trkpt lat="45.89048" lon="4.75307">
        <ele>199</ele>
        <time>2017-07-19T09:41:36Z</time>
      </trkpt>
      <trkpt lat="45.89049" lon="4.753">
        <ele>199</ele>
        <time>2017-07-19T09:41:37Z</time>
      </trkpt>
      <trkpt lat="45.89051" lon="4.75288">
        <ele>199</ele>
        <time>2017-07-19T09:41:39Z</time>
      </trkpt>
      <trkpt lat="45.89051" lon="4.75283">
        <ele>199</ele>
        <time>2017-07-19T09:41:40Z</time>
      </trkpt>
      <trkpt lat="45.89054" lon="4.75272">
        <ele>199</ele>
        <time>2017-07-19T09:41:42Z</time>
      </trkpt>
      <trkpt lat="45.89054" lon="4.75267">
        <ele>199</ele>
        <time>2017-07-19T09:41:43Z</time>
      </trkpt>
      <trkpt lat="45.89055" lon="4.75256">
        <ele>199</ele>
        <time>2017-07-19T09:41:45Z</time>
      </trkpt>
      <trkpt lat="45.89055" lon="4.75249">
        <ele>199</ele>
        <time>2017-07-19T09:41:46Z</time>
      </trkpt>
      <trkpt lat="45.89056" lon="4.75242">
        <ele>199</ele>
        <time>2017-07-19T09:41:47Z</time>
      </trkpt>
      <trkpt lat="45.89057" lon="4.75235">
        <ele>199</ele>
        <time>2017-07-19T09:41:48Z</time>
      </trkpt>
      <trkpt lat="45.89058" lon="4.75228">
        <ele>199</ele>
        <time>2017-07-19T09:41:49Z</time>
      </trkpt>
      <trkpt lat="45.89059" lon="4.75222">
        <ele>199</ele>
        <time>2017-07-19T09:41:50Z</time>
      </trkpt>
      <trkpt lat="45.89061" lon="4.75211">
        <ele>199</ele>
        <time>2017-07-19T09:41:52Z</time>
      </trkpt>
      <trkpt lat="45.89062" lon="4.75205">
        <ele>199</ele>
        <time>2017-07-19T09:41:53Z</time>
      </trkpt>
      <trkpt lat="45.89063" lon="4.75194">
        <ele>199</ele>
        <time>2017-07-19T09:41:55Z</time>
      </trkpt>
      <trkpt lat="45.89061" lon="4.75188">
        <ele>199</ele>
        <time>2017-07-19T09:41:56Z</time>
      </trkpt>
      <trkpt lat="45.8906" lon="4.75178">
        <ele>199</ele>
        <time>2017-07-19T09:41:58Z</time>
      </trkpt>
      <trkpt lat="45.89061" lon="4.75173">
        <ele>199</ele>
        <time>2017-07-19T09:41:59Z</time>
      </trkpt>
      <trkpt lat="45.8906" lon="4.75161">
        <ele>199</ele>
        <time>2017-07-19T09:42:01Z</time>
      </trkpt>
      <trkpt lat="45.8906" lon="4.75154">
        <ele>199</ele>
        <time>2017-07-19T09:42:02Z</time>
      </trkpt>
      <trkpt lat="45.89059" lon="4.75147">
        <ele>199</ele>
        <time>2017-07-19T09:42:03Z</time>
      </trkpt>
      <trkpt lat="45.89057" lon="4.75141">
        <ele>199</ele>
        <time>2017-07-19T09:42:04Z</time>
      </trkpt>
      <trkpt lat="45.89054" lon="4.7513">
        <ele>199</ele>
        <time>2017-07-19T09:42:06Z</time>
      </trkpt>
      <trkpt lat="45.89052" lon="4.75125">
        <ele>199</ele>
        <time>2017-07-19T09:42:07Z</time>
      </trkpt>
      <trkpt lat="45.89047" lon="4.75115">
        <ele>199</ele>
        <time>2017-07-19T09:42:10Z</time>
      </trkpt>
      <trkpt lat="45.89045" lon="4.75112">
        <ele>199</ele>
        <time>2017-07-19T09:42:11Z</time>
      </trkpt>
      <trkpt lat="45.89041" lon="4.75105">
        <ele>199</ele>
        <time>2017-07-19T09:42:13Z</time>
      </trkpt>
      <trkpt lat="45.89039" lon="4.75102">
        <ele>199</ele>
        <time>2017-07-19T09:42:14Z</time>
      </trkpt>
      <trkpt lat="45.89035" lon="4.75094">
        <ele>199</ele>
        <time>2017-07-19T09:42:16Z</time>
      </trkpt>
      <trkpt lat="45.89033" lon="4.7509">
        <ele>199</ele>
        <time>2017-07-19T09:42:17Z</time>
      </trkpt>
      <trkpt lat="45.89028" lon="4.75081">
        <ele>199</ele>
        <time>2017-07-19T09:42:19Z</time>
      </trkpt>
      <trkpt lat="45.89026" lon="4.75076">
        <ele>199</ele>
        <time>2017-07-19T09:42:20Z</time>
      </trkpt>
      <trkpt lat="45.8902" lon="4.75068">
        <ele>199</ele>
        <time>2017-07-19T09:42:22Z</time>
      </trkpt>
      <trkpt lat="45.89018" lon="4.75063">
        <ele>199</ele>
        <time>2017-07-19T09:42:23Z</time>
      </trkpt>
      <trkpt lat="45.89015" lon="4.75054">
        <ele>199</ele>
        <time>2017-07-19T09:42:25Z</time>
      </trkpt>
      <trkpt lat="45.89014" lon="4.75049">
        <ele>199</ele>
        <time>2017-07-19T09:42:26Z</time>
      </trkpt>
      <trkpt lat="45.89012" lon="4.7504">
        <ele>199</ele>
        <time>2017-07-19T09:42:28Z</time>
      </trkpt>
      <trkpt lat="45.89012" lon="4.75034">
        <ele>199</ele>
        <time>2017-07-19T09:42:29Z</time>
      </trkpt>
      <trkpt lat="45.8901" lon="4.75024">
        <ele>199</ele>
        <time>2017-07-19T09:42:31Z</time>
      </trkpt>
      <trkpt lat="45.8901" lon="4.75019">
        <ele>199</ele>
        <time>2017-07-19T09:42:32Z</time>
      </trkpt>
      <trkpt lat="45.89009" lon="4.75013">
        <ele>199</ele>
        <time>2017-07-19T09:42:33Z</time>
      </trkpt>
      <trkpt lat="45.89009" lon="4.75005">
        <ele>198</ele>
        <time>2017-07-19T09:42:34Z</time>
      </trkpt>
      <trkpt lat="45.89008" lon="4.74998">
        <ele>198</ele>
        <time>2017-07-19T09:42:35Z</time>
      </trkpt>
      <trkpt lat="45.89007" lon="4.74992">
        <ele>198</ele>
        <time>2017-07-19T09:42:36Z</time>
      </trkpt>
      <trkpt lat="45.89007" lon="4.7498">
        <ele>199</ele>
        <time>2017-07-19T09:42:38Z</time>
      </trkpt>
      <trkpt lat="45.89008" lon="4.74974">
        <ele>199</ele>
        <time>2017-07-19T09:42:39Z</time>
      </trkpt>
      <trkpt lat="45.89008" lon="4.74964">
        <ele>199</ele>
        <time>2017-07-19T09:42:41Z</time>
      </trkpt>
      <trkpt lat="45.89009" lon="4.74959">
        <ele>199</ele>
        <time>2017-07-19T09:42:42Z</time>
      </trkpt>
      <trkpt lat="45.8901" lon="4.74951">
        <ele>199</ele>
        <time>2017-07-19T09:42:44Z</time>
      </trkpt>
      <trkpt lat="45.89012" lon="4.74946">
        <ele>199</ele>
        <time>2017-07-19T09:42:45Z</time>
      </trkpt>
      <trkpt lat="45.89014" lon="4.74937">
        <ele>199</ele>
        <time>2017-07-19T09:42:47Z</time>
      </trkpt>
      <trkpt lat="45.89016" lon="4.74931">
        <ele>199</ele>
        <time>2017-07-19T09:42:48Z</time>
      </trkpt>
      <trkpt lat="45.89018" lon="4.7492">
        <ele>199</ele>
        <time>2017-07-19T09:42:50Z</time>
      </trkpt>
      <trkpt lat="45.89019" lon="4.74915">
        <ele>199</ele>
        <time>2017-07-19T09:42:51Z</time>
      </trkpt>
      <trkpt lat="45.89021" lon="4.74905">
        <ele>199</ele>
        <time>2017-07-19T09:42:53Z</time>
      </trkpt>
      <trkpt lat="45.89022" lon="4.74901">
        <ele>199</ele>
        <time>2017-07-19T09:42:54Z</time>
      </trkpt>
      <trkpt lat="45.89026" lon="4.74894">
        <ele>199</ele>
        <time>2017-07-19T09:42:56Z</time>
      </trkpt>
      <trkpt lat="45.89031" lon="4.7489">
        <ele>199</ele>
        <time>2017-07-19T09:42:57Z</time>
      </trkpt>
      <trkpt lat="45.89036" lon="4.74886">
        <ele>199</ele>
        <time>2017-07-19T09:42:58Z</time>
      </trkpt>
      <trkpt lat="45.8904" lon="4.74882">
        <ele>199</ele>
        <time>2017-07-19T09:42:59Z</time>
      </trkpt>
      <trkpt lat="45.89043" lon="4.74873">
        <ele>199</ele>
        <time>2017-07-19T09:43:01Z</time>
      </trkpt>
      <trkpt lat="45.89042" lon="4.74868">
        <ele>199</ele>
        <time>2017-07-19T09:43:02Z</time>
      </trkpt>
      <trkpt lat="45.8904" lon="4.74858">
        <ele>199</ele>
        <time>2017-07-19T09:43:04Z</time>
      </trkpt>
      <trkpt lat="45.89039" lon="4.74853">
        <ele>199</ele>
        <time>2017-07-19T09:43:05Z</time>
      </trkpt>
      <trkpt lat="45.89038" lon="4.74843">
        <ele>199</ele>
        <time>2017-07-19T09:43:07Z</time>
      </trkpt>
      <trkpt lat="45.89037" lon="4.74838">
        <ele>199</ele>
        <time>2017-07-19T09:43:08Z</time>
      </trkpt>
      <trkpt lat="45.89035" lon="4.74826">
        <ele>199</ele>
        <time>2017-07-19T09:43:10Z</time>
      </trkpt>
      <trkpt lat="45.89034" lon="4.7482">
        <ele>199</ele>
        <time>2017-07-19T09:43:11Z</time>
      </trkpt>
      <trkpt lat="45.89032" lon="4.74808">
        <ele>199</ele>
        <time>2017-07-19T09:43:13Z</time>
      </trkpt>
      <trkpt lat="45.89031" lon="4.74802">
        <ele>198</ele>
        <time>2017-07-19T09:43:14Z</time>
      </trkpt>
      <trkpt lat="45.8903" lon="4.74795">
        <ele>198</ele>
        <time>2017-07-19T09:43:15Z</time>
      </trkpt>
      <trkpt lat="45.89028" lon="4.74787">
        <ele>198</ele>
        <time>2017-07-19T09:43:16Z</time>
      </trkpt>
      <trkpt lat="45.89027" lon="4.7478">
        <ele>198</ele>
        <time>2017-07-19T09:43:17Z</time>
      </trkpt>
      <trkpt lat="45.89027" lon="4.74772">
        <ele>198</ele>
        <time>2017-07-19T09:43:18Z</time>
      </trkpt>
      <trkpt lat="45.89026" lon="4.74763">
        <ele>198</ele>
        <time>2017-07-19T09:43:19Z</time>
      </trkpt>
      <trkpt lat="45.89024" lon="4.74756">
        <ele>198</ele>
        <time>2017-07-19T09:43:20Z</time>
      </trkpt>
      <trkpt lat="45.89023" lon="4.74745">
        <ele>196</ele>
        <time>2017-07-19T09:43:22Z</time>
      </trkpt>
      <trkpt lat="45.89022" lon="4.74742">
        <ele>196</ele>
        <time>2017-07-19T09:43:23Z</time>
      </trkpt>
      <trkpt lat="45.89015" lon="4.74737">
        <ele>196</ele>
        <time>2017-07-19T09:43:27Z</time>
      </trkpt>
      <trkpt lat="45.89013" lon="4.74737">
        <ele>196</ele>
        <time>2017-07-19T09:43:28Z</time>
      </trkpt>
      <trkpt lat="45.89005" lon="4.74737">
        <ele>196</ele>
        <time>2017-07-19T09:43:31Z</time>
      </trkpt>
      <trkpt lat="45.89003" lon="4.74735">
        <ele>196</ele>
        <time>2017-07-19T09:43:32Z</time>
      </trkpt>
      <trkpt lat="45.88998" lon="4.74727">
        <ele>196</ele>
        <time>2017-07-19T09:43:34Z</time>
      </trkpt>
      <trkpt lat="45.88997" lon="4.74722">
        <ele>196</ele>
        <time>2017-07-19T09:43:35Z</time>
      </trkpt>
      <trkpt lat="45.88995" lon="4.74717">
        <ele>196</ele>
        <time>2017-07-19T09:43:36Z</time>
      </trkpt>
      <trkpt lat="45.88995" lon="4.74708">
        <ele>196</ele>
        <time>2017-07-19T09:43:37Z</time>
      </trkpt>
      <trkpt lat="45.88994" lon="4.74698">
        <ele>196</ele>
        <time>2017-07-19T09:43:38Z</time>
      </trkpt>
      <trkpt lat="45.88994" lon="4.74691">
        <ele>195</ele>
        <time>2017-07-19T09:43:39Z</time>
      </trkpt>
      <trkpt lat="45.88995" lon="4.74683">
        <ele>195</ele>
        <time>2017-07-19T09:43:40Z</time>
      </trkpt>
      <trkpt lat="45.88996" lon="4.74675">
        <ele>195</ele>
        <time>2017-07-19T09:43:41Z</time>
      </trkpt>
      <trkpt lat="45.88998" lon="4.74667">
        <ele>194</ele>
        <time>2017-07-19T09:43:42Z</time>
      </trkpt>
      <trkpt lat="45.88999" lon="4.7466">
        <ele>194</ele>
        <time>2017-07-19T09:43:43Z</time>
      </trkpt>
      <trkpt lat="45.89" lon="4.74652">
        <ele>193</ele>
        <time>2017-07-19T09:43:44Z</time>
      </trkpt>
      <trkpt lat="45.89001" lon="4.74645">
        <ele>192</ele>
        <time>2017-07-19T09:43:45Z</time>
      </trkpt>
      <trkpt lat="45.89002" lon="4.74637">
        <ele>192</ele>
        <time>2017-07-19T09:43:46Z</time>
      </trkpt>
      <trkpt lat="45.89003" lon="4.7463">
        <ele>192</ele>
        <time>2017-07-19T09:43:47Z</time>
      </trkpt>
      <trkpt lat="45.89004" lon="4.74623">
        <ele>192</ele>
        <time>2017-07-19T09:43:48Z</time>
      </trkpt>
      <trkpt lat="45.89005" lon="4.74617">
        <ele>191</ele>
        <time>2017-07-19T09:43:49Z</time>
      </trkpt>
      <trkpt lat="45.89007" lon="4.7461">
        <ele>191</ele>
        <time>2017-07-19T09:43:50Z</time>
      </trkpt>
      <trkpt lat="45.89009" lon="4.74604">
        <ele>191</ele>
        <time>2017-07-19T09:43:51Z</time>
      </trkpt>
      <trkpt lat="45.89011" lon="4.74592">
        <ele>191</ele>
        <time>2017-07-19T09:43:53Z</time>
      </trkpt>
      <trkpt lat="45.89009" lon="4.74588">
        <ele>191</ele>
        <time>2017-07-19T09:43:54Z</time>
      </trkpt>
      <trkpt lat="45.8901" lon="4.74577">
        <ele>190</ele>
        <time>2017-07-19T09:43:56Z</time>
      </trkpt>
      <trkpt lat="45.8901" lon="4.74571">
        <ele>190</ele>
        <time>2017-07-19T09:43:57Z</time>
      </trkpt>
      <trkpt lat="45.89009" lon="4.74561">
        <ele>190</ele>
        <time>2017-07-19T09:43:59Z</time>
      </trkpt>
      <trkpt lat="45.8901" lon="4.74556">
        <ele>190</ele>
        <time>2017-07-19T09:44:00Z</time>
      </trkpt>
      <trkpt lat="45.89011" lon="4.74545">
        <ele>190</ele>
        <time>2017-07-19T09:44:02Z</time>
      </trkpt>
      <trkpt lat="45.89012" lon="4.74541">
        <ele>189</ele>
        <time>2017-07-19T09:44:03Z</time>
      </trkpt>
      <trkpt lat="45.89015" lon="4.74533">
        <ele>189</ele>
        <time>2017-07-19T09:44:05Z</time>
      </trkpt>
      <trkpt lat="45.89017" lon="4.74529">
        <ele>189</ele>
        <time>2017-07-19T09:44:06Z</time>
      </trkpt>
      <trkpt lat="45.89017" lon="4.74517">
        <ele>189</ele>
        <time>2017-07-19T09:44:12Z</time>
      </trkpt>
      <trkpt lat="45.89016" lon="4.74515">
        <ele>189</ele>
        <time>2017-07-19T09:44:13Z</time>
      </trkpt>
      <trkpt lat="45.89008" lon="4.7451">
        <ele>189</ele>
        <time>2017-07-19T09:44:16Z</time>
      </trkpt>
      <trkpt lat="45.89005" lon="4.74511">
        <ele>189</ele>
        <time>2017-07-19T09:44:17Z</time>
      </trkpt>
      <trkpt lat="45.89002" lon="4.745">
        <ele>189</ele>
        <time>2017-07-19T09:44:20Z</time>
      </trkpt>
      <trkpt lat="45.89003" lon="4.74495">
        <ele>189</ele>
        <time>2017-07-19T09:44:21Z</time>
      </trkpt>
      <trkpt lat="45.89005" lon="4.74485">
        <ele>189</ele>
        <time>2017-07-19T09:44:23Z</time>
      </trkpt>
      <trkpt lat="45.89003" lon="4.7448">
        <ele>189</ele>
        <time>2017-07-19T09:44:24Z</time>
      </trkpt>
      <trkpt lat="45.88997" lon="4.74473">
        <ele>189</ele>
        <time>2017-07-19T09:44:26Z</time>
      </trkpt>
      <trkpt lat="45.88994" lon="4.74469">
        <ele>189</ele>
        <time>2017-07-19T09:44:27Z</time>
      </trkpt>
      <trkpt lat="45.88989" lon="4.74462">
        <ele>189</ele>
        <time>2017-07-19T09:44:29Z</time>
      </trkpt>
      <trkpt lat="45.88987" lon="4.74459">
        <ele>189</ele>
        <time>2017-07-19T09:44:30Z</time>
      </trkpt>
      <trkpt lat="45.88983" lon="4.74449">
        <ele>188</ele>
        <time>2017-07-19T09:44:32Z</time>
      </trkpt>
      <trkpt lat="45.8898" lon="4.74446">
        <ele>188</ele>
        <time>2017-07-19T09:44:33Z</time>
      </trkpt>
      <trkpt lat="45.88973" lon="4.74443">
        <ele>188</ele>
        <time>2017-07-19T09:44:35Z</time>
      </trkpt>
      <trkpt lat="45.88969" lon="4.74442">
        <ele>188</ele>
        <time>2017-07-19T09:44:36Z</time>
      </trkpt>
      <trkpt lat="45.88961" lon="4.7444">
        <ele>188</ele>
        <time>2017-07-19T09:44:38Z</time>
      </trkpt>
      <trkpt lat="45.88957" lon="4.74438">
        <ele>188</ele>
        <time>2017-07-19T09:44:39Z</time>
      </trkpt>
      <trkpt lat="45.8895" lon="4.74432">
        <ele>188</ele>
        <time>2017-07-19T09:44:42Z</time>
      </trkpt>
      <trkpt lat="45.88947" lon="4.7443">
        <ele>188</ele>
        <time>2017-07-19T09:44:43Z</time>
      </trkpt>
      <trkpt lat="45.88939" lon="4.74424">
        <ele>188</ele>
        <time>2017-07-19T09:44:46Z</time>
      </trkpt>
      <trkpt lat="45.88937" lon="4.74419">
        <ele>188</ele>
        <time>2017-07-19T09:44:47Z</time>
      </trkpt>
      <trkpt lat="45.88934" lon="4.74408">
        <ele>188</ele>
        <time>2017-07-19T09:44:49Z</time>
      </trkpt>
      <trkpt lat="45.88935" lon="4.74402">
        <ele>188</ele>
        <time>2017-07-19T09:44:50Z</time>
      </trkpt>
      <trkpt lat="45.88936" lon="4.74391">
        <ele>188</ele>
        <time>2017-07-19T09:44:52Z</time>
      </trkpt>
      <trkpt lat="45.88937" lon="4.74387">
        <ele>188</ele>
        <time>2017-07-19T09:44:53Z</time>
      </trkpt>
      <trkpt lat="45.88937" lon="4.74378">
        <ele>188</ele>
        <time>2017-07-19T09:44:55Z</time>
      </trkpt>
      <trkpt lat="45.88943" lon="4.74376">
        <ele>188</ele>
        <time>2017-07-19T09:44:56Z</time>
      </trkpt>
      <trkpt lat="45.88947" lon="4.7437">
        <ele>188</ele>
        <time>2017-07-19T09:44:58Z</time>
      </trkpt>
      <trkpt lat="45.88947" lon="4.74364">
        <ele>188</ele>
        <time>2017-07-19T09:44:59Z</time>
      </trkpt>
      <trkpt lat="45.88951" lon="4.74355">
        <ele>188</ele>
        <time>2017-07-19T09:45:01Z</time>
      </trkpt>
      <trkpt lat="45.88954" lon="4.74351">
        <ele>188</ele>
        <time>2017-07-19T09:45:02Z</time>
      </trkpt>
      <trkpt lat="45.88962" lon="4.74345">
        <ele>188</ele>
        <time>2017-07-19T09:45:04Z</time>
      </trkpt>
      <trkpt lat="45.88968" lon="4.74341">
        <ele>188</ele>
        <time>2017-07-19T09:45:05Z</time>
      </trkpt>
      <trkpt lat="45.88971" lon="4.74336">
        <ele>188</ele>
        <time>2017-07-19T09:45:06Z</time>
      </trkpt>
      <trkpt lat="45.88974" lon="4.74332">
        <ele>187</ele>
        <time>2017-07-19T09:45:07Z</time>
      </trkpt>
      <trkpt lat="45.8898" lon="4.74322">
        <ele>187</ele>
        <time>2017-07-19T09:45:09Z</time>
      </trkpt>
      <trkpt lat="45.88982" lon="4.74315">
        <ele>187</ele>
        <time>2017-07-19T09:45:10Z</time>
      </trkpt>
      <trkpt lat="45.88985" lon="4.74305">
        <ele>187</ele>
        <time>2017-07-19T09:45:12Z</time>
      </trkpt>
      <trkpt lat="45.88986" lon="4.74304">
        <ele>187</ele>
        <time>2017-07-19T09:45:13Z</time>
      </trkpt>
      <trkpt lat="45.88991" lon="4.74297">
        <ele>187</ele>
        <time>2017-07-19T09:45:23Z</time>
      </trkpt>
      <trkpt lat="45.88992" lon="4.74294">
        <ele>187</ele>
        <time>2017-07-19T09:45:24Z</time>
      </trkpt>
      <trkpt lat="45.88996" lon="4.74283">
        <ele>187</ele>
        <time>2017-07-19T09:45:27Z</time>
      </trkpt>
      <trkpt lat="45.88999" lon="4.74277">
        <ele>187</ele>
        <time>2017-07-19T09:45:28Z</time>
      </trkpt>
      <trkpt lat="45.89007" lon="4.74273">
        <ele>187</ele>
        <time>2017-07-19T09:45:31Z</time>
      </trkpt>
      <trkpt lat="45.89009" lon="4.74272">
        <ele>187</ele>
        <time>2017-07-19T09:45:32Z</time>
      </trkpt>
      <trkpt lat="45.89016" lon="4.74273">
        <ele>187</ele>
        <time>2017-07-19T09:45:34Z</time>
      </trkpt>
      <trkpt lat="45.89018" lon="4.74269">
        <ele>187</ele>
        <time>2017-07-19T09:45:35Z</time>
      </trkpt>
      <trkpt lat="45.89019" lon="4.74257">
        <ele>187</ele>
        <time>2017-07-19T09:45:38Z</time>
      </trkpt>
      <trkpt lat="45.89018" lon="4.74255">
        <ele>187</ele>
        <time>2017-07-19T09:45:39Z</time>
      </trkpt>
      <trkpt lat="45.89012" lon="4.74246">
        <ele>186</ele>
        <time>2017-07-19T09:45:43Z</time>
      </trkpt>
      <trkpt lat="45.89012" lon="4.74244">
        <ele>186</ele>
        <time>2017-07-19T09:45:44Z</time>
      </trkpt>
      <trkpt lat="45.89007" lon="4.7424">
        <ele>187</ele>
        <time>2017-07-19T09:45:48Z</time>
      </trkpt>
      <trkpt lat="45.89002" lon="4.74232">
        <ele>186</ele>
        <time>2017-07-19T09:45:49Z</time>
      </trkpt>
      <trkpt lat="45.89004" lon="4.74224">
        <ele>186</ele>
        <time>2017-07-19T09:45:51Z</time>
      </trkpt>
      <trkpt lat="45.89006" lon="4.74218">
        <ele>186</ele>
        <time>2017-07-19T09:45:52Z</time>
      </trkpt>
      <trkpt lat="45.89008" lon="4.74212">
        <ele>186</ele>
        <time>2017-07-19T09:45:53Z</time>
      </trkpt>
      <trkpt lat="45.8901" lon="4.74206">
        <ele>186</ele>
        <time>2017-07-19T09:45:54Z</time>
      </trkpt>
      <trkpt lat="45.89011" lon="4.74199">
        <ele>186</ele>
        <time>2017-07-19T09:45:55Z</time>
      </trkpt>
      <trkpt lat="45.89012" lon="4.74193">
        <ele>186</ele>
        <time>2017-07-19T09:45:56Z</time>
      </trkpt>
      <trkpt lat="45.89014" lon="4.74186">
        <ele>186</ele>
        <time>2017-07-19T09:45:57Z</time>
      </trkpt>
      <trkpt lat="45.89015" lon="4.7418">
        <ele>185</ele>
        <time>2017-07-19T09:45:58Z</time>
      </trkpt>
      <trkpt lat="45.89017" lon="4.74173">
        <ele>185</ele>
        <time>2017-07-19T09:45:59Z</time>
      </trkpt>
      <trkpt lat="45.89021" lon="4.74168">
        <ele>185</ele>
        <time>2017-07-19T09:46:00Z</time>
      </trkpt>
      <trkpt lat="45.89024" lon="4.74161">
        <ele>185</ele>
        <time>2017-07-19T09:46:01Z</time>
      </trkpt>
      <trkpt lat="45.89026" lon="4.74154">
        <ele>185</ele>
        <time>2017-07-19T09:46:02Z</time>
      </trkpt>
      <trkpt lat="45.89029" lon="4.74147">
        <ele>185</ele>
        <time>2017-07-19T09:46:03Z</time>
      </trkpt>
      <trkpt lat="45.89032" lon="4.7414">
        <ele>185</ele>
        <time>2017-07-19T09:46:04Z</time>
      </trkpt>
      <trkpt lat="45.89033" lon="4.74133">
        <ele>185</ele>
        <time>2017-07-19T09:46:05Z</time>
      </trkpt>
      <trkpt lat="45.89034" lon="4.74126">
        <ele>185</ele>
        <time>2017-07-19T09:46:06Z</time>
      </trkpt>
      <trkpt lat="45.89035" lon="4.74119">
        <ele>185</ele>
        <time>2017-07-19T09:46:07Z</time>
      </trkpt>
      <trkpt lat="45.89035" lon="4.74111">
        <ele>185</ele>
        <time>2017-07-19T09:46:08Z</time>
      </trkpt>
      <trkpt lat="45.89035" lon="4.74103">
        <ele>185</ele>
        <time>2017-07-19T09:46:09Z</time>
      </trkpt>
      <trkpt lat="45.89035" lon="4.74096">
        <ele>185</ele>
        <time>2017-07-19T09:46:10Z</time>
      </trkpt>
      <trkpt lat="45.89036" lon="4.74088">
        <ele>185</ele>
        <time>2017-07-19T09:46:11Z</time>
      </trkpt>
      <trkpt lat="45.89036" lon="4.7408">
        <ele>184</ele>
        <time>2017-07-19T09:46:12Z</time>
      </trkpt>
      <trkpt lat="45.89036" lon="4.74072">
        <ele>184</ele>
        <time>2017-07-19T09:46:13Z</time>
      </trkpt>
      <trkpt lat="45.89036" lon="4.74064">
        <ele>184</ele>
        <time>2017-07-19T09:46:14Z</time>
      </trkpt>
      <trkpt lat="45.89036" lon="4.74056">
        <ele>184</ele>
        <time>2017-07-19T09:46:15Z</time>
      </trkpt>
      <trkpt lat="45.89036" lon="4.74049">
        <ele>184</ele>
        <time>2017-07-19T09:46:16Z</time>
      </trkpt>
      <trkpt lat="45.89035" lon="4.74041">
        <ele>184</ele>
        <time>2017-07-19T09:46:17Z</time>
      </trkpt>
      <trkpt lat="45.89036" lon="4.74035">
        <ele>184</ele>
        <time>2017-07-19T09:46:18Z</time>
      </trkpt>
      <trkpt lat="45.89036" lon="4.74026">
        <ele>184</ele>
        <time>2017-07-19T09:46:19Z</time>
      </trkpt>
      <trkpt lat="45.89037" lon="4.74019">
        <ele>184</ele>
        <time>2017-07-19T09:46:20Z</time>
      </trkpt>
      <trkpt lat="45.89042" lon="4.74009">
        <ele>184</ele>
        <time>2017-07-19T09:46:22Z</time>
      </trkpt>
      <trkpt lat="45.89045" lon="4.74006">
        <ele>184</ele>
        <time>2017-07-19T09:46:23Z</time>
      </trkpt>
      <trkpt lat="45.89051" lon="4.74005">
        <ele>184</ele>
        <time>2017-07-19T09:46:24Z</time>
      </trkpt>
      <trkpt lat="45.89057" lon="4.74005">
        <ele>184</ele>
        <time>2017-07-19T09:46:25Z</time>
      </trkpt>
      <trkpt lat="45.89062" lon="4.74004">
        <ele>184</ele>
        <time>2017-07-19T09:46:26Z</time>
      </trkpt>
      <trkpt lat="45.89067" lon="4.74003">
        <ele>184</ele>
        <time>2017-07-19T09:46:27Z</time>
      </trkpt>
      <trkpt lat="45.89076" lon="4.74001">
        <ele>183</ele>
        <time>2017-07-19T09:46:29Z</time>
      </trkpt>
      <trkpt lat="45.8908" lon="4.73999">
        <ele>183</ele>
        <time>2017-07-19T09:46:30Z</time>
      </trkpt>
      <trkpt lat="45.89085" lon="4.73997">
        <ele>183</ele>
        <time>2017-07-19T09:46:31Z</time>
      </trkpt>
      <trkpt lat="45.8909" lon="4.73996">
        <ele>183</ele>
        <time>2017-07-19T09:46:32Z</time>
      </trkpt>
      <trkpt lat="45.89095" lon="4.73996">
        <ele>183</ele>
        <time>2017-07-19T09:46:33Z</time>
      </trkpt>
      <trkpt lat="45.89099" lon="4.73996">
        <ele>183</ele>
        <time>2017-07-19T09:46:34Z</time>
      </trkpt>
      <trkpt lat="45.89104" lon="4.73995">
        <ele>183</ele>
        <time>2017-07-19T09:46:35Z</time>
      </trkpt>
      <trkpt lat="45.89109" lon="4.73995">
        <ele>183</ele>
        <time>2017-07-19T09:46:36Z</time>
      </trkpt>
      <trkpt lat="45.89117" lon="4.7399">
        <ele>183</ele>
        <time>2017-07-19T09:46:38Z</time>
      </trkpt>
      <trkpt lat="45.8912" lon="4.73985">
        <ele>183</ele>
        <time>2017-07-19T09:46:39Z</time>
      </trkpt>
      <trkpt lat="45.89122" lon="4.7398">
        <ele>183</ele>
        <time>2017-07-19T09:46:40Z</time>
      </trkpt>
      <trkpt lat="45.89123" lon="4.73973">
        <ele>183</ele>
        <time>2017-07-19T09:46:41Z</time>
      </trkpt>
      <trkpt lat="45.89123" lon="4.73965">
        <ele>183</ele>
        <time>2017-07-19T09:46:42Z</time>
      </trkpt>
      <trkpt lat="45.89122" lon="4.73958">
        <ele>183</ele>
        <time>2017-07-19T09:46:43Z</time>
      </trkpt>
      <trkpt lat="45.89121" lon="4.7395">
        <ele>183</ele>
        <time>2017-07-19T09:46:44Z</time>
      </trkpt>
      <trkpt lat="45.89121" lon="4.73942">
        <ele>183</ele>
        <time>2017-07-19T09:46:45Z</time>
      </trkpt>
      <trkpt lat="45.8912" lon="4.73935">
        <ele>183</ele>
        <time>2017-07-19T09:46:46Z</time>
      </trkpt>
      <trkpt lat="45.8912" lon="4.73928">
        <ele>183</ele>
        <time>2017-07-19T09:46:47Z</time>
      </trkpt>
      <trkpt lat="45.8912" lon="4.73921">
        <ele>183</ele>
        <time>2017-07-19T09:46:48Z</time>
      </trkpt>
      <trkpt lat="45.8912" lon="4.73914">
        <ele>182</ele>
        <time>2017-07-19T09:46:49Z</time>
      </trkpt>
      <trkpt lat="45.89119" lon="4.73907">
        <ele>182</ele>
        <time>2017-07-19T09:46:50Z</time>
      </trkpt>
      <trkpt lat="45.89119" lon="4.739">
        <ele>182</ele>
        <time>2017-07-19T09:46:51Z</time>
      </trkpt>
      <trkpt lat="45.89119" lon="4.73894">
        <ele>182</ele>
        <time>2017-07-19T09:46:52Z</time>
      </trkpt>
      <trkpt lat="45.89118" lon="4.73887">
        <ele>182</ele>
        <time>2017-07-19T09:46:53Z</time>
      </trkpt>
      <trkpt lat="45.89117" lon="4.73875">
        <ele>182</ele>
        <time>2017-07-19T09:46:55Z</time>
      </trkpt>
      <trkpt lat="45.89116" lon="4.73868">
        <ele>182</ele>
        <time>2017-07-19T09:46:56Z</time>
      </trkpt>
      <trkpt lat="45.89116" lon="4.73861">
        <ele>182</ele>
        <time>2017-07-19T09:46:57Z</time>
      </trkpt>
      <trkpt lat="45.89116" lon="4.73853">
        <ele>182</ele>
        <time>2017-07-19T09:46:58Z</time>
      </trkpt>
      <trkpt lat="45.89115" lon="4.73845">
        <ele>182</ele>
        <time>2017-07-19T09:46:59Z</time>
      </trkpt>
      <trkpt lat="45.89115" lon="4.73837">
        <ele>182</ele>
        <time>2017-07-19T09:47:00Z</time>
      </trkpt>
      <trkpt lat="45.89114" lon="4.73829">
        <ele>181</ele>
        <time>2017-07-19T09:47:01Z</time>
      </trkpt>
      <trkpt lat="45.89113" lon="4.73821">
        <ele>181</ele>
        <time>2017-07-19T09:47:02Z</time>
      </trkpt>
      <trkpt lat="45.89112" lon="4.73814">
        <ele>181</ele>
        <time>2017-07-19T09:47:03Z</time>
      </trkpt>
      <trkpt lat="45.89111" lon="4.73807">
        <ele>181</ele>
        <time>2017-07-19T09:47:04Z</time>
      </trkpt>
      <trkpt lat="45.8911" lon="4.738">
        <ele>181</ele>
        <time>2017-07-19T09:47:05Z</time>
      </trkpt>
      <trkpt lat="45.8911" lon="4.73793">
        <ele>181</ele>
        <time>2017-07-19T09:47:06Z</time>
      </trkpt>
      <trkpt lat="45.89109" lon="4.73786">
        <ele>181</ele>
        <time>2017-07-19T09:47:07Z</time>
      </trkpt>
      <trkpt lat="45.89109" lon="4.7378">
        <ele>181</ele>
        <time>2017-07-19T09:47:08Z</time>
      </trkpt>
      <trkpt lat="45.89109" lon="4.73768">
        <ele>181</ele>
        <time>2017-07-19T09:47:10Z</time>
      </trkpt>
      <trkpt lat="45.89109" lon="4.73763">
        <ele>181</ele>
        <time>2017-07-19T09:47:11Z</time>
      </trkpt>
      <trkpt lat="45.89108" lon="4.73751">
        <ele>181</ele>
        <time>2017-07-19T09:47:13Z</time>
      </trkpt>
      <trkpt lat="45.89108" lon="4.73744">
        <ele>181</ele>
        <time>2017-07-19T09:47:14Z</time>
      </trkpt>
      <trkpt lat="45.89107" lon="4.73732">
        <ele>181</ele>
        <time>2017-07-19T09:47:16Z</time>
      </trkpt>
      <trkpt lat="45.89106" lon="4.73725">
        <ele>182</ele>
        <time>2017-07-19T09:47:17Z</time>
      </trkpt>
      <trkpt lat="45.89105" lon="4.73718">
        <ele>182</ele>
        <time>2017-07-19T09:47:18Z</time>
      </trkpt>
      <trkpt lat="45.89105" lon="4.73711">
        <ele>182</ele>
        <time>2017-07-19T09:47:19Z</time>
      </trkpt>
      <trkpt lat="45.89106" lon="4.73698">
        <ele>182</ele>
        <time>2017-07-19T09:47:21Z</time>
      </trkpt>
      <trkpt lat="45.89107" lon="4.73692">
        <ele>182</ele>
        <time>2017-07-19T09:47:22Z</time>
      </trkpt>
      <trkpt lat="45.8911" lon="4.73681">
        <ele>182</ele>
        <time>2017-07-19T09:47:24Z</time>
      </trkpt>
      <trkpt lat="45.89111" lon="4.73677">
        <ele>182</ele>
        <time>2017-07-19T09:47:25Z</time>
      </trkpt>
      <trkpt lat="45.89114" lon="4.73667">
        <ele>182</ele>
        <time>2017-07-19T09:47:27Z</time>
      </trkpt>
      <trkpt lat="45.89115" lon="4.73661">
        <ele>182</ele>
        <time>2017-07-19T09:47:28Z</time>
      </trkpt>
      <trkpt lat="45.89113" lon="4.73655">
        <ele>182</ele>
        <time>2017-07-19T09:47:29Z</time>
      </trkpt>
      <trkpt lat="45.89112" lon="4.73648">
        <ele>182</ele>
        <time>2017-07-19T09:47:30Z</time>
      </trkpt>
      <trkpt lat="45.89111" lon="4.73637">
        <ele>182</ele>
        <time>2017-07-19T09:47:32Z</time>
      </trkpt>
      <trkpt lat="45.89109" lon="4.7363">
        <ele>182</ele>
        <time>2017-07-19T09:47:33Z</time>
      </trkpt>
      <trkpt lat="45.89106" lon="4.73625">
        <ele>182</ele>
        <time>2017-07-19T09:47:34Z</time>
      </trkpt>
      <trkpt lat="45.89103" lon="4.7362">
        <ele>181</ele>
        <time>2017-07-19T09:47:35Z</time>
      </trkpt>
      <trkpt lat="45.89101" lon="4.73614">
        <ele>181</ele>
        <time>2017-07-19T09:47:36Z</time>
      </trkpt>
      <trkpt lat="45.89098" lon="4.73609">
        <ele>181</ele>
        <time>2017-07-19T09:47:37Z</time>
      </trkpt>
      <trkpt lat="45.89095" lon="4.73598">
        <ele>181</ele>
        <time>2017-07-19T09:47:39Z</time>
      </trkpt>
      <trkpt lat="45.89093" lon="4.73591">
        <ele>181</ele>
        <time>2017-07-19T09:47:40Z</time>
      </trkpt>
      <trkpt lat="45.89092" lon="4.7358">
        <ele>181</ele>
        <time>2017-07-19T09:47:42Z</time>
      </trkpt>
      <trkpt lat="45.89092" lon="4.73576">
        <ele>181</ele>
        <time>2017-07-19T09:47:43Z</time>
      </trkpt>
      <trkpt lat="45.89091" lon="4.73564">
        <ele>181</ele>
        <time>2017-07-19T09:47:45Z</time>
      </trkpt>
      <trkpt lat="45.89092" lon="4.73559">
        <ele>181</ele>
        <time>2017-07-19T09:47:46Z</time>
      </trkpt>
      <trkpt lat="45.89092" lon="4.73546">
        <ele>181</ele>
        <time>2017-07-19T09:47:48Z</time>
      </trkpt>
      <trkpt lat="45.89092" lon="4.73539">
        <ele>181</ele>
        <time>2017-07-19T09:47:49Z</time>
      </trkpt>
      <trkpt lat="45.89092" lon="4.7353">
        <ele>181</ele>
        <time>2017-07-19T09:47:50Z</time>
      </trkpt>
      <trkpt lat="45.89092" lon="4.73523">
        <ele>181</ele>
        <time>2017-07-19T09:47:51Z</time>
      </trkpt>
      <trkpt lat="45.89089" lon="4.73515">
        <ele>181</ele>
        <time>2017-07-19T09:47:52Z</time>
      </trkpt>
      <trkpt lat="45.89089" lon="4.73509">
        <ele>181</ele>
        <time>2017-07-19T09:47:53Z</time>
      </trkpt>
      <trkpt lat="45.89087" lon="4.73497">
        <ele>181</ele>
        <time>2017-07-19T09:47:55Z</time>
      </trkpt>
      <trkpt lat="45.89086" lon="4.73491">
        <ele>181</ele>
        <time>2017-07-19T09:47:56Z</time>
      </trkpt>
      <trkpt lat="45.89084" lon="4.73479">
        <ele>180</ele>
        <time>2017-07-19T09:47:58Z</time>
      </trkpt>
      <trkpt lat="45.89082" lon="4.73474">
        <ele>181</ele>
        <time>2017-07-19T09:47:59Z</time>
      </trkpt>
      <trkpt lat="45.89079" lon="4.73463">
        <ele>181</ele>
        <time>2017-07-19T09:48:01Z</time>
      </trkpt>
      <trkpt lat="45.89077" lon="4.73458">
        <ele>181</ele>
        <time>2017-07-19T09:48:02Z</time>
      </trkpt>
      <trkpt lat="45.89074" lon="4.73448">
        <ele>181</ele>
        <time>2017-07-19T09:48:04Z</time>
      </trkpt>
      <trkpt lat="45.89073" lon="4.73443">
        <ele>181</ele>
        <time>2017-07-19T09:48:05Z</time>
      </trkpt>
      <trkpt lat="45.89075" lon="4.73434">
        <ele>181</ele>
        <time>2017-07-19T09:48:07Z</time>
      </trkpt>
      <trkpt lat="45.89077" lon="4.7343">
        <ele>181</ele>
        <time>2017-07-19T09:48:08Z</time>
      </trkpt>
      <trkpt lat="45.89077" lon="4.73421">
        <ele>180</ele>
        <time>2017-07-19T09:48:09Z</time>
      </trkpt>
      <trkpt lat="45.89078" lon="4.73413">
        <ele>180</ele>
        <time>2017-07-19T09:48:10Z</time>
      </trkpt>
      <trkpt lat="45.89078" lon="4.73406">
        <ele>180</ele>
        <time>2017-07-19T09:48:11Z</time>
      </trkpt>
      <trkpt lat="45.89078" lon="4.73399">
        <ele>180</ele>
        <time>2017-07-19T09:48:12Z</time>
      </trkpt>
      <trkpt lat="45.89078" lon="4.73391">
        <ele>180</ele>
        <time>2017-07-19T09:48:13Z</time>
      </trkpt>
      <trkpt lat="45.89078" lon="4.73384">
        <ele>180</ele>
        <time>2017-07-19T09:48:14Z</time>
      </trkpt>
      <trkpt lat="45.89077" lon="4.73377">
        <ele>180</ele>
        <time>2017-07-19T09:48:15Z</time>
      </trkpt>
      <trkpt lat="45.89077" lon="4.73371">
        <ele>180</ele>
        <time>2017-07-19T09:48:16Z</time>
      </trkpt>
      <trkpt lat="45.89075" lon="4.73359">
        <ele>180</ele>
        <time>2017-07-19T09:48:18Z</time>
      </trkpt>
      <trkpt lat="45.89075" lon="4.73353">
        <ele>180</ele>
        <time>2017-07-19T09:48:19Z</time>
      </trkpt>
      <trkpt lat="45.89074" lon="4.73343">
        <ele>180</ele>
        <time>2017-07-19T09:48:21Z</time>
      </trkpt>
      <trkpt lat="45.89074" lon="4.73337">
        <ele>179</ele>
        <time>2017-07-19T09:48:22Z</time>
      </trkpt>
      <trkpt lat="45.89074" lon="4.73326">
        <ele>179</ele>
        <time>2017-07-19T09:48:24Z</time>
      </trkpt>
      <trkpt lat="45.89073" lon="4.7332">
        <ele>179</ele>
        <time>2017-07-19T09:48:25Z</time>
      </trkpt>
      <trkpt lat="45.89071" lon="4.73313">
        <ele>179</ele>
        <time>2017-07-19T09:48:26Z</time>
      </trkpt>
      <trkpt lat="45.8907" lon="4.73307">
        <ele>179</ele>
        <time>2017-07-19T09:48:27Z</time>
      </trkpt>
      <trkpt lat="45.89067" lon="4.73295">
        <ele>179</ele>
        <time>2017-07-19T09:48:29Z</time>
      </trkpt>
      <trkpt lat="45.89066" lon="4.7329">
        <ele>179</ele>
        <time>2017-07-19T09:48:30Z</time>
      </trkpt>
      <trkpt lat="45.89063" lon="4.73279">
        <ele>179</ele>
        <time>2017-07-19T09:48:32Z</time>
      </trkpt>
      <trkpt lat="45.89062" lon="4.73273">
        <ele>179</ele>
        <time>2017-07-19T09:48:33Z</time>
      </trkpt>
      <trkpt lat="45.89061" lon="4.73266">
        <ele>179</ele>
        <time>2017-07-19T09:48:34Z</time>
      </trkpt>
      <trkpt lat="45.8906" lon="4.7326">
        <ele>179</ele>
        <time>2017-07-19T09:48:35Z</time>
      </trkpt>
      <trkpt lat="45.89059" lon="4.73253">
        <ele>179</ele>
        <time>2017-07-19T09:48:36Z</time>
      </trkpt>
      <trkpt lat="45.89059" lon="4.73245">
        <ele>180</ele>
        <time>2017-07-19T09:48:37Z</time>
      </trkpt>
      <trkpt lat="45.89058" lon="4.73238">
        <ele>180</ele>
        <time>2017-07-19T09:48:38Z</time>
      </trkpt>
      <trkpt lat="45.89057" lon="4.73232">
        <ele>180</ele>
        <time>2017-07-19T09:48:39Z</time>
      </trkpt>
      <trkpt lat="45.89056" lon="4.73226">
        <ele>180</ele>
        <time>2017-07-19T09:48:40Z</time>
      </trkpt>
      <trkpt lat="45.89056" lon="4.73219">
        <ele>180</ele>
        <time>2017-07-19T09:48:41Z</time>
      </trkpt>
      <trkpt lat="45.89055" lon="4.73212">
        <ele>180</ele>
        <time>2017-07-19T09:48:42Z</time>
      </trkpt>
      <trkpt lat="45.89055" lon="4.73205">
        <ele>180</ele>
        <time>2017-07-19T09:48:43Z</time>
      </trkpt>
      <trkpt lat="45.89055" lon="4.73198">
        <ele>180</ele>
        <time>2017-07-19T09:48:44Z</time>
      </trkpt>
      <trkpt lat="45.89054" lon="4.73191">
        <ele>180</ele>
        <time>2017-07-19T09:48:45Z</time>
      </trkpt>
      <trkpt lat="45.89054" lon="4.73183">
        <ele>180</ele>
        <time>2017-07-19T09:48:46Z</time>
      </trkpt>
      <trkpt lat="45.89054" lon="4.73176">
        <ele>180</ele>
        <time>2017-07-19T09:48:47Z</time>
      </trkpt>
      <trkpt lat="45.89054" lon="4.73169">
        <ele>180</ele>
        <time>2017-07-19T09:48:48Z</time>
      </trkpt>
      <trkpt lat="45.89053" lon="4.73163">
        <ele>181</ele>
        <time>2017-07-19T09:48:49Z</time>
      </trkpt>
      <trkpt lat="45.89053" lon="4.73157">
        <ele>181</ele>
        <time>2017-07-19T09:48:50Z</time>
      </trkpt>
      <trkpt lat="45.89053" lon="4.7315">
        <ele>181</ele>
        <time>2017-07-19T09:48:51Z</time>
      </trkpt>
      <trkpt lat="45.89052" lon="4.73143">
        <ele>181</ele>
        <time>2017-07-19T09:48:52Z</time>
      </trkpt>
      <trkpt lat="45.89051" lon="4.73137">
        <ele>182</ele>
        <time>2017-07-19T09:48:53Z</time>
      </trkpt>
      <trkpt lat="45.89051" lon="4.73126">
        <ele>182</ele>
        <time>2017-07-19T09:48:55Z</time>
      </trkpt>
      <trkpt lat="45.8905" lon="4.73121">
        <ele>182</ele>
        <time>2017-07-19T09:48:56Z</time>
      </trkpt>
      <trkpt lat="45.89048" lon="4.73113">
        <ele>182</ele>
        <time>2017-07-19T09:48:58Z</time>
      </trkpt>
      <trkpt lat="45.89048" lon="4.73108">
        <ele>182</ele>
        <time>2017-07-19T09:48:59Z</time>
      </trkpt>
      <trkpt lat="45.8905" lon="4.73096">
        <ele>182</ele>
        <time>2017-07-19T09:49:01Z</time>
      </trkpt>
      <trkpt lat="45.89051" lon="4.7309">
        <ele>182</ele>
        <time>2017-07-19T09:49:02Z</time>
      </trkpt>
      <trkpt lat="45.89053" lon="4.73078">
        <ele>182</ele>
        <time>2017-07-19T09:49:04Z</time>
      </trkpt>
      <trkpt lat="45.89052" lon="4.73073">
        <ele>182</ele>
        <time>2017-07-19T09:49:05Z</time>
      </trkpt>
      <trkpt lat="45.89048" lon="4.73065">
        <ele>182</ele>
        <time>2017-07-19T09:49:07Z</time>
      </trkpt>
      <trkpt lat="45.89046" lon="4.73063">
        <ele>182</ele>
        <time>2017-07-19T09:49:08Z</time>
      </trkpt>
      <trkpt lat="45.89039" lon="4.73065">
        <ele>182</ele>
        <time>2017-07-19T09:49:11Z</time>
      </trkpt>
      <trkpt lat="45.89036" lon="4.73066">
        <ele>182</ele>
        <time>2017-07-19T09:49:12Z</time>
      </trkpt>
      <trkpt lat="45.89031" lon="4.73066">
        <ele>182</ele>
        <time>2017-07-19T09:49:13Z</time>
      </trkpt>
      <trkpt lat="45.89026" lon="4.73067">
        <ele>182</ele>
        <time>2017-07-19T09:49:14Z</time>
      </trkpt>
      <trkpt lat="45.89021" lon="4.73068">
        <ele>182</ele>
        <time>2017-07-19T09:49:15Z</time>
      </trkpt>
      <trkpt lat="45.89016" lon="4.7307">
        <ele>182</ele>
        <time>2017-07-19T09:49:16Z</time>
      </trkpt>
      <trkpt lat="45.89011" lon="4.7307">
        <ele>182</ele>
        <time>2017-07-19T09:49:17Z</time>
      </trkpt>
      <trkpt lat="45.89007" lon="4.73069">
        <ele>183</ele>
        <time>2017-07-19T09:49:18Z</time>
      </trkpt>
      <trkpt lat="45.88998" lon="4.7307">
        <ele>183</ele>
        <time>2017-07-19T09:49:20Z</time>
      </trkpt>
      <trkpt lat="45.88995" lon="4.73071">
        <ele>183</ele>
        <time>2017-07-19T09:49:21Z</time>
      </trkpt>
      <trkpt lat="45.88987" lon="4.73073">
        <ele>183</ele>
        <time>2017-07-19T09:49:23Z</time>
      </trkpt>
      <trkpt lat="45.88984" lon="4.73074">
        <ele>183</ele>
        <time>2017-07-19T09:49:24Z</time>
      </trkpt>
      <trkpt lat="45.88976" lon="4.73074">
        <ele>183</ele>
        <time>2017-07-19T09:49:26Z</time>
      </trkpt>
      <trkpt lat="45.88971" lon="4.73075">
        <ele>183</ele>
        <time>2017-07-19T09:49:27Z</time>
      </trkpt>
      <trkpt lat="45.88966" lon="4.73076">
        <ele>183</ele>
        <time>2017-07-19T09:49:28Z</time>
      </trkpt>
      <trkpt lat="45.8896" lon="4.73078">
        <ele>183</ele>
        <time>2017-07-19T09:49:29Z</time>
      </trkpt>
      <trkpt lat="45.88955" lon="4.73079">
        <ele>183</ele>
        <time>2017-07-19T09:49:30Z</time>
      </trkpt>
      <trkpt lat="45.8895" lon="4.73081">
        <ele>183</ele>
        <time>2017-07-19T09:49:31Z</time>
      </trkpt>
      <trkpt lat="45.88942" lon="4.73083">
        <ele>183</ele>
        <time>2017-07-19T09:49:33Z</time>
      </trkpt>
      <trkpt lat="45.88938" lon="4.73085">
        <ele>183</ele>
        <time>2017-07-19T09:49:34Z</time>
      </trkpt>
      <trkpt lat="45.8893" lon="4.73086">
        <ele>183</ele>
        <time>2017-07-19T09:49:36Z</time>
      </trkpt>
      <trkpt lat="45.88925" lon="4.73087">
        <ele>183</ele>
        <time>2017-07-19T09:49:37Z</time>
      </trkpt>
      <trkpt lat="45.8892" lon="4.73089">
        <ele>183</ele>
        <time>2017-07-19T09:49:38Z</time>
      </trkpt>
      <trkpt lat="45.88915" lon="4.7309">
        <ele>183</ele>
        <time>2017-07-19T09:49:39Z</time>
      </trkpt>
      <trkpt lat="45.8891" lon="4.73091">
        <ele>183</ele>
        <time>2017-07-19T09:49:40Z</time>
      </trkpt>
      <trkpt lat="45.88905" lon="4.73093">
        <ele>182</ele>
        <time>2017-07-19T09:49:41Z</time>
      </trkpt>
      <trkpt lat="45.889" lon="4.73094">
        <ele>182</ele>
        <time>2017-07-19T09:49:42Z</time>
      </trkpt>
      <trkpt lat="45.88896" lon="4.73095">
        <ele>182</ele>
        <time>2017-07-19T09:49:43Z</time>
      </trkpt>
      <trkpt lat="45.88888" lon="4.73096">
        <ele>182</ele>
        <time>2017-07-19T09:49:45Z</time>
      </trkpt>
      <trkpt lat="45.88885" lon="4.73097">
        <ele>182</ele>
        <time>2017-07-19T09:49:46Z</time>
      </trkpt>
      <trkpt lat="45.88878" lon="4.73099">
        <ele>182</ele>
        <time>2017-07-19T09:49:48Z</time>
      </trkpt>
      <trkpt lat="45.88874" lon="4.73099">
        <ele>182</ele>
        <time>2017-07-19T09:49:49Z</time>
      </trkpt>
      <trkpt lat="45.88865" lon="4.73101">
        <ele>182</ele>
        <time>2017-07-19T09:49:51Z</time>
      </trkpt>
      <trkpt lat="45.88861" lon="4.73101">
        <ele>182</ele>
        <time>2017-07-19T09:49:52Z</time>
      </trkpt>
      <trkpt lat="45.88853" lon="4.73103">
        <ele>182</ele>
        <time>2017-07-19T09:49:54Z</time>
      </trkpt>
      <trkpt lat="45.88849" lon="4.73105">
        <ele>182</ele>
        <time>2017-07-19T09:49:55Z</time>
      </trkpt>
      <trkpt lat="45.88844" lon="4.73106">
        <ele>182</ele>
        <time>2017-07-19T09:49:56Z</time>
      </trkpt>
      <trkpt lat="45.88839" lon="4.73107">
        <ele>182</ele>
        <time>2017-07-19T09:49:57Z</time>
      </trkpt>
      <trkpt lat="45.88834" lon="4.73109">
        <ele>182</ele>
        <time>2017-07-19T09:49:58Z</time>
      </trkpt>
      <trkpt lat="45.8883" lon="4.73111">
        <ele>182</ele>
        <time>2017-07-19T09:49:59Z</time>
      </trkpt>
      <trkpt lat="45.88823" lon="4.73114">
        <ele>182</ele>
        <time>2017-07-19T09:50:01Z</time>
      </trkpt>
      <trkpt lat="45.8882" lon="4.73116">
        <ele>182</ele>
        <time>2017-07-19T09:50:02Z</time>
      </trkpt>
      <trkpt lat="45.88812" lon="4.7312">
        <ele>182</ele>
        <time>2017-07-19T09:50:06Z</time>
      </trkpt>
      <trkpt lat="45.8881" lon="4.7312">
        <ele>182</ele>
        <time>2017-07-19T09:50:07Z</time>
      </trkpt>
      <trkpt lat="45.88804" lon="4.73121">
        <ele>182</ele>
        <time>2017-07-19T09:50:09Z</time>
      </trkpt>
      <trkpt lat="45.88801" lon="4.73121">
        <ele>182</ele>
        <time>2017-07-19T09:50:10Z</time>
      </trkpt>
      <trkpt lat="45.88794" lon="4.73123">
        <ele>182</ele>
        <time>2017-07-19T09:50:12Z</time>
      </trkpt>
      <trkpt lat="45.8879" lon="4.73123">
        <ele>182</ele>
        <time>2017-07-19T09:50:13Z</time>
      </trkpt>
      <trkpt lat="45.88783" lon="4.73122">
        <ele>182</ele>
        <time>2017-07-19T09:50:15Z</time>
      </trkpt>
      <trkpt lat="45.88781" lon="4.73117">
        <ele>182</ele>
        <time>2017-07-19T09:50:16Z</time>
      </trkpt>
      <trkpt lat="45.88779" lon="4.73111">
        <ele>182</ele>
        <time>2017-07-19T09:50:17Z</time>
      </trkpt>
      <trkpt lat="45.88777" lon="4.73104">
        <ele>182</ele>
        <time>2017-07-19T09:50:18Z</time>
      </trkpt>
      <trkpt lat="45.88776" lon="4.73093">
        <ele>183</ele>
        <time>2017-07-19T09:50:20Z</time>
      </trkpt>
      <trkpt lat="45.88775" lon="4.73087">
        <ele>183</ele>
        <time>2017-07-19T09:50:21Z</time>
      </trkpt>
      <trkpt lat="45.88774" lon="4.73075">
        <ele>184</ele>
        <time>2017-07-19T09:50:23Z</time>
      </trkpt>
      <trkpt lat="45.88774" lon="4.7307">
        <ele>184</ele>
        <time>2017-07-19T09:50:24Z</time>
      </trkpt>
      <trkpt lat="45.88774" lon="4.73057">
        <ele>184</ele>
        <time>2017-07-19T09:50:26Z</time>
      </trkpt>
      <trkpt lat="45.88775" lon="4.7305">
        <ele>184</ele>
        <time>2017-07-19T09:50:27Z</time>
      </trkpt>
      <trkpt lat="45.88775" lon="4.73037">
        <ele>184</ele>
        <time>2017-07-19T09:50:29Z</time>
      </trkpt>
      <trkpt lat="45.88774" lon="4.73031">
        <ele>184</ele>
        <time>2017-07-19T09:50:30Z</time>
      </trkpt>
      <trkpt lat="45.88774" lon="4.7302">
        <ele>184</ele>
        <time>2017-07-19T09:50:32Z</time>
      </trkpt>
      <trkpt lat="45.88774" lon="4.73014">
        <ele>184</ele>
        <time>2017-07-19T09:50:33Z</time>
      </trkpt>
      <trkpt lat="45.88773" lon="4.73003">
        <ele>184</ele>
        <time>2017-07-19T09:50:35Z</time>
      </trkpt>
      <trkpt lat="45.88772" lon="4.72997">
        <ele>185</ele>
        <time>2017-07-19T09:50:36Z</time>
      </trkpt>
      <trkpt lat="45.88772" lon="4.7299">
        <ele>185</ele>
        <time>2017-07-19T09:50:37Z</time>
      </trkpt>
      <trkpt lat="45.88772" lon="4.72984">
        <ele>185</ele>
        <time>2017-07-19T09:50:38Z</time>
      </trkpt>
      <trkpt lat="45.8877" lon="4.72973">
        <ele>185</ele>
        <time>2017-07-19T09:50:40Z</time>
      </trkpt>
      <trkpt lat="45.8877" lon="4.72967">
        <ele>185</ele>
        <time>2017-07-19T09:50:41Z</time>
      </trkpt>
      <trkpt lat="45.88769" lon="4.72956">
        <ele>185</ele>
        <time>2017-07-19T09:50:43Z</time>
      </trkpt>
      <trkpt lat="45.88768" lon="4.72951">
        <ele>185</ele>
        <time>2017-07-19T09:50:44Z</time>
      </trkpt>
      <trkpt lat="45.88768" lon="4.72944">
        <ele>185</ele>
        <time>2017-07-19T09:50:45Z</time>
      </trkpt>
      <trkpt lat="45.88767" lon="4.72937">
        <ele>185</ele>
        <time>2017-07-19T09:50:46Z</time>
      </trkpt>
      <trkpt lat="45.88767" lon="4.72929">
        <ele>185</ele>
        <time>2017-07-19T09:50:47Z</time>
      </trkpt>
      <trkpt lat="45.88766" lon="4.72922">
        <ele>185</ele>
        <time>2017-07-19T09:50:48Z</time>
      </trkpt>
      <trkpt lat="45.88766" lon="4.72915">
        <ele>186</ele>
        <time>2017-07-19T09:50:49Z</time>
      </trkpt>
      <trkpt lat="45.88765" lon="4.72907">
        <ele>186</ele>
        <time>2017-07-19T09:50:50Z</time>
      </trkpt>
      <trkpt lat="45.88765" lon="4.729">
        <ele>185</ele>
        <time>2017-07-19T09:50:51Z</time>
      </trkpt>
      <trkpt lat="45.88764" lon="4.72892">
        <ele>185</ele>
        <time>2017-07-19T09:50:52Z</time>
      </trkpt>
      <trkpt lat="45.88763" lon="4.72884">
        <ele>185</ele>
        <time>2017-07-19T09:50:53Z</time>
      </trkpt>
      <trkpt lat="45.88761" lon="4.72877">
        <ele>185</ele>
        <time>2017-07-19T09:50:54Z</time>
      </trkpt>
      <trkpt lat="45.88761" lon="4.72869">
        <ele>185</ele>
        <time>2017-07-19T09:50:55Z</time>
      </trkpt>
      <trkpt lat="45.8876" lon="4.72861">
        <ele>185</ele>
        <time>2017-07-19T09:50:56Z</time>
      </trkpt>
      <trkpt lat="45.8876" lon="4.72853">
        <ele>185</ele>
        <time>2017-07-19T09:50:57Z</time>
      </trkpt>
      <trkpt lat="45.88759" lon="4.72843">
        <ele>186</ele>
        <time>2017-07-19T09:50:58Z</time>
      </trkpt>
      <trkpt lat="45.88758" lon="4.72835">
        <ele>186</ele>
        <time>2017-07-19T09:50:59Z</time>
      </trkpt>
      <trkpt lat="45.88756" lon="4.72828">
        <ele>185</ele>
        <time>2017-07-19T09:51:00Z</time>
      </trkpt>
      <trkpt lat="45.88756" lon="4.7282">
        <ele>185</ele>
        <time>2017-07-19T09:51:01Z</time>
      </trkpt>
      <trkpt lat="45.88755" lon="4.72813">
        <ele>185</ele>
        <time>2017-07-19T09:51:02Z</time>
      </trkpt>
      <trkpt lat="45.88754" lon="4.72807">
        <ele>184</ele>
        <time>2017-07-19T09:51:03Z</time>
      </trkpt>
      <trkpt lat="45.88754" lon="4.728">
        <ele>184</ele>
        <time>2017-07-19T09:51:04Z</time>
      </trkpt>
      <trkpt lat="45.88752" lon="4.72793">
        <ele>184</ele>
        <time>2017-07-19T09:51:05Z</time>
      </trkpt>
      <trkpt lat="45.88751" lon="4.72786">
        <ele>184</ele>
        <time>2017-07-19T09:51:06Z</time>
      </trkpt>
      <trkpt lat="45.88751" lon="4.7278">
        <ele>184</ele>
        <time>2017-07-19T09:51:07Z</time>
      </trkpt>
      <trkpt lat="45.88752" lon="4.72772">
        <ele>184</ele>
        <time>2017-07-19T09:51:08Z</time>
      </trkpt>
      <trkpt lat="45.88751" lon="4.72765">
        <ele>183</ele>
        <time>2017-07-19T09:51:09Z</time>
      </trkpt>
      <trkpt lat="45.88751" lon="4.72757">
        <ele>183</ele>
        <time>2017-07-19T09:51:10Z</time>
      </trkpt>
      <trkpt lat="45.8875" lon="4.72748">
        <ele>183</ele>
        <time>2017-07-19T09:51:11Z</time>
      </trkpt>
      <trkpt lat="45.8875" lon="4.7274">
        <ele>183</ele>
        <time>2017-07-19T09:51:12Z</time>
      </trkpt>
      <trkpt lat="45.88749" lon="4.72733">
        <ele>183</ele>
        <time>2017-07-19T09:51:13Z</time>
      </trkpt>
      <trkpt lat="45.88749" lon="4.72725">
        <ele>183</ele>
        <time>2017-07-19T09:51:14Z</time>
      </trkpt>
      <trkpt lat="45.88748" lon="4.72718">
        <ele>183</ele>
        <time>2017-07-19T09:51:15Z</time>
      </trkpt>
      <trkpt lat="45.88748" lon="4.72711">
        <ele>183</ele>
        <time>2017-07-19T09:51:16Z</time>
      </trkpt>
      <trkpt lat="45.88746" lon="4.72698">
        <ele>183</ele>
        <time>2017-07-19T09:51:18Z</time>
      </trkpt>
      <trkpt lat="45.88746" lon="4.72692">
        <ele>183</ele>
        <time>2017-07-19T09:51:19Z</time>
      </trkpt>
      <trkpt lat="45.88745" lon="4.72686">
        <ele>183</ele>
        <time>2017-07-19T09:51:20Z</time>
      </trkpt>
      <trkpt lat="45.88745" lon="4.72679">
        <ele>182</ele>
        <time>2017-07-19T09:51:21Z</time>
      </trkpt>
      <trkpt lat="45.88744" lon="4.72672">
        <ele>182</ele>
        <time>2017-07-19T09:51:22Z</time>
      </trkpt>
      <trkpt lat="45.88743" lon="4.72665">
        <ele>182</ele>
        <time>2017-07-19T09:51:23Z</time>
      </trkpt>
      <trkpt lat="45.88743" lon="4.72658">
        <ele>182</ele>
        <time>2017-07-19T09:51:24Z</time>
      </trkpt>
      <trkpt lat="45.88742" lon="4.7265">
        <ele>183</ele>
        <time>2017-07-19T09:51:25Z</time>
      </trkpt>
      <trkpt lat="45.88741" lon="4.72642">
        <ele>183</ele>
        <time>2017-07-19T09:51:26Z</time>
      </trkpt>
      <trkpt lat="45.8874" lon="4.72635">
        <ele>183</ele>
        <time>2017-07-19T09:51:27Z</time>
      </trkpt>
      <trkpt lat="45.8874" lon="4.72625">
        <ele>183</ele>
        <time>2017-07-19T09:51:28Z</time>
      </trkpt>
      <trkpt lat="45.88739" lon="4.72618">
        <ele>183</ele>
        <time>2017-07-19T09:51:29Z</time>
      </trkpt>
      <trkpt lat="45.88738" lon="4.72611">
        <ele>183</ele>
        <time>2017-07-19T09:51:30Z</time>
      </trkpt>
      <trkpt lat="45.88738" lon="4.72604">
        <ele>183</ele>
        <time>2017-07-19T09:51:31Z</time>
      </trkpt>
      <trkpt lat="45.88736" lon="4.72592">
        <ele>184</ele>
        <time>2017-07-19T09:51:33Z</time>
      </trkpt>
      <trkpt lat="45.88735" lon="4.72587">
        <ele>184</ele>
        <time>2017-07-19T09:51:34Z</time>
      </trkpt>
      <trkpt lat="45.88734" lon="4.72575">
        <ele>184</ele>
        <time>2017-07-19T09:51:36Z</time>
      </trkpt>
      <trkpt lat="45.88733" lon="4.72568">
        <ele>183</ele>
        <time>2017-07-19T09:51:37Z</time>
      </trkpt>
      <trkpt lat="45.88731" lon="4.72561">
        <ele>183</ele>
        <time>2017-07-19T09:51:38Z</time>
      </trkpt>
      <trkpt lat="45.8873" lon="4.72553">
        <ele>183</ele>
        <time>2017-07-19T09:51:39Z</time>
      </trkpt>
      <trkpt lat="45.88728" lon="4.72546">
        <ele>183</ele>
        <time>2017-07-19T09:51:40Z</time>
      </trkpt>
      <trkpt lat="45.88727" lon="4.72539">
        <ele>183</ele>
        <time>2017-07-19T09:51:41Z</time>
      </trkpt>
      <trkpt lat="45.88726" lon="4.72532">
        <ele>183</ele>
        <time>2017-07-19T09:51:42Z</time>
      </trkpt>
      <trkpt lat="45.88724" lon="4.72526">
        <ele>183</ele>
        <time>2017-07-19T09:51:43Z</time>
      </trkpt>
      <trkpt lat="45.88723" lon="4.7252">
        <ele>183</ele>
        <time>2017-07-19T09:51:44Z</time>
      </trkpt>
      <trkpt lat="45.88722" lon="4.72513">
        <ele>183</ele>
        <time>2017-07-19T09:51:45Z</time>
      </trkpt>
      <trkpt lat="45.88721" lon="4.725">
        <ele>183</ele>
        <time>2017-07-19T09:51:47Z</time>
      </trkpt>
      <trkpt lat="45.88721" lon="4.72494">
        <ele>182</ele>
        <time>2017-07-19T09:51:48Z</time>
      </trkpt>
      <trkpt lat="45.88722" lon="4.72482">
        <ele>182</ele>
        <time>2017-07-19T09:51:50Z</time>
      </trkpt>
      <trkpt lat="45.88723" lon="4.72477">
        <ele>182</ele>
        <time>2017-07-19T09:51:51Z</time>
      </trkpt>
      <trkpt lat="45.88725" lon="4.72471">
        <ele>182</ele>
        <time>2017-07-19T09:51:52Z</time>
      </trkpt>
      <trkpt lat="45.88727" lon="4.72464">
        <ele>182</ele>
        <time>2017-07-19T09:51:53Z</time>
      </trkpt>
      <trkpt lat="45.88729" lon="4.72457">
        <ele>182</ele>
        <time>2017-07-19T09:51:54Z</time>
      </trkpt>
      <trkpt lat="45.88731" lon="4.72451">
        <ele>182</ele>
        <time>2017-07-19T09:51:55Z</time>
      </trkpt>
      <trkpt lat="45.88733" lon="4.72444">
        <ele>182</ele>
        <time>2017-07-19T09:51:56Z</time>
      </trkpt>
      <trkpt lat="45.88736" lon="4.72437">
        <ele>182</ele>
        <time>2017-07-19T09:51:57Z</time>
      </trkpt>
      <trkpt lat="45.88739" lon="4.72431">
        <ele>182</ele>
        <time>2017-07-19T09:51:58Z</time>
      </trkpt>
      <trkpt lat="45.88742" lon="4.72425">
        <ele>182</ele>
        <time>2017-07-19T09:51:59Z</time>
      </trkpt>
      <trkpt lat="45.88745" lon="4.72419">
        <ele>182</ele>
        <time>2017-07-19T09:52:00Z</time>
      </trkpt>
      <trkpt lat="45.88749" lon="4.72413">
        <ele>182</ele>
        <time>2017-07-19T09:52:01Z</time>
      </trkpt>
      <trkpt lat="45.88751" lon="4.72407">
        <ele>182</ele>
        <time>2017-07-19T09:52:02Z</time>
      </trkpt>
      <trkpt lat="45.88755" lon="4.72401">
        <ele>182</ele>
        <time>2017-07-19T09:52:03Z</time>
      </trkpt>
      <trkpt lat="45.88758" lon="4.72395">
        <ele>182</ele>
        <time>2017-07-19T09:52:04Z</time>
      </trkpt>
      <trkpt lat="45.88761" lon="4.72389">
        <ele>182</ele>
        <time>2017-07-19T09:52:05Z</time>
      </trkpt>
      <trkpt lat="45.88766" lon="4.72379">
        <ele>182</ele>
        <time>2017-07-19T09:52:07Z</time>
      </trkpt>
      <trkpt lat="45.88768" lon="4.72373">
        <ele>182</ele>
        <time>2017-07-19T09:52:08Z</time>
      </trkpt>
      <trkpt lat="45.88771" lon="4.72368">
        <ele>182</ele>
        <time>2017-07-19T09:52:09Z</time>
      </trkpt>
      <trkpt lat="45.88774" lon="4.72362">
        <ele>182</ele>
        <time>2017-07-19T09:52:10Z</time>
      </trkpt>
      <trkpt lat="45.88777" lon="4.72355">
        <ele>182</ele>
        <time>2017-07-19T09:52:11Z</time>
      </trkpt>
      <trkpt lat="45.8878" lon="4.72349">
        <ele>182</ele>
        <time>2017-07-19T09:52:12Z</time>
      </trkpt>
      <trkpt lat="45.88783" lon="4.72342">
        <ele>182</ele>
        <time>2017-07-19T09:52:13Z</time>
      </trkpt>
      <trkpt lat="45.88786" lon="4.72335">
        <ele>182</ele>
        <time>2017-07-19T09:52:14Z</time>
      </trkpt>
      <trkpt lat="45.88789" lon="4.72329">
        <ele>182</ele>
        <time>2017-07-19T09:52:15Z</time>
      </trkpt>
      <trkpt lat="45.88791" lon="4.72322">
        <ele>182</ele>
        <time>2017-07-19T09:52:16Z</time>
      </trkpt>
      <trkpt lat="45.88794" lon="4.72315">
        <ele>182</ele>
        <time>2017-07-19T09:52:17Z</time>
      </trkpt>
      <trkpt lat="45.88796" lon="4.72308">
        <ele>182</ele>
        <time>2017-07-19T09:52:18Z</time>
      </trkpt>
      <trkpt lat="45.88798" lon="4.72301">
        <ele>182</ele>
        <time>2017-07-19T09:52:19Z</time>
      </trkpt>
      <trkpt lat="45.88799" lon="4.72295">
        <ele>182</ele>
        <time>2017-07-19T09:52:20Z</time>
      </trkpt>
      <trkpt lat="45.88801" lon="4.72288">
        <ele>182</ele>
        <time>2017-07-19T09:52:21Z</time>
      </trkpt>
      <trkpt lat="45.88802" lon="4.72281">
        <ele>182</ele>
        <time>2017-07-19T09:52:22Z</time>
      </trkpt>
      <trkpt lat="45.88804" lon="4.72274">
        <ele>182</ele>
        <time>2017-07-19T09:52:23Z</time>
      </trkpt>
      <trkpt lat="45.88806" lon="4.72266">
        <ele>182</ele>
        <time>2017-07-19T09:52:24Z</time>
      </trkpt>
      <trkpt lat="45.88808" lon="4.72258">
        <ele>182</ele>
        <time>2017-07-19T09:52:25Z</time>
      </trkpt>
      <trkpt lat="45.88809" lon="4.72251">
        <ele>182</ele>
        <time>2017-07-19T09:52:26Z</time>
      </trkpt>
      <trkpt lat="45.88811" lon="4.72243">
        <ele>182</ele>
        <time>2017-07-19T09:52:27Z</time>
      </trkpt>
      <trkpt lat="45.88813" lon="4.72234">
        <ele>182</ele>
        <time>2017-07-19T09:52:28Z</time>
      </trkpt>
      <trkpt lat="45.88814" lon="4.72226">
        <ele>182</ele>
        <time>2017-07-19T09:52:29Z</time>
      </trkpt>
      <trkpt lat="45.88815" lon="4.72218">
        <ele>182</ele>
        <time>2017-07-19T09:52:30Z</time>
      </trkpt>
      <trkpt lat="45.88816" lon="4.72211">
        <ele>182</ele>
        <time>2017-07-19T09:52:31Z</time>
      </trkpt>
      <trkpt lat="45.88817" lon="4.72203">
        <ele>182</ele>
        <time>2017-07-19T09:52:32Z</time>
      </trkpt>
      <trkpt lat="45.88818" lon="4.72196">
        <ele>182</ele>
        <time>2017-07-19T09:52:33Z</time>
      </trkpt>
      <trkpt lat="45.88819" lon="4.7219">
        <ele>182</ele>
        <time>2017-07-19T09:52:34Z</time>
      </trkpt>
      <trkpt lat="45.8882" lon="4.72184">
        <ele>182</ele>
        <time>2017-07-19T09:52:35Z</time>
      </trkpt>
      <trkpt lat="45.88821" lon="4.72177">
        <ele>182</ele>
        <time>2017-07-19T09:52:36Z</time>
      </trkpt>
      <trkpt lat="45.88822" lon="4.7217">
        <ele>182</ele>
        <time>2017-07-19T09:52:37Z</time>
      </trkpt>
      <trkpt lat="45.88823" lon="4.72164">
        <ele>182</ele>
        <time>2017-07-19T09:52:38Z</time>
      </trkpt>
      <trkpt lat="45.88825" lon="4.72152">
        <ele>182</ele>
        <time>2017-07-19T09:52:40Z</time>
      </trkpt>
      <trkpt lat="45.88827" lon="4.72146">
        <ele>182</ele>
        <time>2017-07-19T09:52:41Z</time>
      </trkpt>
      <trkpt lat="45.88828" lon="4.72139">
        <ele>182</ele>
        <time>2017-07-19T09:52:42Z</time>
      </trkpt>
      <trkpt lat="45.88829" lon="4.72133">
        <ele>182</ele>
        <time>2017-07-19T09:52:43Z</time>
      </trkpt>
      <trkpt lat="45.88831" lon="4.72121">
        <ele>181</ele>
        <time>2017-07-19T09:52:45Z</time>
      </trkpt>
      <trkpt lat="45.88832" lon="4.72115">
        <ele>181</ele>
        <time>2017-07-19T09:52:46Z</time>
      </trkpt>
      <trkpt lat="45.88835" lon="4.72107">
        <ele>181</ele>
        <time>2017-07-19T09:52:48Z</time>
      </trkpt>
      <trkpt lat="45.88836" lon="4.72103">
        <ele>181</ele>
        <time>2017-07-19T09:52:49Z</time>
      </trkpt>
      <trkpt lat="45.88842" lon="4.72098">
        <ele>181</ele>
        <time>2017-07-19T09:52:51Z</time>
      </trkpt>
      <trkpt lat="45.88847" lon="4.72098">
        <ele>181</ele>
        <time>2017-07-19T09:52:52Z</time>
      </trkpt>
      <trkpt lat="45.88852" lon="4.72099">
        <ele>181</ele>
        <time>2017-07-19T09:52:53Z</time>
      </trkpt>
      <trkpt lat="45.88857" lon="4.72101">
        <ele>181</ele>
        <time>2017-07-19T09:52:54Z</time>
      </trkpt>
      <trkpt lat="45.88866" lon="4.72102">
        <ele>181</ele>
        <time>2017-07-19T09:52:56Z</time>
      </trkpt>
      <trkpt lat="45.88871" lon="4.72103">
        <ele>181</ele>
        <time>2017-07-19T09:52:57Z</time>
      </trkpt>
      <trkpt lat="45.88876" lon="4.72104">
        <ele>181</ele>
        <time>2017-07-19T09:52:58Z</time>
      </trkpt>
      <trkpt lat="45.88881" lon="4.72104">
        <ele>181</ele>
        <time>2017-07-19T09:52:59Z</time>
      </trkpt>
      <trkpt lat="45.88887" lon="4.72106">
        <ele>181</ele>
        <time>2017-07-19T09:53:00Z</time>
      </trkpt>
      <trkpt lat="45.88892" lon="4.72106">
        <ele>181</ele>
        <time>2017-07-19T09:53:01Z</time>
      </trkpt>
      <trkpt lat="45.88898" lon="4.72108">
        <ele>181</ele>
        <time>2017-07-19T09:53:02Z</time>
      </trkpt>
      <trkpt lat="45.88903" lon="4.7211">
        <ele>181</ele>
        <time>2017-07-19T09:53:03Z</time>
      </trkpt>
      <trkpt lat="45.88908" lon="4.72111">
        <ele>181</ele>
        <time>2017-07-19T09:53:04Z</time>
      </trkpt>
      <trkpt lat="45.88913" lon="4.72113">
        <ele>181</ele>
        <time>2017-07-19T09:53:05Z</time>
      </trkpt>
      <trkpt lat="45.88921" lon="4.72115">
        <ele>181</ele>
        <time>2017-07-19T09:53:07Z</time>
      </trkpt>
      <trkpt lat="45.88925" lon="4.72117">
        <ele>181</ele>
        <time>2017-07-19T09:53:08Z</time>
      </trkpt>
      <trkpt lat="45.8893" lon="4.72118">
        <ele>181</ele>
        <time>2017-07-19T09:53:09Z</time>
      </trkpt>
      <trkpt lat="45.88934" lon="4.7212">
        <ele>181</ele>
        <time>2017-07-19T09:53:10Z</time>
      </trkpt>
      <trkpt lat="45.88942" lon="4.72123">
        <ele>181</ele>
        <time>2017-07-19T09:53:12Z</time>
      </trkpt>
      <trkpt lat="45.88947" lon="4.72124">
        <ele>181</ele>
        <time>2017-07-19T09:53:13Z</time>
      </trkpt>
      <trkpt lat="45.88955" lon="4.72128">
        <ele>181</ele>
        <time>2017-07-19T09:53:15Z</time>
      </trkpt>
      <trkpt lat="45.8896" lon="4.72129">
        <ele>180</ele>
        <time>2017-07-19T09:53:16Z</time>
      </trkpt>
      <trkpt lat="45.88965" lon="4.72131">
        <ele>180</ele>
        <time>2017-07-19T09:53:17Z</time>
      </trkpt>
      <trkpt lat="45.8897" lon="4.72133">
        <ele>180</ele>
        <time>2017-07-19T09:53:18Z</time>
      </trkpt>
      <trkpt lat="45.88976" lon="4.72135">
        <ele>180</ele>
        <time>2017-07-19T09:53:19Z</time>
      </trkpt>
      <trkpt lat="45.88981" lon="4.72138">
        <ele>180</ele>
        <time>2017-07-19T09:53:20Z</time>
      </trkpt>
      <trkpt lat="45.88987" lon="4.7214">
        <ele>180</ele>
        <time>2017-07-19T09:53:21Z</time>
      </trkpt>
      <trkpt lat="45.88992" lon="4.72142">
        <ele>180</ele>
        <time>2017-07-19T09:53:22Z</time>
      </trkpt>
      <trkpt lat="45.88997" lon="4.72146">
        <ele>180</ele>
        <time>2017-07-19T09:53:23Z</time>
      </trkpt>
      <trkpt lat="45.89003" lon="4.72148">
        <ele>180</ele>
        <time>2017-07-19T09:53:24Z</time>
      </trkpt>
      <trkpt lat="45.89008" lon="4.72154">
        <ele>180</ele>
        <time>2017-07-19T09:53:25Z</time>
      </trkpt>
      <trkpt lat="45.89013" lon="4.72155">
        <ele>180</ele>
        <time>2017-07-19T09:53:26Z</time>
      </trkpt>
      <trkpt lat="45.89018" lon="4.72157">
        <ele>180</ele>
        <time>2017-07-19T09:53:27Z</time>
      </trkpt>
      <trkpt lat="45.89023" lon="4.72159">
        <ele>180</ele>
        <time>2017-07-19T09:53:28Z</time>
      </trkpt>
      <trkpt lat="45.89029" lon="4.72162">
        <ele>180</ele>
        <time>2017-07-19T09:53:29Z</time>
      </trkpt>
      <trkpt lat="45.89034" lon="4.72164">
        <ele>180</ele>
        <time>2017-07-19T09:53:30Z</time>
      </trkpt>
      <trkpt lat="45.89039" lon="4.72166">
        <ele>180</ele>
        <time>2017-07-19T09:53:31Z</time>
      </trkpt>
      <trkpt lat="45.89044" lon="4.72168">
        <ele>180</ele>
        <time>2017-07-19T09:53:32Z</time>
      </trkpt>
      <trkpt lat="45.89049" lon="4.7217">
        <ele>180</ele>
        <time>2017-07-19T09:53:33Z</time>
      </trkpt>
      <trkpt lat="45.89053" lon="4.72173">
        <ele>180</ele>
        <time>2017-07-19T09:53:34Z</time>
      </trkpt>
      <trkpt lat="45.89058" lon="4.72177">
        <ele>180</ele>
        <time>2017-07-19T09:53:35Z</time>
      </trkpt>
      <trkpt lat="45.89062" lon="4.7218">
        <ele>180</ele>
        <time>2017-07-19T09:53:36Z</time>
      </trkpt>
      <trkpt lat="45.89067" lon="4.72183">
        <ele>180</ele>
        <time>2017-07-19T09:53:37Z</time>
      </trkpt>
      <trkpt lat="45.89072" lon="4.72184">
        <ele>180</ele>
        <time>2017-07-19T09:53:38Z</time>
      </trkpt>
      <trkpt lat="45.89077" lon="4.72187">
        <ele>180</ele>
        <time>2017-07-19T09:53:39Z</time>
      </trkpt>
      <trkpt lat="45.89082" lon="4.7219">
        <ele>180</ele>
        <time>2017-07-19T09:53:40Z</time>
      </trkpt>
      <trkpt lat="45.89088" lon="4.72193">
        <ele>180</ele>
        <time>2017-07-19T09:53:41Z</time>
      </trkpt>
      <trkpt lat="45.89093" lon="4.72195">
        <ele>180</ele>
        <time>2017-07-19T09:53:42Z</time>
      </trkpt>
      <trkpt lat="45.89098" lon="4.72197">
        <ele>180</ele>
        <time>2017-07-19T09:53:43Z</time>
      </trkpt>
      <trkpt lat="45.89104" lon="4.72199">
        <ele>180</ele>
        <time>2017-07-19T09:53:44Z</time>
      </trkpt>
      <trkpt lat="45.89109" lon="4.72201">
        <ele>180</ele>
        <time>2017-07-19T09:53:45Z</time>
      </trkpt>
      <trkpt lat="45.89114" lon="4.72203">
        <ele>180</ele>
        <time>2017-07-19T09:53:46Z</time>
      </trkpt>
      <trkpt lat="45.89119" lon="4.72205">
        <ele>180</ele>
        <time>2017-07-19T09:53:47Z</time>
      </trkpt>
      <trkpt lat="45.89123" lon="4.72207">
        <ele>180</ele>
        <time>2017-07-19T09:53:48Z</time>
      </trkpt>
      <trkpt lat="45.89127" lon="4.72209">
        <ele>180</ele>
        <time>2017-07-19T09:53:49Z</time>
      </trkpt>
      <trkpt lat="45.89132" lon="4.72211">
        <ele>180</ele>
        <time>2017-07-19T09:53:50Z</time>
      </trkpt>
      <trkpt lat="45.89136" lon="4.72213">
        <ele>180</ele>
        <time>2017-07-19T09:53:51Z</time>
      </trkpt>
      <trkpt lat="45.89141" lon="4.72215">
        <ele>180</ele>
        <time>2017-07-19T09:53:52Z</time>
      </trkpt>
      <trkpt lat="45.89148" lon="4.72217">
        <ele>180</ele>
        <time>2017-07-19T09:53:54Z</time>
      </trkpt>
      <trkpt lat="45.89152" lon="4.72219">
        <ele>180</ele>
        <time>2017-07-19T09:53:55Z</time>
      </trkpt>
      <trkpt lat="45.89159" lon="4.72223">
        <ele>180</ele>
        <time>2017-07-19T09:53:57Z</time>
      </trkpt>
      <trkpt lat="45.89163" lon="4.72226">
        <ele>180</ele>
        <time>2017-07-19T09:53:58Z</time>
      </trkpt>
      <trkpt lat="45.89168" lon="4.72228">
        <ele>180</ele>
        <time>2017-07-19T09:53:59Z</time>
      </trkpt>
      <trkpt lat="45.89173" lon="4.72231">
        <ele>180</ele>
        <time>2017-07-19T09:54:00Z</time>
      </trkpt>
      <trkpt lat="45.89178" lon="4.72234">
        <ele>180</ele>
        <time>2017-07-19T09:54:01Z</time>
      </trkpt>
      <trkpt lat="45.89183" lon="4.72237">
        <ele>180</ele>
        <time>2017-07-19T09:54:02Z</time>
      </trkpt>
      <trkpt lat="45.89188" lon="4.72239">
        <ele>180</ele>
        <time>2017-07-19T09:54:03Z</time>
      </trkpt>
      <trkpt lat="45.89193" lon="4.72241">
        <ele>180</ele>
        <time>2017-07-19T09:54:04Z</time>
      </trkpt>
      <trkpt lat="45.89198" lon="4.72244">
        <ele>180</ele>
        <time>2017-07-19T09:54:05Z</time>
      </trkpt>
      <trkpt lat="45.89202" lon="4.72246">
        <ele>180</ele>
        <time>2017-07-19T09:54:06Z</time>
      </trkpt>
      <trkpt lat="45.8921" lon="4.72252">
        <ele>181</ele>
        <time>2017-07-19T09:54:08Z</time>
      </trkpt>
      <trkpt lat="45.89214" lon="4.72254">
        <ele>181</ele>
        <time>2017-07-19T09:54:09Z</time>
      </trkpt>
      <trkpt lat="45.89221" lon="4.72258">
        <ele>181</ele>
        <time>2017-07-19T09:54:11Z</time>
      </trkpt>
      <trkpt lat="45.89225" lon="4.72259">
        <ele>181</ele>
        <time>2017-07-19T09:54:12Z</time>
      </trkpt>
      <trkpt lat="45.89232" lon="4.72261">
        <ele>181</ele>
        <time>2017-07-19T09:54:14Z</time>
      </trkpt>
      <trkpt lat="45.89235" lon="4.72263">
        <ele>181</ele>
        <time>2017-07-19T09:54:15Z</time>
      </trkpt>
      <trkpt lat="45.89239" lon="4.72265">
        <ele>181</ele>
        <time>2017-07-19T09:54:16Z</time>
      </trkpt>
      <trkpt lat="45.89244" lon="4.72267">
        <ele>181</ele>
        <time>2017-07-19T09:54:17Z</time>
      </trkpt>
      <trkpt lat="45.89249" lon="4.72268">
        <ele>181</ele>
        <time>2017-07-19T09:54:18Z</time>
      </trkpt>
      <trkpt lat="45.89254" lon="4.72271">
        <ele>181</ele>
        <time>2017-07-19T09:54:19Z</time>
      </trkpt>
      <trkpt lat="45.8926" lon="4.72273">
        <ele>181</ele>
        <time>2017-07-19T09:54:20Z</time>
      </trkpt>
      <trkpt lat="45.89264" lon="4.72276">
        <ele>181</ele>
        <time>2017-07-19T09:54:21Z</time>
      </trkpt>
      <trkpt lat="45.89269" lon="4.72278">
        <ele>181</ele>
        <time>2017-07-19T09:54:22Z</time>
      </trkpt>
      <trkpt lat="45.89274" lon="4.7228">
        <ele>181</ele>
        <time>2017-07-19T09:54:23Z</time>
      </trkpt>
      <trkpt lat="45.89281" lon="4.72284">
        <ele>181</ele>
        <time>2017-07-19T09:54:25Z</time>
      </trkpt>
      <trkpt lat="45.89285" lon="4.72286">
        <ele>181</ele>
        <time>2017-07-19T09:54:26Z</time>
      </trkpt>
      <trkpt lat="45.89292" lon="4.7229">
        <ele>181</ele>
        <time>2017-07-19T09:54:28Z</time>
      </trkpt>
      <trkpt lat="45.89295" lon="4.72291">
        <ele>181</ele>
        <time>2017-07-19T09:54:29Z</time>
      </trkpt>
      <trkpt lat="45.893" lon="4.72293">
        <ele>181</ele>
        <time>2017-07-19T09:54:31Z</time>
      </trkpt>
      <trkpt lat="45.89304" lon="4.72294">
        <ele>181</ele>
        <time>2017-07-19T09:54:32Z</time>
      </trkpt>
      <trkpt lat="45.89309" lon="4.72295">
        <ele>181</ele>
        <time>2017-07-19T09:54:33Z</time>
      </trkpt>
      <trkpt lat="45.89314" lon="4.72295">
        <ele>181</ele>
        <time>2017-07-19T09:54:34Z</time>
      </trkpt>
      <trkpt lat="45.8932" lon="4.72295">
        <ele>181</ele>
        <time>2017-07-19T09:54:35Z</time>
      </trkpt>
      <trkpt lat="45.89328" lon="4.72297">
        <ele>181</ele>
        <time>2017-07-19T09:54:36Z</time>
      </trkpt>
      <trkpt lat="45.89334" lon="4.72298">
        <ele>181</ele>
        <time>2017-07-19T09:54:37Z</time>
      </trkpt>
      <trkpt lat="45.89339" lon="4.72299">
        <ele>181</ele>
        <time>2017-07-19T09:54:38Z</time>
      </trkpt>
      <trkpt lat="45.89343" lon="4.723">
        <ele>181</ele>
        <time>2017-07-19T09:54:39Z</time>
      </trkpt>
      <trkpt lat="45.89348" lon="4.723">
        <ele>181</ele>
        <time>2017-07-19T09:54:40Z</time>
      </trkpt>
      <trkpt lat="45.89356" lon="4.72302">
        <ele>181</ele>
        <time>2017-07-19T09:54:42Z</time>
      </trkpt>
      <trkpt lat="45.89359" lon="4.72302">
        <ele>181</ele>
        <time>2017-07-19T09:54:43Z</time>
      </trkpt>
      <trkpt lat="45.89367" lon="4.72302">
        <ele>181</ele>
        <time>2017-07-19T09:54:45Z</time>
      </trkpt>
      <trkpt lat="45.8937" lon="4.72301">
        <ele>181</ele>
        <time>2017-07-19T09:54:46Z</time>
      </trkpt>
      <trkpt lat="45.89375" lon="4.723">
        <ele>181</ele>
        <time>2017-07-19T09:54:47Z</time>
      </trkpt>
      <trkpt lat="45.89379" lon="4.72299">
        <ele>181</ele>
        <time>2017-07-19T09:54:48Z</time>
      </trkpt>
      <trkpt lat="45.89388" lon="4.72297">
        <ele>180</ele>
        <time>2017-07-19T09:54:50Z</time>
      </trkpt>
      <trkpt lat="45.89393" lon="4.72296">
        <ele>180</ele>
        <time>2017-07-19T09:54:51Z</time>
      </trkpt>
      <trkpt lat="45.894" lon="4.72294">
        <ele>180</ele>
        <time>2017-07-19T09:54:53Z</time>
      </trkpt>
      <trkpt lat="45.89404" lon="4.72294">
        <ele>180</ele>
        <time>2017-07-19T09:54:54Z</time>
      </trkpt>
      <trkpt lat="45.89412" lon="4.72293">
        <ele>180</ele>
        <time>2017-07-19T09:54:56Z</time>
      </trkpt>
      <trkpt lat="45.89416" lon="4.72293">
        <ele>180</ele>
        <time>2017-07-19T09:54:57Z</time>
      </trkpt>
      <trkpt lat="45.89424" lon="4.72291">
        <ele>179</ele>
        <time>2017-07-19T09:54:59Z</time>
      </trkpt>
      <trkpt lat="45.89428" lon="4.7229">
        <ele>179</ele>
        <time>2017-07-19T09:55:00Z</time>
      </trkpt>
      <trkpt lat="45.89436" lon="4.7229">
        <ele>179</ele>
        <time>2017-07-19T09:55:02Z</time>
      </trkpt>
      <trkpt lat="45.89439" lon="4.72288">
        <ele>179</ele>
        <time>2017-07-19T09:55:03Z</time>
      </trkpt>
      <trkpt lat="45.89446" lon="4.72285">
        <ele>179</ele>
        <time>2017-07-19T09:55:05Z</time>
      </trkpt>
      <trkpt lat="45.8945" lon="4.72284">
        <ele>179</ele>
        <time>2017-07-19T09:55:06Z</time>
      </trkpt>
      <trkpt lat="45.89454" lon="4.72284">
        <ele>179</ele>
        <time>2017-07-19T09:55:07Z</time>
      </trkpt>
      <trkpt lat="45.89461" lon="4.72285">
        <ele>179</ele>
        <time>2017-07-19T09:55:08Z</time>
      </trkpt>
      <trkpt lat="45.89467" lon="4.72284">
        <ele>179</ele>
        <time>2017-07-19T09:55:09Z</time>
      </trkpt>
      <trkpt lat="45.89472" lon="4.72284">
        <ele>179</ele>
        <time>2017-07-19T09:55:10Z</time>
      </trkpt>
      <trkpt lat="45.89477" lon="4.72283">
        <ele>179</ele>
        <time>2017-07-19T09:55:11Z</time>
      </trkpt>
      <trkpt lat="45.89482" lon="4.72283">
        <ele>179</ele>
        <time>2017-07-19T09:55:12Z</time>
      </trkpt>
      <trkpt lat="45.89491" lon="4.72283">
        <ele>179</ele>
        <time>2017-07-19T09:55:14Z</time>
      </trkpt>
      <trkpt lat="45.89495" lon="4.72282">
        <ele>179</ele>
        <time>2017-07-19T09:55:15Z</time>
      </trkpt>
      <trkpt lat="45.895" lon="4.72282">
        <ele>179</ele>
        <time>2017-07-19T09:55:16Z</time>
      </trkpt>
      <trkpt lat="45.89504" lon="4.72282">
        <ele>179</ele>
        <time>2017-07-19T09:55:17Z</time>
      </trkpt>
      <trkpt lat="45.89512" lon="4.72281">
        <ele>179</ele>
        <time>2017-07-19T09:55:19Z</time>
      </trkpt>
      <trkpt lat="45.89516" lon="4.72281">
        <ele>179</ele>
        <time>2017-07-19T09:55:20Z</time>
      </trkpt>
      <trkpt lat="45.89523" lon="4.72282">
        <ele>179</ele>
        <time>2017-07-19T09:55:22Z</time>
      </trkpt>
      <trkpt lat="45.89527" lon="4.72281">
        <ele>179</ele>
        <time>2017-07-19T09:55:23Z</time>
      </trkpt>
      <trkpt lat="45.89535" lon="4.72281">
        <ele>179</ele>
        <time>2017-07-19T09:55:25Z</time>
      </trkpt>
      <trkpt lat="45.89538" lon="4.72281">
        <ele>179</ele>
        <time>2017-07-19T09:55:26Z</time>
      </trkpt>
      <trkpt lat="45.89546" lon="4.7228">
        <ele>179</ele>
        <time>2017-07-19T09:55:28Z</time>
      </trkpt>
      <trkpt lat="45.89549" lon="4.7228">
        <ele>179</ele>
        <time>2017-07-19T09:55:29Z</time>
      </trkpt>
      <trkpt lat="45.89557" lon="4.7228">
        <ele>179</ele>
        <time>2017-07-19T09:55:31Z</time>
      </trkpt>
      <trkpt lat="45.89561" lon="4.7228">
        <ele>179</ele>
        <time>2017-07-19T09:55:32Z</time>
      </trkpt>
      <trkpt lat="45.89569" lon="4.72279">
        <ele>179</ele>
        <time>2017-07-19T09:55:34Z</time>
      </trkpt>
      <trkpt lat="45.89574" lon="4.72279">
        <ele>179</ele>
        <time>2017-07-19T09:55:35Z</time>
      </trkpt>
      <trkpt lat="45.89582" lon="4.72279">
        <ele>179</ele>
        <time>2017-07-19T09:55:37Z</time>
      </trkpt>
      <trkpt lat="45.89588" lon="4.72279">
        <ele>179</ele>
        <time>2017-07-19T09:55:38Z</time>
      </trkpt>
      <trkpt lat="45.89593" lon="4.72279">
        <ele>179</ele>
        <time>2017-07-19T09:55:39Z</time>
      </trkpt>
      <trkpt lat="45.89597" lon="4.72279">
        <ele>179</ele>
        <time>2017-07-19T09:55:40Z</time>
      </trkpt>
      <trkpt lat="45.89605" lon="4.72278">
        <ele>179</ele>
        <time>2017-07-19T09:55:42Z</time>
      </trkpt>
      <trkpt lat="45.89609" lon="4.72278">
        <ele>179</ele>
        <time>2017-07-19T09:55:43Z</time>
      </trkpt>
      <trkpt lat="45.89618" lon="4.72276">
        <ele>179</ele>
        <time>2017-07-19T09:55:45Z</time>
      </trkpt>
      <trkpt lat="45.89622" lon="4.72276">
        <ele>179</ele>
        <time>2017-07-19T09:55:46Z</time>
      </trkpt>
      <trkpt lat="45.89628" lon="4.72276">
        <ele>179</ele>
        <time>2017-07-19T09:55:47Z</time>
      </trkpt>
      <trkpt lat="45.89633" lon="4.72275">
        <ele>179</ele>
        <time>2017-07-19T09:55:48Z</time>
      </trkpt>
      <trkpt lat="45.89637" lon="4.72274">
        <ele>179</ele>
        <time>2017-07-19T09:55:49Z</time>
      </trkpt>
      <trkpt lat="45.89642" lon="4.72274">
        <ele>179</ele>
        <time>2017-07-19T09:55:50Z</time>
      </trkpt>
      <trkpt lat="45.8965" lon="4.72272">
        <ele>179</ele>
        <time>2017-07-19T09:55:52Z</time>
      </trkpt>
      <trkpt lat="45.89654" lon="4.7227">
        <ele>179</ele>
        <time>2017-07-19T09:55:53Z</time>
      </trkpt>
      <trkpt lat="45.89659" lon="4.72263">
        <ele>179</ele>
        <time>2017-07-19T09:55:55Z</time>
      </trkpt>
      <trkpt lat="45.8966" lon="4.72259">
        <ele>179</ele>
        <time>2017-07-19T09:55:56Z</time>
      </trkpt>
      <trkpt lat="45.89662" lon="4.72249">
        <ele>179</ele>
        <time>2017-07-19T09:55:58Z</time>
      </trkpt>
      <trkpt lat="45.89662" lon="4.72243">
        <ele>179</ele>
        <time>2017-07-19T09:55:59Z</time>
      </trkpt>
      <trkpt lat="45.89662" lon="4.7223">
        <ele>179</ele>
        <time>2017-07-19T09:56:01Z</time>
      </trkpt>
      <trkpt lat="45.89662" lon="4.72224">
        <ele>179</ele>
        <time>2017-07-19T09:56:02Z</time>
      </trkpt>
      <trkpt lat="45.89662" lon="4.72217">
        <ele>179</ele>
        <time>2017-07-19T09:56:03Z</time>
      </trkpt>
      <trkpt lat="45.89662" lon="4.7221">
        <ele>179</ele>
        <time>2017-07-19T09:56:04Z</time>
      </trkpt>
      <trkpt lat="45.89661" lon="4.72198">
        <ele>179</ele>
        <time>2017-07-19T09:56:06Z</time>
      </trkpt>
      <trkpt lat="45.89661" lon="4.72192">
        <ele>179</ele>
        <time>2017-07-19T09:56:07Z</time>
      </trkpt>
      <trkpt lat="45.89659" lon="4.72179">
        <ele>179</ele>
        <time>2017-07-19T09:56:09Z</time>
      </trkpt>
      <trkpt lat="45.89659" lon="4.72173">
        <ele>179</ele>
        <time>2017-07-19T09:56:10Z</time>
      </trkpt>
      <trkpt lat="45.89658" lon="4.72166">
        <ele>179</ele>
        <time>2017-07-19T09:56:11Z</time>
      </trkpt>
      <trkpt lat="45.89659" lon="4.72159">
        <ele>179</ele>
        <time>2017-07-19T09:56:12Z</time>
      </trkpt>
      <trkpt lat="45.8966" lon="4.72151">
        <ele>179</ele>
        <time>2017-07-19T09:56:13Z</time>
      </trkpt>
      <trkpt lat="45.8966" lon="4.72144">
        <ele>179</ele>
        <time>2017-07-19T09:56:14Z</time>
      </trkpt>
      <trkpt lat="45.8966" lon="4.72137">
        <ele>179</ele>
        <time>2017-07-19T09:56:15Z</time>
      </trkpt>
      <trkpt lat="45.8966" lon="4.7213">
        <ele>179</ele>
        <time>2017-07-19T09:56:16Z</time>
      </trkpt>
      <trkpt lat="45.8966" lon="4.72118">
        <ele>179</ele>
        <time>2017-07-19T09:56:18Z</time>
      </trkpt>
      <trkpt lat="45.8966" lon="4.72112">
        <ele>179</ele>
        <time>2017-07-19T09:56:19Z</time>
      </trkpt>
      <trkpt lat="45.89659" lon="4.72102">
        <ele>180</ele>
        <time>2017-07-19T09:56:21Z</time>
      </trkpt>
      <trkpt lat="45.89659" lon="4.72097">
        <ele>180</ele>
        <time>2017-07-19T09:56:22Z</time>
      </trkpt>
      <trkpt lat="45.89659" lon="4.72086">
        <ele>180</ele>
        <time>2017-07-19T09:56:24Z</time>
      </trkpt>
      <trkpt lat="45.89659" lon="4.72081">
        <ele>180</ele>
        <time>2017-07-19T09:56:25Z</time>
      </trkpt>
      <trkpt lat="45.89659" lon="4.7207">
        <ele>180</ele>
        <time>2017-07-19T09:56:27Z</time>
      </trkpt>
      <trkpt lat="45.89659" lon="4.72066">
        <ele>180</ele>
        <time>2017-07-19T09:56:28Z</time>
      </trkpt>
      <trkpt lat="45.89659" lon="4.72056">
        <ele>180</ele>
        <time>2017-07-19T09:56:30Z</time>
      </trkpt>
      <trkpt lat="45.89659" lon="4.72051">
        <ele>180</ele>
        <time>2017-07-19T09:56:31Z</time>
      </trkpt>
      <trkpt lat="45.89659" lon="4.7204">
        <ele>180</ele>
        <time>2017-07-19T09:56:33Z</time>
      </trkpt>
      <trkpt lat="45.89659" lon="4.72034">
        <ele>180</ele>
        <time>2017-07-19T09:56:34Z</time>
      </trkpt>
      <trkpt lat="45.89658" lon="4.72023">
        <ele>180</ele>
        <time>2017-07-19T09:56:36Z</time>
      </trkpt>
      <trkpt lat="45.89658" lon="4.72017">
        <ele>180</ele>
        <time>2017-07-19T09:56:37Z</time>
      </trkpt>
      <trkpt lat="45.89658" lon="4.72004">
        <ele>181</ele>
        <time>2017-07-19T09:56:39Z</time>
      </trkpt>
      <trkpt lat="45.89658" lon="4.71998">
        <ele>181</ele>
        <time>2017-07-19T09:56:40Z</time>
      </trkpt>
      <trkpt lat="45.89658" lon="4.71987">
        <ele>181</ele>
        <time>2017-07-19T09:56:42Z</time>
      </trkpt>
      <trkpt lat="45.89658" lon="4.71982">
        <ele>181</ele>
        <time>2017-07-19T09:56:43Z</time>
      </trkpt>
      <trkpt lat="45.89659" lon="4.71971">
        <ele>181</ele>
        <time>2017-07-19T09:56:45Z</time>
      </trkpt>
      <trkpt lat="45.8966" lon="4.71965">
        <ele>181</ele>
        <time>2017-07-19T09:56:46Z</time>
      </trkpt>
      <trkpt lat="45.89659" lon="4.71953">
        <ele>181</ele>
        <time>2017-07-19T09:56:48Z</time>
      </trkpt>
      <trkpt lat="45.89659" lon="4.71948">
        <ele>181</ele>
        <time>2017-07-19T09:56:49Z</time>
      </trkpt>
      <trkpt lat="45.89659" lon="4.71936">
        <ele>181</ele>
        <time>2017-07-19T09:56:51Z</time>
      </trkpt>
      <trkpt lat="45.8966" lon="4.7193">
        <ele>181</ele>
        <time>2017-07-19T09:56:52Z</time>
      </trkpt>
      <trkpt lat="45.89661" lon="4.71919">
        <ele>181</ele>
        <time>2017-07-19T09:56:54Z</time>
      </trkpt>
      <trkpt lat="45.89661" lon="4.71915">
        <ele>181</ele>
        <time>2017-07-19T09:56:55Z</time>
      </trkpt>
      <trkpt lat="45.89661" lon="4.71903">
        <ele>181</ele>
        <time>2017-07-19T09:56:58Z</time>
      </trkpt>
      <trkpt lat="45.89661" lon="4.71899">
        <ele>181</ele>
        <time>2017-07-19T09:56:59Z</time>
      </trkpt>
      <trkpt lat="45.8966" lon="4.7189">
        <ele>181</ele>
        <time>2017-07-19T09:57:01Z</time>
      </trkpt>
      <trkpt lat="45.89661" lon="4.71886">
        <ele>181</ele>
        <time>2017-07-19T09:57:02Z</time>
      </trkpt>
      <trkpt lat="45.89661" lon="4.71877">
        <ele>181</ele>
        <time>2017-07-19T09:57:04Z</time>
      </trkpt>
      <trkpt lat="45.89661" lon="4.71872">
        <ele>181</ele>
        <time>2017-07-19T09:57:05Z</time>
      </trkpt>
      <trkpt lat="45.89661" lon="4.71863">
        <ele>181</ele>
        <time>2017-07-19T09:57:07Z</time>
      </trkpt>
      <trkpt lat="45.89662" lon="4.71857">
        <ele>181</ele>
        <time>2017-07-19T09:57:08Z</time>
      </trkpt>
      <trkpt lat="45.89662" lon="4.71847">
        <ele>181</ele>
        <time>2017-07-19T09:57:10Z</time>
      </trkpt>
      <trkpt lat="45.89663" lon="4.71843">
        <ele>181</ele>
        <time>2017-07-19T09:57:11Z</time>
      </trkpt>
      <trkpt lat="45.89663" lon="4.71835">
        <ele>181</ele>
        <time>2017-07-19T09:57:13Z</time>
      </trkpt>
      <trkpt lat="45.89663" lon="4.7183">
        <ele>181</ele>
        <time>2017-07-19T09:57:14Z</time>
      </trkpt>
      <trkpt lat="45.89662" lon="4.71821">
        <ele>181</ele>
        <time>2017-07-19T09:57:16Z</time>
      </trkpt>
      <trkpt lat="45.89663" lon="4.71816">
        <ele>182</ele>
        <time>2017-07-19T09:57:17Z</time>
      </trkpt>
      <trkpt lat="45.89663" lon="4.71806">
        <ele>182</ele>
        <time>2017-07-19T09:57:19Z</time>
      </trkpt>
      <trkpt lat="45.89663" lon="4.71801">
        <ele>182</ele>
        <time>2017-07-19T09:57:20Z</time>
      </trkpt>
      <trkpt lat="45.89663" lon="4.71791">
        <ele>182</ele>
        <time>2017-07-19T09:57:22Z</time>
      </trkpt>
      <trkpt lat="45.89663" lon="4.71787">
        <ele>182</ele>
        <time>2017-07-19T09:57:23Z</time>
      </trkpt>
      <trkpt lat="45.89663" lon="4.71778">
        <ele>182</ele>
        <time>2017-07-19T09:57:25Z</time>
      </trkpt>
      <trkpt lat="45.89662" lon="4.71774">
        <ele>182</ele>
        <time>2017-07-19T09:57:26Z</time>
      </trkpt>
      <trkpt lat="45.89661" lon="4.71765">
        <ele>183</ele>
        <time>2017-07-19T09:57:28Z</time>
      </trkpt>
      <trkpt lat="45.89661" lon="4.71761">
        <ele>183</ele>
        <time>2017-07-19T09:57:29Z</time>
      </trkpt>
      <trkpt lat="45.89659" lon="4.71749">
        <ele>184</ele>
        <time>2017-07-19T09:57:32Z</time>
      </trkpt>
      <trkpt lat="45.89658" lon="4.71745">
        <ele>184</ele>
        <time>2017-07-19T09:57:33Z</time>
      </trkpt>
      <trkpt lat="45.89657" lon="4.71735">
        <ele>184</ele>
        <time>2017-07-19T09:57:36Z</time>
      </trkpt>
      <trkpt lat="45.89656" lon="4.71731">
        <ele>184</ele>
        <time>2017-07-19T09:57:37Z</time>
      </trkpt>
      <trkpt lat="45.89655" lon="4.71719">
        <ele>185</ele>
        <time>2017-07-19T09:57:40Z</time>
      </trkpt>
      <trkpt lat="45.89654" lon="4.71715">
        <ele>185</ele>
        <time>2017-07-19T09:57:41Z</time>
      </trkpt>
      <trkpt lat="45.89653" lon="4.71703">
        <ele>185</ele>
        <time>2017-07-19T09:57:44Z</time>
      </trkpt>
      <trkpt lat="45.89652" lon="4.71699">
        <ele>185</ele>
        <time>2017-07-19T09:57:45Z</time>
      </trkpt>
      <trkpt lat="45.89651" lon="4.71688">
        <ele>186</ele>
        <time>2017-07-19T09:57:48Z</time>
      </trkpt>
      <trkpt lat="45.8965" lon="4.71684">
        <ele>186</ele>
        <time>2017-07-19T09:57:49Z</time>
      </trkpt>
      <trkpt lat="45.89648" lon="4.71673">
        <ele>186</ele>
        <time>2017-07-19T09:57:52Z</time>
      </trkpt>
      <trkpt lat="45.89647" lon="4.71669">
        <ele>186</ele>
        <time>2017-07-19T09:57:53Z</time>
      </trkpt>
      <trkpt lat="45.89646" lon="4.7166">
        <ele>189</ele>
        <time>2017-07-19T09:57:55Z</time>
      </trkpt>
      <trkpt lat="45.89645" lon="4.71656">
        <ele>189</ele>
        <time>2017-07-19T09:57:56Z</time>
      </trkpt>
      <trkpt lat="45.89644" lon="4.71644">
        <ele>189</ele>
        <time>2017-07-19T09:57:59Z</time>
      </trkpt>
      <trkpt lat="45.89644" lon="4.7164">
        <ele>189</ele>
        <time>2017-07-19T09:58:00Z</time>
      </trkpt>
      <trkpt lat="45.89642" lon="4.7163">
        <ele>190</ele>
        <time>2017-07-19T09:58:03Z</time>
      </trkpt>
      <trkpt lat="45.89642" lon="4.71626">
        <ele>190</ele>
        <time>2017-07-19T09:58:04Z</time>
      </trkpt>
      <trkpt lat="45.89642" lon="4.71617">
        <ele>190</ele>
        <time>2017-07-19T09:58:06Z</time>
      </trkpt>
      <trkpt lat="45.89641" lon="4.71613">
        <ele>190</ele>
        <time>2017-07-19T09:58:07Z</time>
      </trkpt>
      <trkpt lat="45.89639" lon="4.71601">
        <ele>191</ele>
        <time>2017-07-19T09:58:10Z</time>
      </trkpt>
      <trkpt lat="45.89639" lon="4.71597">
        <ele>191</ele>
        <time>2017-07-19T09:58:11Z</time>
      </trkpt>
      <trkpt lat="45.89637" lon="4.71584">
        <ele>191</ele>
        <time>2017-07-19T09:58:14Z</time>
      </trkpt>
      <trkpt lat="45.89637" lon="4.7158">
        <ele>193</ele>
        <time>2017-07-19T09:58:15Z</time>
      </trkpt>
      <trkpt lat="45.89639" lon="4.71568">
        <ele>193</ele>
        <time>2017-07-19T09:58:18Z</time>
      </trkpt>
      <trkpt lat="45.89641" lon="4.71564">
        <ele>193</ele>
        <time>2017-07-19T09:58:19Z</time>
      </trkpt>
      <trkpt lat="45.89645" lon="4.71557">
        <ele>193</ele>
        <time>2017-07-19T09:58:21Z</time>
      </trkpt>
      <trkpt lat="45.89647" lon="4.71554">
        <ele>193</ele>
        <time>2017-07-19T09:58:22Z</time>
      </trkpt>
      <trkpt lat="45.89653" lon="4.71549">
        <ele>193</ele>
        <time>2017-07-19T09:58:24Z</time>
      </trkpt>
      <trkpt lat="45.89656" lon="4.71547">
        <ele>193</ele>
        <time>2017-07-19T09:58:25Z</time>
      </trkpt>
      <trkpt lat="45.89665" lon="4.71546">
        <ele>193</ele>
        <time>2017-07-19T09:58:28Z</time>
      </trkpt>
      <trkpt lat="45.89668" lon="4.71546">
        <ele>193</ele>
        <time>2017-07-19T09:58:29Z</time>
      </trkpt>
      <trkpt lat="45.89675" lon="4.71545">
        <ele>193</ele>
        <time>2017-07-19T09:58:31Z</time>
      </trkpt>
      <trkpt lat="45.89678" lon="4.71545">
        <ele>193</ele>
        <time>2017-07-19T09:58:32Z</time>
      </trkpt>
      <trkpt lat="45.89686" lon="4.71544">
        <ele>193</ele>
        <time>2017-07-19T09:58:34Z</time>
      </trkpt>
      <trkpt lat="45.89689" lon="4.71544">
        <ele>193</ele>
        <time>2017-07-19T09:58:35Z</time>
      </trkpt>
      <trkpt lat="45.89694" lon="4.71544">
        <ele>193</ele>
        <time>2017-07-19T09:58:36Z</time>
      </trkpt>
      <trkpt lat="45.89698" lon="4.71545">
        <ele>193</ele>
        <time>2017-07-19T09:58:37Z</time>
      </trkpt>
      <trkpt lat="45.89703" lon="4.71545">
        <ele>192</ele>
        <time>2017-07-19T09:58:38Z</time>
      </trkpt>
      <trkpt lat="45.89708" lon="4.71544">
        <ele>192</ele>
        <time>2017-07-19T09:58:39Z</time>
      </trkpt>
      <trkpt lat="45.89717" lon="4.71543">
        <ele>192</ele>
        <time>2017-07-19T09:58:41Z</time>
      </trkpt>
      <trkpt lat="45.89721" lon="4.71542">
        <ele>192</ele>
        <time>2017-07-19T09:58:42Z</time>
      </trkpt>
      <trkpt lat="45.89726" lon="4.71542">
        <ele>192</ele>
        <time>2017-07-19T09:58:43Z</time>
      </trkpt>
      <trkpt lat="45.89731" lon="4.71539">
        <ele>192</ele>
        <time>2017-07-19T09:58:44Z</time>
      </trkpt>
      <trkpt lat="45.89736" lon="4.71538">
        <ele>192</ele>
        <time>2017-07-19T09:58:45Z</time>
      </trkpt>
      <trkpt lat="45.8974" lon="4.71536">
        <ele>193</ele>
        <time>2017-07-19T09:58:46Z</time>
      </trkpt>
      <trkpt lat="45.89749" lon="4.71535">
        <ele>193</ele>
        <time>2017-07-19T09:58:48Z</time>
      </trkpt>
      <trkpt lat="45.89754" lon="4.71535">
        <ele>192</ele>
        <time>2017-07-19T09:58:49Z</time>
      </trkpt>
      <trkpt lat="45.89759" lon="4.71535">
        <ele>192</ele>
        <time>2017-07-19T09:58:50Z</time>
      </trkpt>
      <trkpt lat="45.89764" lon="4.71534">
        <ele>192</ele>
        <time>2017-07-19T09:58:51Z</time>
      </trkpt>
      <trkpt lat="45.89769" lon="4.71533">
        <ele>192</ele>
        <time>2017-07-19T09:58:52Z</time>
      </trkpt>
      <trkpt lat="45.89774" lon="4.71532">
        <ele>192</ele>
        <time>2017-07-19T09:58:53Z</time>
      </trkpt>
      <trkpt lat="45.8978" lon="4.71532">
        <ele>192</ele>
        <time>2017-07-19T09:58:54Z</time>
      </trkpt>
      <trkpt lat="45.89785" lon="4.71532">
        <ele>192</ele>
        <time>2017-07-19T09:58:55Z</time>
      </trkpt>
      <trkpt lat="45.89791" lon="4.71531">
        <ele>192</ele>
        <time>2017-07-19T09:58:56Z</time>
      </trkpt>
      <trkpt lat="45.89797" lon="4.71531">
        <ele>192</ele>
        <time>2017-07-19T09:58:57Z</time>
      </trkpt>
      <trkpt lat="45.89803" lon="4.71532">
        <ele>192</ele>
        <time>2017-07-19T09:58:58Z</time>
      </trkpt>
      <trkpt lat="45.89808" lon="4.71534">
        <ele>192</ele>
        <time>2017-07-19T09:58:59Z</time>
      </trkpt>
      <trkpt lat="45.89814" lon="4.71535">
        <ele>192</ele>
        <time>2017-07-19T09:59:00Z</time>
      </trkpt>
      <trkpt lat="45.8982" lon="4.71537">
        <ele>192</ele>
        <time>2017-07-19T09:59:01Z</time>
      </trkpt>
      <trkpt lat="45.89827" lon="4.71538">
        <ele>192</ele>
        <time>2017-07-19T09:59:02Z</time>
      </trkpt>
      <trkpt lat="45.89833" lon="4.71539">
        <ele>192</ele>
        <time>2017-07-19T09:59:03Z</time>
      </trkpt>
      <trkpt lat="45.8984" lon="4.71539">
        <ele>193</ele>
        <time>2017-07-19T09:59:04Z</time>
      </trkpt>
      <trkpt lat="45.89846" lon="4.71539">
        <ele>193</ele>
        <time>2017-07-19T09:59:05Z</time>
      </trkpt>
      <trkpt lat="45.89852" lon="4.71539">
        <ele>193</ele>
        <time>2017-07-19T09:59:06Z</time>
      </trkpt>
      <trkpt lat="45.89858" lon="4.71538">
        <ele>193</ele>
        <time>2017-07-19T09:59:07Z</time>
      </trkpt>
      <trkpt lat="45.89865" lon="4.71537">
        <ele>193</ele>
        <time>2017-07-19T09:59:08Z</time>
      </trkpt>
      <trkpt lat="45.89872" lon="4.71533">
        <ele>193</ele>
        <time>2017-07-19T09:59:09Z</time>
      </trkpt>
      <trkpt lat="45.89878" lon="4.7153">
        <ele>193</ele>
        <time>2017-07-19T09:59:10Z</time>
      </trkpt>
      <trkpt lat="45.89884" lon="4.71527">
        <ele>193</ele>
        <time>2017-07-19T09:59:11Z</time>
      </trkpt>
      <trkpt lat="45.89889" lon="4.71525">
        <ele>193</ele>
        <time>2017-07-19T09:59:12Z</time>
      </trkpt>
      <trkpt lat="45.89896" lon="4.71523">
        <ele>193</ele>
        <time>2017-07-19T09:59:13Z</time>
      </trkpt>
      <trkpt lat="45.89901" lon="4.71521">
        <ele>193</ele>
        <time>2017-07-19T09:59:14Z</time>
      </trkpt>
      <trkpt lat="45.89906" lon="4.7152">
        <ele>193</ele>
        <time>2017-07-19T09:59:15Z</time>
      </trkpt>
      <trkpt lat="45.89911" lon="4.71519">
        <ele>193</ele>
        <time>2017-07-19T09:59:16Z</time>
      </trkpt>
      <trkpt lat="45.89916" lon="4.71519">
        <ele>193</ele>
        <time>2017-07-19T09:59:17Z</time>
      </trkpt>
      <trkpt lat="45.8992" lon="4.71519">
        <ele>193</ele>
        <time>2017-07-19T09:59:18Z</time>
      </trkpt>
      <trkpt lat="45.89925" lon="4.71518">
        <ele>193</ele>
        <time>2017-07-19T09:59:19Z</time>
      </trkpt>
      <trkpt lat="45.8993" lon="4.71517">
        <ele>193</ele>
        <time>2017-07-19T09:59:20Z</time>
      </trkpt>
      <trkpt lat="45.89934" lon="4.71517">
        <ele>193</ele>
        <time>2017-07-19T09:59:21Z</time>
      </trkpt>
      <trkpt lat="45.8994" lon="4.71514">
        <ele>193</ele>
        <time>2017-07-19T09:59:22Z</time>
      </trkpt>
      <trkpt lat="45.89945" lon="4.71515">
        <ele>193</ele>
        <time>2017-07-19T09:59:23Z</time>
      </trkpt>
      <trkpt lat="45.89953" lon="4.71515">
        <ele>194</ele>
        <time>2017-07-19T09:59:25Z</time>
      </trkpt>
      <trkpt lat="45.89957" lon="4.71515">
        <ele>194</ele>
        <time>2017-07-19T09:59:26Z</time>
      </trkpt>
      <trkpt lat="45.89965" lon="4.71514">
        <ele>194</ele>
        <time>2017-07-19T09:59:28Z</time>
      </trkpt>
      <trkpt lat="45.89968" lon="4.71514">
        <ele>194</ele>
        <time>2017-07-19T09:59:29Z</time>
      </trkpt>
      <trkpt lat="45.89974" lon="4.71517">
        <ele>194</ele>
        <time>2017-07-19T09:59:31Z</time>
      </trkpt>
      <trkpt lat="45.89977" lon="4.71517">
        <ele>194</ele>
        <time>2017-07-19T09:59:32Z</time>
      </trkpt>
      <trkpt lat="45.89984" lon="4.71517">
        <ele>194</ele>
        <time>2017-07-19T09:59:34Z</time>
      </trkpt>
      <trkpt lat="45.89987" lon="4.71517">
        <ele>194</ele>
        <time>2017-07-19T09:59:35Z</time>
      </trkpt>
      <trkpt lat="45.89995" lon="4.71516">
        <ele>194</ele>
        <time>2017-07-19T09:59:37Z</time>
      </trkpt>
      <trkpt lat="45.89998" lon="4.71516">
        <ele>194</ele>
        <time>2017-07-19T09:59:38Z</time>
      </trkpt>
      <trkpt lat="45.90005" lon="4.71517">
        <ele>196</ele>
        <time>2017-07-19T09:59:40Z</time>
      </trkpt>
      <trkpt lat="45.90009" lon="4.71517">
        <ele>196</ele>
        <time>2017-07-19T09:59:41Z</time>
      </trkpt>
      <trkpt lat="45.90015" lon="4.71516">
        <ele>196</ele>
        <time>2017-07-19T09:59:43Z</time>
      </trkpt>
      <trkpt lat="45.90018" lon="4.71515">
        <ele>196</ele>
        <time>2017-07-19T09:59:44Z</time>
      </trkpt>
      <trkpt lat="45.90025" lon="4.71516">
        <ele>197</ele>
        <time>2017-07-19T09:59:46Z</time>
      </trkpt>
      <trkpt lat="45.90029" lon="4.71516">
        <ele>197</ele>
        <time>2017-07-19T09:59:47Z</time>
      </trkpt>
      <trkpt lat="45.90036" lon="4.71516">
        <ele>197</ele>
        <time>2017-07-19T09:59:49Z</time>
      </trkpt>
      <trkpt lat="45.90039" lon="4.71516">
        <ele>197</ele>
        <time>2017-07-19T09:59:50Z</time>
      </trkpt>
      <trkpt lat="45.90046" lon="4.71516">
        <ele>198</ele>
        <time>2017-07-19T09:59:52Z</time>
      </trkpt>
      <trkpt lat="45.9005" lon="4.71515">
        <ele>198</ele>
        <time>2017-07-19T09:59:53Z</time>
      </trkpt>
      <trkpt lat="45.90056" lon="4.71516">
        <ele>198</ele>
        <time>2017-07-19T09:59:55Z</time>
      </trkpt>
      <trkpt lat="45.90059" lon="4.71516">
        <ele>198</ele>
        <time>2017-07-19T09:59:56Z</time>
      </trkpt>
      <trkpt lat="45.90065" lon="4.71515">
        <ele>199</ele>
        <time>2017-07-19T09:59:58Z</time>
      </trkpt>
      <trkpt lat="45.90069" lon="4.71514">
        <ele>199</ele>
        <time>2017-07-19T09:59:59Z</time>
      </trkpt>
      <trkpt lat="45.90077" lon="4.71515">
        <ele>199</ele>
        <time>2017-07-19T10:00:02Z</time>
      </trkpt>
      <trkpt lat="45.9008" lon="4.71515">
        <ele>199</ele>
        <time>2017-07-19T10:00:03Z</time>
      </trkpt>
      <trkpt lat="45.90088" lon="4.71517">
        <ele>201</ele>
        <time>2017-07-19T10:00:06Z</time>
      </trkpt>
      <trkpt lat="45.90092" lon="4.71517">
        <ele>201</ele>
        <time>2017-07-19T10:00:07Z</time>
      </trkpt>
      <trkpt lat="45.90101" lon="4.71516">
        <ele>201</ele>
        <time>2017-07-19T10:00:10Z</time>
      </trkpt>
      <trkpt lat="45.90105" lon="4.71516">
        <ele>201</ele>
        <time>2017-07-19T10:00:11Z</time>
      </trkpt>
      <trkpt lat="45.90112" lon="4.71516">
        <ele>201</ele>
        <time>2017-07-19T10:00:13Z</time>
      </trkpt>
      <trkpt lat="45.90115" lon="4.71516">
        <ele>201</ele>
        <time>2017-07-19T10:00:14Z</time>
      </trkpt>
      <trkpt lat="45.90124" lon="4.71518">
        <ele>201</ele>
        <time>2017-07-19T10:00:16Z</time>
      </trkpt>
      <trkpt lat="45.90127" lon="4.7152">
        <ele>201</ele>
        <time>2017-07-19T10:00:17Z</time>
      </trkpt>
      <trkpt lat="45.90135" lon="4.71521">
        <ele>201</ele>
        <time>2017-07-19T10:00:19Z</time>
      </trkpt>
      <trkpt lat="45.90138" lon="4.71523">
        <ele>201</ele>
        <time>2017-07-19T10:00:20Z</time>
      </trkpt>
      <trkpt lat="45.90145" lon="4.71525">
        <ele>201</ele>
        <time>2017-07-19T10:00:22Z</time>
      </trkpt>
      <trkpt lat="45.90149" lon="4.71527">
        <ele>201</ele>
        <time>2017-07-19T10:00:23Z</time>
      </trkpt>
      <trkpt lat="45.90156" lon="4.7153">
        <ele>201</ele>
        <time>2017-07-19T10:00:25Z</time>
      </trkpt>
      <trkpt lat="45.90159" lon="4.71528">
        <ele>201</ele>
        <time>2017-07-19T10:00:26Z</time>
      </trkpt>
      <trkpt lat="45.90165" lon="4.7153">
        <ele>201</ele>
        <time>2017-07-19T10:00:28Z</time>
      </trkpt>
      <trkpt lat="45.90169" lon="4.71531">
        <ele>200</ele>
        <time>2017-07-19T10:00:29Z</time>
      </trkpt>
      <trkpt lat="45.90173" lon="4.71533">
        <ele>200</ele>
        <time>2017-07-19T10:00:30Z</time>
      </trkpt>
      <trkpt lat="45.90178" lon="4.71535">
        <ele>200</ele>
        <time>2017-07-19T10:00:31Z</time>
      </trkpt>
      <trkpt lat="45.90182" lon="4.71537">
        <ele>200</ele>
        <time>2017-07-19T10:00:32Z</time>
      </trkpt>
      <trkpt lat="45.90188" lon="4.71536">
        <ele>200</ele>
        <time>2017-07-19T10:00:33Z</time>
      </trkpt>
      <trkpt lat="45.90193" lon="4.71537">
        <ele>200</ele>
        <time>2017-07-19T10:00:34Z</time>
      </trkpt>
      <trkpt lat="45.90199" lon="4.71538">
        <ele>200</ele>
        <time>2017-07-19T10:00:35Z</time>
      </trkpt>
      <trkpt lat="45.90206" lon="4.71539">
        <ele>199</ele>
        <time>2017-07-19T10:00:36Z</time>
      </trkpt>
      <trkpt lat="45.90214" lon="4.71538">
        <ele>199</ele>
        <time>2017-07-19T10:00:37Z</time>
      </trkpt>
      <trkpt lat="45.90221" lon="4.71539">
        <ele>199</ele>
        <time>2017-07-19T10:00:38Z</time>
      </trkpt>
      <trkpt lat="45.90228" lon="4.7154">
        <ele>199</ele>
        <time>2017-07-19T10:00:39Z</time>
      </trkpt>
      <trkpt lat="45.90235" lon="4.71539">
        <ele>199</ele>
        <time>2017-07-19T10:00:40Z</time>
      </trkpt>
      <trkpt lat="45.90241" lon="4.71538">
        <ele>199</ele>
        <time>2017-07-19T10:00:41Z</time>
      </trkpt>
      <trkpt lat="45.90247" lon="4.71538">
        <ele>199</ele>
        <time>2017-07-19T10:00:42Z</time>
      </trkpt>
      <trkpt lat="45.90253" lon="4.71537">
        <ele>196</ele>
        <time>2017-07-19T10:00:43Z</time>
      </trkpt>
      <trkpt lat="45.90259" lon="4.71537">
        <ele>196</ele>
        <time>2017-07-19T10:00:44Z</time>
      </trkpt>
      <trkpt lat="45.90264" lon="4.71537">
        <ele>196</ele>
        <time>2017-07-19T10:00:45Z</time>
      </trkpt>
      <trkpt lat="45.90271" lon="4.71536">
        <ele>196</ele>
        <time>2017-07-19T10:00:47Z</time>
      </trkpt>
      <trkpt lat="45.90273" lon="4.7154">
        <ele>196</ele>
        <time>2017-07-19T10:00:48Z</time>
      </trkpt>
      <trkpt lat="45.90274" lon="4.71546">
        <ele>195</ele>
        <time>2017-07-19T10:00:49Z</time>
      </trkpt>
      <trkpt lat="45.90276" lon="4.71552">
        <ele>195</ele>
        <time>2017-07-19T10:00:50Z</time>
      </trkpt>
      <trkpt lat="45.90276" lon="4.71559">
        <ele>195</ele>
        <time>2017-07-19T10:00:51Z</time>
      </trkpt>
      <trkpt lat="45.90276" lon="4.71567">
        <ele>195</ele>
        <time>2017-07-19T10:00:52Z</time>
      </trkpt>
      <trkpt lat="45.90276" lon="4.71575">
        <ele>195</ele>
        <time>2017-07-19T10:00:53Z</time>
      </trkpt>
      <trkpt lat="45.90276" lon="4.71583">
        <ele>195</ele>
        <time>2017-07-19T10:00:54Z</time>
      </trkpt>
      <trkpt lat="45.90276" lon="4.7159">
        <ele>193</ele>
        <time>2017-07-19T10:00:55Z</time>
      </trkpt>
      <trkpt lat="45.90276" lon="4.71599">
        <ele>193</ele>
        <time>2017-07-19T10:00:56Z</time>
      </trkpt>
      <trkpt lat="45.90275" lon="4.71608">
        <ele>193</ele>
        <time>2017-07-19T10:00:57Z</time>
      </trkpt>
      <trkpt lat="45.90275" lon="4.71618">
        <ele>193</ele>
        <time>2017-07-19T10:00:58Z</time>
      </trkpt>
      <trkpt lat="45.90275" lon="4.71628">
        <ele>193</ele>
        <time>2017-07-19T10:00:59Z</time>
      </trkpt>
      <trkpt lat="45.90274" lon="4.71639">
        <ele>192</ele>
        <time>2017-07-19T10:01:00Z</time>
      </trkpt>
      <trkpt lat="45.90273" lon="4.7165">
        <ele>192</ele>
        <time>2017-07-19T10:01:01Z</time>
      </trkpt>
      <trkpt lat="45.90271" lon="4.71661">
        <ele>192</ele>
        <time>2017-07-19T10:01:02Z</time>
      </trkpt>
      <trkpt lat="45.9027" lon="4.71672">
        <ele>189</ele>
        <time>2017-07-19T10:01:03Z</time>
      </trkpt>
      <trkpt lat="45.90267" lon="4.71682">
        <ele>189</ele>
        <time>2017-07-19T10:01:04Z</time>
      </trkpt>
      <trkpt lat="45.90265" lon="4.7169">
        <ele>188</ele>
        <time>2017-07-19T10:01:05Z</time>
      </trkpt>
      <trkpt lat="45.90263" lon="4.71699">
        <ele>188</ele>
        <time>2017-07-19T10:01:06Z</time>
      </trkpt>
      <trkpt lat="45.90261" lon="4.71708">
        <ele>187</ele>
        <time>2017-07-19T10:01:07Z</time>
      </trkpt>
      <trkpt lat="45.9026" lon="4.71717">
        <ele>187</ele>
        <time>2017-07-19T10:01:08Z</time>
      </trkpt>
      <trkpt lat="45.90259" lon="4.71727">
        <ele>186</ele>
        <time>2017-07-19T10:01:09Z</time>
      </trkpt>
      <trkpt lat="45.90258" lon="4.71737">
        <ele>186</ele>
        <time>2017-07-19T10:01:10Z</time>
      </trkpt>
      <trkpt lat="45.90257" lon="4.71748">
        <ele>185</ele>
        <time>2017-07-19T10:01:11Z</time>
      </trkpt>
      <trkpt lat="45.90256" lon="4.71761">
        <ele>184</ele>
        <time>2017-07-19T10:01:12Z</time>
      </trkpt>
      <trkpt lat="45.90256" lon="4.71773">
        <ele>183</ele>
        <time>2017-07-19T10:01:13Z</time>
      </trkpt>
      <trkpt lat="45.90255" lon="4.71783">
        <ele>183</ele>
        <time>2017-07-19T10:01:14Z</time>
      </trkpt>
      <trkpt lat="45.90254" lon="4.71794">
        <ele>182</ele>
        <time>2017-07-19T10:01:15Z</time>
      </trkpt>
      <trkpt lat="45.90251" lon="4.71805">
        <ele>182</ele>
        <time>2017-07-19T10:01:16Z</time>
      </trkpt>
      <trkpt lat="45.90248" lon="4.71815">
        <ele>183</ele>
        <time>2017-07-19T10:01:17Z</time>
      </trkpt>
      <trkpt lat="45.90244" lon="4.71823">
        <ele>183</ele>
        <time>2017-07-19T10:01:18Z</time>
      </trkpt>
      <trkpt lat="45.9024" lon="4.71831">
        <ele>183</ele>
        <time>2017-07-19T10:01:19Z</time>
      </trkpt>
      <trkpt lat="45.90235" lon="4.71839">
        <ele>182</ele>
        <time>2017-07-19T10:01:20Z</time>
      </trkpt>
      <trkpt lat="45.9023" lon="4.71847">
        <ele>181</ele>
        <time>2017-07-19T10:01:21Z</time>
      </trkpt>
      <trkpt lat="45.90225" lon="4.71855">
        <ele>181</ele>
        <time>2017-07-19T10:01:22Z</time>
      </trkpt>
      <trkpt lat="45.90221" lon="4.71862">
        <ele>181</ele>
        <time>2017-07-19T10:01:23Z</time>
      </trkpt>
      <trkpt lat="45.90217" lon="4.71869">
        <ele>181</ele>
        <time>2017-07-19T10:01:24Z</time>
      </trkpt>
      <trkpt lat="45.90213" lon="4.71876">
        <ele>180</ele>
        <time>2017-07-19T10:01:25Z</time>
      </trkpt>
      <trkpt lat="45.9021" lon="4.71884">
        <ele>180</ele>
        <time>2017-07-19T10:01:26Z</time>
      </trkpt>
      <trkpt lat="45.90207" lon="4.71891">
        <ele>180</ele>
        <time>2017-07-19T10:01:27Z</time>
      </trkpt>
      <trkpt lat="45.90203" lon="4.71898">
        <ele>180</ele>
        <time>2017-07-19T10:01:28Z</time>
      </trkpt>
      <trkpt lat="45.90199" lon="4.71904">
        <ele>180</ele>
        <time>2017-07-19T10:01:29Z</time>
      </trkpt>
      <trkpt lat="45.90196" lon="4.7191">
        <ele>179</ele>
        <time>2017-07-19T10:01:30Z</time>
      </trkpt>
      <trkpt lat="45.90193" lon="4.71916">
        <ele>179</ele>
        <time>2017-07-19T10:01:31Z</time>
      </trkpt>
      <trkpt lat="45.90191" lon="4.71922">
        <ele>178</ele>
        <time>2017-07-19T10:01:32Z</time>
      </trkpt>
      <trkpt lat="45.90188" lon="4.71929">
        <ele>178</ele>
        <time>2017-07-19T10:01:33Z</time>
      </trkpt>
      <trkpt lat="45.90186" lon="4.71935">
        <ele>178</ele>
        <time>2017-07-19T10:01:34Z</time>
      </trkpt>
      <trkpt lat="45.90185" lon="4.71941">
        <ele>179</ele>
        <time>2017-07-19T10:01:35Z</time>
      </trkpt>
      <trkpt lat="45.90183" lon="4.71947">
        <ele>179</ele>
        <time>2017-07-19T10:01:36Z</time>
      </trkpt>
      <trkpt lat="45.90182" lon="4.71954">
        <ele>179</ele>
        <time>2017-07-19T10:01:37Z</time>
      </trkpt>
      <trkpt lat="45.90181" lon="4.7196">
        <ele>179</ele>
        <time>2017-07-19T10:01:38Z</time>
      </trkpt>
      <trkpt lat="45.90179" lon="4.71972">
        <ele>179</ele>
        <time>2017-07-19T10:01:40Z</time>
      </trkpt>
      <trkpt lat="45.90179" lon="4.71978">
        <ele>179</ele>
        <time>2017-07-19T10:01:41Z</time>
      </trkpt>
      <trkpt lat="45.90178" lon="4.71988">
        <ele>179</ele>
        <time>2017-07-19T10:01:43Z</time>
      </trkpt>
      <trkpt lat="45.90179" lon="4.71994">
        <ele>179</ele>
        <time>2017-07-19T10:01:44Z</time>
      </trkpt>
      <trkpt lat="45.90179" lon="4.72005">
        <ele>179</ele>
        <time>2017-07-19T10:01:46Z</time>
      </trkpt>
      <trkpt lat="45.90178" lon="4.72012">
        <ele>179</ele>
        <time>2017-07-19T10:01:47Z</time>
      </trkpt>
      <trkpt lat="45.90179" lon="4.72019">
        <ele>179</ele>
        <time>2017-07-19T10:01:48Z</time>
      </trkpt>
      <trkpt lat="45.9018" lon="4.72026">
        <ele>179</ele>
        <time>2017-07-19T10:01:49Z</time>
      </trkpt>
      <trkpt lat="45.90181" lon="4.72033">
        <ele>179</ele>
        <time>2017-07-19T10:01:50Z</time>
      </trkpt>
      <trkpt lat="45.90181" lon="4.7204">
        <ele>179</ele>
        <time>2017-07-19T10:01:51Z</time>
      </trkpt>
      <trkpt lat="45.90182" lon="4.72047">
        <ele>179</ele>
        <time>2017-07-19T10:01:52Z</time>
      </trkpt>
      <trkpt lat="45.90182" lon="4.72054">
        <ele>179</ele>
        <time>2017-07-19T10:01:53Z</time>
      </trkpt>
      <trkpt lat="45.90183" lon="4.72066">
        <ele>179</ele>
        <time>2017-07-19T10:01:55Z</time>
      </trkpt>
      <trkpt lat="45.90183" lon="4.72072">
        <ele>179</ele>
        <time>2017-07-19T10:01:56Z</time>
      </trkpt>
      <trkpt lat="45.90184" lon="4.72079">
        <ele>179</ele>
        <time>2017-07-19T10:01:57Z</time>
      </trkpt>
      <trkpt lat="45.90185" lon="4.72085">
        <ele>178</ele>
        <time>2017-07-19T10:01:58Z</time>
      </trkpt>
      <trkpt lat="45.90186" lon="4.72092">
        <ele>178</ele>
        <time>2017-07-19T10:01:59Z</time>
      </trkpt>
      <trkpt lat="45.90187" lon="4.72099">
        <ele>178</ele>
        <time>2017-07-19T10:02:00Z</time>
      </trkpt>
      <trkpt lat="45.90188" lon="4.72106">
        <ele>178</ele>
        <time>2017-07-19T10:02:01Z</time>
      </trkpt>
      <trkpt lat="45.90189" lon="4.72114">
        <ele>178</ele>
        <time>2017-07-19T10:02:02Z</time>
      </trkpt>
      <trkpt lat="45.90189" lon="4.7212">
        <ele>178</ele>
        <time>2017-07-19T10:02:03Z</time>
      </trkpt>
      <trkpt lat="45.9019" lon="4.72127">
        <ele>178</ele>
        <time>2017-07-19T10:02:04Z</time>
      </trkpt>
      <trkpt lat="45.9019" lon="4.72138">
        <ele>178</ele>
        <time>2017-07-19T10:02:06Z</time>
      </trkpt>
      <trkpt lat="45.9019" lon="4.72143">
        <ele>178</ele>
        <time>2017-07-19T10:02:07Z</time>
      </trkpt>
      <trkpt lat="45.9019" lon="4.72153">
        <ele>178</ele>
        <time>2017-07-19T10:02:09Z</time>
      </trkpt>
      <trkpt lat="45.9019" lon="4.72157">
        <ele>178</ele>
        <time>2017-07-19T10:02:10Z</time>
      </trkpt>
      <trkpt lat="45.9019" lon="4.72162">
        <ele>178</ele>
        <time>2017-07-19T10:02:11Z</time>
      </trkpt>
      <trkpt lat="45.90189" lon="4.72171">
        <ele>177</ele>
        <time>2017-07-19T10:02:12Z</time>
      </trkpt>
      <trkpt lat="45.9019" lon="4.72178">
        <ele>177</ele>
        <time>2017-07-19T10:02:13Z</time>
      </trkpt>
      <trkpt lat="45.9019" lon="4.72186">
        <ele>177</ele>
        <time>2017-07-19T10:02:14Z</time>
      </trkpt>
      <trkpt lat="45.9019" lon="4.72193">
        <ele>177</ele>
        <time>2017-07-19T10:02:15Z</time>
      </trkpt>
      <trkpt lat="45.90191" lon="4.722">
        <ele>177</ele>
        <time>2017-07-19T10:02:16Z</time>
      </trkpt>
      <trkpt lat="45.90192" lon="4.72207">
        <ele>177</ele>
        <time>2017-07-19T10:02:17Z</time>
      </trkpt>
      <trkpt lat="45.90193" lon="4.72214">
        <ele>177</ele>
        <time>2017-07-19T10:02:18Z</time>
      </trkpt>
      <trkpt lat="45.90193" lon="4.72221">
        <ele>177</ele>
        <time>2017-07-19T10:02:19Z</time>
      </trkpt>
      <trkpt lat="45.90194" lon="4.72228">
        <ele>177</ele>
        <time>2017-07-19T10:02:20Z</time>
      </trkpt>
      <trkpt lat="45.90194" lon="4.72234">
        <ele>177</ele>
        <time>2017-07-19T10:02:21Z</time>
      </trkpt>
      <trkpt lat="45.90195" lon="4.72241">
        <ele>177</ele>
        <time>2017-07-19T10:02:22Z</time>
      </trkpt>
      <trkpt lat="45.90196" lon="4.72253">
        <ele>177</ele>
        <time>2017-07-19T10:02:24Z</time>
      </trkpt>
      <trkpt lat="45.90196" lon="4.7226">
        <ele>177</ele>
        <time>2017-07-19T10:02:25Z</time>
      </trkpt>
      <trkpt lat="45.90197" lon="4.72271">
        <ele>177</ele>
        <time>2017-07-19T10:02:27Z</time>
      </trkpt>
      <trkpt lat="45.90198" lon="4.72277">
        <ele>177</ele>
        <time>2017-07-19T10:02:28Z</time>
      </trkpt>
      <trkpt lat="45.902" lon="4.72288">
        <ele>177</ele>
        <time>2017-07-19T10:02:30Z</time>
      </trkpt>
      <trkpt lat="45.90201" lon="4.72294">
        <ele>177</ele>
        <time>2017-07-19T10:02:31Z</time>
      </trkpt>
      <trkpt lat="45.90206" lon="4.72302">
        <ele>177</ele>
        <time>2017-07-19T10:02:33Z</time>
      </trkpt>
      <trkpt lat="45.90208" lon="4.72306">
        <ele>177</ele>
        <time>2017-07-19T10:02:34Z</time>
      </trkpt>
      <trkpt lat="45.90215" lon="4.72308">
        <ele>177</ele>
        <time>2017-07-19T10:02:36Z</time>
      </trkpt>
      <trkpt lat="45.90219" lon="4.72308">
        <ele>177</ele>
        <time>2017-07-19T10:02:37Z</time>
      </trkpt>
      <trkpt lat="45.90227" lon="4.72305">
        <ele>177</ele>
        <time>2017-07-19T10:02:39Z</time>
      </trkpt>
      <trkpt lat="45.90232" lon="4.72304">
        <ele>177</ele>
        <time>2017-07-19T10:02:40Z</time>
      </trkpt>
      <trkpt lat="45.90237" lon="4.72303">
        <ele>177</ele>
        <time>2017-07-19T10:02:41Z</time>
      </trkpt>
      <trkpt lat="45.90242" lon="4.72301">
        <ele>177</ele>
        <time>2017-07-19T10:02:42Z</time>
      </trkpt>
      <trkpt lat="45.90246" lon="4.723">
        <ele>177</ele>
        <time>2017-07-19T10:02:43Z</time>
      </trkpt>
      <trkpt lat="45.90251" lon="4.72299">
        <ele>177</ele>
        <time>2017-07-19T10:02:44Z</time>
      </trkpt>
      <trkpt lat="45.90256" lon="4.72298">
        <ele>177</ele>
        <time>2017-07-19T10:02:45Z</time>
      </trkpt>
      <trkpt lat="45.9026" lon="4.72297">
        <ele>177</ele>
        <time>2017-07-19T10:02:46Z</time>
      </trkpt>
      <trkpt lat="45.90269" lon="4.72294">
        <ele>177</ele>
        <time>2017-07-19T10:02:48Z</time>
      </trkpt>
      <trkpt lat="45.90273" lon="4.72293">
        <ele>177</ele>
        <time>2017-07-19T10:02:49Z</time>
      </trkpt>
      <trkpt lat="45.9028" lon="4.72291">
        <ele>177</ele>
        <time>2017-07-19T10:02:51Z</time>
      </trkpt>
      <trkpt lat="45.90284" lon="4.7229">
        <ele>177</ele>
        <time>2017-07-19T10:02:52Z</time>
      </trkpt>
      <trkpt lat="45.90291" lon="4.72288">
        <ele>177</ele>
        <time>2017-07-19T10:02:54Z</time>
      </trkpt>
      <trkpt lat="45.90294" lon="4.72286">
        <ele>177</ele>
        <time>2017-07-19T10:02:55Z</time>
      </trkpt>
      <trkpt lat="45.903" lon="4.72285">
        <ele>177</ele>
        <time>2017-07-19T10:02:57Z</time>
      </trkpt>
      <trkpt lat="45.90303" lon="4.72283">
        <ele>177</ele>
        <time>2017-07-19T10:02:58Z</time>
      </trkpt>
      <trkpt lat="45.90307" lon="4.7228">
        <ele>177</ele>
        <time>2017-07-19T10:02:59Z</time>
      </trkpt>
      <trkpt lat="45.90312" lon="4.72279">
        <ele>177</ele>
        <time>2017-07-19T10:03:00Z</time>
      </trkpt>
      <trkpt lat="45.90317" lon="4.72279">
        <ele>177</ele>
        <time>2017-07-19T10:03:01Z</time>
      </trkpt>
      <trkpt lat="45.90321" lon="4.72279">
        <ele>177</ele>
        <time>2017-07-19T10:03:02Z</time>
      </trkpt>
      <trkpt lat="45.90328" lon="4.72277">
        <ele>177</ele>
        <time>2017-07-19T10:03:04Z</time>
      </trkpt>
      <trkpt lat="45.90332" lon="4.72276">
        <ele>177</ele>
        <time>2017-07-19T10:03:05Z</time>
      </trkpt>
      <trkpt lat="45.90339" lon="4.72274">
        <ele>178</ele>
        <time>2017-07-19T10:03:07Z</time>
      </trkpt>
      <trkpt lat="45.90342" lon="4.72272">
        <ele>178</ele>
        <time>2017-07-19T10:03:08Z</time>
      </trkpt>
      <trkpt lat="45.90348" lon="4.72269">
        <ele>178</ele>
        <time>2017-07-19T10:03:10Z</time>
      </trkpt>
      <trkpt lat="45.90351" lon="4.72267">
        <ele>178</ele>
        <time>2017-07-19T10:03:11Z</time>
      </trkpt>
      <trkpt lat="45.90357" lon="4.72264">
        <ele>178</ele>
        <time>2017-07-19T10:03:13Z</time>
      </trkpt>
      <trkpt lat="45.9036" lon="4.72263">
        <ele>178</ele>
        <time>2017-07-19T10:03:14Z</time>
      </trkpt>
      <trkpt lat="45.90367" lon="4.72259">
        <ele>178</ele>
        <time>2017-07-19T10:03:16Z</time>
      </trkpt>
      <trkpt lat="45.90371" lon="4.72256">
        <ele>178</ele>
        <time>2017-07-19T10:03:17Z</time>
      </trkpt>
      <trkpt lat="45.90378" lon="4.72252">
        <ele>178</ele>
        <time>2017-07-19T10:03:19Z</time>
      </trkpt>
      <trkpt lat="45.90381" lon="4.7225">
        <ele>179</ele>
        <time>2017-07-19T10:03:20Z</time>
      </trkpt>
      <trkpt lat="45.90389" lon="4.72248">
        <ele>179</ele>
        <time>2017-07-19T10:03:22Z</time>
      </trkpt>
      <trkpt lat="45.90392" lon="4.72247">
        <ele>179</ele>
        <time>2017-07-19T10:03:23Z</time>
      </trkpt>
      <trkpt lat="45.90399" lon="4.72245">
        <ele>179</ele>
        <time>2017-07-19T10:03:25Z</time>
      </trkpt>
      <trkpt lat="45.90402" lon="4.72244">
        <ele>179</ele>
        <time>2017-07-19T10:03:26Z</time>
      </trkpt>
      <trkpt lat="45.9041" lon="4.72239">
        <ele>179</ele>
        <time>2017-07-19T10:03:28Z</time>
      </trkpt>
      <trkpt lat="45.90414" lon="4.72238">
        <ele>179</ele>
        <time>2017-07-19T10:03:29Z</time>
      </trkpt>
      <trkpt lat="45.90421" lon="4.72236">
        <ele>179</ele>
        <time>2017-07-19T10:03:31Z</time>
      </trkpt>
      <trkpt lat="45.90424" lon="4.72234">
        <ele>179</ele>
        <time>2017-07-19T10:03:32Z</time>
      </trkpt>
      <trkpt lat="45.9043" lon="4.7223">
        <ele>179</ele>
        <time>2017-07-19T10:03:34Z</time>
      </trkpt>
      <trkpt lat="45.90433" lon="4.72228">
        <ele>179</ele>
        <time>2017-07-19T10:03:35Z</time>
      </trkpt>
      <trkpt lat="45.9044" lon="4.72224">
        <ele>179</ele>
        <time>2017-07-19T10:03:37Z</time>
      </trkpt>
      <trkpt lat="45.90444" lon="4.72221">
        <ele>179</ele>
        <time>2017-07-19T10:03:38Z</time>
      </trkpt>
      <trkpt lat="45.90451" lon="4.72216">
        <ele>179</ele>
        <time>2017-07-19T10:03:40Z</time>
      </trkpt>
      <trkpt lat="45.90454" lon="4.72214">
        <ele>179</ele>
        <time>2017-07-19T10:03:41Z</time>
      </trkpt>
      <trkpt lat="45.9046" lon="4.72212">
        <ele>179</ele>
        <time>2017-07-19T10:03:43Z</time>
      </trkpt>
      <trkpt lat="45.90463" lon="4.7221">
        <ele>179</ele>
        <time>2017-07-19T10:03:44Z</time>
      </trkpt>
      <trkpt lat="45.90471" lon="4.72205">
        <ele>179</ele>
        <time>2017-07-19T10:03:47Z</time>
      </trkpt>
      <trkpt lat="45.90473" lon="4.72204">
        <ele>179</ele>
        <time>2017-07-19T10:03:48Z</time>
      </trkpt>
      <trkpt lat="45.90481" lon="4.72201">
        <ele>178</ele>
        <time>2017-07-19T10:03:51Z</time>
      </trkpt>
      <trkpt lat="45.90485" lon="4.72199">
        <ele>178</ele>
        <time>2017-07-19T10:03:52Z</time>
      </trkpt>
      <trkpt lat="45.90493" lon="4.72195">
        <ele>178</ele>
        <time>2017-07-19T10:03:54Z</time>
      </trkpt>
      <trkpt lat="45.90496" lon="4.72193">
        <ele>178</ele>
        <time>2017-07-19T10:03:55Z</time>
      </trkpt>
      <trkpt lat="45.90504" lon="4.72187">
        <ele>177</ele>
        <time>2017-07-19T10:03:57Z</time>
      </trkpt>
      <trkpt lat="45.90508" lon="4.72185">
        <ele>177</ele>
        <time>2017-07-19T10:03:58Z</time>
      </trkpt>
      <trkpt lat="45.90514" lon="4.72182">
        <ele>177</ele>
        <time>2017-07-19T10:04:00Z</time>
      </trkpt>
      <trkpt lat="45.90518" lon="4.72182">
        <ele>177</ele>
        <time>2017-07-19T10:04:01Z</time>
      </trkpt>
      <trkpt lat="45.90525" lon="4.72181">
        <ele>177</ele>
        <time>2017-07-19T10:04:03Z</time>
      </trkpt>
      <trkpt lat="45.90529" lon="4.7218">
        <ele>177</ele>
        <time>2017-07-19T10:04:04Z</time>
      </trkpt>
      <trkpt lat="45.90536" lon="4.72179">
        <ele>177</ele>
        <time>2017-07-19T10:04:06Z</time>
      </trkpt>
      <trkpt lat="45.9054" lon="4.72178">
        <ele>177</ele>
        <time>2017-07-19T10:04:07Z</time>
      </trkpt>
      <trkpt lat="45.90547" lon="4.72175">
        <ele>177</ele>
        <time>2017-07-19T10:04:09Z</time>
      </trkpt>
      <trkpt lat="45.90551" lon="4.72173">
        <ele>177</ele>
        <time>2017-07-19T10:04:10Z</time>
      </trkpt>
      <trkpt lat="45.90559" lon="4.72169">
        <ele>177</ele>
        <time>2017-07-19T10:04:12Z</time>
      </trkpt>
      <trkpt lat="45.90562" lon="4.72168">
        <ele>177</ele>
        <time>2017-07-19T10:04:13Z</time>
      </trkpt>
      <trkpt lat="45.90567" lon="4.72165">
        <ele>177</ele>
        <time>2017-07-19T10:04:15Z</time>
      </trkpt>
      <trkpt lat="45.90571" lon="4.72164">
        <ele>177</ele>
        <time>2017-07-19T10:04:16Z</time>
      </trkpt>
      <trkpt lat="45.90577" lon="4.72161">
        <ele>177</ele>
        <time>2017-07-19T10:04:18Z</time>
      </trkpt>
      <trkpt lat="45.9058" lon="4.7216">
        <ele>177</ele>
        <time>2017-07-19T10:04:19Z</time>
      </trkpt>
      <trkpt lat="45.90586" lon="4.72158">
        <ele>176</ele>
        <time>2017-07-19T10:04:21Z</time>
      </trkpt>
      <trkpt lat="45.90589" lon="4.72156">
        <ele>176</ele>
        <time>2017-07-19T10:04:22Z</time>
      </trkpt>
      <trkpt lat="45.90596" lon="4.72153">
        <ele>176</ele>
        <time>2017-07-19T10:04:24Z</time>
      </trkpt>
      <trkpt lat="45.906" lon="4.72151">
        <ele>176</ele>
        <time>2017-07-19T10:04:25Z</time>
      </trkpt>
      <trkpt lat="45.90607" lon="4.72147">
        <ele>176</ele>
        <time>2017-07-19T10:04:27Z</time>
      </trkpt>
      <trkpt lat="45.90611" lon="4.72144">
        <ele>176</ele>
        <time>2017-07-19T10:04:28Z</time>
      </trkpt>
      <trkpt lat="45.90618" lon="4.72139">
        <ele>176</ele>
        <time>2017-07-19T10:04:30Z</time>
      </trkpt>
      <trkpt lat="45.90622" lon="4.72137">
        <ele>175</ele>
        <time>2017-07-19T10:04:31Z</time>
      </trkpt>
      <trkpt lat="45.90628" lon="4.72133">
        <ele>175</ele>
        <time>2017-07-19T10:04:33Z</time>
      </trkpt>
      <trkpt lat="45.90631" lon="4.72132">
        <ele>175</ele>
        <time>2017-07-19T10:04:34Z</time>
      </trkpt>
      <trkpt lat="45.90637" lon="4.72128">
        <ele>175</ele>
        <time>2017-07-19T10:04:36Z</time>
      </trkpt>
      <trkpt lat="45.9064" lon="4.72126">
        <ele>175</ele>
        <time>2017-07-19T10:04:37Z</time>
      </trkpt>
      <trkpt lat="45.90646" lon="4.72123">
        <ele>175</ele>
        <time>2017-07-19T10:04:39Z</time>
      </trkpt>
      <trkpt lat="45.9065" lon="4.72122">
        <ele>175</ele>
        <time>2017-07-19T10:04:40Z</time>
      </trkpt>
      <trkpt lat="45.90656" lon="4.72119">
        <ele>175</ele>
        <time>2017-07-19T10:04:42Z</time>
      </trkpt>
      <trkpt lat="45.9066" lon="4.72117">
        <ele>175</ele>
        <time>2017-07-19T10:04:43Z</time>
      </trkpt>
      <trkpt lat="45.90666" lon="4.72115">
        <ele>175</ele>
        <time>2017-07-19T10:04:45Z</time>
      </trkpt>
      <trkpt lat="45.9067" lon="4.72114">
        <ele>174</ele>
        <time>2017-07-19T10:04:46Z</time>
      </trkpt>
      <trkpt lat="45.90676" lon="4.72113">
        <ele>174</ele>
        <time>2017-07-19T10:04:48Z</time>
      </trkpt>
      <trkpt lat="45.9068" lon="4.72112">
        <ele>174</ele>
        <time>2017-07-19T10:04:49Z</time>
      </trkpt>
      <trkpt lat="45.90688" lon="4.7211">
        <ele>174</ele>
        <time>2017-07-19T10:04:51Z</time>
      </trkpt>
      <trkpt lat="45.90693" lon="4.72109">
        <ele>174</ele>
        <time>2017-07-19T10:04:52Z</time>
      </trkpt>
      <trkpt lat="45.90698" lon="4.72107">
        <ele>174</ele>
        <time>2017-07-19T10:04:53Z</time>
      </trkpt>
      <trkpt lat="45.90703" lon="4.72105">
        <ele>174</ele>
        <time>2017-07-19T10:04:54Z</time>
      </trkpt>
      <trkpt lat="45.90707" lon="4.72103">
        <ele>174</ele>
        <time>2017-07-19T10:04:55Z</time>
      </trkpt>
      <trkpt lat="45.90712" lon="4.72101">
        <ele>174</ele>
        <time>2017-07-19T10:04:56Z</time>
      </trkpt>
      <trkpt lat="45.9072" lon="4.72097">
        <ele>174</ele>
        <time>2017-07-19T10:04:58Z</time>
      </trkpt>
      <trkpt lat="45.90724" lon="4.72094">
        <ele>174</ele>
        <time>2017-07-19T10:04:59Z</time>
      </trkpt>
      <trkpt lat="45.90731" lon="4.72089">
        <ele>174</ele>
        <time>2017-07-19T10:05:01Z</time>
      </trkpt>
      <trkpt lat="45.90735" lon="4.72086">
        <ele>174</ele>
        <time>2017-07-19T10:05:02Z</time>
      </trkpt>
      <trkpt lat="45.90741" lon="4.7208">
        <ele>174</ele>
        <time>2017-07-19T10:05:04Z</time>
      </trkpt>
      <trkpt lat="45.90744" lon="4.72077">
        <ele>174</ele>
        <time>2017-07-19T10:05:05Z</time>
      </trkpt>
      <trkpt lat="45.90752" lon="4.72071">
        <ele>174</ele>
        <time>2017-07-19T10:05:07Z</time>
      </trkpt>
      <trkpt lat="45.90756" lon="4.72068">
        <ele>174</ele>
        <time>2017-07-19T10:05:08Z</time>
      </trkpt>
      <trkpt lat="45.90761" lon="4.72065">
        <ele>174</ele>
        <time>2017-07-19T10:05:09Z</time>
      </trkpt>
      <trkpt lat="45.90765" lon="4.72061">
        <ele>175</ele>
        <time>2017-07-19T10:05:10Z</time>
      </trkpt>
      <trkpt lat="45.90771" lon="4.72058">
        <ele>175</ele>
        <time>2017-07-19T10:05:11Z</time>
      </trkpt>
      <trkpt lat="45.90776" lon="4.72055">
        <ele>175</ele>
        <time>2017-07-19T10:05:12Z</time>
      </trkpt>
      <trkpt lat="45.90781" lon="4.72052">
        <ele>175</ele>
        <time>2017-07-19T10:05:13Z</time>
      </trkpt>
      <trkpt lat="45.90786" lon="4.7205">
        <ele>175</ele>
        <time>2017-07-19T10:05:14Z</time>
      </trkpt>
      <trkpt lat="45.90791" lon="4.72047">
        <ele>175</ele>
        <time>2017-07-19T10:05:15Z</time>
      </trkpt>
      <trkpt lat="45.90796" lon="4.72045">
        <ele>175</ele>
        <time>2017-07-19T10:05:16Z</time>
      </trkpt>
      <trkpt lat="45.90801" lon="4.72043">
        <ele>175</ele>
        <time>2017-07-19T10:05:17Z</time>
      </trkpt>
      <trkpt lat="45.90805" lon="4.72042">
        <ele>175</ele>
        <time>2017-07-19T10:05:18Z</time>
      </trkpt>
      <trkpt lat="45.90814" lon="4.72038">
        <ele>175</ele>
        <time>2017-07-19T10:05:20Z</time>
      </trkpt>
      <trkpt lat="45.90818" lon="4.72036">
        <ele>175</ele>
        <time>2017-07-19T10:05:21Z</time>
      </trkpt>
      <trkpt lat="45.90825" lon="4.72032">
        <ele>175</ele>
        <time>2017-07-19T10:05:23Z</time>
      </trkpt>
      <trkpt lat="45.90829" lon="4.7203">
        <ele>175</ele>
        <time>2017-07-19T10:05:24Z</time>
      </trkpt>
      <trkpt lat="45.90836" lon="4.72027">
        <ele>174</ele>
        <time>2017-07-19T10:05:26Z</time>
      </trkpt>
      <trkpt lat="45.9084" lon="4.72025">
        <ele>174</ele>
        <time>2017-07-19T10:05:27Z</time>
      </trkpt>
      <trkpt lat="45.90848" lon="4.7202">
        <ele>174</ele>
        <time>2017-07-19T10:05:29Z</time>
      </trkpt>
      <trkpt lat="45.90852" lon="4.72018">
        <ele>174</ele>
        <time>2017-07-19T10:05:30Z</time>
      </trkpt>
      <trkpt lat="45.90856" lon="4.72016">
        <ele>174</ele>
        <time>2017-07-19T10:05:31Z</time>
      </trkpt>
      <trkpt lat="45.90861" lon="4.72013">
        <ele>174</ele>
        <time>2017-07-19T10:05:32Z</time>
      </trkpt>
      <trkpt lat="45.90866" lon="4.7201">
        <ele>174</ele>
        <time>2017-07-19T10:05:33Z</time>
      </trkpt>
      <trkpt lat="45.90871" lon="4.72008">
        <ele>174</ele>
        <time>2017-07-19T10:05:34Z</time>
      </trkpt>
      <trkpt lat="45.90875" lon="4.72006">
        <ele>174</ele>
        <time>2017-07-19T10:05:35Z</time>
      </trkpt>
      <trkpt lat="45.90879" lon="4.72004">
        <ele>174</ele>
        <time>2017-07-19T10:05:36Z</time>
      </trkpt>
      <trkpt lat="45.90884" lon="4.72001">
        <ele>174</ele>
        <time>2017-07-19T10:05:37Z</time>
      </trkpt>
      <trkpt lat="45.90888" lon="4.71999">
        <ele>174</ele>
        <time>2017-07-19T10:05:38Z</time>
      </trkpt>
      <trkpt lat="45.90896" lon="4.71994">
        <ele>174</ele>
        <time>2017-07-19T10:05:40Z</time>
      </trkpt>
      <trkpt lat="45.909" lon="4.71992">
        <ele>174</ele>
        <time>2017-07-19T10:05:41Z</time>
      </trkpt>
      <trkpt lat="45.90907" lon="4.71989">
        <ele>174</ele>
        <time>2017-07-19T10:05:43Z</time>
      </trkpt>
      <trkpt lat="45.90911" lon="4.71987">
        <ele>174</ele>
        <time>2017-07-19T10:05:44Z</time>
      </trkpt>
      <trkpt lat="45.90918" lon="4.71984">
        <ele>174</ele>
        <time>2017-07-19T10:05:46Z</time>
      </trkpt>
      <trkpt lat="45.90922" lon="4.71982">
        <ele>174</ele>
        <time>2017-07-19T10:05:47Z</time>
      </trkpt>
      <trkpt lat="45.9093" lon="4.71978">
        <ele>174</ele>
        <time>2017-07-19T10:05:49Z</time>
      </trkpt>
      <trkpt lat="45.90934" lon="4.71976">
        <ele>174</ele>
        <time>2017-07-19T10:05:50Z</time>
      </trkpt>
      <trkpt lat="45.90939" lon="4.71973">
        <ele>174</ele>
        <time>2017-07-19T10:05:51Z</time>
      </trkpt>
      <trkpt lat="45.90944" lon="4.7197">
        <ele>174</ele>
        <time>2017-07-19T10:05:52Z</time>
      </trkpt>
      <trkpt lat="45.90949" lon="4.71968">
        <ele>174</ele>
        <time>2017-07-19T10:05:53Z</time>
      </trkpt>
      <trkpt lat="45.90954" lon="4.71966">
        <ele>174</ele>
        <time>2017-07-19T10:05:54Z</time>
      </trkpt>
      <trkpt lat="45.90958" lon="4.71963">
        <ele>174</ele>
        <time>2017-07-19T10:05:55Z</time>
      </trkpt>
      <trkpt lat="45.90962" lon="4.71961">
        <ele>174</ele>
        <time>2017-07-19T10:05:56Z</time>
      </trkpt>
      <trkpt lat="45.90971" lon="4.71956">
        <ele>174</ele>
        <time>2017-07-19T10:05:58Z</time>
      </trkpt>
      <trkpt lat="45.90975" lon="4.71953">
        <ele>174</ele>
        <time>2017-07-19T10:05:59Z</time>
      </trkpt>
      <trkpt lat="45.90983" lon="4.71949">
        <ele>174</ele>
        <time>2017-07-19T10:06:01Z</time>
      </trkpt>
      <trkpt lat="45.90987" lon="4.71947">
        <ele>174</ele>
        <time>2017-07-19T10:06:02Z</time>
      </trkpt>
      <trkpt lat="45.90995" lon="4.71944">
        <ele>174</ele>
        <time>2017-07-19T10:06:04Z</time>
      </trkpt>
      <trkpt lat="45.90999" lon="4.71943">
        <ele>174</ele>
        <time>2017-07-19T10:06:05Z</time>
      </trkpt>
      <trkpt lat="45.91007" lon="4.71943">
        <ele>174</ele>
        <time>2017-07-19T10:06:07Z</time>
      </trkpt>
      <trkpt lat="45.91011" lon="4.71943">
        <ele>174</ele>
        <time>2017-07-19T10:06:08Z</time>
      </trkpt>
      <trkpt lat="45.91019" lon="4.71943">
        <ele>174</ele>
        <time>2017-07-19T10:06:10Z</time>
      </trkpt>
      <trkpt lat="45.91024" lon="4.71942">
        <ele>174</ele>
        <time>2017-07-19T10:06:11Z</time>
      </trkpt>
      <trkpt lat="45.91029" lon="4.71941">
        <ele>174</ele>
        <time>2017-07-19T10:06:12Z</time>
      </trkpt>
      <trkpt lat="45.91034" lon="4.71941">
        <ele>174</ele>
        <time>2017-07-19T10:06:13Z</time>
      </trkpt>
      <trkpt lat="45.91039" lon="4.71942">
        <ele>174</ele>
        <time>2017-07-19T10:06:14Z</time>
      </trkpt>
      <trkpt lat="45.91044" lon="4.71942">
        <ele>174</ele>
        <time>2017-07-19T10:06:15Z</time>
      </trkpt>
      <trkpt lat="45.91048" lon="4.71943">
        <ele>174</ele>
        <time>2017-07-19T10:06:16Z</time>
      </trkpt>
      <trkpt lat="45.91053" lon="4.71943">
        <ele>174</ele>
        <time>2017-07-19T10:06:17Z</time>
      </trkpt>
      <trkpt lat="45.91058" lon="4.71943">
        <ele>174</ele>
        <time>2017-07-19T10:06:18Z</time>
      </trkpt>
      <trkpt lat="45.91062" lon="4.71943">
        <ele>174</ele>
        <time>2017-07-19T10:06:19Z</time>
      </trkpt>
      <trkpt lat="45.91071" lon="4.7194">
        <ele>174</ele>
        <time>2017-07-19T10:06:21Z</time>
      </trkpt>
      <trkpt lat="45.91075" lon="4.71939">
        <ele>174</ele>
        <time>2017-07-19T10:06:22Z</time>
      </trkpt>
      <trkpt lat="45.91084" lon="4.71937">
        <ele>174</ele>
        <time>2017-07-19T10:06:24Z</time>
      </trkpt>
      <trkpt lat="45.91088" lon="4.71936">
        <ele>174</ele>
        <time>2017-07-19T10:06:25Z</time>
      </trkpt>
      <trkpt lat="45.91095" lon="4.71932">
        <ele>174</ele>
        <time>2017-07-19T10:06:27Z</time>
      </trkpt>
      <trkpt lat="45.91099" lon="4.71931">
        <ele>174</ele>
        <time>2017-07-19T10:06:28Z</time>
      </trkpt>
      <trkpt lat="45.91103" lon="4.71928">
        <ele>174</ele>
        <time>2017-07-19T10:06:29Z</time>
      </trkpt>
      <trkpt lat="45.91108" lon="4.71926">
        <ele>174</ele>
        <time>2017-07-19T10:06:30Z</time>
      </trkpt>
      <trkpt lat="45.91113" lon="4.71924">
        <ele>174</ele>
        <time>2017-07-19T10:06:31Z</time>
      </trkpt>
      <trkpt lat="45.91118" lon="4.71921">
        <ele>174</ele>
        <time>2017-07-19T10:06:32Z</time>
      </trkpt>
      <trkpt lat="45.91123" lon="4.71918">
        <ele>174</ele>
        <time>2017-07-19T10:06:33Z</time>
      </trkpt>
      <trkpt lat="45.91128" lon="4.71915">
        <ele>175</ele>
        <time>2017-07-19T10:06:34Z</time>
      </trkpt>
      <trkpt lat="45.91133" lon="4.71912">
        <ele>175</ele>
        <time>2017-07-19T10:06:35Z</time>
      </trkpt>
      <trkpt lat="45.91138" lon="4.71909">
        <ele>175</ele>
        <time>2017-07-19T10:06:36Z</time>
      </trkpt>
      <trkpt lat="45.91143" lon="4.71906">
        <ele>175</ele>
        <time>2017-07-19T10:06:37Z</time>
      </trkpt>
      <trkpt lat="45.91147" lon="4.71903">
        <ele>175</ele>
        <time>2017-07-19T10:06:38Z</time>
      </trkpt>
      <trkpt lat="45.91155" lon="4.71899">
        <ele>175</ele>
        <time>2017-07-19T10:06:40Z</time>
      </trkpt>
      <trkpt lat="45.9116" lon="4.71899">
        <ele>175</ele>
        <time>2017-07-19T10:06:41Z</time>
      </trkpt>
      <trkpt lat="45.91167" lon="4.71897">
        <ele>176</ele>
        <time>2017-07-19T10:06:43Z</time>
      </trkpt>
      <trkpt lat="45.91171" lon="4.71896">
        <ele>176</ele>
        <time>2017-07-19T10:06:44Z</time>
      </trkpt>
      <trkpt lat="45.91178" lon="4.71897">
        <ele>176</ele>
        <time>2017-07-19T10:06:46Z</time>
      </trkpt>
      <trkpt lat="45.91181" lon="4.71899">
        <ele>176</ele>
        <time>2017-07-19T10:06:47Z</time>
      </trkpt>
      <trkpt lat="45.91187" lon="4.71899">
        <ele>176</ele>
        <time>2017-07-19T10:06:49Z</time>
      </trkpt>
      <trkpt lat="45.91191" lon="4.719">
        <ele>176</ele>
        <time>2017-07-19T10:06:50Z</time>
      </trkpt>
      <trkpt lat="45.91199" lon="4.71901">
        <ele>176</ele>
        <time>2017-07-19T10:06:52Z</time>
      </trkpt>
      <trkpt lat="45.91203" lon="4.71901">
        <ele>176</ele>
        <time>2017-07-19T10:06:53Z</time>
      </trkpt>
      <trkpt lat="45.91208" lon="4.71902">
        <ele>176</ele>
        <time>2017-07-19T10:06:54Z</time>
      </trkpt>
      <trkpt lat="45.91213" lon="4.71903">
        <ele>176</ele>
        <time>2017-07-19T10:06:55Z</time>
      </trkpt>
      <trkpt lat="45.91221" lon="4.71905">
        <ele>176</ele>
        <time>2017-07-19T10:06:57Z</time>
      </trkpt>
      <trkpt lat="45.91224" lon="4.71905">
        <ele>176</ele>
        <time>2017-07-19T10:06:58Z</time>
      </trkpt>
      <trkpt lat="45.9123" lon="4.71908">
        <ele>177</ele>
        <time>2017-07-19T10:07:00Z</time>
      </trkpt>
      <trkpt lat="45.91233" lon="4.71911">
        <ele>177</ele>
        <time>2017-07-19T10:07:01Z</time>
      </trkpt>
      <trkpt lat="45.91241" lon="4.71915">
        <ele>177</ele>
        <time>2017-07-19T10:07:03Z</time>
      </trkpt>
      <trkpt lat="45.91246" lon="4.71917">
        <ele>177</ele>
        <time>2017-07-19T10:07:04Z</time>
      </trkpt>
      <trkpt lat="45.91251" lon="4.71918">
        <ele>177</ele>
        <time>2017-07-19T10:07:05Z</time>
      </trkpt>
      <trkpt lat="45.91256" lon="4.7192">
        <ele>176</ele>
        <time>2017-07-19T10:07:06Z</time>
      </trkpt>
      <trkpt lat="45.91261" lon="4.71924">
        <ele>176</ele>
        <time>2017-07-19T10:07:07Z</time>
      </trkpt>
      <trkpt lat="45.91266" lon="4.71925">
        <ele>176</ele>
        <time>2017-07-19T10:07:08Z</time>
      </trkpt>
      <trkpt lat="45.91271" lon="4.71926">
        <ele>175</ele>
        <time>2017-07-19T10:07:09Z</time>
      </trkpt>
      <trkpt lat="45.91275" lon="4.71927">
        <ele>175</ele>
        <time>2017-07-19T10:07:10Z</time>
      </trkpt>
      <trkpt lat="45.91283" lon="4.71931">
        <ele>175</ele>
        <time>2017-07-19T10:07:12Z</time>
      </trkpt>
      <trkpt lat="45.91287" lon="4.71933">
        <ele>175</ele>
        <time>2017-07-19T10:07:13Z</time>
      </trkpt>
      <trkpt lat="45.91295" lon="4.71936">
        <ele>175</ele>
        <time>2017-07-19T10:07:15Z</time>
      </trkpt>
      <trkpt lat="45.91299" lon="4.71937">
        <ele>175</ele>
        <time>2017-07-19T10:07:16Z</time>
      </trkpt>
      <trkpt lat="45.91306" lon="4.71941">
        <ele>174</ele>
        <time>2017-07-19T10:07:18Z</time>
      </trkpt>
      <trkpt lat="45.91309" lon="4.71942">
        <ele>174</ele>
        <time>2017-07-19T10:07:19Z</time>
      </trkpt>
      <trkpt lat="45.91317" lon="4.71945">
        <ele>174</ele>
        <time>2017-07-19T10:07:21Z</time>
      </trkpt>
      <trkpt lat="45.91321" lon="4.71947">
        <ele>174</ele>
        <time>2017-07-19T10:07:22Z</time>
      </trkpt>
      <trkpt lat="45.91326" lon="4.71948">
        <ele>174</ele>
        <time>2017-07-19T10:07:23Z</time>
      </trkpt>
      <trkpt lat="45.91331" lon="4.7195">
        <ele>174</ele>
        <time>2017-07-19T10:07:24Z</time>
      </trkpt>
      <trkpt lat="45.91336" lon="4.71952">
        <ele>174</ele>
        <time>2017-07-19T10:07:25Z</time>
      </trkpt>
      <trkpt lat="45.91341" lon="4.71954">
        <ele>174</ele>
        <time>2017-07-19T10:07:26Z</time>
      </trkpt>
      <trkpt lat="45.91346" lon="4.71955">
        <ele>174</ele>
        <time>2017-07-19T10:07:27Z</time>
      </trkpt>
      <trkpt lat="45.91351" lon="4.71958">
        <ele>174</ele>
        <time>2017-07-19T10:07:28Z</time>
      </trkpt>
      <trkpt lat="45.91355" lon="4.71959">
        <ele>173</ele>
        <time>2017-07-19T10:07:29Z</time>
      </trkpt>
      <trkpt lat="45.9136" lon="4.71959">
        <ele>173</ele>
        <time>2017-07-19T10:07:30Z</time>
      </trkpt>
      <trkpt lat="45.91368" lon="4.7196">
        <ele>173</ele>
        <time>2017-07-19T10:07:32Z</time>
      </trkpt>
      <trkpt lat="45.91373" lon="4.71961">
        <ele>173</ele>
        <time>2017-07-19T10:07:33Z</time>
      </trkpt>
      <trkpt lat="45.91381" lon="4.7196">
        <ele>174</ele>
        <time>2017-07-19T10:07:35Z</time>
      </trkpt>
      <trkpt lat="45.91385" lon="4.71959">
        <ele>174</ele>
        <time>2017-07-19T10:07:36Z</time>
      </trkpt>
      <trkpt lat="45.91393" lon="4.71955">
        <ele>173</ele>
        <time>2017-07-19T10:07:38Z</time>
      </trkpt>
      <trkpt lat="45.91398" lon="4.7195">
        <ele>173</ele>
        <time>2017-07-19T10:07:39Z</time>
      </trkpt>
      <trkpt lat="45.91402" lon="4.71947">
        <ele>173</ele>
        <time>2017-07-19T10:07:40Z</time>
      </trkpt>
      <trkpt lat="45.91406" lon="4.71943">
        <ele>173</ele>
        <time>2017-07-19T10:07:41Z</time>
      </trkpt>
      <trkpt lat="45.91411" lon="4.71938">
        <ele>173</ele>
        <time>2017-07-19T10:07:42Z</time>
      </trkpt>
      <trkpt lat="45.91415" lon="4.71938">
        <ele>173</ele>
        <time>2017-07-19T10:07:43Z</time>
      </trkpt>
      <trkpt lat="45.91422" lon="4.71936">
        <ele>173</ele>
        <time>2017-07-19T10:07:45Z</time>
      </trkpt>
      <trkpt lat="45.91426" lon="4.71934">
        <ele>173</ele>
        <time>2017-07-19T10:07:46Z</time>
      </trkpt>
      <trkpt lat="45.91434" lon="4.71928">
        <ele>173</ele>
        <time>2017-07-19T10:07:48Z</time>
      </trkpt>
      <trkpt lat="45.91437" lon="4.71925">
        <ele>173</ele>
        <time>2017-07-19T10:07:49Z</time>
      </trkpt>
      <trkpt lat="45.91444" lon="4.7192">
        <ele>173</ele>
        <time>2017-07-19T10:07:51Z</time>
      </trkpt>
      <trkpt lat="45.91448" lon="4.71919">
        <ele>173</ele>
        <time>2017-07-19T10:07:52Z</time>
      </trkpt>
      <trkpt lat="45.91456" lon="4.71915">
        <ele>173</ele>
        <time>2017-07-19T10:07:54Z</time>
      </trkpt>
      <trkpt lat="45.91459" lon="4.71913">
        <ele>173</ele>
        <time>2017-07-19T10:07:55Z</time>
      </trkpt>
      <trkpt lat="45.91468" lon="4.7191">
        <ele>173</ele>
        <time>2017-07-19T10:07:57Z</time>
      </trkpt>
      <trkpt lat="45.91471" lon="4.71908">
        <ele>173</ele>
        <time>2017-07-19T10:07:58Z</time>
      </trkpt>
      <trkpt lat="45.91477" lon="4.71904">
        <ele>173</ele>
        <time>2017-07-19T10:08:00Z</time>
      </trkpt>
      <trkpt lat="45.91481" lon="4.71901">
        <ele>173</ele>
        <time>2017-07-19T10:08:01Z</time>
      </trkpt>
      <trkpt lat="45.91487" lon="4.71897">
        <ele>173</ele>
        <time>2017-07-19T10:08:03Z</time>
      </trkpt>
      <trkpt lat="45.9149" lon="4.71893">
        <ele>173</ele>
        <time>2017-07-19T10:08:04Z</time>
      </trkpt>
      <trkpt lat="45.91496" lon="4.71885">
        <ele>173</ele>
        <time>2017-07-19T10:08:06Z</time>
      </trkpt>
      <trkpt lat="45.91499" lon="4.71881">
        <ele>173</ele>
        <time>2017-07-19T10:08:07Z</time>
      </trkpt>
      <trkpt lat="45.91502" lon="4.71877">
        <ele>173</ele>
        <time>2017-07-19T10:08:08Z</time>
      </trkpt>
      <trkpt lat="45.91506" lon="4.71871">
        <ele>174</ele>
        <time>2017-07-19T10:08:09Z</time>
      </trkpt>
      <trkpt lat="45.9151" lon="4.71862">
        <ele>174</ele>
        <time>2017-07-19T10:08:11Z</time>
      </trkpt>
      <trkpt lat="45.91512" lon="4.7186">
        <ele>174</ele>
        <time>2017-07-19T10:08:12Z</time>
      </trkpt>
      <trkpt lat="45.91515" lon="4.71853">
        <ele>174</ele>
        <time>2017-07-19T10:08:14Z</time>
      </trkpt>
      <trkpt lat="45.91517" lon="4.71849">
        <ele>174</ele>
        <time>2017-07-19T10:08:15Z</time>
      </trkpt>
      <trkpt lat="45.9152" lon="4.71838">
        <ele>174</ele>
        <time>2017-07-19T10:08:17Z</time>
      </trkpt>
      <trkpt lat="45.91522" lon="4.71832">
        <ele>174</ele>
        <time>2017-07-19T10:08:18Z</time>
      </trkpt>
      <trkpt lat="45.91526" lon="4.71826">
        <ele>174</ele>
        <time>2017-07-19T10:08:19Z</time>
      </trkpt>
      <trkpt lat="45.91528" lon="4.71819">
        <ele>174</ele>
        <time>2017-07-19T10:08:20Z</time>
      </trkpt>
      <trkpt lat="45.91531" lon="4.71813">
        <ele>174</ele>
        <time>2017-07-19T10:08:21Z</time>
      </trkpt>
      <trkpt lat="45.91534" lon="4.71806">
        <ele>174</ele>
        <time>2017-07-19T10:08:22Z</time>
      </trkpt>
      <trkpt lat="45.91538" lon="4.71801">
        <ele>174</ele>
        <time>2017-07-19T10:08:23Z</time>
      </trkpt>
      <trkpt lat="45.9154" lon="4.71795">
        <ele>174</ele>
        <time>2017-07-19T10:08:24Z</time>
      </trkpt>
      <trkpt lat="45.91545" lon="4.71787">
        <ele>174</ele>
        <time>2017-07-19T10:08:26Z</time>
      </trkpt>
      <trkpt lat="45.91548" lon="4.71783">
        <ele>174</ele>
        <time>2017-07-19T10:08:27Z</time>
      </trkpt>
      <trkpt lat="45.91554" lon="4.71775">
        <ele>174</ele>
        <time>2017-07-19T10:08:29Z</time>
      </trkpt>
      <trkpt lat="45.91556" lon="4.71771">
        <ele>174</ele>
        <time>2017-07-19T10:08:30Z</time>
      </trkpt>
      <trkpt lat="45.9156" lon="4.71767">
        <ele>174</ele>
        <time>2017-07-19T10:08:31Z</time>
      </trkpt>
      <trkpt lat="45.91564" lon="4.71763">
        <ele>174</ele>
        <time>2017-07-19T10:08:32Z</time>
      </trkpt>
      <trkpt lat="45.91571" lon="4.71756">
        <ele>174</ele>
        <time>2017-07-19T10:08:34Z</time>
      </trkpt>
      <trkpt lat="45.91574" lon="4.71753">
        <ele>174</ele>
        <time>2017-07-19T10:08:35Z</time>
      </trkpt>
      <trkpt lat="45.91581" lon="4.71746">
        <ele>174</ele>
        <time>2017-07-19T10:08:37Z</time>
      </trkpt>
      <trkpt lat="45.91586" lon="4.71743">
        <ele>174</ele>
        <time>2017-07-19T10:08:38Z</time>
      </trkpt>
      <trkpt lat="45.9159" lon="4.7174">
        <ele>174</ele>
        <time>2017-07-19T10:08:39Z</time>
      </trkpt>
      <trkpt lat="45.91595" lon="4.71736">
        <ele>173</ele>
        <time>2017-07-19T10:08:40Z</time>
      </trkpt>
      <trkpt lat="45.91601" lon="4.71733">
        <ele>173</ele>
        <time>2017-07-19T10:08:41Z</time>
      </trkpt>
      <trkpt lat="45.91606" lon="4.7173">
        <ele>173</ele>
        <time>2017-07-19T10:08:42Z</time>
      </trkpt>
      <trkpt lat="45.91611" lon="4.71727">
        <ele>173</ele>
        <time>2017-07-19T10:08:43Z</time>
      </trkpt>
      <trkpt lat="45.91616" lon="4.71725">
        <ele>173</ele>
        <time>2017-07-19T10:08:44Z</time>
      </trkpt>
      <trkpt lat="45.91625" lon="4.71722">
        <ele>173</ele>
        <time>2017-07-19T10:08:46Z</time>
      </trkpt>
      <trkpt lat="45.91628" lon="4.71722">
        <ele>173</ele>
        <time>2017-07-19T10:08:47Z</time>
      </trkpt>
      <trkpt lat="45.91633" lon="4.71727">
        <ele>173</ele>
        <time>2017-07-19T10:08:49Z</time>
      </trkpt>
      <trkpt lat="45.91634" lon="4.71732">
        <ele>173</ele>
        <time>2017-07-19T10:08:50Z</time>
      </trkpt>
      <trkpt lat="45.91637" lon="4.71743">
        <ele>173</ele>
        <time>2017-07-19T10:08:52Z</time>
      </trkpt>
      <trkpt lat="45.91639" lon="4.71749">
        <ele>173</ele>
        <time>2017-07-19T10:08:53Z</time>
      </trkpt>
      <trkpt lat="45.91641" lon="4.71755">
        <ele>174</ele>
        <time>2017-07-19T10:08:54Z</time>
      </trkpt>
      <trkpt lat="45.91644" lon="4.7176">
        <ele>173</ele>
        <time>2017-07-19T10:08:55Z</time>
      </trkpt>
      <trkpt lat="45.91648" lon="4.71764">
        <ele>173</ele>
        <time>2017-07-19T10:08:56Z</time>
      </trkpt>
      <trkpt lat="45.91652" lon="4.71767">
        <ele>173</ele>
        <time>2017-07-19T10:08:57Z</time>
      </trkpt>
      <trkpt lat="45.91656" lon="4.71769">
        <ele>173</ele>
        <time>2017-07-19T10:08:58Z</time>
      </trkpt>
      <trkpt lat="45.9166" lon="4.71771">
        <ele>173</ele>
        <time>2017-07-19T10:08:59Z</time>
      </trkpt>
      <trkpt lat="45.91669" lon="4.71773">
        <ele>173</ele>
        <time>2017-07-19T10:09:01Z</time>
      </trkpt>
      <trkpt lat="45.91674" lon="4.71773">
        <ele>173</ele>
        <time>2017-07-19T10:09:02Z</time>
      </trkpt>
      <trkpt lat="45.91682" lon="4.71774">
        <ele>173</ele>
        <time>2017-07-19T10:09:04Z</time>
      </trkpt>
      <trkpt lat="45.91686" lon="4.71774">
        <ele>173</ele>
        <time>2017-07-19T10:09:05Z</time>
      </trkpt>
      <trkpt lat="45.91694" lon="4.71773">
        <ele>173</ele>
        <time>2017-07-19T10:09:07Z</time>
      </trkpt>
      <trkpt lat="45.91699" lon="4.71773">
        <ele>173</ele>
        <time>2017-07-19T10:09:08Z</time>
      </trkpt>
      <trkpt lat="45.91704" lon="4.71773">
        <ele>173</ele>
        <time>2017-07-19T10:09:09Z</time>
      </trkpt>
      <trkpt lat="45.91709" lon="4.71773">
        <ele>173</ele>
        <time>2017-07-19T10:09:10Z</time>
      </trkpt>
      <trkpt lat="45.91715" lon="4.71775">
        <ele>173</ele>
        <time>2017-07-19T10:09:11Z</time>
      </trkpt>
      <trkpt lat="45.91721" lon="4.71775">
        <ele>173</ele>
        <time>2017-07-19T10:09:12Z</time>
      </trkpt>
      <trkpt lat="45.91727" lon="4.71775">
        <ele>173</ele>
        <time>2017-07-19T10:09:13Z</time>
      </trkpt>
      <trkpt lat="45.91732" lon="4.71775">
        <ele>173</ele>
        <time>2017-07-19T10:09:14Z</time>
      </trkpt>
      <trkpt lat="45.91737" lon="4.71776">
        <ele>173</ele>
        <time>2017-07-19T10:09:15Z</time>
      </trkpt>
      <trkpt lat="45.91741" lon="4.71776">
        <ele>173</ele>
        <time>2017-07-19T10:09:16Z</time>
      </trkpt>
      <trkpt lat="45.9175" lon="4.71777">
        <ele>173</ele>
        <time>2017-07-19T10:09:18Z</time>
      </trkpt>
      <trkpt lat="45.91754" lon="4.71778">
        <ele>173</ele>
        <time>2017-07-19T10:09:19Z</time>
      </trkpt>
      <trkpt lat="45.91763" lon="4.71779">
        <ele>173</ele>
        <time>2017-07-19T10:09:21Z</time>
      </trkpt>
      <trkpt lat="45.91767" lon="4.71779">
        <ele>173</ele>
        <time>2017-07-19T10:09:22Z</time>
      </trkpt>
      <trkpt lat="45.91775" lon="4.71778">
        <ele>173</ele>
        <time>2017-07-19T10:09:24Z</time>
      </trkpt>
      <trkpt lat="45.9178" lon="4.71778">
        <ele>173</ele>
        <time>2017-07-19T10:09:25Z</time>
      </trkpt>
      <trkpt lat="45.91785" lon="4.71779">
        <ele>173</ele>
        <time>2017-07-19T10:09:26Z</time>
      </trkpt>
      <trkpt lat="45.9179" lon="4.71778">
        <ele>173</ele>
        <time>2017-07-19T10:09:27Z</time>
      </trkpt>
      <trkpt lat="45.91795" lon="4.71778">
        <ele>172</ele>
        <time>2017-07-19T10:09:28Z</time>
      </trkpt>
      <trkpt lat="45.91801" lon="4.71778">
        <ele>172</ele>
        <time>2017-07-19T10:09:29Z</time>
      </trkpt>
      <trkpt lat="45.91806" lon="4.71779">
        <ele>172</ele>
        <time>2017-07-19T10:09:30Z</time>
      </trkpt>
      <trkpt lat="45.91811" lon="4.71778">
        <ele>172</ele>
        <time>2017-07-19T10:09:31Z</time>
      </trkpt>
      <trkpt lat="45.91815" lon="4.71778">
        <ele>172</ele>
        <time>2017-07-19T10:09:32Z</time>
      </trkpt>
      <trkpt lat="45.9182" lon="4.71778">
        <ele>172</ele>
        <time>2017-07-19T10:09:33Z</time>
      </trkpt>
      <trkpt lat="45.91825" lon="4.71778">
        <ele>172</ele>
        <time>2017-07-19T10:09:34Z</time>
      </trkpt>
      <trkpt lat="45.9183" lon="4.71777">
        <ele>172</ele>
        <time>2017-07-19T10:09:35Z</time>
      </trkpt>
      <trkpt lat="45.91835" lon="4.71777">
        <ele>172</ele>
        <time>2017-07-19T10:09:36Z</time>
      </trkpt>
      <trkpt lat="45.91839" lon="4.71777">
        <ele>172</ele>
        <time>2017-07-19T10:09:37Z</time>
      </trkpt>
      <trkpt lat="45.91848" lon="4.71776">
        <ele>172</ele>
        <time>2017-07-19T10:09:39Z</time>
      </trkpt>
      <trkpt lat="45.91852" lon="4.71776">
        <ele>172</ele>
        <time>2017-07-19T10:09:40Z</time>
      </trkpt>
      <trkpt lat="45.91861" lon="4.71775">
        <ele>172</ele>
        <time>2017-07-19T10:09:42Z</time>
      </trkpt>
      <trkpt lat="45.91865" lon="4.71774">
        <ele>172</ele>
        <time>2017-07-19T10:09:43Z</time>
      </trkpt>
      <trkpt lat="45.91873" lon="4.71774">
        <ele>172</ele>
        <time>2017-07-19T10:09:45Z</time>
      </trkpt>
      <trkpt lat="45.91876" lon="4.71774">
        <ele>172</ele>
        <time>2017-07-19T10:09:46Z</time>
      </trkpt>
      <trkpt lat="45.9188" lon="4.71774">
        <ele>172</ele>
        <time>2017-07-19T10:09:47Z</time>
      </trkpt>
      <trkpt lat="45.91885" lon="4.71775">
        <ele>172</ele>
        <time>2017-07-19T10:09:48Z</time>
      </trkpt>
      <trkpt lat="45.9189" lon="4.71775">
        <ele>172</ele>
        <time>2017-07-19T10:09:49Z</time>
      </trkpt>
      <trkpt lat="45.91896" lon="4.71776">
        <ele>172</ele>
        <time>2017-07-19T10:09:50Z</time>
      </trkpt>
      <trkpt lat="45.91901" lon="4.71778">
        <ele>172</ele>
        <time>2017-07-19T10:09:51Z</time>
      </trkpt>
      <trkpt lat="45.91906" lon="4.71779">
        <ele>172</ele>
        <time>2017-07-19T10:09:52Z</time>
      </trkpt>
      <trkpt lat="45.91911" lon="4.71781">
        <ele>172</ele>
        <time>2017-07-19T10:09:53Z</time>
      </trkpt>
      <trkpt lat="45.91916" lon="4.71782">
        <ele>172</ele>
        <time>2017-07-19T10:09:54Z</time>
      </trkpt>
      <trkpt lat="45.9192" lon="4.71784">
        <ele>172</ele>
        <time>2017-07-19T10:09:55Z</time>
      </trkpt>
      <trkpt lat="45.91925" lon="4.71785">
        <ele>172</ele>
        <time>2017-07-19T10:09:56Z</time>
      </trkpt>
      <trkpt lat="45.91933" lon="4.71788">
        <ele>173</ele>
        <time>2017-07-19T10:09:58Z</time>
      </trkpt>
      <trkpt lat="45.91937" lon="4.71789">
        <ele>173</ele>
        <time>2017-07-19T10:09:59Z</time>
      </trkpt>
      <trkpt lat="45.91945" lon="4.71789">
        <ele>173</ele>
        <time>2017-07-19T10:10:01Z</time>
      </trkpt>
      <trkpt lat="45.91949" lon="4.7179">
        <ele>173</ele>
        <time>2017-07-19T10:10:02Z</time>
      </trkpt>
      <trkpt lat="45.91957" lon="4.7179">
        <ele>173</ele>
        <time>2017-07-19T10:10:04Z</time>
      </trkpt>
      <trkpt lat="45.91962" lon="4.71789">
        <ele>173</ele>
        <time>2017-07-19T10:10:05Z</time>
      </trkpt>
      <trkpt lat="45.91967" lon="4.71789">
        <ele>173</ele>
        <time>2017-07-19T10:10:06Z</time>
      </trkpt>
      <trkpt lat="45.91972" lon="4.71789">
        <ele>173</ele>
        <time>2017-07-19T10:10:07Z</time>
      </trkpt>
      <trkpt lat="45.91977" lon="4.71789">
        <ele>173</ele>
        <time>2017-07-19T10:10:08Z</time>
      </trkpt>
      <trkpt lat="45.91982" lon="4.71789">
        <ele>173</ele>
        <time>2017-07-19T10:10:09Z</time>
      </trkpt>
      <trkpt lat="45.91987" lon="4.71789">
        <ele>173</ele>
        <time>2017-07-19T10:10:10Z</time>
      </trkpt>
      <trkpt lat="45.91991" lon="4.71789">
        <ele>173</ele>
        <time>2017-07-19T10:10:11Z</time>
      </trkpt>
      <trkpt lat="45.92" lon="4.71789">
        <ele>173</ele>
        <time>2017-07-19T10:10:13Z</time>
      </trkpt>
      <trkpt lat="45.92004" lon="4.71789">
        <ele>173</ele>
        <time>2017-07-19T10:10:14Z</time>
      </trkpt>
      <trkpt lat="45.92012" lon="4.71789">
        <ele>173</ele>
        <time>2017-07-19T10:10:16Z</time>
      </trkpt>
      <trkpt lat="45.92016" lon="4.71789">
        <ele>173</ele>
        <time>2017-07-19T10:10:17Z</time>
      </trkpt>
      <trkpt lat="45.92024" lon="4.71789">
        <ele>173</ele>
        <time>2017-07-19T10:10:19Z</time>
      </trkpt>
      <trkpt lat="45.92027" lon="4.71789">
        <ele>173</ele>
        <time>2017-07-19T10:10:20Z</time>
      </trkpt>
      <trkpt lat="45.92036" lon="4.71789">
        <ele>173</ele>
        <time>2017-07-19T10:10:23Z</time>
      </trkpt>
      <trkpt lat="45.9204" lon="4.71788">
        <ele>173</ele>
        <time>2017-07-19T10:10:24Z</time>
      </trkpt>
      <trkpt lat="45.92045" lon="4.71782">
        <ele>173</ele>
        <time>2017-07-19T10:10:26Z</time>
      </trkpt>
      <trkpt lat="45.92046" lon="4.71777">
        <ele>173</ele>
        <time>2017-07-19T10:10:27Z</time>
      </trkpt>
      <trkpt lat="45.92048" lon="4.71765">
        <ele>173</ele>
        <time>2017-07-19T10:10:29Z</time>
      </trkpt>
      <trkpt lat="45.92049" lon="4.71758">
        <ele>173</ele>
        <time>2017-07-19T10:10:30Z</time>
      </trkpt>
      <trkpt lat="45.9205" lon="4.71751">
        <ele>173</ele>
        <time>2017-07-19T10:10:31Z</time>
      </trkpt>
      <trkpt lat="45.92051" lon="4.71744">
        <ele>173</ele>
        <time>2017-07-19T10:10:32Z</time>
      </trkpt>
      <trkpt lat="45.92053" lon="4.71737">
        <ele>173</ele>
        <time>2017-07-19T10:10:33Z</time>
      </trkpt>
      <trkpt lat="45.92055" lon="4.7173">
        <ele>173</ele>
        <time>2017-07-19T10:10:34Z</time>
      </trkpt>
      <trkpt lat="45.92056" lon="4.71724">
        <ele>173</ele>
        <time>2017-07-19T10:10:35Z</time>
      </trkpt>
      <trkpt lat="45.92058" lon="4.71718">
        <ele>173</ele>
        <time>2017-07-19T10:10:36Z</time>
      </trkpt>
      <trkpt lat="45.9206" lon="4.71706">
        <ele>173</ele>
        <time>2017-07-19T10:10:38Z</time>
      </trkpt>
      <trkpt lat="45.92061" lon="4.717">
        <ele>173</ele>
        <time>2017-07-19T10:10:39Z</time>
      </trkpt>
      <trkpt lat="45.92062" lon="4.71694">
        <ele>173</ele>
        <time>2017-07-19T10:10:40Z</time>
      </trkpt>
      <trkpt lat="45.92064" lon="4.71687">
        <ele>173</ele>
        <time>2017-07-19T10:10:41Z</time>
      </trkpt>
      <trkpt lat="45.92066" lon="4.71679">
        <ele>173</ele>
        <time>2017-07-19T10:10:42Z</time>
      </trkpt>
      <trkpt lat="45.92067" lon="4.71671">
        <ele>172</ele>
        <time>2017-07-19T10:10:43Z</time>
      </trkpt>
      <trkpt lat="45.9207" lon="4.71665">
        <ele>172</ele>
        <time>2017-07-19T10:10:44Z</time>
      </trkpt>
      <trkpt lat="45.9207" lon="4.71658">
        <ele>172</ele>
        <time>2017-07-19T10:10:45Z</time>
      </trkpt>
      <trkpt lat="45.92071" lon="4.71651">
        <ele>172</ele>
        <time>2017-07-19T10:10:46Z</time>
      </trkpt>
      <trkpt lat="45.92072" lon="4.71644">
        <ele>172</ele>
        <time>2017-07-19T10:10:47Z</time>
      </trkpt>
      <trkpt lat="45.92073" lon="4.71637">
        <ele>172</ele>
        <time>2017-07-19T10:10:48Z</time>
      </trkpt>
      <trkpt lat="45.92074" lon="4.7163">
        <ele>172</ele>
        <time>2017-07-19T10:10:49Z</time>
      </trkpt>
      <trkpt lat="45.92076" lon="4.71618">
        <ele>172</ele>
        <time>2017-07-19T10:10:51Z</time>
      </trkpt>
      <trkpt lat="45.92077" lon="4.71611">
        <ele>172</ele>
        <time>2017-07-19T10:10:52Z</time>
      </trkpt>
      <trkpt lat="45.92078" lon="4.71604">
        <ele>172</ele>
        <time>2017-07-19T10:10:53Z</time>
      </trkpt>
      <trkpt lat="45.92079" lon="4.71597">
        <ele>172</ele>
        <time>2017-07-19T10:10:54Z</time>
      </trkpt>
      <trkpt lat="45.92079" lon="4.7159">
        <ele>172</ele>
        <time>2017-07-19T10:10:55Z</time>
      </trkpt>
      <trkpt lat="45.9208" lon="4.71583">
        <ele>172</ele>
        <time>2017-07-19T10:10:56Z</time>
      </trkpt>
      <trkpt lat="45.92082" lon="4.71575">
        <ele>173</ele>
        <time>2017-07-19T10:10:57Z</time>
      </trkpt>
      <trkpt lat="45.92083" lon="4.71567">
        <ele>173</ele>
        <time>2017-07-19T10:10:58Z</time>
      </trkpt>
      <trkpt lat="45.92085" lon="4.71559">
        <ele>173</ele>
        <time>2017-07-19T10:10:59Z</time>
      </trkpt>
      <trkpt lat="45.92086" lon="4.71552">
        <ele>173</ele>
        <time>2017-07-19T10:11:00Z</time>
      </trkpt>
      <trkpt lat="45.92087" lon="4.71544">
        <ele>173</ele>
        <time>2017-07-19T10:11:01Z</time>
      </trkpt>
      <trkpt lat="45.92088" lon="4.71537">
        <ele>173</ele>
        <time>2017-07-19T10:11:02Z</time>
      </trkpt>
      <trkpt lat="45.9209" lon="4.7153">
        <ele>174</ele>
        <time>2017-07-19T10:11:03Z</time>
      </trkpt>
      <trkpt lat="45.92091" lon="4.71523">
        <ele>174</ele>
        <time>2017-07-19T10:11:04Z</time>
      </trkpt>
      <trkpt lat="45.92093" lon="4.71516">
        <ele>174</ele>
        <time>2017-07-19T10:11:05Z</time>
      </trkpt>
      <trkpt lat="45.92093" lon="4.71509">
        <ele>174</ele>
        <time>2017-07-19T10:11:06Z</time>
      </trkpt>
      <trkpt lat="45.92094" lon="4.71497">
        <ele>174</ele>
        <time>2017-07-19T10:11:08Z</time>
      </trkpt>
      <trkpt lat="45.92095" lon="4.71491">
        <ele>174</ele>
        <time>2017-07-19T10:11:09Z</time>
      </trkpt>
      <trkpt lat="45.92097" lon="4.71479">
        <ele>174</ele>
        <time>2017-07-19T10:11:11Z</time>
      </trkpt>
      <trkpt lat="45.92098" lon="4.71473">
        <ele>174</ele>
        <time>2017-07-19T10:11:12Z</time>
      </trkpt>
      <trkpt lat="45.92099" lon="4.71467">
        <ele>174</ele>
        <time>2017-07-19T10:11:13Z</time>
      </trkpt>
      <trkpt lat="45.92101" lon="4.7146">
        <ele>174</ele>
        <time>2017-07-19T10:11:14Z</time>
      </trkpt>
      <trkpt lat="45.92102" lon="4.71452">
        <ele>174</ele>
        <time>2017-07-19T10:11:15Z</time>
      </trkpt>
      <trkpt lat="45.92104" lon="4.71445">
        <ele>174</ele>
        <time>2017-07-19T10:11:16Z</time>
      </trkpt>
      <trkpt lat="45.92104" lon="4.71437">
        <ele>174</ele>
        <time>2017-07-19T10:11:17Z</time>
      </trkpt>
      <trkpt lat="45.92106" lon="4.71429">
        <ele>174</ele>
        <time>2017-07-19T10:11:18Z</time>
      </trkpt>
      <trkpt lat="45.92107" lon="4.71421">
        <ele>174</ele>
        <time>2017-07-19T10:11:19Z</time>
      </trkpt>
      <trkpt lat="45.92108" lon="4.71414">
        <ele>174</ele>
        <time>2017-07-19T10:11:20Z</time>
      </trkpt>
      <trkpt lat="45.92109" lon="4.71407">
        <ele>173</ele>
        <time>2017-07-19T10:11:21Z</time>
      </trkpt>
      <trkpt lat="45.9211" lon="4.71399">
        <ele>173</ele>
        <time>2017-07-19T10:11:22Z</time>
      </trkpt>
      <trkpt lat="45.92109" lon="4.71392">
        <ele>173</ele>
        <time>2017-07-19T10:11:23Z</time>
      </trkpt>
      <trkpt lat="45.9211" lon="4.71385">
        <ele>173</ele>
        <time>2017-07-19T10:11:24Z</time>
      </trkpt>
      <trkpt lat="45.9211" lon="4.71373">
        <ele>173</ele>
        <time>2017-07-19T10:11:26Z</time>
      </trkpt>
      <trkpt lat="45.9211" lon="4.71369">
        <ele>173</ele>
        <time>2017-07-19T10:11:27Z</time>
      </trkpt>
      <trkpt lat="45.92111" lon="4.71357">
        <ele>173</ele>
        <time>2017-07-19T10:11:29Z</time>
      </trkpt>
      <trkpt lat="45.92113" lon="4.7135">
        <ele>173</ele>
        <time>2017-07-19T10:11:30Z</time>
      </trkpt>
      <trkpt lat="45.92113" lon="4.71343">
        <ele>174</ele>
        <time>2017-07-19T10:11:31Z</time>
      </trkpt>
      <trkpt lat="45.92115" lon="4.71335">
        <ele>174</ele>
        <time>2017-07-19T10:11:32Z</time>
      </trkpt>
      <trkpt lat="45.92116" lon="4.71327">
        <ele>174</ele>
        <time>2017-07-19T10:11:33Z</time>
      </trkpt>
      <trkpt lat="45.92115" lon="4.71318">
        <ele>174</ele>
        <time>2017-07-19T10:11:34Z</time>
      </trkpt>
      <trkpt lat="45.92116" lon="4.7131">
        <ele>174</ele>
        <time>2017-07-19T10:11:35Z</time>
      </trkpt>
      <trkpt lat="45.92116" lon="4.71302">
        <ele>174</ele>
        <time>2017-07-19T10:11:36Z</time>
      </trkpt>
      <trkpt lat="45.92116" lon="4.71294">
        <ele>174</ele>
        <time>2017-07-19T10:11:37Z</time>
      </trkpt>
      <trkpt lat="45.92117" lon="4.71288">
        <ele>174</ele>
        <time>2017-07-19T10:11:38Z</time>
      </trkpt>
      <trkpt lat="45.92118" lon="4.71281">
        <ele>174</ele>
        <time>2017-07-19T10:11:39Z</time>
      </trkpt>
      <trkpt lat="45.92119" lon="4.71274">
        <ele>174</ele>
        <time>2017-07-19T10:11:40Z</time>
      </trkpt>
      <trkpt lat="45.9212" lon="4.71268">
        <ele>174</ele>
        <time>2017-07-19T10:11:41Z</time>
      </trkpt>
      <trkpt lat="45.92121" lon="4.71261">
        <ele>174</ele>
        <time>2017-07-19T10:11:42Z</time>
      </trkpt>
      <trkpt lat="45.92122" lon="4.71249">
        <ele>175</ele>
        <time>2017-07-19T10:11:44Z</time>
      </trkpt>
      <trkpt lat="45.92123" lon="4.71242">
        <ele>175</ele>
        <time>2017-07-19T10:11:45Z</time>
      </trkpt>
      <trkpt lat="45.92124" lon="4.71235">
        <ele>175</ele>
        <time>2017-07-19T10:11:46Z</time>
      </trkpt>
      <trkpt lat="45.92125" lon="4.71227">
        <ele>175</ele>
        <time>2017-07-19T10:11:47Z</time>
      </trkpt>
      <trkpt lat="45.92126" lon="4.7122">
        <ele>175</ele>
        <time>2017-07-19T10:11:48Z</time>
      </trkpt>
      <trkpt lat="45.92126" lon="4.71213">
        <ele>175</ele>
        <time>2017-07-19T10:11:49Z</time>
      </trkpt>
      <trkpt lat="45.92127" lon="4.712">
        <ele>175</ele>
        <time>2017-07-19T10:11:51Z</time>
      </trkpt>
      <trkpt lat="45.92127" lon="4.71194">
        <ele>176</ele>
        <time>2017-07-19T10:11:52Z</time>
      </trkpt>
      <trkpt lat="45.92128" lon="4.71182">
        <ele>176</ele>
        <time>2017-07-19T10:11:54Z</time>
      </trkpt>
      <trkpt lat="45.92129" lon="4.71176">
        <ele>176</ele>
        <time>2017-07-19T10:11:55Z</time>
      </trkpt>
      <trkpt lat="45.92131" lon="4.71165">
        <ele>178</ele>
        <time>2017-07-19T10:11:57Z</time>
      </trkpt>
      <trkpt lat="45.92132" lon="4.7116">
        <ele>178</ele>
        <time>2017-07-19T10:11:58Z</time>
      </trkpt>
      <trkpt lat="45.92135" lon="4.7115">
        <ele>178</ele>
        <time>2017-07-19T10:12:00Z</time>
      </trkpt>
      <trkpt lat="45.92137" lon="4.71144">
        <ele>178</ele>
        <time>2017-07-19T10:12:01Z</time>
      </trkpt>
      <trkpt lat="45.92139" lon="4.71132">
        <ele>178</ele>
        <time>2017-07-19T10:12:03Z</time>
      </trkpt>
      <trkpt lat="45.92141" lon="4.71127">
        <ele>178</ele>
        <time>2017-07-19T10:12:04Z</time>
      </trkpt>
      <trkpt lat="45.9214" lon="4.7112">
        <ele>179</ele>
        <time>2017-07-19T10:12:05Z</time>
      </trkpt>
      <trkpt lat="45.9214" lon="4.71112">
        <ele>179</ele>
        <time>2017-07-19T10:12:06Z</time>
      </trkpt>
      <trkpt lat="45.92142" lon="4.71105">
        <ele>179</ele>
        <time>2017-07-19T10:12:07Z</time>
      </trkpt>
      <trkpt lat="45.92144" lon="4.71098">
        <ele>179</ele>
        <time>2017-07-19T10:12:08Z</time>
      </trkpt>
      <trkpt lat="45.92146" lon="4.71092">
        <ele>179</ele>
        <time>2017-07-19T10:12:09Z</time>
      </trkpt>
      <trkpt lat="45.92148" lon="4.71086">
        <ele>179</ele>
        <time>2017-07-19T10:12:10Z</time>
      </trkpt>
      <trkpt lat="45.92151" lon="4.71074">
        <ele>181</ele>
        <time>2017-07-19T10:12:12Z</time>
      </trkpt>
      <trkpt lat="45.92153" lon="4.71069">
        <ele>181</ele>
        <time>2017-07-19T10:12:13Z</time>
      </trkpt>
      <trkpt lat="45.92156" lon="4.71062">
        <ele>181</ele>
        <time>2017-07-19T10:12:14Z</time>
      </trkpt>
      <trkpt lat="45.92157" lon="4.71057">
        <ele>181</ele>
        <time>2017-07-19T10:12:15Z</time>
      </trkpt>
      <trkpt lat="45.92159" lon="4.71047">
        <ele>181</ele>
        <time>2017-07-19T10:12:17Z</time>
      </trkpt>
      <trkpt lat="45.9216" lon="4.71042">
        <ele>181</ele>
        <time>2017-07-19T10:12:18Z</time>
      </trkpt>
      <trkpt lat="45.92164" lon="4.71031">
        <ele>181</ele>
        <time>2017-07-19T10:12:20Z</time>
      </trkpt>
      <trkpt lat="45.92162" lon="4.71024">
        <ele>181</ele>
        <time>2017-07-19T10:12:21Z</time>
      </trkpt>
      <trkpt lat="45.9217" lon="4.7102">
        <ele>181</ele>
        <time>2017-07-19T10:12:24Z</time>
      </trkpt>
      <trkpt lat="45.9217" lon="4.71018">
        <ele>181</ele>
        <time>2017-07-19T10:12:25Z</time>
      </trkpt>
      <trkpt lat="45.92177" lon="4.71014">
        <ele>181</ele>
        <time>2017-07-19T10:12:28Z</time>
      </trkpt>
      <trkpt lat="45.9218" lon="4.71013">
        <ele>181</ele>
        <time>2017-07-19T10:12:29Z</time>
      </trkpt>
      <trkpt lat="45.92188" lon="4.71015">
        <ele>181</ele>
        <time>2017-07-19T10:12:31Z</time>
      </trkpt>
      <trkpt lat="45.92192" lon="4.71016">
        <ele>181</ele>
        <time>2017-07-19T10:12:32Z</time>
      </trkpt>
      <trkpt lat="45.92199" lon="4.71018">
        <ele>182</ele>
        <time>2017-07-19T10:12:34Z</time>
      </trkpt>
      <trkpt lat="45.92203" lon="4.71019">
        <ele>182</ele>
        <time>2017-07-19T10:12:35Z</time>
      </trkpt>
      <trkpt lat="45.92211" lon="4.71022">
        <ele>182</ele>
        <time>2017-07-19T10:12:38Z</time>
      </trkpt>
      <trkpt lat="45.92213" lon="4.71023">
        <ele>182</ele>
        <time>2017-07-19T10:12:39Z</time>
      </trkpt>
      <trkpt lat="45.9222" lon="4.71026">
        <ele>182</ele>
        <time>2017-07-19T10:12:42Z</time>
      </trkpt>
      <trkpt lat="45.92222" lon="4.71027">
        <ele>182</ele>
        <time>2017-07-19T10:12:43Z</time>
      </trkpt>
      <trkpt lat="45.92227" lon="4.71031">
        <ele>182</ele>
        <time>2017-07-19T10:12:48Z</time>
      </trkpt>
      <trkpt lat="45.92227" lon="4.71031">
        <ele>182</ele>
        <time>2017-07-19T10:12:49Z</time>
      </trkpt>
      <trkpt lat="45.92227" lon="4.71031">
        <ele>182</ele>
        <time>2017-07-19T10:18:17Z</time>
      </trkpt>
      <trkpt lat="45.92227" lon="4.71033">
        <ele>182</ele>
        <time>2017-07-19T10:18:18Z</time>
      </trkpt>
      <trkpt lat="45.92234" lon="4.7104">
        <ele>182</ele>
        <time>2017-07-19T10:18:45Z</time>
      </trkpt>
      <trkpt lat="45.92236" lon="4.7104">
        <ele>182</ele>
        <time>2017-07-19T10:18:46Z</time>
      </trkpt>
      <trkpt lat="45.92244" lon="4.71045">
        <ele>182</ele>
        <time>2017-07-19T10:18:51Z</time>
      </trkpt>
      <trkpt lat="45.92246" lon="4.71046">
        <ele>182</ele>
        <time>2017-07-19T10:18:52Z</time>
      </trkpt>
      <trkpt lat="45.92253" lon="4.71049">
        <ele>183</ele>
        <time>2017-07-19T10:18:55Z</time>
      </trkpt>
      <trkpt lat="45.92255" lon="4.71049">
        <ele>183</ele>
        <time>2017-07-19T10:18:56Z</time>
      </trkpt>
      <trkpt lat="45.92264" lon="4.71052">
        <ele>183</ele>
        <time>2017-07-19T10:19:01Z</time>
      </trkpt>
      <trkpt lat="45.92266" lon="4.71053">
        <ele>183</ele>
        <time>2017-07-19T10:19:02Z</time>
      </trkpt>
      <trkpt lat="45.92275" lon="4.71057">
        <ele>183</ele>
        <time>2017-07-19T10:19:05Z</time>
      </trkpt>
      <trkpt lat="45.92278" lon="4.71058">
        <ele>183</ele>
        <time>2017-07-19T10:19:06Z</time>
      </trkpt>
      <trkpt lat="45.92285" lon="4.71062">
        <ele>183</ele>
        <time>2017-07-19T10:19:08Z</time>
      </trkpt>
      <trkpt lat="45.92288" lon="4.71063">
        <ele>183</ele>
        <time>2017-07-19T10:19:09Z</time>
      </trkpt>
      <trkpt lat="45.92294" lon="4.71065">
        <ele>183</ele>
        <time>2017-07-19T10:19:11Z</time>
      </trkpt>
      <trkpt lat="45.92297" lon="4.71067">
        <ele>183</ele>
        <time>2017-07-19T10:19:12Z</time>
      </trkpt>
      <trkpt lat="45.92304" lon="4.71069">
        <ele>184</ele>
        <time>2017-07-19T10:19:14Z</time>
      </trkpt>
      <trkpt lat="45.92307" lon="4.71071">
        <ele>184</ele>
        <time>2017-07-19T10:19:15Z</time>
      </trkpt>
      <trkpt lat="45.92314" lon="4.71075">
        <ele>184</ele>
        <time>2017-07-19T10:19:17Z</time>
      </trkpt>
      <trkpt lat="45.92318" lon="4.71075">
        <ele>184</ele>
        <time>2017-07-19T10:19:18Z</time>
      </trkpt>
      <trkpt lat="45.92324" lon="4.71079">
        <ele>184</ele>
        <time>2017-07-19T10:19:20Z</time>
      </trkpt>
      <trkpt lat="45.92327" lon="4.71079">
        <ele>184</ele>
        <time>2017-07-19T10:19:21Z</time>
      </trkpt>
      <trkpt lat="45.92336" lon="4.71082">
        <ele>184</ele>
        <time>2017-07-19T10:19:24Z</time>
      </trkpt>
      <trkpt lat="45.92339" lon="4.71084">
        <ele>184</ele>
        <time>2017-07-19T10:19:25Z</time>
      </trkpt>
      <trkpt lat="45.92346" lon="4.71088">
        <ele>184</ele>
        <time>2017-07-19T10:19:27Z</time>
      </trkpt>
      <trkpt lat="45.9235" lon="4.7109">
        <ele>184</ele>
        <time>2017-07-19T10:19:28Z</time>
      </trkpt>
      <trkpt lat="45.92357" lon="4.71093">
        <ele>184</ele>
        <time>2017-07-19T10:19:30Z</time>
      </trkpt>
      <trkpt lat="45.9236" lon="4.71095">
        <ele>184</ele>
        <time>2017-07-19T10:19:31Z</time>
      </trkpt>
      <trkpt lat="45.92366" lon="4.71098">
        <ele>184</ele>
        <time>2017-07-19T10:19:33Z</time>
      </trkpt>
      <trkpt lat="45.92369" lon="4.71101">
        <ele>184</ele>
        <time>2017-07-19T10:19:34Z</time>
      </trkpt>
      <trkpt lat="45.92374" lon="4.71103">
        <ele>184</ele>
        <time>2017-07-19T10:19:36Z</time>
      </trkpt>
      <trkpt lat="45.92377" lon="4.71105">
        <ele>184</ele>
        <time>2017-07-19T10:19:37Z</time>
      </trkpt>
      <trkpt lat="45.92383" lon="4.71109">
        <ele>184</ele>
        <time>2017-07-19T10:19:39Z</time>
      </trkpt>
      <trkpt lat="45.92386" lon="4.71111">
        <ele>184</ele>
        <time>2017-07-19T10:19:40Z</time>
      </trkpt>
      <trkpt lat="45.92393" lon="4.71115">
        <ele>184</ele>
        <time>2017-07-19T10:19:42Z</time>
      </trkpt>
      <trkpt lat="45.92397" lon="4.71117">
        <ele>184</ele>
        <time>2017-07-19T10:19:43Z</time>
      </trkpt>
      <trkpt lat="45.92404" lon="4.71121">
        <ele>184</ele>
        <time>2017-07-19T10:19:45Z</time>
      </trkpt>
      <trkpt lat="45.92407" lon="4.71122">
        <ele>184</ele>
        <time>2017-07-19T10:19:46Z</time>
      </trkpt>
      <trkpt lat="45.92413" lon="4.71128">
        <ele>184</ele>
        <time>2017-07-19T10:19:48Z</time>
      </trkpt>
      <trkpt lat="45.92416" lon="4.71131">
        <ele>184</ele>
        <time>2017-07-19T10:19:49Z</time>
      </trkpt>
      <trkpt lat="45.92422" lon="4.71134">
        <ele>186</ele>
        <time>2017-07-19T10:19:51Z</time>
      </trkpt>
      <trkpt lat="45.92425" lon="4.71136">
        <ele>186</ele>
        <time>2017-07-19T10:19:52Z</time>
      </trkpt>
      <trkpt lat="45.92431" lon="4.7114">
        <ele>186</ele>
        <time>2017-07-19T10:19:54Z</time>
      </trkpt>
      <trkpt lat="45.92434" lon="4.71142">
        <ele>186</ele>
        <time>2017-07-19T10:19:55Z</time>
      </trkpt>
      <trkpt lat="45.9244" lon="4.71145">
        <ele>186</ele>
        <time>2017-07-19T10:19:57Z</time>
      </trkpt>
      <trkpt lat="45.92443" lon="4.71145">
        <ele>186</ele>
        <time>2017-07-19T10:19:58Z</time>
      </trkpt>
      <trkpt lat="45.92451" lon="4.71148">
        <ele>186</ele>
        <time>2017-07-19T10:20:01Z</time>
      </trkpt>
      <trkpt lat="45.92454" lon="4.7115">
        <ele>186</ele>
        <time>2017-07-19T10:20:02Z</time>
      </trkpt>
      <trkpt lat="45.92462" lon="4.71152">
        <ele>186</ele>
        <time>2017-07-19T10:20:04Z</time>
      </trkpt>
      <trkpt lat="45.92465" lon="4.71154">
        <ele>186</ele>
        <time>2017-07-19T10:20:05Z</time>
      </trkpt>
      <trkpt lat="45.92473" lon="4.71158">
        <ele>186</ele>
        <time>2017-07-19T10:20:07Z</time>
      </trkpt>
      <trkpt lat="45.92477" lon="4.71161">
        <ele>186</ele>
        <time>2017-07-19T10:20:08Z</time>
      </trkpt>
      <trkpt lat="45.92485" lon="4.71166">
        <ele>186</ele>
        <time>2017-07-19T10:20:10Z</time>
      </trkpt>
      <trkpt lat="45.92489" lon="4.71167">
        <ele>185</ele>
        <time>2017-07-19T10:20:11Z</time>
      </trkpt>
      <trkpt lat="45.92495" lon="4.7117">
        <ele>185</ele>
        <time>2017-07-19T10:20:13Z</time>
      </trkpt>
      <trkpt lat="45.92498" lon="4.71172">
        <ele>185</ele>
        <time>2017-07-19T10:20:14Z</time>
      </trkpt>
      <trkpt lat="45.92504" lon="4.71175">
        <ele>186</ele>
        <time>2017-07-19T10:20:16Z</time>
      </trkpt>
      <trkpt lat="45.92507" lon="4.71177">
        <ele>186</ele>
        <time>2017-07-19T10:20:17Z</time>
      </trkpt>
      <trkpt lat="45.92515" lon="4.71178">
        <ele>185</ele>
        <time>2017-07-19T10:20:20Z</time>
      </trkpt>
      <trkpt lat="45.92519" lon="4.71179">
        <ele>185</ele>
        <time>2017-07-19T10:20:21Z</time>
      </trkpt>
      <trkpt lat="45.92526" lon="4.71182">
        <ele>185</ele>
        <time>2017-07-19T10:20:23Z</time>
      </trkpt>
      <trkpt lat="45.9253" lon="4.71183">
        <ele>185</ele>
        <time>2017-07-19T10:20:24Z</time>
      </trkpt>
      <trkpt lat="45.92537" lon="4.71184">
        <ele>185</ele>
        <time>2017-07-19T10:20:26Z</time>
      </trkpt>
      <trkpt lat="45.92541" lon="4.71186">
        <ele>185</ele>
        <time>2017-07-19T10:20:27Z</time>
      </trkpt>
      <trkpt lat="45.92548" lon="4.71189">
        <ele>185</ele>
        <time>2017-07-19T10:20:29Z</time>
      </trkpt>
      <trkpt lat="45.92551" lon="4.7119">
        <ele>185</ele>
        <time>2017-07-19T10:20:30Z</time>
      </trkpt>
      <trkpt lat="45.92558" lon="4.71194">
        <ele>185</ele>
        <time>2017-07-19T10:20:32Z</time>
      </trkpt>
      <trkpt lat="45.92561" lon="4.71195">
        <ele>185</ele>
        <time>2017-07-19T10:20:33Z</time>
      </trkpt>
      <trkpt lat="45.92569" lon="4.71197">
        <ele>185</ele>
        <time>2017-07-19T10:20:36Z</time>
      </trkpt>
      <trkpt lat="45.92573" lon="4.71198">
        <ele>185</ele>
        <time>2017-07-19T10:20:37Z</time>
      </trkpt>
      <trkpt lat="45.9258" lon="4.71199">
        <ele>185</ele>
        <time>2017-07-19T10:20:39Z</time>
      </trkpt>
      <trkpt lat="45.92584" lon="4.712">
        <ele>186</ele>
        <time>2017-07-19T10:20:40Z</time>
      </trkpt>
      <trkpt lat="45.92592" lon="4.71203">
        <ele>186</ele>
        <time>2017-07-19T10:20:42Z</time>
      </trkpt>
      <trkpt lat="45.92596" lon="4.71206">
        <ele>186</ele>
        <time>2017-07-19T10:20:43Z</time>
      </trkpt>
      <trkpt lat="45.92603" lon="4.71209">
        <ele>186</ele>
        <time>2017-07-19T10:20:45Z</time>
      </trkpt>
      <trkpt lat="45.92606" lon="4.7121">
        <ele>186</ele>
        <time>2017-07-19T10:20:46Z</time>
      </trkpt>
      <trkpt lat="45.92612" lon="4.71214">
        <ele>186</ele>
        <time>2017-07-19T10:20:48Z</time>
      </trkpt>
      <trkpt lat="45.92614" lon="4.71216">
        <ele>186</ele>
        <time>2017-07-19T10:20:49Z</time>
      </trkpt>
      <trkpt lat="45.92622" lon="4.71221">
        <ele>186</ele>
        <time>2017-07-19T10:20:52Z</time>
      </trkpt>
      <trkpt lat="45.92625" lon="4.71223">
        <ele>186</ele>
        <time>2017-07-19T10:20:53Z</time>
      </trkpt>
      <trkpt lat="45.92632" lon="4.71225">
        <ele>186</ele>
        <time>2017-07-19T10:20:55Z</time>
      </trkpt>
      <trkpt lat="45.92635" lon="4.71227">
        <ele>186</ele>
        <time>2017-07-19T10:20:56Z</time>
      </trkpt>
      <trkpt lat="45.92643" lon="4.7123">
        <ele>187</ele>
        <time>2017-07-19T10:20:58Z</time>
      </trkpt>
      <trkpt lat="45.92646" lon="4.71232">
        <ele>187</ele>
        <time>2017-07-19T10:20:59Z</time>
      </trkpt>
      <trkpt lat="45.92653" lon="4.71235">
        <ele>187</ele>
        <time>2017-07-19T10:21:01Z</time>
      </trkpt>
      <trkpt lat="45.92656" lon="4.71237">
        <ele>187</ele>
        <time>2017-07-19T10:21:02Z</time>
      </trkpt>
      <trkpt lat="45.92663" lon="4.71238">
        <ele>187</ele>
        <time>2017-07-19T10:21:05Z</time>
      </trkpt>
      <trkpt lat="45.92665" lon="4.71239">
        <ele>187</ele>
        <time>2017-07-19T10:21:06Z</time>
      </trkpt>
      <trkpt lat="45.92673" lon="4.71243">
        <ele>188</ele>
        <time>2017-07-19T10:21:09Z</time>
      </trkpt>
      <trkpt lat="45.92675" lon="4.71244">
        <ele>188</ele>
        <time>2017-07-19T10:21:10Z</time>
      </trkpt>
      <trkpt lat="45.92683" lon="4.71248">
        <ele>188</ele>
        <time>2017-07-19T10:21:13Z</time>
      </trkpt>
      <trkpt lat="45.92686" lon="4.71249">
        <ele>188</ele>
        <time>2017-07-19T10:21:14Z</time>
      </trkpt>
      <trkpt lat="45.92695" lon="4.71253">
        <ele>187</ele>
        <time>2017-07-19T10:21:17Z</time>
      </trkpt>
      <trkpt lat="45.92698" lon="4.71253">
        <ele>187</ele>
        <time>2017-07-19T10:21:18Z</time>
      </trkpt>
      <trkpt lat="45.92705" lon="4.71251">
        <ele>187</ele>
        <time>2017-07-19T10:21:21Z</time>
      </trkpt>
      <trkpt lat="45.92708" lon="4.71251">
        <ele>188</ele>
        <time>2017-07-19T10:21:22Z</time>
      </trkpt>
      <trkpt lat="45.92714" lon="4.71253">
        <ele>188</ele>
        <time>2017-07-19T10:21:24Z</time>
      </trkpt>
      <trkpt lat="45.92717" lon="4.71255">
        <ele>188</ele>
        <time>2017-07-19T10:21:25Z</time>
      </trkpt>
      <trkpt lat="45.92725" lon="4.71257">
        <ele>188</ele>
        <time>2017-07-19T10:21:28Z</time>
      </trkpt>
      <trkpt lat="45.92728" lon="4.71257">
        <ele>188</ele>
        <time>2017-07-19T10:21:29Z</time>
      </trkpt>
      <trkpt lat="45.92734" lon="4.71259">
        <ele>188</ele>
        <time>2017-07-19T10:21:31Z</time>
      </trkpt>
      <trkpt lat="45.92737" lon="4.7126">
        <ele>188</ele>
        <time>2017-07-19T10:21:32Z</time>
      </trkpt>
      <trkpt lat="45.92744" lon="4.71263">
        <ele>188</ele>
        <time>2017-07-19T10:21:34Z</time>
      </trkpt>
      <trkpt lat="45.92749" lon="4.71264">
        <ele>188</ele>
        <time>2017-07-19T10:21:35Z</time>
      </trkpt>
      <trkpt lat="45.92756" lon="4.71265">
        <ele>189</ele>
        <time>2017-07-19T10:21:37Z</time>
      </trkpt>
      <trkpt lat="45.9276" lon="4.71265">
        <ele>189</ele>
        <time>2017-07-19T10:21:38Z</time>
      </trkpt>
      <trkpt lat="45.92768" lon="4.71266">
        <ele>189</ele>
        <time>2017-07-19T10:21:40Z</time>
      </trkpt>
      <trkpt lat="45.92771" lon="4.71267">
        <ele>189</ele>
        <time>2017-07-19T10:21:41Z</time>
      </trkpt>
      <trkpt lat="45.92778" lon="4.7127">
        <ele>189</ele>
        <time>2017-07-19T10:21:43Z</time>
      </trkpt>
      <trkpt lat="45.92782" lon="4.71271">
        <ele>189</ele>
        <time>2017-07-19T10:21:44Z</time>
      </trkpt>
      <trkpt lat="45.92788" lon="4.71273">
        <ele>189</ele>
        <time>2017-07-19T10:21:46Z</time>
      </trkpt>
      <trkpt lat="45.92791" lon="4.71274">
        <ele>189</ele>
        <time>2017-07-19T10:21:47Z</time>
      </trkpt>
      <trkpt lat="45.928" lon="4.71276">
        <ele>189</ele>
        <time>2017-07-19T10:21:50Z</time>
      </trkpt>
      <trkpt lat="45.92803" lon="4.71276">
        <ele>189</ele>
        <time>2017-07-19T10:21:51Z</time>
      </trkpt>
      <trkpt lat="45.92811" lon="4.71278">
        <ele>189</ele>
        <time>2017-07-19T10:21:54Z</time>
      </trkpt>
      <trkpt lat="45.92814" lon="4.7128">
        <ele>189</ele>
        <time>2017-07-19T10:21:55Z</time>
      </trkpt>
      <trkpt lat="45.9282" lon="4.71287">
        <ele>189</ele>
        <time>2017-07-19T10:21:57Z</time>
      </trkpt>
      <trkpt lat="45.92821" lon="4.71292">
        <ele>189</ele>
        <time>2017-07-19T10:21:58Z</time>
      </trkpt>
      <trkpt lat="45.92826" lon="4.71303">
        <ele>189</ele>
        <time>2017-07-19T10:22:00Z</time>
      </trkpt>
      <trkpt lat="45.92827" lon="4.71308">
        <ele>189</ele>
        <time>2017-07-19T10:22:01Z</time>
      </trkpt>
      <trkpt lat="45.92829" lon="4.7132">
        <ele>190</ele>
        <time>2017-07-19T10:22:03Z</time>
      </trkpt>
      <trkpt lat="45.9283" lon="4.71326">
        <ele>190</ele>
        <time>2017-07-19T10:22:04Z</time>
      </trkpt>
      <trkpt lat="45.92832" lon="4.71331">
        <ele>190</ele>
        <time>2017-07-19T10:22:05Z</time>
      </trkpt>
      <trkpt lat="45.92833" lon="4.71338">
        <ele>189</ele>
        <time>2017-07-19T10:22:06Z</time>
      </trkpt>
      <trkpt lat="45.92835" lon="4.71344">
        <ele>189</ele>
        <time>2017-07-19T10:22:07Z</time>
      </trkpt>
      <trkpt lat="45.92837" lon="4.71351">
        <ele>189</ele>
        <time>2017-07-19T10:22:08Z</time>
      </trkpt>
      <trkpt lat="45.9284" lon="4.71358">
        <ele>189</ele>
        <time>2017-07-19T10:22:09Z</time>
      </trkpt>
      <trkpt lat="45.92844" lon="4.71365">
        <ele>188</ele>
        <time>2017-07-19T10:22:10Z</time>
      </trkpt>
      <trkpt lat="45.92846" lon="4.71372">
        <ele>188</ele>
        <time>2017-07-19T10:22:11Z</time>
      </trkpt>
      <trkpt lat="45.92848" lon="4.71378">
        <ele>188</ele>
        <time>2017-07-19T10:22:12Z</time>
      </trkpt>
      <trkpt lat="45.92848" lon="4.71385">
        <ele>188</ele>
        <time>2017-07-19T10:22:13Z</time>
      </trkpt>
      <trkpt lat="45.92847" lon="4.71392">
        <ele>187</ele>
        <time>2017-07-19T10:22:14Z</time>
      </trkpt>
      <trkpt lat="45.92843" lon="4.71402">
        <ele>187</ele>
        <time>2017-07-19T10:22:15Z</time>
      </trkpt>
      <trkpt lat="45.9284" lon="4.71412">
        <ele>187</ele>
        <time>2017-07-19T10:22:16Z</time>
      </trkpt>
      <trkpt lat="45.92837" lon="4.71424">
        <ele>185</ele>
        <time>2017-07-19T10:22:17Z</time>
      </trkpt>
      <trkpt lat="45.92833" lon="4.71437">
        <ele>182</ele>
        <time>2017-07-19T10:22:18Z</time>
      </trkpt>
      <trkpt lat="45.9283" lon="4.7145">
        <ele>181</ele>
        <time>2017-07-19T10:22:19Z</time>
      </trkpt>
      <trkpt lat="45.92827" lon="4.71463">
        <ele>180</ele>
        <time>2017-07-19T10:22:20Z</time>
      </trkpt>
      <trkpt lat="45.92823" lon="4.71476">
        <ele>179</ele>
        <time>2017-07-19T10:22:21Z</time>
      </trkpt>
      <trkpt lat="45.9282" lon="4.71489">
        <ele>178</ele>
        <time>2017-07-19T10:22:22Z</time>
      </trkpt>
      <trkpt lat="45.92816" lon="4.71502">
        <ele>175</ele>
        <time>2017-07-19T10:22:23Z</time>
      </trkpt>
      <trkpt lat="45.92812" lon="4.71514">
        <ele>174</ele>
        <time>2017-07-19T10:22:24Z</time>
      </trkpt>
      <trkpt lat="45.92808" lon="4.71526">
        <ele>174</ele>
        <time>2017-07-19T10:22:25Z</time>
      </trkpt>
      <trkpt lat="45.92804" lon="4.71539">
        <ele>173</ele>
        <time>2017-07-19T10:22:26Z</time>
      </trkpt>
      <trkpt lat="45.928" lon="4.71552">
        <ele>173</ele>
        <time>2017-07-19T10:22:27Z</time>
      </trkpt>
      <trkpt lat="45.92794" lon="4.71564">
        <ele>172</ele>
        <time>2017-07-19T10:22:28Z</time>
      </trkpt>
      <trkpt lat="45.92788" lon="4.71574">
        <ele>172</ele>
        <time>2017-07-19T10:22:29Z</time>
      </trkpt>
      <trkpt lat="45.92782" lon="4.71584">
        <ele>171</ele>
        <time>2017-07-19T10:22:30Z</time>
      </trkpt>
      <trkpt lat="45.92775" lon="4.71594">
        <ele>171</ele>
        <time>2017-07-19T10:22:31Z</time>
      </trkpt>
      <trkpt lat="45.92768" lon="4.71604">
        <ele>171</ele>
        <time>2017-07-19T10:22:32Z</time>
      </trkpt>
      <trkpt lat="45.92763" lon="4.71613">
        <ele>171</ele>
        <time>2017-07-19T10:22:33Z</time>
      </trkpt>
      <trkpt lat="45.92758" lon="4.71623">
        <ele>171</ele>
        <time>2017-07-19T10:22:34Z</time>
      </trkpt>
      <trkpt lat="45.92753" lon="4.71632">
        <ele>171</ele>
        <time>2017-07-19T10:22:35Z</time>
      </trkpt>
      <trkpt lat="45.92749" lon="4.71641">
        <ele>172</ele>
        <time>2017-07-19T10:22:36Z</time>
      </trkpt>
      <trkpt lat="45.92744" lon="4.71649">
        <ele>172</ele>
        <time>2017-07-19T10:22:37Z</time>
      </trkpt>
      <trkpt lat="45.9274" lon="4.71655">
        <ele>172</ele>
        <time>2017-07-19T10:22:38Z</time>
      </trkpt>
      <trkpt lat="45.92736" lon="4.71662">
        <ele>172</ele>
        <time>2017-07-19T10:22:39Z</time>
      </trkpt>
      <trkpt lat="45.92732" lon="4.71669">
        <ele>173</ele>
        <time>2017-07-19T10:22:40Z</time>
      </trkpt>
      <trkpt lat="45.92728" lon="4.71675">
        <ele>173</ele>
        <time>2017-07-19T10:22:41Z</time>
      </trkpt>
      <trkpt lat="45.92724" lon="4.71681">
        <ele>173</ele>
        <time>2017-07-19T10:22:42Z</time>
      </trkpt>
      <trkpt lat="45.92721" lon="4.71687">
        <ele>174</ele>
        <time>2017-07-19T10:22:43Z</time>
      </trkpt>
      <trkpt lat="45.92718" lon="4.71693">
        <ele>174</ele>
        <time>2017-07-19T10:22:44Z</time>
      </trkpt>
      <trkpt lat="45.92714" lon="4.71703">
        <ele>174</ele>
        <time>2017-07-19T10:22:46Z</time>
      </trkpt>
      <trkpt lat="45.92711" lon="4.71708">
        <ele>174</ele>
        <time>2017-07-19T10:22:47Z</time>
      </trkpt>
      <trkpt lat="45.92709" lon="4.7172">
        <ele>174</ele>
        <time>2017-07-19T10:22:49Z</time>
      </trkpt>
      <trkpt lat="45.92709" lon="4.71725">
        <ele>174</ele>
        <time>2017-07-19T10:22:50Z</time>
      </trkpt>
      <trkpt lat="45.92707" lon="4.71736">
        <ele>175</ele>
        <time>2017-07-19T10:22:52Z</time>
      </trkpt>
      <trkpt lat="45.92708" lon="4.71742">
        <ele>175</ele>
        <time>2017-07-19T10:22:53Z</time>
      </trkpt>
      <trkpt lat="45.92708" lon="4.7175">
        <ele>175</ele>
        <time>2017-07-19T10:22:54Z</time>
      </trkpt>
      <trkpt lat="45.92708" lon="4.71757">
        <ele>175</ele>
        <time>2017-07-19T10:22:55Z</time>
      </trkpt>
      <trkpt lat="45.92709" lon="4.71764">
        <ele>175</ele>
        <time>2017-07-19T10:22:56Z</time>
      </trkpt>
      <trkpt lat="45.92711" lon="4.71771">
        <ele>175</ele>
        <time>2017-07-19T10:22:57Z</time>
      </trkpt>
      <trkpt lat="45.92712" lon="4.71779">
        <ele>174</ele>
        <time>2017-07-19T10:22:58Z</time>
      </trkpt>
      <trkpt lat="45.92712" lon="4.71786">
        <ele>174</ele>
        <time>2017-07-19T10:22:59Z</time>
      </trkpt>
      <trkpt lat="45.92711" lon="4.71799">
        <ele>174</ele>
        <time>2017-07-19T10:23:01Z</time>
      </trkpt>
      <trkpt lat="45.92711" lon="4.71804">
        <ele>174</ele>
        <time>2017-07-19T10:23:02Z</time>
      </trkpt>
      <trkpt lat="45.92716" lon="4.7181">
        <ele>174</ele>
        <time>2017-07-19T10:23:04Z</time>
      </trkpt>
      <trkpt lat="45.9272" lon="4.71811">
        <ele>174</ele>
        <time>2017-07-19T10:23:05Z</time>
      </trkpt>
      <trkpt lat="45.92728" lon="4.71816">
        <ele>174</ele>
        <time>2017-07-19T10:23:07Z</time>
      </trkpt>
      <trkpt lat="45.92732" lon="4.71819">
        <ele>174</ele>
        <time>2017-07-19T10:23:08Z</time>
      </trkpt>
      <trkpt lat="45.92736" lon="4.71821">
        <ele>174</ele>
        <time>2017-07-19T10:23:09Z</time>
      </trkpt>
      <trkpt lat="45.9274" lon="4.71824">
        <ele>173</ele>
        <time>2017-07-19T10:23:10Z</time>
      </trkpt>
      <trkpt lat="45.92744" lon="4.71828">
        <ele>173</ele>
        <time>2017-07-19T10:23:11Z</time>
      </trkpt>
      <trkpt lat="45.92749" lon="4.7183">
        <ele>173</ele>
        <time>2017-07-19T10:23:12Z</time>
      </trkpt>
      <trkpt lat="45.92756" lon="4.71835">
        <ele>173</ele>
        <time>2017-07-19T10:23:14Z</time>
      </trkpt>
      <trkpt lat="45.9276" lon="4.71838">
        <ele>172</ele>
        <time>2017-07-19T10:23:15Z</time>
      </trkpt>
      <trkpt lat="45.92764" lon="4.71841">
        <ele>172</ele>
        <time>2017-07-19T10:23:16Z</time>
      </trkpt>
      <trkpt lat="45.92769" lon="4.71843">
        <ele>172</ele>
        <time>2017-07-19T10:23:17Z</time>
      </trkpt>
      <trkpt lat="45.92773" lon="4.71846">
        <ele>172</ele>
        <time>2017-07-19T10:23:18Z</time>
      </trkpt>
      <trkpt lat="45.92778" lon="4.71848">
        <ele>172</ele>
        <time>2017-07-19T10:23:19Z</time>
      </trkpt>
      <trkpt lat="45.92783" lon="4.7185">
        <ele>172</ele>
        <time>2017-07-19T10:23:20Z</time>
      </trkpt>
      <trkpt lat="45.92788" lon="4.71852">
        <ele>172</ele>
        <time>2017-07-19T10:23:21Z</time>
      </trkpt>
      <trkpt lat="45.92792" lon="4.71855">
        <ele>172</ele>
        <time>2017-07-19T10:23:22Z</time>
      </trkpt>
      <trkpt lat="45.92798" lon="4.71856">
        <ele>172</ele>
        <time>2017-07-19T10:23:23Z</time>
      </trkpt>
      <trkpt lat="45.92803" lon="4.71858">
        <ele>172</ele>
        <time>2017-07-19T10:23:24Z</time>
      </trkpt>
      <trkpt lat="45.92808" lon="4.71861">
        <ele>172</ele>
        <time>2017-07-19T10:23:25Z</time>
      </trkpt>
      <trkpt lat="45.92813" lon="4.71863">
        <ele>172</ele>
        <time>2017-07-19T10:23:26Z</time>
      </trkpt>
      <trkpt lat="45.92819" lon="4.71865">
        <ele>172</ele>
        <time>2017-07-19T10:23:27Z</time>
      </trkpt>
      <trkpt lat="45.92823" lon="4.71868">
        <ele>172</ele>
        <time>2017-07-19T10:23:28Z</time>
      </trkpt>
      <trkpt lat="45.92828" lon="4.71871">
        <ele>172</ele>
        <time>2017-07-19T10:23:29Z</time>
      </trkpt>
      <trkpt lat="45.92834" lon="4.71872">
        <ele>171</ele>
        <time>2017-07-19T10:23:30Z</time>
      </trkpt>
      <trkpt lat="45.92839" lon="4.71874">
        <ele>171</ele>
        <time>2017-07-19T10:23:31Z</time>
      </trkpt>
      <trkpt lat="45.92844" lon="4.71876">
        <ele>171</ele>
        <time>2017-07-19T10:23:32Z</time>
      </trkpt>
      <trkpt lat="45.92848" lon="4.7188">
        <ele>171</ele>
        <time>2017-07-19T10:23:33Z</time>
      </trkpt>
      <trkpt lat="45.92853" lon="4.71882">
        <ele>171</ele>
        <time>2017-07-19T10:23:34Z</time>
      </trkpt>
      <trkpt lat="45.92858" lon="4.71885">
        <ele>171</ele>
        <time>2017-07-19T10:23:35Z</time>
      </trkpt>
      <trkpt lat="45.92862" lon="4.7189">
        <ele>171</ele>
        <time>2017-07-19T10:23:36Z</time>
      </trkpt>
      <trkpt lat="45.92866" lon="4.71892">
        <ele>171</ele>
        <time>2017-07-19T10:23:37Z</time>
      </trkpt>
      <trkpt lat="45.9287" lon="4.71894">
        <ele>171</ele>
        <time>2017-07-19T10:23:38Z</time>
      </trkpt>
      <trkpt lat="45.92875" lon="4.71896">
        <ele>171</ele>
        <time>2017-07-19T10:23:39Z</time>
      </trkpt>
      <trkpt lat="45.9288" lon="4.71899">
        <ele>171</ele>
        <time>2017-07-19T10:23:40Z</time>
      </trkpt>
      <trkpt lat="45.92885" lon="4.71905">
        <ele>171</ele>
        <time>2017-07-19T10:23:41Z</time>
      </trkpt>
      <trkpt lat="45.92891" lon="4.71908">
        <ele>171</ele>
        <time>2017-07-19T10:23:42Z</time>
      </trkpt>
      <trkpt lat="45.92896" lon="4.71912">
        <ele>171</ele>
        <time>2017-07-19T10:23:43Z</time>
      </trkpt>
      <trkpt lat="45.92902" lon="4.71916">
        <ele>171</ele>
        <time>2017-07-19T10:23:44Z</time>
      </trkpt>
      <trkpt lat="45.92907" lon="4.71919">
        <ele>171</ele>
        <time>2017-07-19T10:23:45Z</time>
      </trkpt>
      <trkpt lat="45.92911" lon="4.71922">
        <ele>171</ele>
        <time>2017-07-19T10:23:46Z</time>
      </trkpt>
      <trkpt lat="45.92916" lon="4.71926">
        <ele>171</ele>
        <time>2017-07-19T10:23:47Z</time>
      </trkpt>
      <trkpt lat="45.92921" lon="4.71929">
        <ele>170</ele>
        <time>2017-07-19T10:23:48Z</time>
      </trkpt>
      <trkpt lat="45.92926" lon="4.71932">
        <ele>170</ele>
        <time>2017-07-19T10:23:49Z</time>
      </trkpt>
      <trkpt lat="45.92931" lon="4.71934">
        <ele>170</ele>
        <time>2017-07-19T10:23:50Z</time>
      </trkpt>
      <trkpt lat="45.92936" lon="4.71937">
        <ele>170</ele>
        <time>2017-07-19T10:23:51Z</time>
      </trkpt>
      <trkpt lat="45.9294" lon="4.71939">
        <ele>170</ele>
        <time>2017-07-19T10:23:52Z</time>
      </trkpt>
      <trkpt lat="45.92945" lon="4.7194">
        <ele>170</ele>
        <time>2017-07-19T10:23:53Z</time>
      </trkpt>
      <trkpt lat="45.9295" lon="4.71942">
        <ele>169</ele>
        <time>2017-07-19T10:23:54Z</time>
      </trkpt>
      <trkpt lat="45.92954" lon="4.71944">
        <ele>169</ele>
        <time>2017-07-19T10:23:55Z</time>
      </trkpt>
      <trkpt lat="45.92959" lon="4.71946">
        <ele>169</ele>
        <time>2017-07-19T10:23:56Z</time>
      </trkpt>
      <trkpt lat="45.92963" lon="4.71948">
        <ele>169</ele>
        <time>2017-07-19T10:23:57Z</time>
      </trkpt>
      <trkpt lat="45.92971" lon="4.7195">
        <ele>169</ele>
        <time>2017-07-19T10:23:59Z</time>
      </trkpt>
      <trkpt lat="45.92976" lon="4.71951">
        <ele>169</ele>
        <time>2017-07-19T10:24:00Z</time>
      </trkpt>
      <trkpt lat="45.92981" lon="4.71952">
        <ele>169</ele>
        <time>2017-07-19T10:24:01Z</time>
      </trkpt>
      <trkpt lat="45.92986" lon="4.71954">
        <ele>169</ele>
        <time>2017-07-19T10:24:02Z</time>
      </trkpt>
      <trkpt lat="45.92992" lon="4.71954">
        <ele>169</ele>
        <time>2017-07-19T10:24:03Z</time>
      </trkpt>
      <trkpt lat="45.92997" lon="4.71955">
        <ele>169</ele>
        <time>2017-07-19T10:24:04Z</time>
      </trkpt>
      <trkpt lat="45.93003" lon="4.71957">
        <ele>169</ele>
        <time>2017-07-19T10:24:05Z</time>
      </trkpt>
      <trkpt lat="45.93008" lon="4.7196">
        <ele>169</ele>
        <time>2017-07-19T10:24:06Z</time>
      </trkpt>
      <trkpt lat="45.93014" lon="4.71961">
        <ele>169</ele>
        <time>2017-07-19T10:24:07Z</time>
      </trkpt>
      <trkpt lat="45.93019" lon="4.71964">
        <ele>169</ele>
        <time>2017-07-19T10:24:08Z</time>
      </trkpt>
      <trkpt lat="45.93025" lon="4.71965">
        <ele>169</ele>
        <time>2017-07-19T10:24:09Z</time>
      </trkpt>
      <trkpt lat="45.9303" lon="4.71968">
        <ele>169</ele>
        <time>2017-07-19T10:24:10Z</time>
      </trkpt>
      <trkpt lat="45.93035" lon="4.71969">
        <ele>169</ele>
        <time>2017-07-19T10:24:11Z</time>
      </trkpt>
      <trkpt lat="45.9304" lon="4.71971">
        <ele>169</ele>
        <time>2017-07-19T10:24:12Z</time>
      </trkpt>
      <trkpt lat="45.93045" lon="4.71972">
        <ele>169</ele>
        <time>2017-07-19T10:24:13Z</time>
      </trkpt>
      <trkpt lat="45.9305" lon="4.71975">
        <ele>169</ele>
        <time>2017-07-19T10:24:14Z</time>
      </trkpt>
      <trkpt lat="45.93055" lon="4.71976">
        <ele>169</ele>
        <time>2017-07-19T10:24:15Z</time>
      </trkpt>
      <trkpt lat="45.9306" lon="4.71977">
        <ele>169</ele>
        <time>2017-07-19T10:24:16Z</time>
      </trkpt>
      <trkpt lat="45.93064" lon="4.7198">
        <ele>169</ele>
        <time>2017-07-19T10:24:17Z</time>
      </trkpt>
      <trkpt lat="45.93069" lon="4.71982">
        <ele>169</ele>
        <time>2017-07-19T10:24:18Z</time>
      </trkpt>
      <trkpt lat="45.93073" lon="4.71983">
        <ele>169</ele>
        <time>2017-07-19T10:24:19Z</time>
      </trkpt>
      <trkpt lat="45.93078" lon="4.71984">
        <ele>169</ele>
        <time>2017-07-19T10:24:20Z</time>
      </trkpt>
      <trkpt lat="45.93082" lon="4.71985">
        <ele>169</ele>
        <time>2017-07-19T10:24:21Z</time>
      </trkpt>
      <trkpt lat="45.93087" lon="4.71986">
        <ele>169</ele>
        <time>2017-07-19T10:24:22Z</time>
      </trkpt>
      <trkpt lat="45.93092" lon="4.71988">
        <ele>169</ele>
        <time>2017-07-19T10:24:23Z</time>
      </trkpt>
      <trkpt lat="45.93098" lon="4.71991">
        <ele>169</ele>
        <time>2017-07-19T10:24:24Z</time>
      </trkpt>
      <trkpt lat="45.93103" lon="4.71993">
        <ele>169</ele>
        <time>2017-07-19T10:24:25Z</time>
      </trkpt>
      <trkpt lat="45.93109" lon="4.71996">
        <ele>169</ele>
        <time>2017-07-19T10:24:26Z</time>
      </trkpt>
      <trkpt lat="45.93114" lon="4.71998">
        <ele>169</ele>
        <time>2017-07-19T10:24:27Z</time>
      </trkpt>
      <trkpt lat="45.93119" lon="4.72">
        <ele>169</ele>
        <time>2017-07-19T10:24:28Z</time>
      </trkpt>
      <trkpt lat="45.93124" lon="4.72002">
        <ele>169</ele>
        <time>2017-07-19T10:24:29Z</time>
      </trkpt>
      <trkpt lat="45.93129" lon="4.72003">
        <ele>169</ele>
        <time>2017-07-19T10:24:30Z</time>
      </trkpt>
      <trkpt lat="45.93133" lon="4.72004">
        <ele>169</ele>
        <time>2017-07-19T10:24:31Z</time>
      </trkpt>
      <trkpt lat="45.93138" lon="4.72005">
        <ele>169</ele>
        <time>2017-07-19T10:24:32Z</time>
      </trkpt>
      <trkpt lat="45.93145" lon="4.72007">
        <ele>169</ele>
        <time>2017-07-19T10:24:34Z</time>
      </trkpt>
      <trkpt lat="45.9315" lon="4.72008">
        <ele>169</ele>
        <time>2017-07-19T10:24:35Z</time>
      </trkpt>
      <trkpt lat="45.93158" lon="4.72011">
        <ele>169</ele>
        <time>2017-07-19T10:24:37Z</time>
      </trkpt>
      <trkpt lat="45.93162" lon="4.72012">
        <ele>169</ele>
        <time>2017-07-19T10:24:38Z</time>
      </trkpt>
      <trkpt lat="45.93169" lon="4.72013">
        <ele>169</ele>
        <time>2017-07-19T10:24:40Z</time>
      </trkpt>
      <trkpt lat="45.93172" lon="4.72014">
        <ele>169</ele>
        <time>2017-07-19T10:24:41Z</time>
      </trkpt>
      <trkpt lat="45.93177" lon="4.72018">
        <ele>170</ele>
        <time>2017-07-19T10:24:43Z</time>
      </trkpt>
      <trkpt lat="45.93179" lon="4.72022">
        <ele>170</ele>
        <time>2017-07-19T10:24:44Z</time>
      </trkpt>
      <trkpt lat="45.9318" lon="4.72034">
        <ele>170</ele>
        <time>2017-07-19T10:24:46Z</time>
      </trkpt>
      <trkpt lat="45.9318" lon="4.72039">
        <ele>170</ele>
        <time>2017-07-19T10:24:47Z</time>
      </trkpt>
      <trkpt lat="45.9318" lon="4.72045">
        <ele>170</ele>
        <time>2017-07-19T10:24:48Z</time>
      </trkpt>
      <trkpt lat="45.9318" lon="4.72052">
        <ele>170</ele>
        <time>2017-07-19T10:24:49Z</time>
      </trkpt>
      <trkpt lat="45.93179" lon="4.7206">
        <ele>170</ele>
        <time>2017-07-19T10:24:50Z</time>
      </trkpt>
      <trkpt lat="45.93179" lon="4.72067">
        <ele>170</ele>
        <time>2017-07-19T10:24:51Z</time>
      </trkpt>
      <trkpt lat="45.93178" lon="4.72076">
        <ele>169</ele>
        <time>2017-07-19T10:24:52Z</time>
      </trkpt>
      <trkpt lat="45.93176" lon="4.72083">
        <ele>169</ele>
        <time>2017-07-19T10:24:53Z</time>
      </trkpt>
      <trkpt lat="45.93175" lon="4.7209">
        <ele>169</ele>
        <time>2017-07-19T10:24:54Z</time>
      </trkpt>
      <trkpt lat="45.93174" lon="4.72097">
        <ele>169</ele>
        <time>2017-07-19T10:24:55Z</time>
      </trkpt>
      <trkpt lat="45.93172" lon="4.72104">
        <ele>169</ele>
        <time>2017-07-19T10:24:56Z</time>
      </trkpt>
      <trkpt lat="45.93172" lon="4.7211">
        <ele>170</ele>
        <time>2017-07-19T10:24:57Z</time>
      </trkpt>
      <trkpt lat="45.9317" lon="4.72122">
        <ele>170</ele>
        <time>2017-07-19T10:24:59Z</time>
      </trkpt>
      <trkpt lat="45.93169" lon="4.72128">
        <ele>170</ele>
        <time>2017-07-19T10:25:00Z</time>
      </trkpt>
      <trkpt lat="45.93168" lon="4.72141">
        <ele>170</ele>
        <time>2017-07-19T10:25:02Z</time>
      </trkpt>
      <trkpt lat="45.93168" lon="4.72147">
        <ele>170</ele>
        <time>2017-07-19T10:25:03Z</time>
      </trkpt>
      <trkpt lat="45.93167" lon="4.72154">
        <ele>169</ele>
        <time>2017-07-19T10:25:04Z</time>
      </trkpt>
      <trkpt lat="45.93166" lon="4.72164">
        <ele>169</ele>
        <time>2017-07-19T10:25:05Z</time>
      </trkpt>
      <trkpt lat="45.93165" lon="4.72173">
        <ele>169</ele>
        <time>2017-07-19T10:25:06Z</time>
      </trkpt>
      <trkpt lat="45.93164" lon="4.7218">
        <ele>169</ele>
        <time>2017-07-19T10:25:07Z</time>
      </trkpt>
      <trkpt lat="45.93164" lon="4.72188">
        <ele>170</ele>
        <time>2017-07-19T10:25:08Z</time>
      </trkpt>
      <trkpt lat="45.93165" lon="4.72196">
        <ele>170</ele>
        <time>2017-07-19T10:25:09Z</time>
      </trkpt>
      <trkpt lat="45.93168" lon="4.72206">
        <ele>170</ele>
        <time>2017-07-19T10:25:11Z</time>
      </trkpt>
      <trkpt lat="45.93171" lon="4.7221">
        <ele>170</ele>
        <time>2017-07-19T10:25:12Z</time>
      </trkpt>
      <trkpt lat="45.93179" lon="4.72213">
        <ele>170</ele>
        <time>2017-07-19T10:25:14Z</time>
      </trkpt>
      <trkpt lat="45.93183" lon="4.72213">
        <ele>170</ele>
        <time>2017-07-19T10:25:15Z</time>
      </trkpt>
      <trkpt lat="45.93188" lon="4.72215">
        <ele>170</ele>
        <time>2017-07-19T10:25:16Z</time>
      </trkpt>
      <trkpt lat="45.93192" lon="4.7221">
        <ele>171</ele>
        <time>2017-07-19T10:25:17Z</time>
      </trkpt>
      <trkpt lat="45.93197" lon="4.7221">
        <ele>171</ele>
        <time>2017-07-19T10:25:18Z</time>
      </trkpt>
      <trkpt lat="45.93202" lon="4.72211">
        <ele>171</ele>
        <time>2017-07-19T10:25:19Z</time>
      </trkpt>
      <trkpt lat="45.93209" lon="4.72212">
        <ele>171</ele>
        <time>2017-07-19T10:25:20Z</time>
      </trkpt>
      <trkpt lat="45.93214" lon="4.72211">
        <ele>171</ele>
        <time>2017-07-19T10:25:21Z</time>
      </trkpt>
      <trkpt lat="45.9322" lon="4.7221">
        <ele>171</ele>
        <time>2017-07-19T10:25:22Z</time>
      </trkpt>
      <trkpt lat="45.93224" lon="4.72209">
        <ele>171</ele>
        <time>2017-07-19T10:25:23Z</time>
      </trkpt>
      <trkpt lat="45.93229" lon="4.72208">
        <ele>171</ele>
        <time>2017-07-19T10:25:24Z</time>
      </trkpt>
      <trkpt lat="45.93234" lon="4.72208">
        <ele>171</ele>
        <time>2017-07-19T10:25:25Z</time>
      </trkpt>
      <trkpt lat="45.9324" lon="4.72207">
        <ele>171</ele>
        <time>2017-07-19T10:25:26Z</time>
      </trkpt>
      <trkpt lat="45.93246" lon="4.72207">
        <ele>171</ele>
        <time>2017-07-19T10:25:27Z</time>
      </trkpt>
      <trkpt lat="45.93252" lon="4.72207">
        <ele>174</ele>
        <time>2017-07-19T10:25:28Z</time>
      </trkpt>
      <trkpt lat="45.93258" lon="4.72208">
        <ele>174</ele>
        <time>2017-07-19T10:25:29Z</time>
      </trkpt>
      <trkpt lat="45.93264" lon="4.72209">
        <ele>174</ele>
        <time>2017-07-19T10:25:30Z</time>
      </trkpt>
      <trkpt lat="45.93271" lon="4.72211">
        <ele>174</ele>
        <time>2017-07-19T10:25:31Z</time>
      </trkpt>
      <trkpt lat="45.93277" lon="4.72211">
        <ele>174</ele>
        <time>2017-07-19T10:25:32Z</time>
      </trkpt>
      <trkpt lat="45.93283" lon="4.72212">
        <ele>174</ele>
        <time>2017-07-19T10:25:33Z</time>
      </trkpt>
      <trkpt lat="45.93289" lon="4.72212">
        <ele>175</ele>
        <time>2017-07-19T10:25:34Z</time>
      </trkpt>
      <trkpt lat="45.93295" lon="4.72211">
        <ele>175</ele>
        <time>2017-07-19T10:25:35Z</time>
      </trkpt>
      <trkpt lat="45.93302" lon="4.7221">
        <ele>175</ele>
        <time>2017-07-19T10:25:36Z</time>
      </trkpt>
      <trkpt lat="45.93306" lon="4.72209">
        <ele>175</ele>
        <time>2017-07-19T10:25:37Z</time>
      </trkpt>
      <trkpt lat="45.93312" lon="4.72208">
        <ele>175</ele>
        <time>2017-07-19T10:25:38Z</time>
      </trkpt>
      <trkpt lat="45.93316" lon="4.72207">
        <ele>176</ele>
        <time>2017-07-19T10:25:39Z</time>
      </trkpt>
      <trkpt lat="45.93321" lon="4.72205">
        <ele>176</ele>
        <time>2017-07-19T10:25:40Z</time>
      </trkpt>
      <trkpt lat="45.93327" lon="4.72204">
        <ele>176</ele>
        <time>2017-07-19T10:25:41Z</time>
      </trkpt>
      <trkpt lat="45.93333" lon="4.72202">
        <ele>176</ele>
        <time>2017-07-19T10:25:42Z</time>
      </trkpt>
      <trkpt lat="45.93337" lon="4.72201">
        <ele>177</ele>
        <time>2017-07-19T10:25:43Z</time>
      </trkpt>
      <trkpt lat="45.93343" lon="4.72199">
        <ele>177</ele>
        <time>2017-07-19T10:25:44Z</time>
      </trkpt>
      <trkpt lat="45.93349" lon="4.72197">
        <ele>177</ele>
        <time>2017-07-19T10:25:45Z</time>
      </trkpt>
      <trkpt lat="45.93354" lon="4.72194">
        <ele>177</ele>
        <time>2017-07-19T10:25:46Z</time>
      </trkpt>
      <trkpt lat="45.9336" lon="4.72194">
        <ele>177</ele>
        <time>2017-07-19T10:25:47Z</time>
      </trkpt>
      <trkpt lat="45.93366" lon="4.72192">
        <ele>177</ele>
        <time>2017-07-19T10:25:48Z</time>
      </trkpt>
      <trkpt lat="45.93371" lon="4.7219">
        <ele>177</ele>
        <time>2017-07-19T10:25:49Z</time>
      </trkpt>
      <trkpt lat="45.93376" lon="4.72189">
        <ele>177</ele>
        <time>2017-07-19T10:25:50Z</time>
      </trkpt>
      <trkpt lat="45.93381" lon="4.72187">
        <ele>177</ele>
        <time>2017-07-19T10:25:51Z</time>
      </trkpt>
      <trkpt lat="45.93386" lon="4.72186">
        <ele>177</ele>
        <time>2017-07-19T10:25:52Z</time>
      </trkpt>
      <trkpt lat="45.93391" lon="4.72184">
        <ele>177</ele>
        <time>2017-07-19T10:25:53Z</time>
      </trkpt>
      <trkpt lat="45.93396" lon="4.72182">
        <ele>177</ele>
        <time>2017-07-19T10:25:54Z</time>
      </trkpt>
      <trkpt lat="45.93402" lon="4.72181">
        <ele>177</ele>
        <time>2017-07-19T10:25:55Z</time>
      </trkpt>
      <trkpt lat="45.93407" lon="4.7218">
        <ele>177</ele>
        <time>2017-07-19T10:25:56Z</time>
      </trkpt>
      <trkpt lat="45.93412" lon="4.72178">
        <ele>177</ele>
        <time>2017-07-19T10:25:57Z</time>
      </trkpt>
      <trkpt lat="45.93417" lon="4.72182">
        <ele>175</ele>
        <time>2017-07-19T10:25:58Z</time>
      </trkpt>
      <trkpt lat="45.93421" lon="4.72181">
        <ele>175</ele>
        <time>2017-07-19T10:25:59Z</time>
      </trkpt>
      <trkpt lat="45.93426" lon="4.72181">
        <ele>175</ele>
        <time>2017-07-19T10:26:00Z</time>
      </trkpt>
      <trkpt lat="45.9343" lon="4.7218">
        <ele>175</ele>
        <time>2017-07-19T10:26:01Z</time>
      </trkpt>
      <trkpt lat="45.93439" lon="4.72177">
        <ele>175</ele>
        <time>2017-07-19T10:26:03Z</time>
      </trkpt>
      <trkpt lat="45.93442" lon="4.72176">
        <ele>175</ele>
        <time>2017-07-19T10:26:04Z</time>
      </trkpt>
      <trkpt lat="45.93447" lon="4.72176">
        <ele>174</ele>
        <time>2017-07-19T10:26:05Z</time>
      </trkpt>
      <trkpt lat="45.93451" lon="4.72176">
        <ele>174</ele>
        <time>2017-07-19T10:26:06Z</time>
      </trkpt>
      <trkpt lat="45.9346" lon="4.72177">
        <ele>174</ele>
        <time>2017-07-19T10:26:08Z</time>
      </trkpt>
      <trkpt lat="45.93464" lon="4.72178">
        <ele>174</ele>
        <time>2017-07-19T10:26:09Z</time>
      </trkpt>
      <trkpt lat="45.93472" lon="4.7218">
        <ele>174</ele>
        <time>2017-07-19T10:26:11Z</time>
      </trkpt>
      <trkpt lat="45.93476" lon="4.72181">
        <ele>173</ele>
        <time>2017-07-19T10:26:12Z</time>
      </trkpt>
      <trkpt lat="45.93482" lon="4.72182">
        <ele>173</ele>
        <time>2017-07-19T10:26:13Z</time>
      </trkpt>
      <trkpt lat="45.93487" lon="4.72183">
        <ele>173</ele>
        <time>2017-07-19T10:26:14Z</time>
      </trkpt>
      <trkpt lat="45.93492" lon="4.72184">
        <ele>173</ele>
        <time>2017-07-19T10:26:15Z</time>
      </trkpt>
      <trkpt lat="45.93497" lon="4.72186">
        <ele>173</ele>
        <time>2017-07-19T10:26:16Z</time>
      </trkpt>
      <trkpt lat="45.93502" lon="4.72188">
        <ele>173</ele>
        <time>2017-07-19T10:26:17Z</time>
      </trkpt>
      <trkpt lat="45.93507" lon="4.72191">
        <ele>173</ele>
        <time>2017-07-19T10:26:18Z</time>
      </trkpt>
      <trkpt lat="45.93512" lon="4.72193">
        <ele>173</ele>
        <time>2017-07-19T10:26:19Z</time>
      </trkpt>
      <trkpt lat="45.93517" lon="4.72195">
        <ele>173</ele>
        <time>2017-07-19T10:26:20Z</time>
      </trkpt>
      <trkpt lat="45.93521" lon="4.72195">
        <ele>173</ele>
        <time>2017-07-19T10:26:21Z</time>
      </trkpt>
      <trkpt lat="45.93526" lon="4.72195">
        <ele>173</ele>
        <time>2017-07-19T10:26:22Z</time>
      </trkpt>
      <trkpt lat="45.93534" lon="4.72196">
        <ele>173</ele>
        <time>2017-07-19T10:26:24Z</time>
      </trkpt>
      <trkpt lat="45.93537" lon="4.72197">
        <ele>173</ele>
        <time>2017-07-19T10:26:25Z</time>
      </trkpt>
      <trkpt lat="45.93545" lon="4.72202">
        <ele>173</ele>
        <time>2017-07-19T10:26:28Z</time>
      </trkpt>
      <trkpt lat="45.93547" lon="4.72206">
        <ele>173</ele>
        <time>2017-07-19T10:26:29Z</time>
      </trkpt>
      <trkpt lat="45.93547" lon="4.72215">
        <ele>173</ele>
        <time>2017-07-19T10:26:31Z</time>
      </trkpt>
      <trkpt lat="45.93546" lon="4.7222">
        <ele>172</ele>
        <time>2017-07-19T10:26:32Z</time>
      </trkpt>
      <trkpt lat="45.93543" lon="4.7223">
        <ele>172</ele>
        <time>2017-07-19T10:26:34Z</time>
      </trkpt>
      <trkpt lat="45.93541" lon="4.72235">
        <ele>172</ele>
        <time>2017-07-19T10:26:35Z</time>
      </trkpt>
      <trkpt lat="45.93539" lon="4.72242">
        <ele>172</ele>
        <time>2017-07-19T10:26:36Z</time>
      </trkpt>
      <trkpt lat="45.93536" lon="4.72247">
        <ele>172</ele>
        <time>2017-07-19T10:26:37Z</time>
      </trkpt>
      <trkpt lat="45.93534" lon="4.72252">
        <ele>172</ele>
        <time>2017-07-19T10:26:38Z</time>
      </trkpt>
      <trkpt lat="45.93532" lon="4.72259">
        <ele>172</ele>
        <time>2017-07-19T10:26:39Z</time>
      </trkpt>
      <trkpt lat="45.9353" lon="4.72266">
        <ele>172</ele>
        <time>2017-07-19T10:26:40Z</time>
      </trkpt>
      <trkpt lat="45.93528" lon="4.72273">
        <ele>172</ele>
        <time>2017-07-19T10:26:41Z</time>
      </trkpt>
      <trkpt lat="45.93525" lon="4.72279">
        <ele>172</ele>
        <time>2017-07-19T10:26:42Z</time>
      </trkpt>
      <trkpt lat="45.93523" lon="4.72286">
        <ele>172</ele>
        <time>2017-07-19T10:26:43Z</time>
      </trkpt>
      <trkpt lat="45.9352" lon="4.72293">
        <ele>172</ele>
        <time>2017-07-19T10:26:44Z</time>
      </trkpt>
      <trkpt lat="45.93517" lon="4.72299">
        <ele>172</ele>
        <time>2017-07-19T10:26:45Z</time>
      </trkpt>
      <trkpt lat="45.93514" lon="4.72305">
        <ele>173</ele>
        <time>2017-07-19T10:26:46Z</time>
      </trkpt>
      <trkpt lat="45.93514" lon="4.72313">
        <ele>173</ele>
        <time>2017-07-19T10:26:47Z</time>
      </trkpt>
      <trkpt lat="45.93514" lon="4.7232">
        <ele>173</ele>
        <time>2017-07-19T10:26:48Z</time>
      </trkpt>
      <trkpt lat="45.93516" lon="4.72327">
        <ele>173</ele>
        <time>2017-07-19T10:26:49Z</time>
      </trkpt>
      <trkpt lat="45.9352" lon="4.72334">
        <ele>173</ele>
        <time>2017-07-19T10:26:50Z</time>
      </trkpt>
      <trkpt lat="45.93523" lon="4.72341">
        <ele>173</ele>
        <time>2017-07-19T10:26:51Z</time>
      </trkpt>
      <trkpt lat="45.93526" lon="4.72349">
        <ele>173</ele>
        <time>2017-07-19T10:26:52Z</time>
      </trkpt>
      <trkpt lat="45.9353" lon="4.72356">
        <ele>173</ele>
        <time>2017-07-19T10:26:53Z</time>
      </trkpt>
      <trkpt lat="45.93532" lon="4.72363">
        <ele>173</ele>
        <time>2017-07-19T10:26:54Z</time>
      </trkpt>
      <trkpt lat="45.93535" lon="4.72371">
        <ele>173</ele>
        <time>2017-07-19T10:26:55Z</time>
      </trkpt>
      <trkpt lat="45.93537" lon="4.72377">
        <ele>173</ele>
        <time>2017-07-19T10:26:56Z</time>
      </trkpt>
      <trkpt lat="45.93539" lon="4.72385">
        <ele>173</ele>
        <time>2017-07-19T10:26:57Z</time>
      </trkpt>
      <trkpt lat="45.93542" lon="4.72392">
        <ele>173</ele>
        <time>2017-07-19T10:26:58Z</time>
      </trkpt>
      <trkpt lat="45.93543" lon="4.72399">
        <ele>173</ele>
        <time>2017-07-19T10:26:59Z</time>
      </trkpt>
      <trkpt lat="45.93545" lon="4.72406">
        <ele>173</ele>
        <time>2017-07-19T10:27:00Z</time>
      </trkpt>
      <trkpt lat="45.93546" lon="4.72412">
        <ele>173</ele>
        <time>2017-07-19T10:27:01Z</time>
      </trkpt>
      <trkpt lat="45.93547" lon="4.72419">
        <ele>172</ele>
        <time>2017-07-19T10:27:02Z</time>
      </trkpt>
      <trkpt lat="45.93547" lon="4.72425">
        <ele>172</ele>
        <time>2017-07-19T10:27:03Z</time>
      </trkpt>
      <trkpt lat="45.93547" lon="4.72433">
        <ele>172</ele>
        <time>2017-07-19T10:27:04Z</time>
      </trkpt>
      <trkpt lat="45.93546" lon="4.7244">
        <ele>172</ele>
        <time>2017-07-19T10:27:05Z</time>
      </trkpt>
      <trkpt lat="45.93546" lon="4.72447">
        <ele>172</ele>
        <time>2017-07-19T10:27:06Z</time>
      </trkpt>
      <trkpt lat="45.93546" lon="4.72453">
        <ele>172</ele>
        <time>2017-07-19T10:27:07Z</time>
      </trkpt>
      <trkpt lat="45.9355" lon="4.72464">
        <ele>172</ele>
        <time>2017-07-19T10:27:09Z</time>
      </trkpt>
      <trkpt lat="45.93552" lon="4.72469">
        <ele>172</ele>
        <time>2017-07-19T10:27:10Z</time>
      </trkpt>
      <trkpt lat="45.93556" lon="4.72479">
        <ele>172</ele>
        <time>2017-07-19T10:27:12Z</time>
      </trkpt>
      <trkpt lat="45.93558" lon="4.72485">
        <ele>172</ele>
        <time>2017-07-19T10:27:13Z</time>
      </trkpt>
      <trkpt lat="45.93563" lon="4.72495">
        <ele>172</ele>
        <time>2017-07-19T10:27:15Z</time>
      </trkpt>
      <trkpt lat="45.93565" lon="4.72502">
        <ele>172</ele>
        <time>2017-07-19T10:27:16Z</time>
      </trkpt>
      <trkpt lat="45.93568" lon="4.72508">
        <ele>172</ele>
        <time>2017-07-19T10:27:17Z</time>
      </trkpt>
      <trkpt lat="45.9357" lon="4.72514">
        <ele>172</ele>
        <time>2017-07-19T10:27:18Z</time>
      </trkpt>
      <trkpt lat="45.93573" lon="4.7252">
        <ele>172</ele>
        <time>2017-07-19T10:27:19Z</time>
      </trkpt>
      <trkpt lat="45.93576" lon="4.72527">
        <ele>172</ele>
        <time>2017-07-19T10:27:20Z</time>
      </trkpt>
      <trkpt lat="45.9358" lon="4.72532">
        <ele>172</ele>
        <time>2017-07-19T10:27:21Z</time>
      </trkpt>
      <trkpt lat="45.93583" lon="4.72537">
        <ele>172</ele>
        <time>2017-07-19T10:27:22Z</time>
      </trkpt>
      <trkpt lat="45.9359" lon="4.72543">
        <ele>172</ele>
        <time>2017-07-19T10:27:24Z</time>
      </trkpt>
      <trkpt lat="45.93595" lon="4.72545">
        <ele>172</ele>
        <time>2017-07-19T10:27:25Z</time>
      </trkpt>
      <trkpt lat="45.936" lon="4.72543">
        <ele>172</ele>
        <time>2017-07-19T10:27:26Z</time>
      </trkpt>
      <trkpt lat="45.93604" lon="4.72541">
        <ele>172</ele>
        <time>2017-07-19T10:27:27Z</time>
      </trkpt>
      <trkpt lat="45.93611" lon="4.72535">
        <ele>172</ele>
        <time>2017-07-19T10:27:29Z</time>
      </trkpt>
      <trkpt lat="45.93614" lon="4.7253">
        <ele>172</ele>
        <time>2017-07-19T10:27:30Z</time>
      </trkpt>
      <trkpt lat="45.93617" lon="4.72525">
        <ele>172</ele>
        <time>2017-07-19T10:27:31Z</time>
      </trkpt>
      <trkpt lat="45.93621" lon="4.72519">
        <ele>172</ele>
        <time>2017-07-19T10:27:32Z</time>
      </trkpt>
      <trkpt lat="45.93626" lon="4.7251">
        <ele>172</ele>
        <time>2017-07-19T10:27:34Z</time>
      </trkpt>
      <trkpt lat="45.93628" lon="4.72506">
        <ele>172</ele>
        <time>2017-07-19T10:27:35Z</time>
      </trkpt>
      <trkpt lat="45.93633" lon="4.72497">
        <ele>172</ele>
        <time>2017-07-19T10:27:37Z</time>
      </trkpt>
      <trkpt lat="45.93634" lon="4.72494">
        <ele>172</ele>
        <time>2017-07-19T10:27:38Z</time>
      </trkpt>
      <trkpt lat="45.93638" lon="4.72486">
        <ele>172</ele>
        <time>2017-07-19T10:27:40Z</time>
      </trkpt>
      <trkpt lat="45.93639" lon="4.72483">
        <ele>172</ele>
        <time>2017-07-19T10:27:41Z</time>
      </trkpt>
      <trkpt lat="45.93644" lon="4.72473">
        <ele>172</ele>
        <time>2017-07-19T10:27:43Z</time>
      </trkpt>
      <trkpt lat="45.93647" lon="4.72468">
        <ele>172</ele>
        <time>2017-07-19T10:27:44Z</time>
      </trkpt>
      <trkpt lat="45.9365" lon="4.72457">
        <ele>172</ele>
        <time>2017-07-19T10:27:46Z</time>
      </trkpt>
      <trkpt lat="45.93653" lon="4.72453">
        <ele>172</ele>
        <time>2017-07-19T10:27:47Z</time>
      </trkpt>
      <trkpt lat="45.93656" lon="4.7245">
        <ele>172</ele>
        <time>2017-07-19T10:27:48Z</time>
      </trkpt>
      <trkpt lat="45.93663" lon="4.72452">
        <ele>172</ele>
        <time>2017-07-19T10:27:49Z</time>
      </trkpt>
      <trkpt lat="45.9367" lon="4.72455">
        <ele>171</ele>
        <time>2017-07-19T10:27:50Z</time>
      </trkpt>
      <trkpt lat="45.93676" lon="4.72458">
        <ele>171</ele>
        <time>2017-07-19T10:27:51Z</time>
      </trkpt>
      <trkpt lat="45.9368" lon="4.72461">
        <ele>171</ele>
        <time>2017-07-19T10:27:52Z</time>
      </trkpt>
      <trkpt lat="45.93686" lon="4.72465">
        <ele>171</ele>
        <time>2017-07-19T10:27:53Z</time>
      </trkpt>
      <trkpt lat="45.9369" lon="4.72469">
        <ele>171</ele>
        <time>2017-07-19T10:27:54Z</time>
      </trkpt>
      <trkpt lat="45.93694" lon="4.72472">
        <ele>171</ele>
        <time>2017-07-19T10:27:55Z</time>
      </trkpt>
      <trkpt lat="45.937" lon="4.72475">
        <ele>171</ele>
        <time>2017-07-19T10:27:56Z</time>
      </trkpt>
      <trkpt lat="45.93704" lon="4.72479">
        <ele>171</ele>
        <time>2017-07-19T10:27:57Z</time>
      </trkpt>
      <trkpt lat="45.93709" lon="4.72482">
        <ele>171</ele>
        <time>2017-07-19T10:27:58Z</time>
      </trkpt>
      <trkpt lat="45.93714" lon="4.72486">
        <ele>171</ele>
        <time>2017-07-19T10:27:59Z</time>
      </trkpt>
      <trkpt lat="45.93718" lon="4.7249">
        <ele>171</ele>
        <time>2017-07-19T10:28:00Z</time>
      </trkpt>
      <trkpt lat="45.93722" lon="4.72494">
        <ele>171</ele>
        <time>2017-07-19T10:28:01Z</time>
      </trkpt>
      <trkpt lat="45.93727" lon="4.72497">
        <ele>171</ele>
        <time>2017-07-19T10:28:02Z</time>
      </trkpt>
      <trkpt lat="45.9373" lon="4.72502">
        <ele>171</ele>
        <time>2017-07-19T10:28:03Z</time>
      </trkpt>
      <trkpt lat="45.93734" lon="4.72506">
        <ele>171</ele>
        <time>2017-07-19T10:28:04Z</time>
      </trkpt>
      <trkpt lat="45.93738" lon="4.7251">
        <ele>171</ele>
        <time>2017-07-19T10:28:05Z</time>
      </trkpt>
      <trkpt lat="45.93745" lon="4.72518">
        <ele>171</ele>
        <time>2017-07-19T10:28:07Z</time>
      </trkpt>
      <trkpt lat="45.9375" lon="4.72522">
        <ele>172</ele>
        <time>2017-07-19T10:28:08Z</time>
      </trkpt>
      <trkpt lat="45.93758" lon="4.72527">
        <ele>172</ele>
        <time>2017-07-19T10:28:09Z</time>
      </trkpt>
      <trkpt lat="45.93763" lon="4.72529">
        <ele>173</ele>
        <time>2017-07-19T10:28:10Z</time>
      </trkpt>
      <trkpt lat="45.93767" lon="4.72532">
        <ele>173</ele>
        <time>2017-07-19T10:28:11Z</time>
      </trkpt>
      <trkpt lat="45.93772" lon="4.72535">
        <ele>173</ele>
        <time>2017-07-19T10:28:12Z</time>
      </trkpt>
      <trkpt lat="45.93776" lon="4.72539">
        <ele>173</ele>
        <time>2017-07-19T10:28:13Z</time>
      </trkpt>
      <trkpt lat="45.9378" lon="4.72543">
        <ele>173</ele>
        <time>2017-07-19T10:28:14Z</time>
      </trkpt>
      <trkpt lat="45.93785" lon="4.72547">
        <ele>173</ele>
        <time>2017-07-19T10:28:15Z</time>
      </trkpt>
      <trkpt lat="45.93789" lon="4.72551">
        <ele>173</ele>
        <time>2017-07-19T10:28:16Z</time>
      </trkpt>
      <trkpt lat="45.93793" lon="4.72555">
        <ele>173</ele>
        <time>2017-07-19T10:28:17Z</time>
      </trkpt>
      <trkpt lat="45.93797" lon="4.72558">
        <ele>173</ele>
        <time>2017-07-19T10:28:18Z</time>
      </trkpt>
      <trkpt lat="45.938" lon="4.72559">
        <ele>174</ele>
        <time>2017-07-19T10:28:19Z</time>
      </trkpt>
      <trkpt lat="45.93806" lon="4.72561">
        <ele>174</ele>
        <time>2017-07-19T10:28:20Z</time>
      </trkpt>
      <trkpt lat="45.93811" lon="4.72564">
        <ele>174</ele>
        <time>2017-07-19T10:28:21Z</time>
      </trkpt>
      <trkpt lat="45.93814" lon="4.72569">
        <ele>174</ele>
        <time>2017-07-19T10:28:22Z</time>
      </trkpt>
      <trkpt lat="45.93818" lon="4.72577">
        <ele>174</ele>
        <time>2017-07-19T10:28:24Z</time>
      </trkpt>
      <trkpt lat="45.93818" lon="4.72584">
        <ele>174</ele>
        <time>2017-07-19T10:28:25Z</time>
      </trkpt>
      <trkpt lat="45.93817" lon="4.72593">
        <ele>174</ele>
        <time>2017-07-19T10:28:26Z</time>
      </trkpt>
      <trkpt lat="45.93815" lon="4.726">
        <ele>173</ele>
        <time>2017-07-19T10:28:27Z</time>
      </trkpt>
      <trkpt lat="45.93809" lon="4.72608">
        <ele>173</ele>
        <time>2017-07-19T10:28:29Z</time>
      </trkpt>
      <trkpt lat="45.93806" lon="4.72612">
        <ele>173</ele>
        <time>2017-07-19T10:28:30Z</time>
      </trkpt>
      <trkpt lat="45.93803" lon="4.72616">
        <ele>173</ele>
        <time>2017-07-19T10:28:31Z</time>
      </trkpt>
      <trkpt lat="45.93799" lon="4.72621">
        <ele>173</ele>
        <time>2017-07-19T10:28:32Z</time>
      </trkpt>
      <trkpt lat="45.93794" lon="4.72628">
        <ele>173</ele>
        <time>2017-07-19T10:28:33Z</time>
      </trkpt>
      <trkpt lat="45.9379" lon="4.72635">
        <ele>173</ele>
        <time>2017-07-19T10:28:34Z</time>
      </trkpt>
      <trkpt lat="45.93786" lon="4.72641">
        <ele>173</ele>
        <time>2017-07-19T10:28:35Z</time>
      </trkpt>
      <trkpt lat="45.93781" lon="4.72646">
        <ele>173</ele>
        <time>2017-07-19T10:28:36Z</time>
      </trkpt>
      <trkpt lat="45.93774" lon="4.72654">
        <ele>173</ele>
        <time>2017-07-19T10:28:38Z</time>
      </trkpt>
      <trkpt lat="45.93771" lon="4.72657">
        <ele>173</ele>
        <time>2017-07-19T10:28:39Z</time>
      </trkpt>
      <trkpt lat="45.93765" lon="4.72663">
        <ele>174</ele>
        <time>2017-07-19T10:28:41Z</time>
      </trkpt>
      <trkpt lat="45.93761" lon="4.72667">
        <ele>173</ele>
        <time>2017-07-19T10:28:42Z</time>
      </trkpt>
      <trkpt lat="45.93757" lon="4.72671">
        <ele>173</ele>
        <time>2017-07-19T10:28:43Z</time>
      </trkpt>
      <trkpt lat="45.93753" lon="4.72676">
        <ele>173</ele>
        <time>2017-07-19T10:28:44Z</time>
      </trkpt>
      <trkpt lat="45.93749" lon="4.7268">
        <ele>174</ele>
        <time>2017-07-19T10:28:45Z</time>
      </trkpt>
      <trkpt lat="45.93745" lon="4.72685">
        <ele>173</ele>
        <time>2017-07-19T10:28:46Z</time>
      </trkpt>
      <trkpt lat="45.93741" lon="4.72689">
        <ele>173</ele>
        <time>2017-07-19T10:28:47Z</time>
      </trkpt>
      <trkpt lat="45.93737" lon="4.72694">
        <ele>173</ele>
        <time>2017-07-19T10:28:48Z</time>
      </trkpt>
      <trkpt lat="45.93733" lon="4.72699">
        <ele>173</ele>
        <time>2017-07-19T10:28:49Z</time>
      </trkpt>
      <trkpt lat="45.93729" lon="4.72703">
        <ele>173</ele>
        <time>2017-07-19T10:28:50Z</time>
      </trkpt>
      <trkpt lat="45.93722" lon="4.72711">
        <ele>173</ele>
        <time>2017-07-19T10:28:52Z</time>
      </trkpt>
      <trkpt lat="45.93719" lon="4.72715">
        <ele>173</ele>
        <time>2017-07-19T10:28:53Z</time>
      </trkpt>
      <trkpt lat="45.93713" lon="4.72721">
        <ele>173</ele>
        <time>2017-07-19T10:28:55Z</time>
      </trkpt>
      <trkpt lat="45.9371" lon="4.72724">
        <ele>173</ele>
        <time>2017-07-19T10:28:56Z</time>
      </trkpt>
      <trkpt lat="45.93705" lon="4.7273">
        <ele>173</ele>
        <time>2017-07-19T10:28:58Z</time>
      </trkpt>
      <trkpt lat="45.93702" lon="4.72732">
        <ele>173</ele>
        <time>2017-07-19T10:28:59Z</time>
      </trkpt>
      <trkpt lat="45.93696" lon="4.72738">
        <ele>173</ele>
        <time>2017-07-19T10:29:02Z</time>
      </trkpt>
      <trkpt lat="45.93694" lon="4.7274">
        <ele>173</ele>
        <time>2017-07-19T10:29:03Z</time>
      </trkpt>
      <trkpt lat="45.93688" lon="4.72745">
        <ele>173</ele>
        <time>2017-07-19T10:29:05Z</time>
      </trkpt>
      <trkpt lat="45.93685" lon="4.72748">
        <ele>173</ele>
        <time>2017-07-19T10:29:06Z</time>
      </trkpt>
      <trkpt lat="45.93679" lon="4.72754">
        <ele>173</ele>
        <time>2017-07-19T10:29:08Z</time>
      </trkpt>
      <trkpt lat="45.93675" lon="4.72757">
        <ele>173</ele>
        <time>2017-07-19T10:29:09Z</time>
      </trkpt>
      <trkpt lat="45.93668" lon="4.72764">
        <ele>173</ele>
        <time>2017-07-19T10:29:11Z</time>
      </trkpt>
      <trkpt lat="45.93664" lon="4.72767">
        <ele>174</ele>
        <time>2017-07-19T10:29:12Z</time>
      </trkpt>
      <trkpt lat="45.93658" lon="4.72773">
        <ele>174</ele>
        <time>2017-07-19T10:29:14Z</time>
      </trkpt>
      <trkpt lat="45.93656" lon="4.72775">
        <ele>174</ele>
        <time>2017-07-19T10:29:15Z</time>
      </trkpt>
      <trkpt lat="45.9365" lon="4.7278">
        <ele>174</ele>
        <time>2017-07-19T10:29:17Z</time>
      </trkpt>
      <trkpt lat="45.93646" lon="4.72783">
        <ele>174</ele>
        <time>2017-07-19T10:29:18Z</time>
      </trkpt>
      <trkpt lat="45.93638" lon="4.72789">
        <ele>173</ele>
        <time>2017-07-19T10:29:20Z</time>
      </trkpt>
      <trkpt lat="45.93635" lon="4.72792">
        <ele>173</ele>
        <time>2017-07-19T10:29:21Z</time>
      </trkpt>
      <trkpt lat="45.93629" lon="4.72797">
        <ele>173</ele>
        <time>2017-07-19T10:29:23Z</time>
      </trkpt>
      <trkpt lat="45.93625" lon="4.72799">
        <ele>173</ele>
        <time>2017-07-19T10:29:24Z</time>
      </trkpt>
      <trkpt lat="45.93618" lon="4.72804">
        <ele>173</ele>
        <time>2017-07-19T10:29:26Z</time>
      </trkpt>
      <trkpt lat="45.93613" lon="4.72808">
        <ele>173</ele>
        <time>2017-07-19T10:29:27Z</time>
      </trkpt>
      <trkpt lat="45.93608" lon="4.72811">
        <ele>173</ele>
        <time>2017-07-19T10:29:28Z</time>
      </trkpt>
      <trkpt lat="45.93604" lon="4.72815">
        <ele>173</ele>
        <time>2017-07-19T10:29:29Z</time>
      </trkpt>
      <trkpt lat="45.93596" lon="4.72822">
        <ele>173</ele>
        <time>2017-07-19T10:29:31Z</time>
      </trkpt>
      <trkpt lat="45.93593" lon="4.72824">
        <ele>173</ele>
        <time>2017-07-19T10:29:32Z</time>
      </trkpt>
      <trkpt lat="45.93586" lon="4.7283">
        <ele>172</ele>
        <time>2017-07-19T10:29:34Z</time>
      </trkpt>
      <trkpt lat="45.93582" lon="4.72832">
        <ele>172</ele>
        <time>2017-07-19T10:29:35Z</time>
      </trkpt>
      <trkpt lat="45.93575" lon="4.72838">
        <ele>172</ele>
        <time>2017-07-19T10:29:37Z</time>
      </trkpt>
      <trkpt lat="45.93571" lon="4.72841">
        <ele>172</ele>
        <time>2017-07-19T10:29:38Z</time>
      </trkpt>
      <trkpt lat="45.93567" lon="4.72844">
        <ele>172</ele>
        <time>2017-07-19T10:29:39Z</time>
      </trkpt>
      <trkpt lat="45.93563" lon="4.72848">
        <ele>172</ele>
        <time>2017-07-19T10:29:40Z</time>
      </trkpt>
      <trkpt lat="45.93559" lon="4.72852">
        <ele>172</ele>
        <time>2017-07-19T10:29:41Z</time>
      </trkpt>
      <trkpt lat="45.93556" lon="4.72856">
        <ele>172</ele>
        <time>2017-07-19T10:29:42Z</time>
      </trkpt>
      <trkpt lat="45.93552" lon="4.72861">
        <ele>173</ele>
        <time>2017-07-19T10:29:43Z</time>
      </trkpt>
      <trkpt lat="45.93548" lon="4.72864">
        <ele>173</ele>
        <time>2017-07-19T10:29:44Z</time>
      </trkpt>
      <trkpt lat="45.93542" lon="4.72872">
        <ele>173</ele>
        <time>2017-07-19T10:29:46Z</time>
      </trkpt>
      <trkpt lat="45.93539" lon="4.72875">
        <ele>173</ele>
        <time>2017-07-19T10:29:47Z</time>
      </trkpt>
      <trkpt lat="45.93532" lon="4.72884">
        <ele>172</ele>
        <time>2017-07-19T10:29:49Z</time>
      </trkpt>
      <trkpt lat="45.93529" lon="4.72888">
        <ele>172</ele>
        <time>2017-07-19T10:29:50Z</time>
      </trkpt>
      <trkpt lat="45.93522" lon="4.72896">
        <ele>172</ele>
        <time>2017-07-19T10:29:52Z</time>
      </trkpt>
      <trkpt lat="45.93519" lon="4.729">
        <ele>172</ele>
        <time>2017-07-19T10:29:53Z</time>
      </trkpt>
      <trkpt lat="45.93514" lon="4.72906">
        <ele>172</ele>
        <time>2017-07-19T10:29:55Z</time>
      </trkpt>
      <trkpt lat="45.93511" lon="4.72909">
        <ele>172</ele>
        <time>2017-07-19T10:29:56Z</time>
      </trkpt>
      <trkpt lat="45.93506" lon="4.72916">
        <ele>172</ele>
        <time>2017-07-19T10:29:58Z</time>
      </trkpt>
      <trkpt lat="45.93503" lon="4.7292">
        <ele>172</ele>
        <time>2017-07-19T10:29:59Z</time>
      </trkpt>
      <trkpt lat="45.93498" lon="4.72929">
        <ele>172</ele>
        <time>2017-07-19T10:30:01Z</time>
      </trkpt>
      <trkpt lat="45.93496" lon="4.72935">
        <ele>172</ele>
        <time>2017-07-19T10:30:02Z</time>
      </trkpt>
      <trkpt lat="45.93494" lon="4.72946">
        <ele>171</ele>
        <time>2017-07-19T10:30:04Z</time>
      </trkpt>
      <trkpt lat="45.93492" lon="4.72952">
        <ele>171</ele>
        <time>2017-07-19T10:30:05Z</time>
      </trkpt>
      <trkpt lat="45.93488" lon="4.72961">
        <ele>171</ele>
        <time>2017-07-19T10:30:07Z</time>
      </trkpt>
      <trkpt lat="45.93487" lon="4.72966">
        <ele>171</ele>
        <time>2017-07-19T10:30:08Z</time>
      </trkpt>
      <trkpt lat="45.93485" lon="4.72975">
        <ele>171</ele>
        <time>2017-07-19T10:30:10Z</time>
      </trkpt>
      <trkpt lat="45.93484" lon="4.7298">
        <ele>171</ele>
        <time>2017-07-19T10:30:11Z</time>
      </trkpt>
      <trkpt lat="45.93484" lon="4.72986">
        <ele>170</ele>
        <time>2017-07-19T10:30:12Z</time>
      </trkpt>
      <trkpt lat="45.93484" lon="4.72993">
        <ele>170</ele>
        <time>2017-07-19T10:30:13Z</time>
      </trkpt>
      <trkpt lat="45.93484" lon="4.73006">
        <ele>170</ele>
        <time>2017-07-19T10:30:15Z</time>
      </trkpt>
      <trkpt lat="45.93484" lon="4.73013">
        <ele>170</ele>
        <time>2017-07-19T10:30:16Z</time>
      </trkpt>
      <trkpt lat="45.93484" lon="4.73025">
        <ele>170</ele>
        <time>2017-07-19T10:30:18Z</time>
      </trkpt>
      <trkpt lat="45.93483" lon="4.73029">
        <ele>170</ele>
        <time>2017-07-19T10:30:19Z</time>
      </trkpt>
      <trkpt lat="45.93483" lon="4.73042">
        <ele>170</ele>
        <time>2017-07-19T10:30:22Z</time>
      </trkpt>
      <trkpt lat="45.93484" lon="4.73048">
        <ele>170</ele>
        <time>2017-07-19T10:30:23Z</time>
      </trkpt>
      <trkpt lat="45.93484" lon="4.7306">
        <ele>170</ele>
        <time>2017-07-19T10:30:25Z</time>
      </trkpt>
      <trkpt lat="45.93484" lon="4.73066">
        <ele>170</ele>
        <time>2017-07-19T10:30:26Z</time>
      </trkpt>
      <trkpt lat="45.93483" lon="4.73078">
        <ele>170</ele>
        <time>2017-07-19T10:30:28Z</time>
      </trkpt>
      <trkpt lat="45.93484" lon="4.73085">
        <ele>170</ele>
        <time>2017-07-19T10:30:29Z</time>
      </trkpt>
      <trkpt lat="45.93485" lon="4.73096">
        <ele>170</ele>
        <time>2017-07-19T10:30:31Z</time>
      </trkpt>
      <trkpt lat="45.93485" lon="4.73102">
        <ele>170</ele>
        <time>2017-07-19T10:30:32Z</time>
      </trkpt>
      <trkpt lat="45.93485" lon="4.73112">
        <ele>170</ele>
        <time>2017-07-19T10:30:34Z</time>
      </trkpt>
      <trkpt lat="45.93485" lon="4.73118">
        <ele>170</ele>
        <time>2017-07-19T10:30:35Z</time>
      </trkpt>
      <trkpt lat="45.93485" lon="4.73129">
        <ele>170</ele>
        <time>2017-07-19T10:30:37Z</time>
      </trkpt>
      <trkpt lat="45.93486" lon="4.73135">
        <ele>170</ele>
        <time>2017-07-19T10:30:38Z</time>
      </trkpt>
      <trkpt lat="45.93489" lon="4.73147">
        <ele>170</ele>
        <time>2017-07-19T10:30:40Z</time>
      </trkpt>
      <trkpt lat="45.93491" lon="4.73152">
        <ele>170</ele>
        <time>2017-07-19T10:30:41Z</time>
      </trkpt>
      <trkpt lat="45.93496" lon="4.73163">
        <ele>170</ele>
        <time>2017-07-19T10:30:43Z</time>
      </trkpt>
      <trkpt lat="45.93497" lon="4.73171">
        <ele>170</ele>
        <time>2017-07-19T10:30:44Z</time>
      </trkpt>
      <trkpt lat="45.93499" lon="4.73183">
        <ele>169</ele>
        <time>2017-07-19T10:30:46Z</time>
      </trkpt>
      <trkpt lat="45.93501" lon="4.73189">
        <ele>169</ele>
        <time>2017-07-19T10:30:47Z</time>
      </trkpt>
      <trkpt lat="45.93504" lon="4.73199">
        <ele>169</ele>
        <time>2017-07-19T10:30:49Z</time>
      </trkpt>
      <trkpt lat="45.93506" lon="4.73206">
        <ele>169</ele>
        <time>2017-07-19T10:30:50Z</time>
      </trkpt>
      <trkpt lat="45.93507" lon="4.73212">
        <ele>169</ele>
        <time>2017-07-19T10:30:51Z</time>
      </trkpt>
      <trkpt lat="45.93509" lon="4.73219">
        <ele>169</ele>
        <time>2017-07-19T10:30:52Z</time>
      </trkpt>
      <trkpt lat="45.9351" lon="4.73226">
        <ele>169</ele>
        <time>2017-07-19T10:30:53Z</time>
      </trkpt>
      <trkpt lat="45.93512" lon="4.73233">
        <ele>169</ele>
        <time>2017-07-19T10:30:54Z</time>
      </trkpt>
      <trkpt lat="45.93513" lon="4.7324">
        <ele>169</ele>
        <time>2017-07-19T10:30:55Z</time>
      </trkpt>
      <trkpt lat="45.93515" lon="4.73247">
        <ele>169</ele>
        <time>2017-07-19T10:30:56Z</time>
      </trkpt>
      <trkpt lat="45.93517" lon="4.73259">
        <ele>169</ele>
        <time>2017-07-19T10:30:58Z</time>
      </trkpt>
      <trkpt lat="45.93518" lon="4.73264">
        <ele>169</ele>
        <time>2017-07-19T10:30:59Z</time>
      </trkpt>
      <trkpt lat="45.93521" lon="4.73275">
        <ele>169</ele>
        <time>2017-07-19T10:31:01Z</time>
      </trkpt>
      <trkpt lat="45.93521" lon="4.73281">
        <ele>169</ele>
        <time>2017-07-19T10:31:02Z</time>
      </trkpt>
      <trkpt lat="45.93523" lon="4.73292">
        <ele>169</ele>
        <time>2017-07-19T10:31:04Z</time>
      </trkpt>
      <trkpt lat="45.93524" lon="4.73297">
        <ele>169</ele>
        <time>2017-07-19T10:31:05Z</time>
      </trkpt>
      <trkpt lat="45.93526" lon="4.73309">
        <ele>169</ele>
        <time>2017-07-19T10:31:07Z</time>
      </trkpt>
      <trkpt lat="45.93527" lon="4.73315">
        <ele>169</ele>
        <time>2017-07-19T10:31:08Z</time>
      </trkpt>
      <trkpt lat="45.93528" lon="4.73322">
        <ele>169</ele>
        <time>2017-07-19T10:31:09Z</time>
      </trkpt>
      <trkpt lat="45.93529" lon="4.73328">
        <ele>169</ele>
        <time>2017-07-19T10:31:10Z</time>
      </trkpt>
      <trkpt lat="45.93531" lon="4.7334">
        <ele>169</ele>
        <time>2017-07-19T10:31:12Z</time>
      </trkpt>
      <trkpt lat="45.93532" lon="4.73346">
        <ele>169</ele>
        <time>2017-07-19T10:31:13Z</time>
      </trkpt>
      <trkpt lat="45.93533" lon="4.73356">
        <ele>169</ele>
        <time>2017-07-19T10:31:15Z</time>
      </trkpt>
      <trkpt lat="45.93535" lon="4.73362">
        <ele>169</ele>
        <time>2017-07-19T10:31:16Z</time>
      </trkpt>
      <trkpt lat="45.93536" lon="4.73368">
        <ele>169</ele>
        <time>2017-07-19T10:31:17Z</time>
      </trkpt>
      <trkpt lat="45.93538" lon="4.73375">
        <ele>169</ele>
        <time>2017-07-19T10:31:18Z</time>
      </trkpt>
      <trkpt lat="45.93539" lon="4.73381">
        <ele>169</ele>
        <time>2017-07-19T10:31:19Z</time>
      </trkpt>
      <trkpt lat="45.93541" lon="4.73389">
        <ele>169</ele>
        <time>2017-07-19T10:31:20Z</time>
      </trkpt>
      <trkpt lat="45.93542" lon="4.73396">
        <ele>169</ele>
        <time>2017-07-19T10:31:21Z</time>
      </trkpt>
      <trkpt lat="45.93544" lon="4.73404">
        <ele>169</ele>
        <time>2017-07-19T10:31:22Z</time>
      </trkpt>
      <trkpt lat="45.93545" lon="4.7341">
        <ele>169</ele>
        <time>2017-07-19T10:31:23Z</time>
      </trkpt>
      <trkpt lat="45.93547" lon="4.73417">
        <ele>169</ele>
        <time>2017-07-19T10:31:24Z</time>
      </trkpt>
      <trkpt lat="45.93549" lon="4.73423">
        <ele>169</ele>
        <time>2017-07-19T10:31:25Z</time>
      </trkpt>
      <trkpt lat="45.9355" lon="4.7343">
        <ele>169</ele>
        <time>2017-07-19T10:31:26Z</time>
      </trkpt>
      <trkpt lat="45.93554" lon="4.7344">
        <ele>169</ele>
        <time>2017-07-19T10:31:28Z</time>
      </trkpt>
      <trkpt lat="45.93555" lon="4.73446">
        <ele>169</ele>
        <time>2017-07-19T10:31:29Z</time>
      </trkpt>
      <trkpt lat="45.93558" lon="4.73457">
        <ele>169</ele>
        <time>2017-07-19T10:31:31Z</time>
      </trkpt>
      <trkpt lat="45.9356" lon="4.73462">
        <ele>169</ele>
        <time>2017-07-19T10:31:32Z</time>
      </trkpt>
      <trkpt lat="45.93562" lon="4.73468">
        <ele>169</ele>
        <time>2017-07-19T10:31:33Z</time>
      </trkpt>
      <trkpt lat="45.93564" lon="4.73475">
        <ele>169</ele>
        <time>2017-07-19T10:31:34Z</time>
      </trkpt>
      <trkpt lat="45.93565" lon="4.73482">
        <ele>169</ele>
        <time>2017-07-19T10:31:35Z</time>
      </trkpt>
      <trkpt lat="45.93567" lon="4.73488">
        <ele>169</ele>
        <time>2017-07-19T10:31:36Z</time>
      </trkpt>
      <trkpt lat="45.93569" lon="4.73496">
        <ele>168</ele>
        <time>2017-07-19T10:31:37Z</time>
      </trkpt>
      <trkpt lat="45.93571" lon="4.73503">
        <ele>168</ele>
        <time>2017-07-19T10:31:38Z</time>
      </trkpt>
      <trkpt lat="45.93573" lon="4.73509">
        <ele>168</ele>
        <time>2017-07-19T10:31:39Z</time>
      </trkpt>
      <trkpt lat="45.93575" lon="4.73515">
        <ele>168</ele>
        <time>2017-07-19T10:31:40Z</time>
      </trkpt>
      <trkpt lat="45.93577" lon="4.73521">
        <ele>168</ele>
        <time>2017-07-19T10:31:41Z</time>
      </trkpt>
      <trkpt lat="45.93578" lon="4.73527">
        <ele>168</ele>
        <time>2017-07-19T10:31:42Z</time>
      </trkpt>
      <trkpt lat="45.93579" lon="4.73533">
        <ele>168</ele>
        <time>2017-07-19T10:31:43Z</time>
      </trkpt>
      <trkpt lat="45.93581" lon="4.7354">
        <ele>168</ele>
        <time>2017-07-19T10:31:44Z</time>
      </trkpt>
      <trkpt lat="45.93582" lon="4.73546">
        <ele>168</ele>
        <time>2017-07-19T10:31:45Z</time>
      </trkpt>
      <trkpt lat="45.93582" lon="4.73554">
        <ele>168</ele>
        <time>2017-07-19T10:31:46Z</time>
      </trkpt>
      <trkpt lat="45.93583" lon="4.73561">
        <ele>168</ele>
        <time>2017-07-19T10:31:47Z</time>
      </trkpt>
      <trkpt lat="45.93584" lon="4.73567">
        <ele>168</ele>
        <time>2017-07-19T10:31:48Z</time>
      </trkpt>
      <trkpt lat="45.93584" lon="4.73574">
        <ele>168</ele>
        <time>2017-07-19T10:31:49Z</time>
      </trkpt>
      <trkpt lat="45.93585" lon="4.73581">
        <ele>168</ele>
        <time>2017-07-19T10:31:50Z</time>
      </trkpt>
      <trkpt lat="45.93585" lon="4.73588">
        <ele>168</ele>
        <time>2017-07-19T10:31:51Z</time>
      </trkpt>
      <trkpt lat="45.93585" lon="4.73595">
        <ele>168</ele>
        <time>2017-07-19T10:31:52Z</time>
      </trkpt>
      <trkpt lat="45.93585" lon="4.73601">
        <ele>168</ele>
        <time>2017-07-19T10:31:53Z</time>
      </trkpt>
      <trkpt lat="45.93585" lon="4.73608">
        <ele>168</ele>
        <time>2017-07-19T10:31:54Z</time>
      </trkpt>
      <trkpt lat="45.93585" lon="4.73615">
        <ele>168</ele>
        <time>2017-07-19T10:31:55Z</time>
      </trkpt>
      <trkpt lat="45.93585" lon="4.73621">
        <ele>168</ele>
        <time>2017-07-19T10:31:56Z</time>
      </trkpt>
      <trkpt lat="45.93586" lon="4.73633">
        <ele>168</ele>
        <time>2017-07-19T10:31:58Z</time>
      </trkpt>
      <trkpt lat="45.93586" lon="4.73639">
        <ele>168</ele>
        <time>2017-07-19T10:31:59Z</time>
      </trkpt>
      <trkpt lat="45.93586" lon="4.73647">
        <ele>168</ele>
        <time>2017-07-19T10:32:00Z</time>
      </trkpt>
      <trkpt lat="45.93587" lon="4.73654">
        <ele>168</ele>
        <time>2017-07-19T10:32:01Z</time>
      </trkpt>
      <trkpt lat="45.93587" lon="4.73661">
        <ele>168</ele>
        <time>2017-07-19T10:32:02Z</time>
      </trkpt>
      <trkpt lat="45.93587" lon="4.73668">
        <ele>168</ele>
        <time>2017-07-19T10:32:03Z</time>
      </trkpt>
      <trkpt lat="45.93587" lon="4.73681">
        <ele>169</ele>
        <time>2017-07-19T10:32:05Z</time>
      </trkpt>
      <trkpt lat="45.93586" lon="4.73687">
        <ele>169</ele>
        <time>2017-07-19T10:32:06Z</time>
      </trkpt>
      <trkpt lat="45.93583" lon="4.73698">
        <ele>169</ele>
        <time>2017-07-19T10:32:08Z</time>
      </trkpt>
      <trkpt lat="45.93581" lon="4.73702">
        <ele>169</ele>
        <time>2017-07-19T10:32:09Z</time>
      </trkpt>
      <trkpt lat="45.93579" lon="4.73707">
        <ele>169</ele>
        <time>2017-07-19T10:32:10Z</time>
      </trkpt>
      <trkpt lat="45.93575" lon="4.73715">
        <ele>169</ele>
        <time>2017-07-19T10:32:11Z</time>
      </trkpt>
      <trkpt lat="45.93571" lon="4.7372">
        <ele>169</ele>
        <time>2017-07-19T10:32:12Z</time>
      </trkpt>
      <trkpt lat="45.93566" lon="4.73726">
        <ele>169</ele>
        <time>2017-07-19T10:32:13Z</time>
      </trkpt>
      <trkpt lat="45.93562" lon="4.7373">
        <ele>169</ele>
        <time>2017-07-19T10:32:14Z</time>
      </trkpt>
      <trkpt lat="45.93558" lon="4.73735">
        <ele>169</ele>
        <time>2017-07-19T10:32:15Z</time>
      </trkpt>
      <trkpt lat="45.93555" lon="4.73739">
        <ele>169</ele>
        <time>2017-07-19T10:32:16Z</time>
      </trkpt>
      <trkpt lat="45.9355" lon="4.73744">
        <ele>169</ele>
        <time>2017-07-19T10:32:17Z</time>
      </trkpt>
      <trkpt lat="45.93543" lon="4.73751">
        <ele>169</ele>
        <time>2017-07-19T10:32:19Z</time>
      </trkpt>
      <trkpt lat="45.9354" lon="4.73755">
        <ele>169</ele>
        <time>2017-07-19T10:32:20Z</time>
      </trkpt>
      <trkpt lat="45.93533" lon="4.73762">
        <ele>169</ele>
        <time>2017-07-19T10:32:22Z</time>
      </trkpt>
      <trkpt lat="45.9353" lon="4.73766">
        <ele>169</ele>
        <time>2017-07-19T10:32:23Z</time>
      </trkpt>
      <trkpt lat="45.93523" lon="4.73773">
        <ele>169</ele>
        <time>2017-07-19T10:32:25Z</time>
      </trkpt>
      <trkpt lat="45.93519" lon="4.73776">
        <ele>169</ele>
        <time>2017-07-19T10:32:26Z</time>
      </trkpt>
      <trkpt lat="45.93513" lon="4.73783">
        <ele>169</ele>
        <time>2017-07-19T10:32:28Z</time>
      </trkpt>
      <trkpt lat="45.93509" lon="4.73787">
        <ele>169</ele>
        <time>2017-07-19T10:32:29Z</time>
      </trkpt>
      <trkpt lat="45.93502" lon="4.73794">
        <ele>169</ele>
        <time>2017-07-19T10:32:31Z</time>
      </trkpt>
      <trkpt lat="45.93499" lon="4.73797">
        <ele>169</ele>
        <time>2017-07-19T10:32:32Z</time>
      </trkpt>
      <trkpt lat="45.93494" lon="4.73803">
        <ele>169</ele>
        <time>2017-07-19T10:32:34Z</time>
      </trkpt>
      <trkpt lat="45.93491" lon="4.73805">
        <ele>169</ele>
        <time>2017-07-19T10:32:35Z</time>
      </trkpt>
      <trkpt lat="45.93486" lon="4.73809">
        <ele>169</ele>
        <time>2017-07-19T10:32:37Z</time>
      </trkpt>
      <trkpt lat="45.93483" lon="4.7381">
        <ele>169</ele>
        <time>2017-07-19T10:32:38Z</time>
      </trkpt>
      <trkpt lat="45.93476" lon="4.73813">
        <ele>169</ele>
        <time>2017-07-19T10:32:40Z</time>
      </trkpt>
      <trkpt lat="45.93473" lon="4.73815">
        <ele>169</ele>
        <time>2017-07-19T10:32:41Z</time>
      </trkpt>
      <trkpt lat="45.93466" lon="4.73818">
        <ele>169</ele>
        <time>2017-07-19T10:32:43Z</time>
      </trkpt>
      <trkpt lat="45.93463" lon="4.7382">
        <ele>169</ele>
        <time>2017-07-19T10:32:44Z</time>
      </trkpt>
      <trkpt lat="45.93456" lon="4.73823">
        <ele>169</ele>
        <time>2017-07-19T10:32:46Z</time>
      </trkpt>
      <trkpt lat="45.93453" lon="4.73825">
        <ele>169</ele>
        <time>2017-07-19T10:32:47Z</time>
      </trkpt>
      <trkpt lat="45.93446" lon="4.73827">
        <ele>169</ele>
        <time>2017-07-19T10:32:49Z</time>
      </trkpt>
      <trkpt lat="45.93442" lon="4.73828">
        <ele>169</ele>
        <time>2017-07-19T10:32:50Z</time>
      </trkpt>
      <trkpt lat="45.93438" lon="4.73831">
        <ele>169</ele>
        <time>2017-07-19T10:32:52Z</time>
      </trkpt>
      <trkpt lat="45.93433" lon="4.73832">
        <ele>169</ele>
        <time>2017-07-19T10:32:53Z</time>
      </trkpt>
      <trkpt lat="45.93425" lon="4.73833">
        <ele>169</ele>
        <time>2017-07-19T10:32:55Z</time>
      </trkpt>
      <trkpt lat="45.93421" lon="4.73835">
        <ele>169</ele>
        <time>2017-07-19T10:32:56Z</time>
      </trkpt>
      <trkpt lat="45.93414" lon="4.73839">
        <ele>169</ele>
        <time>2017-07-19T10:32:58Z</time>
      </trkpt>
      <trkpt lat="45.9341" lon="4.7384">
        <ele>169</ele>
        <time>2017-07-19T10:32:59Z</time>
      </trkpt>
      <trkpt lat="45.93402" lon="4.73843">
        <ele>169</ele>
        <time>2017-07-19T10:33:01Z</time>
      </trkpt>
      <trkpt lat="45.93398" lon="4.73845">
        <ele>169</ele>
        <time>2017-07-19T10:33:02Z</time>
      </trkpt>
      <trkpt lat="45.93391" lon="4.73849">
        <ele>169</ele>
        <time>2017-07-19T10:33:04Z</time>
      </trkpt>
      <trkpt lat="45.93388" lon="4.73851">
        <ele>169</ele>
        <time>2017-07-19T10:33:05Z</time>
      </trkpt>
      <trkpt lat="45.93381" lon="4.73856">
        <ele>169</ele>
        <time>2017-07-19T10:33:08Z</time>
      </trkpt>
      <trkpt lat="45.93377" lon="4.73857">
        <ele>169</ele>
        <time>2017-07-19T10:33:09Z</time>
      </trkpt>
      <trkpt lat="45.93371" lon="4.73861">
        <ele>169</ele>
        <time>2017-07-19T10:33:11Z</time>
      </trkpt>
      <trkpt lat="45.93367" lon="4.73863">
        <ele>169</ele>
        <time>2017-07-19T10:33:12Z</time>
      </trkpt>
      <trkpt lat="45.9336" lon="4.73869">
        <ele>169</ele>
        <time>2017-07-19T10:33:14Z</time>
      </trkpt>
      <trkpt lat="45.93357" lon="4.73873">
        <ele>169</ele>
        <time>2017-07-19T10:33:15Z</time>
      </trkpt>
      <trkpt lat="45.93352" lon="4.73879">
        <ele>168</ele>
        <time>2017-07-19T10:33:17Z</time>
      </trkpt>
      <trkpt lat="45.93349" lon="4.73882">
        <ele>168</ele>
        <time>2017-07-19T10:33:18Z</time>
      </trkpt>
      <trkpt lat="45.93345" lon="4.73888">
        <ele>168</ele>
        <time>2017-07-19T10:33:20Z</time>
      </trkpt>
      <trkpt lat="45.93343" lon="4.73892">
        <ele>168</ele>
        <time>2017-07-19T10:33:21Z</time>
      </trkpt>
      <trkpt lat="45.93338" lon="4.739">
        <ele>168</ele>
        <time>2017-07-19T10:33:23Z</time>
      </trkpt>
      <trkpt lat="45.93335" lon="4.73905">
        <ele>168</ele>
        <time>2017-07-19T10:33:24Z</time>
      </trkpt>
      <trkpt lat="45.93329" lon="4.73913">
        <ele>168</ele>
        <time>2017-07-19T10:33:26Z</time>
      </trkpt>
      <trkpt lat="45.93326" lon="4.73917">
        <ele>168</ele>
        <time>2017-07-19T10:33:27Z</time>
      </trkpt>
      <trkpt lat="45.93321" lon="4.73926">
        <ele>168</ele>
        <time>2017-07-19T10:33:29Z</time>
      </trkpt>
      <trkpt lat="45.9332" lon="4.7393">
        <ele>168</ele>
        <time>2017-07-19T10:33:30Z</time>
      </trkpt>
      <trkpt lat="45.93314" lon="4.7394">
        <ele>168</ele>
        <time>2017-07-19T10:33:33Z</time>
      </trkpt>
      <trkpt lat="45.93312" lon="4.73943">
        <ele>168</ele>
        <time>2017-07-19T10:33:34Z</time>
      </trkpt>
      <trkpt lat="45.93306" lon="4.73951">
        <ele>168</ele>
        <time>2017-07-19T10:33:36Z</time>
      </trkpt>
      <trkpt lat="45.93303" lon="4.73955">
        <ele>168</ele>
        <time>2017-07-19T10:33:37Z</time>
      </trkpt>
      <trkpt lat="45.93298" lon="4.73963">
        <ele>168</ele>
        <time>2017-07-19T10:33:39Z</time>
      </trkpt>
      <trkpt lat="45.93295" lon="4.73968">
        <ele>168</ele>
        <time>2017-07-19T10:33:40Z</time>
      </trkpt>
      <trkpt lat="45.9329" lon="4.73978">
        <ele>168</ele>
        <time>2017-07-19T10:33:42Z</time>
      </trkpt>
      <trkpt lat="45.93287" lon="4.73983">
        <ele>168</ele>
        <time>2017-07-19T10:33:43Z</time>
      </trkpt>
      <trkpt lat="45.93285" lon="4.73989">
        <ele>168</ele>
        <time>2017-07-19T10:33:44Z</time>
      </trkpt>
      <trkpt lat="45.93282" lon="4.73994">
        <ele>168</ele>
        <time>2017-07-19T10:33:45Z</time>
      </trkpt>
      <trkpt lat="45.93277" lon="4.74003">
        <ele>168</ele>
        <time>2017-07-19T10:33:47Z</time>
      </trkpt>
      <trkpt lat="45.93276" lon="4.74007">
        <ele>168</ele>
        <time>2017-07-19T10:33:48Z</time>
      </trkpt>
      <trkpt lat="45.93271" lon="4.74016">
        <ele>168</ele>
        <time>2017-07-19T10:33:50Z</time>
      </trkpt>
      <trkpt lat="45.93269" lon="4.7402">
        <ele>168</ele>
        <time>2017-07-19T10:33:51Z</time>
      </trkpt>
      <trkpt lat="45.93265" lon="4.74029">
        <ele>168</ele>
        <time>2017-07-19T10:33:53Z</time>
      </trkpt>
      <trkpt lat="45.93263" lon="4.74033">
        <ele>168</ele>
        <time>2017-07-19T10:33:54Z</time>
      </trkpt>
      <trkpt lat="45.93257" lon="4.74042">
        <ele>168</ele>
        <time>2017-07-19T10:33:56Z</time>
      </trkpt>
      <trkpt lat="45.93254" lon="4.74047">
        <ele>168</ele>
        <time>2017-07-19T10:33:57Z</time>
      </trkpt>
      <trkpt lat="45.93252" lon="4.74055">
        <ele>168</ele>
        <time>2017-07-19T10:33:59Z</time>
      </trkpt>
      <trkpt lat="45.9325" lon="4.74058">
        <ele>167</ele>
        <time>2017-07-19T10:34:00Z</time>
      </trkpt>
      <trkpt lat="45.93246" lon="4.74066">
        <ele>167</ele>
        <time>2017-07-19T10:34:02Z</time>
      </trkpt>
      <trkpt lat="45.93245" lon="4.7407">
        <ele>167</ele>
        <time>2017-07-19T10:34:03Z</time>
      </trkpt>
      <trkpt lat="45.93241" lon="4.74079">
        <ele>167</ele>
        <time>2017-07-19T10:34:05Z</time>
      </trkpt>
      <trkpt lat="45.93239" lon="4.74084">
        <ele>167</ele>
        <time>2017-07-19T10:34:06Z</time>
      </trkpt>
      <trkpt lat="45.93235" lon="4.74092">
        <ele>167</ele>
        <time>2017-07-19T10:34:08Z</time>
      </trkpt>
      <trkpt lat="45.93233" lon="4.74096">
        <ele>167</ele>
        <time>2017-07-19T10:34:09Z</time>
      </trkpt>
      <trkpt lat="45.93227" lon="4.74101">
        <ele>167</ele>
        <time>2017-07-19T10:34:11Z</time>
      </trkpt>
      <trkpt lat="45.93224" lon="4.74102">
        <ele>167</ele>
        <time>2017-07-19T10:34:12Z</time>
      </trkpt>
      <trkpt lat="45.93216" lon="4.74102">
        <ele>167</ele>
        <time>2017-07-19T10:34:15Z</time>
      </trkpt>
      <trkpt lat="45.93213" lon="4.74101">
        <ele>167</ele>
        <time>2017-07-19T10:34:16Z</time>
      </trkpt>
      <trkpt lat="45.93205" lon="4.74099">
        <ele>167</ele>
        <time>2017-07-19T10:34:21Z</time>
      </trkpt>
      <trkpt lat="45.93203" lon="4.74097">
        <ele>167</ele>
        <time>2017-07-19T10:34:22Z</time>
      </trkpt>
      <trkpt lat="45.93197" lon="4.74093">
        <ele>167</ele>
        <time>2017-07-19T10:34:24Z</time>
      </trkpt>
      <trkpt lat="45.93193" lon="4.7409">
        <ele>167</ele>
        <time>2017-07-19T10:34:25Z</time>
      </trkpt>
      <trkpt lat="45.93187" lon="4.74085">
        <ele>168</ele>
        <time>2017-07-19T10:34:27Z</time>
      </trkpt>
      <trkpt lat="45.93184" lon="4.74083">
        <ele>168</ele>
        <time>2017-07-19T10:34:28Z</time>
      </trkpt>
      <trkpt lat="45.93177" lon="4.74075">
        <ele>168</ele>
        <time>2017-07-19T10:34:31Z</time>
      </trkpt>
      <trkpt lat="45.93175" lon="4.74072">
        <ele>168</ele>
        <time>2017-07-19T10:34:32Z</time>
      </trkpt>
      <trkpt lat="45.93169" lon="4.74067">
        <ele>168</ele>
        <time>2017-07-19T10:34:34Z</time>
      </trkpt>
      <trkpt lat="45.93167" lon="4.74064">
        <ele>168</ele>
        <time>2017-07-19T10:34:35Z</time>
      </trkpt>
      <trkpt lat="45.9316" lon="4.74059">
        <ele>168</ele>
        <time>2017-07-19T10:34:37Z</time>
      </trkpt>
      <trkpt lat="45.93157" lon="4.74056">
        <ele>168</ele>
        <time>2017-07-19T10:34:38Z</time>
      </trkpt>
      <trkpt lat="45.93151" lon="4.7405">
        <ele>168</ele>
        <time>2017-07-19T10:34:40Z</time>
      </trkpt>
      <trkpt lat="45.93148" lon="4.74048">
        <ele>168</ele>
        <time>2017-07-19T10:34:41Z</time>
      </trkpt>
      <trkpt lat="45.93142" lon="4.74043">
        <ele>168</ele>
        <time>2017-07-19T10:34:43Z</time>
      </trkpt>
      <trkpt lat="45.93138" lon="4.7404">
        <ele>168</ele>
        <time>2017-07-19T10:34:44Z</time>
      </trkpt>
      <trkpt lat="45.93131" lon="4.74036">
        <ele>168</ele>
        <time>2017-07-19T10:34:46Z</time>
      </trkpt>
      <trkpt lat="45.93128" lon="4.74035">
        <ele>168</ele>
        <time>2017-07-19T10:34:47Z</time>
      </trkpt>
      <trkpt lat="45.93121" lon="4.74032">
        <ele>168</ele>
        <time>2017-07-19T10:34:49Z</time>
      </trkpt>
      <trkpt lat="45.93118" lon="4.74031">
        <ele>168</ele>
        <time>2017-07-19T10:34:50Z</time>
      </trkpt>
      <trkpt lat="45.93111" lon="4.74027">
        <ele>168</ele>
        <time>2017-07-19T10:34:52Z</time>
      </trkpt>
      <trkpt lat="45.93105" lon="4.74026">
        <ele>168</ele>
        <time>2017-07-19T10:34:53Z</time>
      </trkpt>
      <trkpt lat="45.93097" lon="4.74023">
        <ele>168</ele>
        <time>2017-07-19T10:34:55Z</time>
      </trkpt>
      <trkpt lat="45.93092" lon="4.74023">
        <ele>168</ele>
        <time>2017-07-19T10:34:56Z</time>
      </trkpt>
      <trkpt lat="45.93083" lon="4.74023">
        <ele>169</ele>
        <time>2017-07-19T10:34:58Z</time>
      </trkpt>
      <trkpt lat="45.9308" lon="4.74021">
        <ele>169</ele>
        <time>2017-07-19T10:34:59Z</time>
      </trkpt>
      <trkpt lat="45.93072" lon="4.7402">
        <ele>169</ele>
        <time>2017-07-19T10:35:01Z</time>
      </trkpt>
      <trkpt lat="45.93068" lon="4.74019">
        <ele>169</ele>
        <time>2017-07-19T10:35:02Z</time>
      </trkpt>
      <trkpt lat="45.93062" lon="4.74017">
        <ele>169</ele>
        <time>2017-07-19T10:35:04Z</time>
      </trkpt>
      <trkpt lat="45.93058" lon="4.74017">
        <ele>169</ele>
        <time>2017-07-19T10:35:05Z</time>
      </trkpt>
      <trkpt lat="45.93051" lon="4.74014">
        <ele>169</ele>
        <time>2017-07-19T10:35:07Z</time>
      </trkpt>
      <trkpt lat="45.93047" lon="4.74013">
        <ele>169</ele>
        <time>2017-07-19T10:35:08Z</time>
      </trkpt>
      <trkpt lat="45.9304" lon="4.7401">
        <ele>169</ele>
        <time>2017-07-19T10:35:10Z</time>
      </trkpt>
      <trkpt lat="45.93036" lon="4.74009">
        <ele>169</ele>
        <time>2017-07-19T10:35:11Z</time>
      </trkpt>
      <trkpt lat="45.93028" lon="4.74004">
        <ele>170</ele>
        <time>2017-07-19T10:35:14Z</time>
      </trkpt>
      <trkpt lat="45.93026" lon="4.74003">
        <ele>170</ele>
        <time>2017-07-19T10:35:15Z</time>
      </trkpt>
      <trkpt lat="45.93019" lon="4.74002">
        <ele>170</ele>
        <time>2017-07-19T10:35:17Z</time>
      </trkpt>
      <trkpt lat="45.93015" lon="4.74002">
        <ele>170</ele>
        <time>2017-07-19T10:35:18Z</time>
      </trkpt>
      <trkpt lat="45.93008" lon="4.74005">
        <ele>170</ele>
        <time>2017-07-19T10:35:20Z</time>
      </trkpt>
      <trkpt lat="45.93006" lon="4.74009">
        <ele>170</ele>
        <time>2017-07-19T10:35:21Z</time>
      </trkpt>
      <trkpt lat="45.93003" lon="4.74019">
        <ele>170</ele>
        <time>2017-07-19T10:35:24Z</time>
      </trkpt>
      <trkpt lat="45.93001" lon="4.74024">
        <ele>170</ele>
        <time>2017-07-19T10:35:25Z</time>
      </trkpt>
      <trkpt lat="45.92997" lon="4.74035">
        <ele>171</ele>
        <time>2017-07-19T10:35:28Z</time>
      </trkpt>
      <trkpt lat="45.92996" lon="4.74039">
        <ele>171</ele>
        <time>2017-07-19T10:35:29Z</time>
      </trkpt>
      <trkpt lat="45.92995" lon="4.74052">
        <ele>171</ele>
        <time>2017-07-19T10:35:32Z</time>
      </trkpt>
      <trkpt lat="45.92996" lon="4.74057">
        <ele>171</ele>
        <time>2017-07-19T10:35:33Z</time>
      </trkpt>
      <trkpt lat="45.92996" lon="4.74069">
        <ele>171</ele>
        <time>2017-07-19T10:35:35Z</time>
      </trkpt>
      <trkpt lat="45.92995" lon="4.74075">
        <ele>171</ele>
        <time>2017-07-19T10:35:36Z</time>
      </trkpt>
      <trkpt lat="45.92994" lon="4.74084">
        <ele>171</ele>
        <time>2017-07-19T10:35:38Z</time>
      </trkpt>
      <trkpt lat="45.92994" lon="4.74088">
        <ele>171</ele>
        <time>2017-07-19T10:35:39Z</time>
      </trkpt>
      <trkpt lat="45.92993" lon="4.741">
        <ele>171</ele>
        <time>2017-07-19T10:35:42Z</time>
      </trkpt>
      <trkpt lat="45.92992" lon="4.74104">
        <ele>171</ele>
        <time>2017-07-19T10:35:43Z</time>
      </trkpt>
      <trkpt lat="45.92991" lon="4.74113">
        <ele>171</ele>
        <time>2017-07-19T10:35:45Z</time>
      </trkpt>
      <trkpt lat="45.92989" lon="4.74116">
        <ele>171</ele>
        <time>2017-07-19T10:35:46Z</time>
      </trkpt>
      <trkpt lat="45.92984" lon="4.74125">
        <ele>171</ele>
        <time>2017-07-19T10:35:49Z</time>
      </trkpt>
      <trkpt lat="45.92982" lon="4.74128">
        <ele>171</ele>
        <time>2017-07-19T10:35:50Z</time>
      </trkpt>
      <trkpt lat="45.92978" lon="4.74138">
        <ele>171</ele>
        <time>2017-07-19T10:35:53Z</time>
      </trkpt>
      <trkpt lat="45.92978" lon="4.74142">
        <ele>171</ele>
        <time>2017-07-19T10:35:54Z</time>
      </trkpt>
      <trkpt lat="45.92976" lon="4.74152">
        <ele>171</ele>
        <time>2017-07-19T10:35:57Z</time>
      </trkpt>
      <trkpt lat="45.92974" lon="4.74156">
        <ele>171</ele>
        <time>2017-07-19T10:35:58Z</time>
      </trkpt>
      <trkpt lat="45.92971" lon="4.74164">
        <ele>171</ele>
        <time>2017-07-19T10:36:00Z</time>
      </trkpt>
      <trkpt lat="45.9297" lon="4.74168">
        <ele>170</ele>
        <time>2017-07-19T10:36:01Z</time>
      </trkpt>
      <trkpt lat="45.92965" lon="4.74179">
        <ele>170</ele>
        <time>2017-07-19T10:36:04Z</time>
      </trkpt>
      <trkpt lat="45.92964" lon="4.74183">
        <ele>170</ele>
        <time>2017-07-19T10:36:05Z</time>
      </trkpt>
      <trkpt lat="45.92959" lon="4.74189">
        <ele>170</ele>
        <time>2017-07-19T10:36:07Z</time>
      </trkpt>
      <trkpt lat="45.92957" lon="4.74192">
        <ele>170</ele>
        <time>2017-07-19T10:36:08Z</time>
      </trkpt>
      <trkpt lat="45.92949" lon="4.74195">
        <ele>170</ele>
        <time>2017-07-19T10:36:11Z</time>
      </trkpt>
      <trkpt lat="45.92946" lon="4.74194">
        <ele>170</ele>
        <time>2017-07-19T10:36:12Z</time>
      </trkpt>
      <trkpt lat="45.92939" lon="4.74192">
        <ele>170</ele>
        <time>2017-07-19T10:36:15Z</time>
      </trkpt>
      <trkpt lat="45.92937" lon="4.74191">
        <ele>170</ele>
        <time>2017-07-19T10:36:16Z</time>
      </trkpt>
      <trkpt lat="45.9293" lon="4.74187">
        <ele>171</ele>
        <time>2017-07-19T10:36:19Z</time>
      </trkpt>
      <trkpt lat="45.92926" lon="4.74186">
        <ele>171</ele>
        <time>2017-07-19T10:36:20Z</time>
      </trkpt>
      <trkpt lat="45.92918" lon="4.74182">
        <ele>171</ele>
        <time>2017-07-19T10:36:23Z</time>
      </trkpt>
      <trkpt lat="45.92916" lon="4.74182">
        <ele>172</ele>
        <time>2017-07-19T10:36:24Z</time>
      </trkpt>
      <trkpt lat="45.92908" lon="4.74178">
        <ele>172</ele>
        <time>2017-07-19T10:36:27Z</time>
      </trkpt>
      <trkpt lat="45.92906" lon="4.74177">
        <ele>172</ele>
        <time>2017-07-19T10:36:28Z</time>
      </trkpt>
      <trkpt lat="45.92899" lon="4.74172">
        <ele>172</ele>
        <time>2017-07-19T10:36:31Z</time>
      </trkpt>
      <trkpt lat="45.92896" lon="4.74171">
        <ele>172</ele>
        <time>2017-07-19T10:36:32Z</time>
      </trkpt>
      <trkpt lat="45.92891" lon="4.74164">
        <ele>172</ele>
        <time>2017-07-19T10:36:35Z</time>
      </trkpt>
      <trkpt lat="45.92888" lon="4.7416">
        <ele>172</ele>
        <time>2017-07-19T10:36:36Z</time>
      </trkpt>
      <trkpt lat="45.92885" lon="4.7415">
        <ele>172</ele>
        <time>2017-07-19T10:36:38Z</time>
      </trkpt>
      <trkpt lat="45.92886" lon="4.74144">
        <ele>172</ele>
        <time>2017-07-19T10:36:39Z</time>
      </trkpt>
      <trkpt lat="45.92889" lon="4.74132">
        <ele>172</ele>
        <time>2017-07-19T10:36:41Z</time>
      </trkpt>
      <trkpt lat="45.92892" lon="4.74126">
        <ele>172</ele>
        <time>2017-07-19T10:36:42Z</time>
      </trkpt>
      <trkpt lat="45.92896" lon="4.74121">
        <ele>172</ele>
        <time>2017-07-19T10:36:43Z</time>
      </trkpt>
      <trkpt lat="45.929" lon="4.74114">
        <ele>172</ele>
        <time>2017-07-19T10:36:44Z</time>
      </trkpt>
      <trkpt lat="45.92904" lon="4.74108">
        <ele>172</ele>
        <time>2017-07-19T10:36:45Z</time>
      </trkpt>
      <trkpt lat="45.92907" lon="4.74101">
        <ele>172</ele>
        <time>2017-07-19T10:36:46Z</time>
      </trkpt>
      <trkpt lat="45.92911" lon="4.74094">
        <ele>172</ele>
        <time>2017-07-19T10:36:47Z</time>
      </trkpt>
      <trkpt lat="45.92913" lon="4.74087">
        <ele>173</ele>
        <time>2017-07-19T10:36:48Z</time>
      </trkpt>
      <trkpt lat="45.92916" lon="4.74079">
        <ele>173</ele>
        <time>2017-07-19T10:36:49Z</time>
      </trkpt>
      <trkpt lat="45.92917" lon="4.7407">
        <ele>172</ele>
        <time>2017-07-19T10:36:50Z</time>
      </trkpt>
      <trkpt lat="45.92917" lon="4.74061">
        <ele>172</ele>
        <time>2017-07-19T10:36:51Z</time>
      </trkpt>
      <trkpt lat="45.92918" lon="4.74052">
        <ele>172</ele>
        <time>2017-07-19T10:36:52Z</time>
      </trkpt>
      <trkpt lat="45.92919" lon="4.74044">
        <ele>172</ele>
        <time>2017-07-19T10:36:53Z</time>
      </trkpt>
      <trkpt lat="45.92921" lon="4.74037">
        <ele>172</ele>
        <time>2017-07-19T10:36:54Z</time>
      </trkpt>
      <trkpt lat="45.92923" lon="4.7403">
        <ele>172</ele>
        <time>2017-07-19T10:36:55Z</time>
      </trkpt>
      <trkpt lat="45.92924" lon="4.74022">
        <ele>172</ele>
        <time>2017-07-19T10:36:56Z</time>
      </trkpt>
      <trkpt lat="45.92925" lon="4.74013">
        <ele>172</ele>
        <time>2017-07-19T10:36:57Z</time>
      </trkpt>
      <trkpt lat="45.92925" lon="4.74006">
        <ele>172</ele>
        <time>2017-07-19T10:36:58Z</time>
      </trkpt>
      <trkpt lat="45.92923" lon="4.74">
        <ele>172</ele>
        <time>2017-07-19T10:36:59Z</time>
      </trkpt>
      <trkpt lat="45.9292" lon="4.73995">
        <ele>172</ele>
        <time>2017-07-19T10:37:00Z</time>
      </trkpt>
      <trkpt lat="45.92916" lon="4.73991">
        <ele>172</ele>
        <time>2017-07-19T10:37:01Z</time>
      </trkpt>
      <trkpt lat="45.92912" lon="4.73987">
        <ele>172</ele>
        <time>2017-07-19T10:37:02Z</time>
      </trkpt>
      <trkpt lat="45.92904" lon="4.73981">
        <ele>172</ele>
        <time>2017-07-19T10:37:04Z</time>
      </trkpt>
      <trkpt lat="45.92901" lon="4.73978">
        <ele>172</ele>
        <time>2017-07-19T10:37:05Z</time>
      </trkpt>
      <trkpt lat="45.92897" lon="4.7397">
        <ele>172</ele>
        <time>2017-07-19T10:37:07Z</time>
      </trkpt>
      <trkpt lat="45.92896" lon="4.73965">
        <ele>172</ele>
        <time>2017-07-19T10:37:08Z</time>
      </trkpt>
      <trkpt lat="45.92896" lon="4.73959">
        <ele>172</ele>
        <time>2017-07-19T10:37:09Z</time>
      </trkpt>
      <trkpt lat="45.92896" lon="4.73952">
        <ele>172</ele>
        <time>2017-07-19T10:37:10Z</time>
      </trkpt>
      <trkpt lat="45.92896" lon="4.73945">
        <ele>172</ele>
        <time>2017-07-19T10:37:11Z</time>
      </trkpt>
      <trkpt lat="45.92896" lon="4.73939">
        <ele>172</ele>
        <time>2017-07-19T10:37:12Z</time>
      </trkpt>
      <trkpt lat="45.92895" lon="4.73927">
        <ele>172</ele>
        <time>2017-07-19T10:37:14Z</time>
      </trkpt>
      <trkpt lat="45.92894" lon="4.73921">
        <ele>172</ele>
        <time>2017-07-19T10:37:15Z</time>
      </trkpt>
      <trkpt lat="45.92892" lon="4.73909">
        <ele>172</ele>
        <time>2017-07-19T10:37:17Z</time>
      </trkpt>
      <trkpt lat="45.9289" lon="4.73904">
        <ele>173</ele>
        <time>2017-07-19T10:37:18Z</time>
      </trkpt>
      <trkpt lat="45.92889" lon="4.73894">
        <ele>173</ele>
        <time>2017-07-19T10:37:20Z</time>
      </trkpt>
      <trkpt lat="45.92888" lon="4.73889">
        <ele>173</ele>
        <time>2017-07-19T10:37:21Z</time>
      </trkpt>
      <trkpt lat="45.92886" lon="4.73882">
        <ele>173</ele>
        <time>2017-07-19T10:37:22Z</time>
      </trkpt>
      <trkpt lat="45.92884" lon="4.73875">
        <ele>173</ele>
        <time>2017-07-19T10:37:23Z</time>
      </trkpt>
      <trkpt lat="45.92883" lon="4.73868">
        <ele>173</ele>
        <time>2017-07-19T10:37:24Z</time>
      </trkpt>
      <trkpt lat="45.92881" lon="4.7386">
        <ele>173</ele>
        <time>2017-07-19T10:37:25Z</time>
      </trkpt>
      <trkpt lat="45.92879" lon="4.73852">
        <ele>173</ele>
        <time>2017-07-19T10:37:26Z</time>
      </trkpt>
      <trkpt lat="45.92876" lon="4.73842">
        <ele>173</ele>
        <time>2017-07-19T10:37:27Z</time>
      </trkpt>
      <trkpt lat="45.92874" lon="4.73834">
        <ele>173</ele>
        <time>2017-07-19T10:37:28Z</time>
      </trkpt>
      <trkpt lat="45.92871" lon="4.73826">
        <ele>173</ele>
        <time>2017-07-19T10:37:29Z</time>
      </trkpt>
      <trkpt lat="45.92869" lon="4.73818">
        <ele>173</ele>
        <time>2017-07-19T10:37:30Z</time>
      </trkpt>
      <trkpt lat="45.92867" lon="4.73811">
        <ele>173</ele>
        <time>2017-07-19T10:37:31Z</time>
      </trkpt>
      <trkpt lat="45.92865" lon="4.73804">
        <ele>173</ele>
        <time>2017-07-19T10:37:32Z</time>
      </trkpt>
      <trkpt lat="45.92861" lon="4.73799">
        <ele>173</ele>
        <time>2017-07-19T10:37:33Z</time>
      </trkpt>
      <trkpt lat="45.92854" lon="4.73792">
        <ele>173</ele>
        <time>2017-07-19T10:37:35Z</time>
      </trkpt>
      <trkpt lat="45.92848" lon="4.7379">
        <ele>173</ele>
        <time>2017-07-19T10:37:36Z</time>
      </trkpt>
      <trkpt lat="45.92842" lon="4.73786">
        <ele>173</ele>
        <time>2017-07-19T10:37:37Z</time>
      </trkpt>
      <trkpt lat="45.92837" lon="4.73784">
        <ele>173</ele>
        <time>2017-07-19T10:37:38Z</time>
      </trkpt>
      <trkpt lat="45.9283" lon="4.73779">
        <ele>173</ele>
        <time>2017-07-19T10:37:40Z</time>
      </trkpt>
      <trkpt lat="45.92827" lon="4.73776">
        <ele>173</ele>
        <time>2017-07-19T10:37:41Z</time>
      </trkpt>
      <trkpt lat="45.92824" lon="4.73773">
        <ele>173</ele>
        <time>2017-07-19T10:37:42Z</time>
      </trkpt>
      <trkpt lat="45.92818" lon="4.7377">
        <ele>173</ele>
        <time>2017-07-19T10:37:43Z</time>
      </trkpt>
      <trkpt lat="45.92814" lon="4.73767">
        <ele>173</ele>
        <time>2017-07-19T10:37:44Z</time>
      </trkpt>
      <trkpt lat="45.92809" lon="4.73764">
        <ele>173</ele>
        <time>2017-07-19T10:37:45Z</time>
      </trkpt>
      <trkpt lat="45.92803" lon="4.73762">
        <ele>173</ele>
        <time>2017-07-19T10:37:46Z</time>
      </trkpt>
      <trkpt lat="45.92799" lon="4.73759">
        <ele>173</ele>
        <time>2017-07-19T10:37:47Z</time>
      </trkpt>
      <trkpt lat="45.92794" lon="4.73755">
        <ele>173</ele>
        <time>2017-07-19T10:37:48Z</time>
      </trkpt>
      <trkpt lat="45.92791" lon="4.73751">
        <ele>173</ele>
        <time>2017-07-19T10:37:49Z</time>
      </trkpt>
      <trkpt lat="45.92786" lon="4.73743">
        <ele>172</ele>
        <time>2017-07-19T10:37:51Z</time>
      </trkpt>
      <trkpt lat="45.92783" lon="4.73739">
        <ele>172</ele>
        <time>2017-07-19T10:37:52Z</time>
      </trkpt>
      <trkpt lat="45.92775" lon="4.73735">
        <ele>172</ele>
        <time>2017-07-19T10:37:54Z</time>
      </trkpt>
      <trkpt lat="45.9277" lon="4.73734">
        <ele>172</ele>
        <time>2017-07-19T10:37:55Z</time>
      </trkpt>
      <trkpt lat="45.92763" lon="4.73731">
        <ele>172</ele>
        <time>2017-07-19T10:37:57Z</time>
      </trkpt>
      <trkpt lat="45.9276" lon="4.73729">
        <ele>172</ele>
        <time>2017-07-19T10:37:58Z</time>
      </trkpt>
      <trkpt lat="45.92752" lon="4.73728">
        <ele>172</ele>
        <time>2017-07-19T10:38:00Z</time>
      </trkpt>
      <trkpt lat="45.92748" lon="4.73728">
        <ele>173</ele>
        <time>2017-07-19T10:38:01Z</time>
      </trkpt>
      <trkpt lat="45.92743" lon="4.73728">
        <ele>173</ele>
        <time>2017-07-19T10:38:02Z</time>
      </trkpt>
      <trkpt lat="45.92739" lon="4.73728">
        <ele>173</ele>
        <time>2017-07-19T10:38:03Z</time>
      </trkpt>
      <trkpt lat="45.9273" lon="4.73726">
        <ele>173</ele>
        <time>2017-07-19T10:38:05Z</time>
      </trkpt>
      <trkpt lat="45.92727" lon="4.73725">
        <ele>173</ele>
        <time>2017-07-19T10:38:06Z</time>
      </trkpt>
      <trkpt lat="45.92719" lon="4.73723">
        <ele>173</ele>
        <time>2017-07-19T10:38:08Z</time>
      </trkpt>
      <trkpt lat="45.92714" lon="4.7372">
        <ele>173</ele>
        <time>2017-07-19T10:38:09Z</time>
      </trkpt>
      <trkpt lat="45.92709" lon="4.73719">
        <ele>173</ele>
        <time>2017-07-19T10:38:10Z</time>
      </trkpt>
      <trkpt lat="45.92704" lon="4.73718">
        <ele>173</ele>
        <time>2017-07-19T10:38:11Z</time>
      </trkpt>
      <trkpt lat="45.92698" lon="4.73715">
        <ele>173</ele>
        <time>2017-07-19T10:38:12Z</time>
      </trkpt>
      <trkpt lat="45.92693" lon="4.73713">
        <ele>173</ele>
        <time>2017-07-19T10:38:13Z</time>
      </trkpt>
      <trkpt lat="45.92688" lon="4.73709">
        <ele>173</ele>
        <time>2017-07-19T10:38:14Z</time>
      </trkpt>
      <trkpt lat="45.92682" lon="4.73706">
        <ele>173</ele>
        <time>2017-07-19T10:38:15Z</time>
      </trkpt>
      <trkpt lat="45.92676" lon="4.73704">
        <ele>173</ele>
        <time>2017-07-19T10:38:16Z</time>
      </trkpt>
      <trkpt lat="45.92672" lon="4.737">
        <ele>174</ele>
        <time>2017-07-19T10:38:17Z</time>
      </trkpt>
      <trkpt lat="45.92664" lon="4.73697">
        <ele>173</ele>
        <time>2017-07-19T10:38:19Z</time>
      </trkpt>
      <trkpt lat="45.92661" lon="4.73696">
        <ele>173</ele>
        <time>2017-07-19T10:38:20Z</time>
      </trkpt>
      <trkpt lat="45.92654" lon="4.73691">
        <ele>173</ele>
        <time>2017-07-19T10:38:22Z</time>
      </trkpt>
      <trkpt lat="45.9265" lon="4.73687">
        <ele>173</ele>
        <time>2017-07-19T10:38:23Z</time>
      </trkpt>
      <trkpt lat="45.92645" lon="4.73678">
        <ele>173</ele>
        <time>2017-07-19T10:38:25Z</time>
      </trkpt>
      <trkpt lat="45.92641" lon="4.73672">
        <ele>173</ele>
        <time>2017-07-19T10:38:26Z</time>
      </trkpt>
      <trkpt lat="45.92637" lon="4.73667">
        <ele>173</ele>
        <time>2017-07-19T10:38:27Z</time>
      </trkpt>
      <trkpt lat="45.92634" lon="4.73661">
        <ele>173</ele>
        <time>2017-07-19T10:38:28Z</time>
      </trkpt>
      <trkpt lat="45.92632" lon="4.73654">
        <ele>173</ele>
        <time>2017-07-19T10:38:29Z</time>
      </trkpt>
      <trkpt lat="45.92629" lon="4.73649">
        <ele>173</ele>
        <time>2017-07-19T10:38:30Z</time>
      </trkpt>
      <trkpt lat="45.92627" lon="4.73642">
        <ele>173</ele>
        <time>2017-07-19T10:38:31Z</time>
      </trkpt>
      <trkpt lat="45.92624" lon="4.73636">
        <ele>173</ele>
        <time>2017-07-19T10:38:32Z</time>
      </trkpt>
      <trkpt lat="45.92618" lon="4.73628">
        <ele>173</ele>
        <time>2017-07-19T10:38:34Z</time>
      </trkpt>
      <trkpt lat="45.92614" lon="4.73626">
        <ele>173</ele>
        <time>2017-07-19T10:38:35Z</time>
      </trkpt>
      <trkpt lat="45.92605" lon="4.73624">
        <ele>173</ele>
        <time>2017-07-19T10:38:37Z</time>
      </trkpt>
      <trkpt lat="45.92601" lon="4.73624">
        <ele>173</ele>
        <time>2017-07-19T10:38:38Z</time>
      </trkpt>
      <trkpt lat="45.92597" lon="4.73623">
        <ele>173</ele>
        <time>2017-07-19T10:38:39Z</time>
      </trkpt>
      <trkpt lat="45.92592" lon="4.73624">
        <ele>173</ele>
        <time>2017-07-19T10:38:40Z</time>
      </trkpt>
      <trkpt lat="45.92586" lon="4.73624">
        <ele>172</ele>
        <time>2017-07-19T10:38:41Z</time>
      </trkpt>
      <trkpt lat="45.92581" lon="4.73625">
        <ele>173</ele>
        <time>2017-07-19T10:38:42Z</time>
      </trkpt>
      <trkpt lat="45.92576" lon="4.73626">
        <ele>173</ele>
        <time>2017-07-19T10:38:43Z</time>
      </trkpt>
      <trkpt lat="45.9257" lon="4.73626">
        <ele>173</ele>
        <time>2017-07-19T10:38:44Z</time>
      </trkpt>
      <trkpt lat="45.92563" lon="4.73626">
        <ele>173</ele>
        <time>2017-07-19T10:38:45Z</time>
      </trkpt>
      <trkpt lat="45.92559" lon="4.73627">
        <ele>173</ele>
        <time>2017-07-19T10:38:46Z</time>
      </trkpt>
      <trkpt lat="45.92554" lon="4.73627">
        <ele>173</ele>
        <time>2017-07-19T10:38:47Z</time>
      </trkpt>
      <trkpt lat="45.92548" lon="4.73627">
        <ele>173</ele>
        <time>2017-07-19T10:38:48Z</time>
      </trkpt>
      <trkpt lat="45.92543" lon="4.73629">
        <ele>173</ele>
        <time>2017-07-19T10:38:49Z</time>
      </trkpt>
      <trkpt lat="45.92539" lon="4.7363">
        <ele>173</ele>
        <time>2017-07-19T10:38:50Z</time>
      </trkpt>
      <trkpt lat="45.92532" lon="4.7363">
        <ele>173</ele>
        <time>2017-07-19T10:38:52Z</time>
      </trkpt>
      <trkpt lat="45.92529" lon="4.73632">
        <ele>173</ele>
        <time>2017-07-19T10:38:53Z</time>
      </trkpt>
      <trkpt lat="45.92522" lon="4.73633">
        <ele>173</ele>
        <time>2017-07-19T10:38:55Z</time>
      </trkpt>
      <trkpt lat="45.92519" lon="4.73634">
        <ele>173</ele>
        <time>2017-07-19T10:38:56Z</time>
      </trkpt>
      <trkpt lat="45.92513" lon="4.73635">
        <ele>173</ele>
        <time>2017-07-19T10:38:58Z</time>
      </trkpt>
      <trkpt lat="45.92509" lon="4.73636">
        <ele>174</ele>
        <time>2017-07-19T10:38:59Z</time>
      </trkpt>
      <trkpt lat="45.92501" lon="4.73636">
        <ele>174</ele>
        <time>2017-07-19T10:39:01Z</time>
      </trkpt>
      <trkpt lat="45.92497" lon="4.73636">
        <ele>174</ele>
        <time>2017-07-19T10:39:02Z</time>
      </trkpt>
      <trkpt lat="45.92489" lon="4.73635">
        <ele>174</ele>
        <time>2017-07-19T10:39:04Z</time>
      </trkpt>
      <trkpt lat="45.92485" lon="4.73635">
        <ele>174</ele>
        <time>2017-07-19T10:39:05Z</time>
      </trkpt>
      <trkpt lat="45.92477" lon="4.73633">
        <ele>174</ele>
        <time>2017-07-19T10:39:07Z</time>
      </trkpt>
      <trkpt lat="45.92472" lon="4.73634">
        <ele>174</ele>
        <time>2017-07-19T10:39:08Z</time>
      </trkpt>
      <trkpt lat="45.92468" lon="4.73642">
        <ele>174</ele>
        <time>2017-07-19T10:39:10Z</time>
      </trkpt>
      <trkpt lat="45.92467" lon="4.73647">
        <ele>174</ele>
        <time>2017-07-19T10:39:11Z</time>
      </trkpt>
      <trkpt lat="45.92464" lon="4.73659">
        <ele>174</ele>
        <time>2017-07-19T10:39:14Z</time>
      </trkpt>
      <trkpt lat="45.92464" lon="4.73664">
        <ele>174</ele>
        <time>2017-07-19T10:39:15Z</time>
      </trkpt>
      <trkpt lat="45.92463" lon="4.73675">
        <ele>174</ele>
        <time>2017-07-19T10:39:17Z</time>
      </trkpt>
      <trkpt lat="45.92464" lon="4.73681">
        <ele>174</ele>
        <time>2017-07-19T10:39:18Z</time>
      </trkpt>
      <trkpt lat="45.92464" lon="4.73692">
        <ele>174</ele>
        <time>2017-07-19T10:39:20Z</time>
      </trkpt>
      <trkpt lat="45.92463" lon="4.73697">
        <ele>174</ele>
        <time>2017-07-19T10:39:21Z</time>
      </trkpt>
      <trkpt lat="45.92462" lon="4.73703">
        <ele>174</ele>
        <time>2017-07-19T10:39:23Z</time>
      </trkpt>
      <trkpt lat="45.92461" lon="4.73705">
        <ele>174</ele>
        <time>2017-07-19T10:39:24Z</time>
      </trkpt>
      <trkpt lat="45.92457" lon="4.73708">
        <ele>174</ele>
        <time>2017-07-19T10:39:48.369Z</time>
      </trkpt>
    </trkseg>
  </trk>
</gpx>